# Wetter Temperatur Luftdruck Luftfeuchtigkeit Sichtweite Windgeschwindigkeit Windrichtung Zeit
1 Clear 26 1018 34 10000 7.72 360 12:56 22.04.2021
2 Clear 26 1018 34 10000 7.72 360 12:56 22.04.2021
3 Clear 25 1019 38 10000 6.69 10 12:37 22.04.2021
4 Clear 25 1019 38 10000 6.69 10 12:18 22.04.2021
5 Clouds 25 1020 38 10000 5.66 40 11:42 22.04.2021
6 Clouds 25 1020 38 10000 5.66 40 11:21 22.04.2021
7 Clouds 23 1020 46 10000 5.66 50 10:42 22.04.2021
8 Clouds 23 1020 46 10000 5.66 50 10:20 22.04.2021
9 Clouds 20 1020 60 10000 5.66 50 09:39 22.04.2021
10 Clouds 20 1020 60 10000 5.66 50 09:19 22.04.2021
11 Clouds 19 1020 68 10000 6.69 40 08:38 22.04.2021
12 Clouds 19 1020 68 10000 6.69 40 08:18 22.04.2021
13 Clouds 18 1020 72 10000 6.17 30 07:37 22.04.2021
14 Clouds 18 1020 77 10000 6.17 30 07:18 22.04.2021
15 Clouds 17 1019 72 10000 7.72 30 06:22 22.04.2021
16 Clouds 16 1019 77 10000 7.2 20 05:24 22.04.2021
17 Clouds 16 1018 77 10000 5.14 10 03:25 22.04.2021
18 Clear 15 1019 77 10000 6.69 30 00:45 22.04.2021
19 Clear 17 1019 72 10000 7.72 30 23:44 21.04.2021
20 Clear 17 1019 72 10000 8.23 30 23:23 21.04.2021
21 Clear 17 1019 72 10000 9.26 30 22:41 21.04.2021
22 Clear 18 1019 68 10000 9.26 30 22:23 21.04.2021
23 Clear 18 1019 63 10000 9.26 30 21:42 21.04.2021
24 Clear 18 1019 63 10000 9.26 20 21:23 21.04.2021
25 Clear 18 1019 63 10000 9.26 20 21:23 21.04.2021
26 Clear 19 1019 59 10000 9.77 30 20:42 21.04.2021
27 Clear 20 1018 52 10000 9.26 30 20:19 21.04.2021
28 Clear 20 1018 52 10000 10.29 30 19:42 21.04.2021
29 Clear 20 1017 49 10000 10.29 30 19:23 21.04.2021
30 Clear 22 1017 43 10000 10.29 30 18:45 21.04.2021
31 Clear 23 1017 40 10000 9.77 30 18:26 21.04.2021
32 Clear 25 1016 33 10000 9.26 20 17:47 21.04.2021
33 Clear 25 1016 33 10000 9.26 20 17:24 21.04.2021
34 Clear 27 1016 32 10000 8.75 20 16:48 21.04.2021
35 Clear 27 1016 28 10000 8.23 20 15:57 21.04.2021
36 Clear 27 1016 28 10000 8.23 20 15:39 21.04.2021
37 Clear 26 1016 29 10000 8.23 10 14:54 21.04.2021
38 Clear 26 1016 29 10000 8.23 10 14:36 21.04.2021
39 Clear 26 1016 29 10000 8.23 10 14:18 21.04.2021
40 Clear 26 1017 27 10000 8.23 20 13:40 21.04.2021
41 Clear 26 1017 27 10000 8.23 20 13:19 21.04.2021
42 Clear 25 1017 29 10000 7.72 10 12:30 21.04.2021
43 Clear 23 1018 35 10000 8.23 10 11:49 21.04.2021
44 Clear 23 1018 35 10000 8.23 10 11:29 21.04.2021
45 Clear 22 1018 40 10000 7.72 10 10:51 21.04.2021
46 Clear 22 1018 40 10000 7.72 10 10:33 21.04.2021
47 Clear 21 1018 49 10000 7.72 20 09:44 21.04.2021
48 Clear 20 1018 55 10000 7.72 20 08:56 21.04.2021
49 Clear 19 1018 55 10000 7.72 20 08:38 21.04.2021
50 Clear 18 1018 63 10000 7.72 20 08:19 21.04.2021
51 Clear 17 1018 68 10000 7.72 30 07:31 21.04.2021
52 Clear 17 1017 72 10000 7.2 10 06:56 21.04.2021
53 Clear 16 1016 77 10000 7.2 30 05:20 21.04.2021
54 Clear 17 1017 68 10000 6.17 20 00:58 21.04.2021
55 Clear 18 1017 63 10000 6.69 20 23:50 20.04.2021
56 Clear 18 1017 59 10000 7.72 30 23:25 20.04.2021
57 Clear 18 1017 59 10000 6.69 30 22:41 20.04.2021
58 Clear 20 1017 52 10000 7.2 20 22:21 20.04.2021
59 Clear 20 1017 55 10000 7.2 20 21:47 20.04.2021
60 Clear 20 1016 49 10000 8.23 10 21:25 20.04.2021
61 Clear 21 1016 49 10000 8.23 10 20:44 20.04.2021
62 Clear 22 1015 46 10000 8.75 360 20:24 20.04.2021
63 Clear 22 1015 46 10000 9.26 360 19:55 20.04.2021
64 Clear 22 1015 46 10000 9.26 360 19:37 20.04.2021
65 Clear 23 1014 43 10000 8.75 360 19:18 20.04.2021
66 Clear 24 1014 41 10000 8.75 360 18:35 20.04.2021
67 Clear 24 1014 41 10000 8.75 360 18:35 20.04.2021
68 Clear 26 1013 36 10000 8.75 360 17:46 20.04.2021
69 Clear 28 1013 34 10000 8.75 360 17:27 20.04.2021
70 Clear 28 1013 32 10000 8.75 350 16:48 20.04.2021
71 Clear 29 1012 32 10000 8.75 360 15:53 20.04.2021
72 Clear 29 1012 30 10000 8.23 350 15:29 20.04.2021
73 Clear 29 1012 30 10000 7.72 360 14:58 20.04.2021
74 Clear 29 1013 32 10000 7.72 360 14:33 20.04.2021
75 Clear 29 1013 32 10000 7.72 350 13:48 20.04.2021
76 Clear 29 1013 32 10000 6.69 350 13:22 20.04.2021
77 Clear 28 1013 34 10000 6.69 360 12:41 20.04.2021
78 Clear 28 1013 36 10000 7.2 10 12:20 20.04.2021
79 Clear 30 1014 36 10000 6.17 10 11:44 20.04.2021
80 Clear 26 1014 41 10000 6.69 10 11:21 20.04.2021
81 Clear 26 1014 41 10000 7.2 10 10:43 20.04.2021
82 Clear 26 1014 41 10000 7.2 10 10:43 20.04.2021
83 Clear 25 1014 44 10000 6.69 10 10:23 20.04.2021
84 Clear 24 1014 53 10000 6.17 10 09:28 20.04.2021
85 Clear 23 1014 60 10000 5.66 360 08:55 20.04.2021
86 Clear 21 1014 68 10000 5.66 360 08:21 20.04.2021
87 Clear 21 1014 68 10000 5.66 360 07:47 20.04.2021
88 Clear 20 1013 73 10000 4.63 350 06:45 20.04.2021
89 Clear 20 1012 77 10000 4.63 330 05:38 20.04.2021
90 Clouds 20 1011 73 6000 4.63 300 04:41 20.04.2021
91 Clouds 24 1011 64 6000 6.17 280 01:48 20.04.2021
92 Clouds 25 1011 47 6000 6.69 290 00:37 20.04.2021
93 Clouds 29 1010 26 6000 4.63 270 23:36 19.04.2021
94 Clouds 32 1009 19 6000 4.63 140 22:57 19.04.2021
95 Clouds 30 1009 19 6000 4.12 150 22:33 19.04.2021
96 Clear 33 1010 16 10000 4.12 150 21:51 19.04.2021
97 Clear 32 1010 16 10000 3.6 140 21:33 19.04.2021
98 Clear 34 1009 16 10000 3.6 160 20:55 19.04.2021
99 Clear 34 1009 15 10000 3.6 170 20:37 19.04.2021
100 Clear 34 1009 15 10000 3.6 170 20:19 19.04.2021
101 Clear 36 1008 13 10000 2.57 180 19:40 19.04.2021
102 Clear 35 1008 13 10000 2.57 180 19:22 19.04.2021
103 Clear 36 1008 14 10000 2.57 200 18:46 19.04.2021
104 Clear 37 1008 13 10000 3.6 240 18:22 19.04.2021
105 Clear 38 1008 12 10000 5.66 230 17:54 19.04.2021
106 Clear 39 1008 11 10000 6.17 250 17:29 19.04.2021
107 Clear 39 1008 11 10000 6.17 240 16:51 19.04.2021
108 Clear 39 1008 11 10000 7.2 230 16:33 19.04.2021
109 Clear 39 1008 11 10000 7.2 230 16:33 19.04.2021
110 Clear 40 1008 11 10000 7.2 230 15:55 19.04.2021
111 Clear 40 1008 11 10000 6.69 230 15:30 19.04.2021
112 Clouds 41 1009 10 6000 6.17 230 14:55 19.04.2021
113 Clouds 41 1009 10 6000 6.17 230 14:35 19.04.2021
114 Clouds 41 1009 11 6000 8.75 210 13:54 19.04.2021
115 Clouds 41 1010 11 6000 8.23 220 13:30 19.04.2021
116 Clouds 41 1010 11 6000 8.23 210 12:56 19.04.2021
117 Clouds 41 1010 11 6000 8.75 210 12:38 19.04.2021
118 Clouds 41 1010 11 6000 8.75 210 12:19 19.04.2021
119 Sand 40 1010 10 4000 7.2 190 11:51 19.04.2021
120 Dust 40 1011 11 4000 4.12 190 11:20 19.04.2021
121 Dust 40 1011 12 2000 4.12 180 10:44 19.04.2021
122 Dust 40 1011 12 2000 1.03 210 10:20 19.04.2021
123 Dust 38 1011 13 2000 2.57 270 09:48 19.04.2021
124 Dust 39 1011 13 2000 3.09 290 09:26 19.04.2021
125 Dust 36 1011 16 3000 2.57 280 08:45 19.04.2021
126 Clouds 39 1011 10 6000 3.6 140 08:22 19.04.2021
127 Clouds 34 1011 16 6000 4.12 150 07:45 19.04.2021
128 Clouds 32 1011 19 6000 5.66 140 07:18 19.04.2021
129 Haze 28 1011 21 3000 5.66 140 05:41 19.04.2021
130 Clouds 28 1011 24 6000 2.06 260 02:34 19.04.2021
131 Clear 30 1012 19 10000 6.69 120 00:45 19.04.2021
132 Clear 31 1013 22 10000 7.2 100 23:22 18.04.2021
133 Clear 31 1013 22 10000 6.69 100 22:58 18.04.2021
134 Clear 31 1013 22 10000 6.69 100 22:40 18.04.2021
135 Clear 31 1013 20 10000 7.2 100 22:22 18.04.2021
136 Clear 31 1013 23 10000 7.72 90 21:29 18.04.2021
137 Clear 31 1013 30 10000 6.69 80 20:55 18.04.2021
138 Clear 31 1013 30 10000 6.69 80 20:55 18.04.2021
139 Clear 31 1013 30 10000 6.69 80 20:37 18.04.2021
140 Clear 32 1013 31 10000 5.66 70 20:19 18.04.2021
141 Clear 32 1013 35 10000 6.17 70 19:44 18.04.2021
142 Clear 32 1012 35 10000 7.2 50 19:21 18.04.2021
143 Clear 34 1012 31 10000 7.2 40 18:46 18.04.2021
144 Clear 38 1011 11 10000 4.12 330 18:26 18.04.2021
145 Clear 39 1011 7 10000 4.12 290 17:49 18.04.2021
146 Clear 39 1011 8 10000 4.63 280 17:29 18.04.2021
147 Clear 40 1011 7 10000 5.66 260 16:53 18.04.2021
148 Clear 41 1011 6 10000 4.12 260 16:35 18.04.2021
149 Clear 41 1011 6 10000 4.63 270 15:51 18.04.2021
150 Clear 40 1011 6 10000 4.63 230 15:28 18.04.2021
151 Clear 41 1011 6 10000 5.66 220 14:58 18.04.2021
152 Clear 41 1011 7 10000 5.14 220 14:39 18.04.2021
153 Clear 42 1011 7 10000 5.14 220 14:18 18.04.2021
154 Clear 42 1012 6 6000 5.66 210 13:44 18.04.2021
155 Sand 40 1012 7 4000 6.17 230 13:24 18.04.2021
156 Dust 37 1013 18 2000 4.12 290 12:35 18.04.2021
157 Dust 36 1013 20 2000 4.63 300 11:51 18.04.2021
158 Dust 36 1013 20 2000 4.12 290 11:27 18.04.2021
159 Dust 36 1013 20 2000 4.12 280 10:54 18.04.2021
160 Dust 36 1013 12 4000 3.6 160 10:35 18.04.2021
161 Dust 37 1013 11 4000 4.12 140 09:58 18.04.2021
162 Dust 37 1013 11 4000 4.12 140 09:39 18.04.2021
163 Dust 37 1013 11 4000 4.12 140 09:39 18.04.2021
164 Clear 36 1013 8 6000 6.17 140 09:19 18.04.2021
165 Clear 32 1013 11 6000 7.72 130 08:40 18.04.2021
166 Clear 29 1013 18 6000 5.14 120 08:19 18.04.2021
167 Clear 26 1013 24 10000 4.61 146 07:39 18.04.2021
168 Clear 24 1013 22 10000 1.03 140 05:48 18.04.2021
169 Clear 23 1013 23 10000 1.03 320 05:26 18.04.2021
170 Clear 26 1013 19 10000 8.23 90 03:37 18.04.2021
171 Clear 24 1014 23 10000 9.26 80 02:22 18.04.2021
172 Clear 23 1015 40 10000 7.2 80 00:41 18.04.2021
173 Clear 23 1015 46 10000 5.14 70 23:45 17.04.2021
174 Clear 23 1015 49 10000 5.66 40 23:18 17.04.2021
175 Clear 23 1015 49 10000 5.66 40 22:41 17.04.2021
176 Clear 23 1016 46 10000 5.66 40 22:20 17.04.2021
177 Clear 24 1015 43 10000 7.2 40 21:39 17.04.2021
178 Clear 25 1015 38 10000 6.17 40 21:21 17.04.2021
179 Clear 28 1014 26 10000 6.69 30 20:28 17.04.2021
180 Clear 29 1014 24 10000 6.69 20 19:46 17.04.2021
181 Clear 30 1013 23 10000 6.69 20 19:23 17.04.2021
182 Clear 31 1013 22 10000 7.2 20 18:58 17.04.2021
183 Clear 31 1013 22 10000 7.2 20 18:37 17.04.2021
184 Clear 31 1013 22 10000 7.2 20 18:37 17.04.2021
185 Clear 33 1013 18 10000 6.69 20 18:18 17.04.2021
186 Clear 34 1012 15 10000 6.17 10 17:41 17.04.2021
187 Clear 34 1012 13 10000 5.66 40 16:55 17.04.2021
188 Clear 34 1012 13 10000 5.66 40 16:29 17.04.2021
189 Clear 35 1012 13 10000 5.14 30 15:56 17.04.2021
190 Clear 35 1012 11 10000 5.66 30 14:51 17.04.2021
191 Clear 34 1013 12 10000 6.69 40 14:33 17.04.2021
192 Clear 34 1013 12 10000 7.2 30 13:50 17.04.2021
193 Clear 34 1013 10 10000 7.2 40 13:27 17.04.2021
194 Clear 33 1013 11 10000 7.2 40 12:42 17.04.2021
195 Clear 33 1014 11 10000 7.72 50 12:22 17.04.2021
196 Clear 32 1014 12 10000 7.2 50 11:50 17.04.2021
197 Clear 30 1014 13 10000 8.75 60 11:31 17.04.2021
198 Clear 31 1015 16 10000 8.75 70 10:47 17.04.2021
199 Clear 30 1015 16 10000 8.75 70 10:29 17.04.2021
200 Clear 27 1015 18 10000 6.17 40 09:44 17.04.2021
201 Clear 27 1015 19 10000 7.2 50 08:42 17.04.2021
202 Clear 24 1015 29 10000 4.63 30 08:24 17.04.2021
203 Clear 20 1014 40 10000 3.09 30 07:20 17.04.2021
204 Clear 17 1014 55 10000 3.09 20 03:57 17.04.2021
205 Clear 17 1014 55 10000 3.6 30 03:38 17.04.2021
206 Clear 21 1015 37 10000 4.63 60 00:49 17.04.2021
207 Clear 21 1015 37 10000 4.63 60 00:29 17.04.2021
208 Clear 22 1015 30 10000 4.63 60 23:52 16.04.2021
209 Clear 22 1015 30 10000 4.63 60 23:29 16.04.2021
210 Clear 22 1015 33 10000 4.63 50 22:51 16.04.2021
211 Clear 23 1015 35 10000 6.17 50 22:22 16.04.2021
212 Clear 23 1015 35 10000 5.14 50 21:54 16.04.2021
213 Clear 23 1015 35 10000 5.14 50 21:35 16.04.2021
214 Clear 25 1014 31 10000 6.17 40 20:50 16.04.2021
215 Clear 25 1014 27 10000 6.17 40 20:29 16.04.2021
216 Clear 27 1014 24 10000 6.69 50 19:55 16.04.2021
217 Clear 27 1014 24 10000 6.69 50 19:31 16.04.2021
218 Clear 29 1013 21 10000 7.72 30 18:46 16.04.2021
219 Clear 30 1013 21 10000 7.72 30 18:21 16.04.2021
220 Clear 31 1013 22 10000 7.72 10 17:46 16.04.2021
221 Clear 32 1013 19 10000 7.72 10 17:19 16.04.2021
222 Clear 32 1013 19 10000 7.72 20 16:44 16.04.2021
223 Clear 32 1013 18 10000 7.72 10 16:25 16.04.2021
224 Clouds 32 1012 18 10000 6.69 20 15:51 16.04.2021
225 Clouds 33 1013 18 10000 6.69 30 15:23 16.04.2021
226 Clouds 32 1013 18 10000 6.69 30 14:43 16.04.2021
227 Clouds 32 1013 18 10000 7.2 20 14:20 16.04.2021
228 Clouds 32 1013 18 10000 6.17 30 13:50 16.04.2021
229 Clouds 32 1014 20 10000 5.66 40 13:21 16.04.2021
230 Clouds 31 1014 18 10000 6.69 40 12:49 16.04.2021
231 Clouds 30 1014 19 10000 7.72 50 12:29 16.04.2021
232 Clouds 29 1014 18 10000 7.2 40 11:58 16.04.2021
233 Clouds 29 1014 20 10000 5.66 40 11:27 16.04.2021
234 Clouds 28 1015 23 10000 4.63 10 10:56 16.04.2021
235 Clouds 28 1015 23 10000 4.63 10 10:37 16.04.2021
236 Clouds 26 1014 29 10000 4.63 10 10:19 16.04.2021
237 Clouds 26 1015 29 10000 4.63 340 09:43 16.04.2021
238 Clouds 27 1014 18 10000 6.17 30 09:20 16.04.2021
239 Clouds 26 1014 19 10000 4.12 40 08:41 16.04.2021
240 Clouds 23 1014 27 10000 4.12 40 08:18 16.04.2021
241 Clouds 18 1014 55 10000 3.6 40 07:37 16.04.2021
242 Clouds 17 1014 63 10000 3.6 40 06:59 16.04.2021
243 Clouds 16 1014 59 10000 4.63 40 06:18 16.04.2021
244 Clear 17 1013 51 10000 4.63 50 04:23 16.04.2021
245 Clear 18 1015 72 10000 3.6 60 01:37 16.04.2021
246 Clear 17 1015 72 10000 4.12 40 00:41 16.04.2021
247 Clear 18 1015 68 10000 4.63 30 00:20 16.04.2021
248 Clear 19 1015 68 10000 5.14 40 23:42 15.04.2021
249 Clear 19 1016 59 10000 5.66 30 23:23 15.04.2021
250 Clear 20 1016 60 10000 5.66 20 22:46 15.04.2021
251 Clear 20 1015 56 10000 6.17 40 22:23 15.04.2021
252 Clear 20 1015 56 10000 6.17 30 21:43 15.04.2021
253 Clear 22 1015 49 10000 6.17 30 21:24 15.04.2021
254 Clear 22 1015 46 10000 6.69 40 20:45 15.04.2021
255 Clear 23 1015 40 10000 7.72 30 20:25 15.04.2021
256 Clear 24 1015 38 10000 7.72 30 19:47 15.04.2021
257 Clear 25 1014 36 10000 6.69 30 19:27 15.04.2021
258 Clear 26 1014 29 10000 7.72 30 18:44 15.04.2021
259 Clear 27 1014 26 10000 7.2 30 18:21 15.04.2021
260 Clear 28 1014 26 10000 6.17 20 17:55 15.04.2021
261 Clear 28 1014 26 10000 6.17 20 17:37 15.04.2021
262 Clear 29 1014 24 10000 6.69 40 17:18 15.04.2021
263 Clear 29 1014 24 10000 6.17 20 16:42 15.04.2021
264 Clear 29 1014 24 10000 5.66 20 16:22 15.04.2021
265 Clear 29 1014 24 10000 5.66 10 15:46 15.04.2021
266 Clear 29 1014 23 10000 6.17 20 15:26 15.04.2021
267 Clear 28 1015 21 10000 5.66 10 14:42 15.04.2021
268 Clear 28 1015 23 10000 4.63 30 14:23 15.04.2021
269 Clear 26 1016 29 10000 5.14 40 13:46 15.04.2021
270 Clear 26 1016 29 10000 5.14 40 13:46 15.04.2021
271 Clear 27 1015 26 10000 6.17 30 13:23 15.04.2021
272 Clear 26 1016 29 10000 5.14 40 12:46 15.04.2021
273 Clear 26 1016 31 10000 6.17 40 12:24 15.04.2021
274 Clear 24 1016 33 10000 6.69 50 11:47 15.04.2021
275 Clear 24 1017 35 10000 6.17 50 11:25 15.04.2021
276 Clear 23 1017 40 10000 5.14 40 10:57 15.04.2021
277 Clear 21 1017 49 10000 5.66 30 10:28 15.04.2021
278 Clear 20 1017 49 10000 6.17 40 09:50 15.04.2021
279 Clear 19 1017 55 10000 6.17 40 09:28 15.04.2021
280 Clear 19 1017 59 10000 6.17 40 08:49 15.04.2021
281 Clear 18 1017 63 10000 5.14 60 08:24 15.04.2021
282 Clear 15 1016 77 10000 6.69 60 07:30 15.04.2021
283 Clear 15 1016 77 10000 4.63 60 06:55 15.04.2021
284 Clear 14 1016 77 10000 4.63 60 06:33 15.04.2021
285 Clear 13 1017 82 10000 3.6 50 04:54 15.04.2021
286 Clear 14 1017 77 10000 4.12 40 02:58 15.04.2021
287 Clear 16 1017 67 10000 6.17 40 23:49 14.04.2021
288 Clear 16 1017 63 10000 6.69 40 23:29 14.04.2021
289 Clear 16 1017 63 10000 7.2 40 22:47 14.04.2021
290 Clear 17 1018 59 10000 7.72 40 22:28 14.04.2021
291 Clear 17 1018 59 10000 7.2 40 21:56 14.04.2021
292 Clear 17 1018 59 10000 7.2 40 21:37 14.04.2021
293 Clear 18 1018 55 10000 8.23 30 21:18 14.04.2021
294 Clear 19 1017 48 10000 8.75 30 20:36 14.04.2021
295 Clear 20 1017 42 10000 8.75 30 20:18 14.04.2021
296 Clear 21 1017 43 10000 8.75 30 19:38 14.04.2021
297 Clear 22 1017 37 10000 8.23 30 19:18 14.04.2021
298 Clear 23 1016 35 10000 8.75 30 18:49 14.04.2021
299 Clear 24 1016 31 10000 8.75 30 18:19 14.04.2021
300 Clear 25 1016 29 10000 7.72 30 17:51 14.04.2021
301 Clear 26 1016 29 10000 7.72 30 17:24 14.04.2021
302 Clear 26 1016 27 10000 6.17 20 16:43 14.04.2021
303 Clear 26 1016 25 10000 7.72 30 16:22 14.04.2021
304 Clear 27 1016 25 10000 7.2 20 15:40 14.04.2021
305 Clear 25 1016 25 10000 7.2 20 15:22 14.04.2021
306 Clear 25 1017 25 10000 7.2 30 14:42 14.04.2021
307 Clear 25 1017 25 10000 7.2 30 14:22 14.04.2021
308 Clear 25 1017 27 10000 7.2 20 13:48 14.04.2021
309 Clear 25 1018 27 10000 7.72 40 12:54 14.04.2021
310 Clear 24 1018 27 10000 7.72 40 12:32 14.04.2021
311 Clear 24 1019 28 10000 7.72 40 11:42 14.04.2021
312 Clear 22 1019 35 10000 9.26 50 11:24 14.04.2021
313 Clear 21 1019 37 10000 7.72 30 10:35 14.04.2021
314 Clear 19 1019 48 10000 8.23 60 09:59 14.04.2021
315 Clear 19 1019 48 10000 8.23 60 09:41 14.04.2021
316 Clear 18 1019 52 10000 9.26 50 09:18 14.04.2021
317 Clear 17 1019 55 10000 9.26 50 08:33 14.04.2021
318 Clear 15 1019 67 10000 7.72 60 07:53 14.04.2021
319 Clear 13 1019 72 10000 5.14 50 06:43 14.04.2021
320 Clear 13 1019 72 10000 5.14 50 06:22 14.04.2021
321 Clear 13 1019 67 10000 4.63 30 03:44 14.04.2021
322 Clear 14 1019 67 10000 5.66 40 01:40 14.04.2021
323 Clear 15 1019 63 10000 7.2 60 00:34 14.04.2021
324 Clear 15 1019 63 10000 5.66 40 23:39 13.04.2021
325 Clear 16 1020 59 10000 8.23 50 22:56 13.04.2021
326 Clear 16 1020 59 10000 8.23 50 22:37 13.04.2021
327 Clear 16 1020 55 10000 9.26 50 22:18 13.04.2021
328 Clear 16 1020 55 10000 10.8 50 21:44 13.04.2021
329 Clear 17 1020 51 10000 8.75 40 21:23 13.04.2021
330 Clear 18 1019 48 10000 8.75 30 20:40 13.04.2021
331 Clear 18 1019 48 10000 8.75 40 20:20 13.04.2021
332 Clear 19 1019 45 10000 8.75 40 19:40 13.04.2021
333 Clear 20 1018 42 10000 7.72 30 19:22 13.04.2021
334 Clear 21 1018 40 10000 6.69 10 18:36 13.04.2021
335 Clear 23 1018 33 10000 5.14 360 17:47 13.04.2021
336 Clear 23 1018 33 10000 5.66 20 17:23 13.04.2021
337 Clear 24 1018 33 10000 5.14 10 16:59 13.04.2021
338 Clear 24 1018 33 10000 5.14 10 16:41 13.04.2021
339 Clear 23 1018 33 10000 6.17 360 16:20 13.04.2021
340 Clear 24 1018 31 10000 5.14 350 15:40 13.04.2021
341 Clear 23 1018 31 10000 4.63 30 15:18 13.04.2021
342 Clear 24 1018 33 10000 3.6 40 14:41 13.04.2021
343 Clear 24 1018 33 10000 3.6 40 14:41 13.04.2021
344 Clear 22 1019 33 10000 5.14 30 14:18 13.04.2021
345 Clear 23 1019 33 10000 4.12 40 13:45 13.04.2021
346 Clear 22 1019 35 10000 3.6 30 13:24 13.04.2021
347 Clear 22 1020 37 10000 4.63 40 12:55 13.04.2021
348 Clear 20 1020 37 10000 5.66 40 12:24 13.04.2021
349 Clear 19 1020 42 10000 5.14 40 11:52 13.04.2021
350 Clear 18 1021 45 10000 6.69 50 11:29 13.04.2021
351 Clear 17 1021 45 10000 7.72 50 10:45 13.04.2021
352 Clear 17 1021 45 10000 7.72 50 10:21 13.04.2021
353 Clear 17 1021 48 10000 7.2 30 09:56 13.04.2021
354 Clear 17 1021 51 10000 7.72 40 09:36 13.04.2021
355 Clear 15 1021 55 10000 7.2 30 08:54 13.04.2021
356 Clear 16 1021 55 10000 7.2 30 08:36 13.04.2021
357 Clear 14 1020 62 10000 5.14 40 08:18 13.04.2021
358 Clear 12 1020 71 10000 2.57 40 07:36 13.04.2021
359 Clear 10 1020 76 10000 3.09 40 06:31 13.04.2021
360 Clear 10 1019 71 10000 3.6 50 04:47 13.04.2021
361 Clear 13 1020 67 10000 4.63 30 01:39 13.04.2021
362 Clear 14 1020 62 10000 4.63 40 00:19 13.04.2021
363 Clear 14 1021 62 10000 5.14 30 23:44 12.04.2021
364 Clear 14 1021 62 10000 5.66 30 23:24 12.04.2021
365 Clear 15 1021 55 10000 7.2 30 22:38 12.04.2021
366 Clear 15 1021 58 10000 7.2 30 21:57 12.04.2021
367 Clear 16 1021 51 10000 7.72 30 21:38 12.04.2021
368 Clear 16 1021 51 10000 7.72 30 21:19 12.04.2021
369 Clear 16 1020 51 10000 8.23 30 20:38 12.04.2021
370 Clear 17 1020 48 10000 8.75 30 20:20 12.04.2021
371 Clear 19 1019 39 10000 5.66 350 19:43 12.04.2021
372 Clear 19 1019 42 10000 6.17 350 19:23 12.04.2021
373 Clear 20 1019 40 10000 6.17 350 18:59 12.04.2021
374 Clear 20 1019 40 10000 5.14 350 18:40 12.04.2021
375 Clear 20 1019 40 10000 5.14 350 18:22 12.04.2021
376 Clear 20 1018 40 10000 5.66 340 17:43 12.04.2021
377 Clear 20 1018 40 10000 5.66 340 17:43 12.04.2021
378 Clear 22 1018 35 10000 5.66 340 17:22 12.04.2021
379 Clouds 22 1018 35 10000 4.12 350 16:46 12.04.2021
380 Clouds 22 1018 35 10000 4.63 310 16:27 12.04.2021
381 Clouds 21 1018 37 10000 3.6 310 15:48 12.04.2021
382 Clouds 21 1018 37 10000 4.63 320 15:27 12.04.2021
383 Clouds 21 1019 37 10000 4.63 330 14:50 12.04.2021
384 Clouds 21 1019 37 10000 5.14 310 14:30 12.04.2021
385 Clouds 21 1019 37 10000 5.14 310 14:30 12.04.2021
386 Clouds 20 1019 40 10000 4.12 330 13:46 12.04.2021
387 Clouds 20 1019 40 10000 5.66 330 13:27 12.04.2021
388 Clouds 19 1020 42 10000 3.09 340 12:48 12.04.2021
389 Clouds 18 1020 42 10000 3.6 330 12:26 12.04.2021
390 Clouds 19 1020 45 10000 1.54 310 11:59 12.04.2021
391 Clouds 18 1020 45 10000 1.54 330 11:20 12.04.2021
392 Clouds 16 1021 48 10000 4.63 350 10:43 12.04.2021
393 Clouds 16 1021 48 10000 4.63 350 10:23 12.04.2021
394 Clouds 16 1021 48 10000 5.66 350 09:46 12.04.2021
395 Clouds 15 1021 48 10000 4.12 350 09:18 12.04.2021
396 Clouds 14 1021 51 10000 4.12 350 08:36 12.04.2021
397 Clear 14 1021 55 10000 2.06 330 07:40 12.04.2021
398 Clear 12 1021 62 10000 2.57 340 07:20 12.04.2021
399 Clear 12 1020 66 10000 2.57 340 06:25 12.04.2021
400 Clear 12 1020 66 10000 2.57 330 05:41 12.04.2021
401 Clear 12 1021 58 10000 3.09 330 01:40 12.04.2021
402 Clear 13 1022 58 10000 3.6 320 00:26 12.04.2021
403 Clear 13 1022 58 10000 2.57 300 23:49 11.04.2021
404 Clear 14 1022 54 10000 4.12 310 23:30 11.04.2021
405 Clear 14 1022 58 10000 4.12 310 22:48 11.04.2021
406 Clear 15 1022 55 10000 5.14 310 22:26 11.04.2021
407 Clear 15 1022 55 10000 5.14 310 21:50 11.04.2021
408 Clear 15 1021 55 10000 5.66 330 21:30 11.04.2021
409 Clear 15 1021 55 10000 5.66 330 21:30 11.04.2021
410 Clouds 16 1021 51 10000 6.69 330 20:58 11.04.2021
411 Clouds 17 1021 51 10000 6.69 330 20:31 11.04.2021
412 Clouds 17 1020 45 10000 6.17 330 19:58 11.04.2021
413 Clouds 17 1020 45 10000 6.17 330 19:39 11.04.2021
414 Clouds 18 1020 42 10000 5.66 320 19:19 11.04.2021
415 Clouds 18 1020 42 10000 5.66 320 19:19 11.04.2021
416 Clouds 18 1019 45 10000 6.69 330 18:45 11.04.2021
417 Clouds 19 1019 39 10000 5.14 330 18:26 11.04.2021
418 Clouds 20 1019 34 10000 5.66 310 17:49 11.04.2021
419 Clouds 21 1019 35 10000 5.14 320 17:28 11.04.2021
420 Clouds 21 1019 35 10000 5.14 310 16:52 11.04.2021
421 Clouds 21 1019 35 10000 5.14 300 16:27 11.04.2021
422 Clouds 22 1019 32 10000 4.12 310 15:58 11.04.2021
423 Clouds 21 1019 35 10000 4.12 320 15:38 11.04.2021
424 Clouds 21 1019 35 10000 4.12 320 15:20 11.04.2021
425 Clouds 22 1019 30 10000 2.06 280 14:47 11.04.2021
426 Clouds 20 1019 37 10000 4.12 300 14:18 11.04.2021
427 Clouds 20 1019 37 10000 5.14 300 13:39 11.04.2021
428 Clouds 19 1020 39 10000 4.63 290 13:21 11.04.2021
429 Clouds 18 1020 42 10000 3.6 290 12:23 11.04.2021
430 Clouds 18 1020 42 10000 4.63 310 11:53 11.04.2021
431 Clouds 17 1021 45 10000 3.6 270 11:31 11.04.2021
432 Clouds 17 1021 48 10000 3.09 310 10:56 11.04.2021
433 Clouds 15 1021 48 10000 3.09 290 10:38 11.04.2021
434 Clouds 15 1021 48 10000 3.09 290 10:20 11.04.2021
435 Clouds 16 1021 48 10000 4.63 290 09:37 11.04.2021
436 Clouds 16 1021 48 10000 4.63 290 09:19 11.04.2021
437 Clouds 14 1021 51 10000 5.14 290 08:31 11.04.2021
438 Clear 13 1020 51 10000 3.6 290 07:37 11.04.2021
439 Clear 12 1020 58 10000 3.09 290 07:18 11.04.2021
440 Clear 12 1019 58 10000 3.09 280 05:44 11.04.2021
441 Clear 12 1019 58 10000 4.12 290 05:21 11.04.2021
442 Clear 12 1019 58 10000 3.09 290 04:35 11.04.2021
443 Clear 12 1019 58 10000 5.14 300 02:58 11.04.2021
444 Clear 13 1020 50 10000 5.14 280 00:40 11.04.2021
445 Clear 13 1020 50 10000 5.14 280 00:40 11.04.2021
446 Clear 13 1020 50 10000 5.14 290 23:52 10.04.2021
447 Clear 13 1021 50 10000 5.66 310 23:30 10.04.2021
448 Clear 13 1020 50 10000 6.17 300 22:51 10.04.2021
449 Clear 13 1021 50 10000 5.14 300 22:25 10.04.2021
450 Clear 13 1020 50 10000 5.66 300 21:51 10.04.2021
451 Clear 13 1020 47 10000 6.17 310 21:23 10.04.2021
452 Clear 14 1020 47 10000 6.17 320 20:53 10.04.2021
453 Clear 14 1020 44 10000 6.69 310 20:32 10.04.2021
454 Clear 14 1019 44 10000 6.69 320 19:46 10.04.2021
455 Clear 14 1019 44 10000 6.69 320 19:46 10.04.2021
456 Clear 15 1019 38 10000 7.72 320 19:27 10.04.2021
457 Clear 15 1019 38 10000 7.2 310 18:54 10.04.2021
458 Clear 18 1018 29 10000 8.23 310 18:35 10.04.2021
459 Clear 18 1017 34 10000 6.69 300 17:54 10.04.2021
460 Clear 18 1017 34 10000 6.69 300 17:34 10.04.2021
461 Clear 19 1017 32 10000 7.72 310 16:31 10.04.2021
462 Clear 19 1017 32 10000 7.2 300 15:56 10.04.2021
463 Clear 19 1017 32 10000 7.2 300 15:35 10.04.2021
464 Clouds 20 1017 28 10000 7.72 290 14:50 10.04.2021
465 Clouds 19 1017 30 10000 8.75 290 14:28 10.04.2021
466 Clouds 20 1017 30 10000 8.75 290 13:47 10.04.2021
467 Clouds 19 1018 30 10000 8.23 290 13:28 10.04.2021
468 Clouds 18 1018 34 10000 6.69 280 12:38 10.04.2021
469 Clouds 18 1018 36 10000 7.2 280 11:59 10.04.2021
470 Clouds 18 1018 36 10000 7.2 280 11:41 10.04.2021
471 Clouds 16 1018 36 10000 5.66 300 11:18 10.04.2021
472 Clouds 16 1018 39 10000 5.66 300 10:42 10.04.2021
473 Clouds 15 1019 38 10000 6.69 300 10:23 10.04.2021
474 Clouds 15 1018 44 10000 5.14 300 09:30 10.04.2021
475 Clouds 15 1018 44 10000 7.2 290 08:59 10.04.2021
476 Clouds 14 1018 47 10000 7.2 290 08:31 10.04.2021
477 Clouds 13 1018 44 10000 6.17 290 07:54 10.04.2021
478 Clouds 12 1018 54 10000 6.17 290 07:25 10.04.2021
479 Clouds 12 1018 58 10000 3.6 290 06:27 10.04.2021
480 Clouds 12 1017 82 10000 5.14 310 04:49 10.04.2021
481 Clouds 13 1017 58 10000 5.14 310 03:19 10.04.2021
482 Clouds 12 1017 58 10000 5.14 310 02:42 10.04.2021
483 Clouds 13 1018 58 10000 6.17 320 00:59 10.04.2021
484 Clouds 13 1018 58 10000 6.17 320 00:30 10.04.2021
485 Clouds 13 1018 62 10000 6.69 310 23:49 09.04.2021
486 Clouds 13 1018 62 10000 6.69 310 23:27 09.04.2021
487 Clouds 14 1019 58 10000 7.2 310 22:44 09.04.2021
488 Clouds 14 1019 58 10000 7.2 310 22:44 09.04.2021
489 Clouds 14 1019 58 10000 7.2 310 22:26 09.04.2021
490 Clouds 15 1018 58 10000 7.2 310 21:39 09.04.2021
491 Clouds 15 1018 58 10000 7.2 310 21:39 09.04.2021
492 Clouds 15 1018 58 10000 9.77 310 21:20 09.04.2021
493 Clouds 15 1018 58 10000 9.77 310 21:20 09.04.2021
494 Clouds 16 1018 59 10000 8.23 310 20:46 09.04.2021
495 Clouds 16 1018 59 10000 8.23 310 20:23 09.04.2021
496 Clouds 17 1017 55 10000 8.23 310 19:58 09.04.2021
497 Clouds 18 1017 52 10000 8.75 310 19:39 09.04.2021
498 Clouds 18 1017 52 10000 8.75 310 19:21 09.04.2021
499 Clouds 19 1016 52 10000 8.23 310 18:41 09.04.2021
500 Clouds 20 1016 49 10000 8.23 310 18:23 09.04.2021
501 Clouds 22 1015 35 10000 5.66 300 17:44 09.04.2021
502 Clouds 23 1015 35 10000 5.66 300 17:25 09.04.2021
503 Clouds 23 1015 35 10000 6.69 320 16:41 09.04.2021
504 Clouds 24 1015 31 10000 7.72 280 16:20 09.04.2021
505 Clouds 24 1015 38 10000 6.17 340 15:42 09.04.2021
506 Clouds 24 1015 38 10000 6.17 340 15:23 09.04.2021
507 Clouds 24 1015 38 10000 4.63 300 14:46 09.04.2021
508 Clouds 23 1015 40 10000 2.06 340 14:20 09.04.2021
509 Clouds 23 1016 43 6000 4.12 340 13:43 09.04.2021
510 Clouds 23 1016 43 6000 4.12 340 13:22 09.04.2021
511 Clouds 22 1017 46 6000 5.14 340 12:47 09.04.2021
512 Clouds 21 1017 46 6000 4.63 340 11:57 09.04.2021
513 Clouds 19 1017 59 6000 3.6 340 11:28 09.04.2021
514 Clouds 19 1018 63 6000 4.12 350 10:53 09.04.2021
515 Clouds 19 1018 63 6000 4.12 350 10:34 09.04.2021
516 Haze 18 1018 68 4000 4.63 360 09:55 09.04.2021
517 Mist 17 1018 72 4000 4.63 360 09:27 09.04.2021
518 Mist 17 1018 72 4000 4.63 360 08:55 09.04.2021
519 Mist 16 1017 72 4000 3.6 360 08:25 09.04.2021
520 Mist 15 1017 82 4000 3.09 360 07:21 09.04.2021
521 Mist 14 1016 88 4000 3.09 10 06:21 09.04.2021
522 Clear 15 1016 82 10000 4.63 360 03:56 09.04.2021
523 Clear 15 1016 82 10000 4.63 360 03:38 09.04.2021
524 Clear 15 1017 77 10000 5.14 10 00:38 09.04.2021
525 Clear 16 1017 72 10000 5.14 20 00:20 09.04.2021
526 Clear 16 1017 67 10000 5.14 20 23:31 08.04.2021
527 Clear 17 1017 67 10000 6.17 20 22:51 08.04.2021
528 Clear 17 1017 67 10000 6.69 10 22:27 08.04.2021
529 Clear 17 1017 67 10000 7.2 360 21:58 08.04.2021
530 Clear 18 1017 59 10000 7.2 10 21:40 08.04.2021
531 Clear 18 1017 59 10000 7.2 10 21:40 08.04.2021
532 Clear 19 1017 59 10000 7.2 10 21:21 08.04.2021
533 Clear 21 1016 49 10000 7.72 350 20:56 08.04.2021
534 Clear 21 1016 49 10000 7.72 350 20:35 08.04.2021
535 Clear 21 1016 49 10000 7.72 350 19:58 08.04.2021
536 Clear 22 1015 49 10000 7.72 340 19:25 08.04.2021
537 Clear 23 1015 46 10000 7.2 340 18:57 08.04.2021
538 Clear 24 1015 46 10000 7.2 340 18:38 08.04.2021
539 Clear 24 1014 46 10000 6.17 340 18:19 08.04.2021
540 Clear 24 1014 43 10000 6.17 340 17:40 08.04.2021
541 Clear 26 1014 38 10000 5.14 330 17:18 08.04.2021
542 Clear 26 1014 36 10000 4.63 350 16:43 08.04.2021
543 Clear 26 1014 36 10000 5.66 360 16:22 08.04.2021
544 Clear 26 1014 34 10000 5.14 340 15:43 08.04.2021
545 Clear 26 1015 34 10000 5.14 340 15:23 08.04.2021
546 Clear 26 1015 34 10000 5.14 340 14:42 08.04.2021
547 Clear 26 1015 34 10000 5.14 340 14:21 08.04.2021
548 Clear 26 1015 36 10000 4.63 350 13:48 08.04.2021
549 Clear 26 1015 36 10000 4.63 350 13:24 08.04.2021
550 Clear 26 1015 36 10000 4.63 350 13:24 08.04.2021
551 Clear 24 1016 43 10000 4.12 340 12:57 08.04.2021
552 Clear 24 1016 43 10000 4.12 340 12:33 08.04.2021
553 Clear 22 1016 53 10000 5.14 350 11:57 08.04.2021
554 Clear 21 1016 56 10000 5.14 340 11:26 08.04.2021
555 Clear 21 1017 56 10000 5.14 360 10:55 08.04.2021
556 Clear 20 1017 64 10000 3.6 350 10:25 08.04.2021
557 Clear 20 1017 64 10000 3.6 350 10:25 08.04.2021
558 Clouds 21 1017 64 10000 4.63 10 09:46 08.04.2021
559 Clouds 19 1017 63 10000 5.14 20 09:26 08.04.2021
560 Clouds 18 1017 100 10000 5.14 10 08:44 08.04.2021
561 Clouds 18 1016 72 10000 5.14 30 08:22 08.04.2021
562 Clouds 17 1016 77 10000 5.14 30 07:45 08.04.2021
563 Clouds 15 1016 82 6000 4.63 20 05:45 08.04.2021
564 Clear 17 1016 82 10000 5.66 340 01:25 08.04.2021
565 Clear 18 1016 77 10000 5.66 350 00:32 08.04.2021
566 Clear 19 1016 68 10000 6.17 350 23:48 07.04.2021
567 Clear 21 1016 52 10000 4.63 350 23:27 07.04.2021
568 Clear 21 1015 52 10000 4.63 30 22:58 07.04.2021
569 Clouds 21 1015 56 6000 5.14 30 22:39 07.04.2021
570 Clouds 21 1015 56 6000 5.14 30 22:20 07.04.2021
571 Clouds 21 1015 56 6000 6.17 20 21:34 07.04.2021
572 Clouds 22 1015 60 6000 5.14 30 20:56 07.04.2021
573 Clouds 23 1015 53 6000 6.69 10 20:37 07.04.2021
574 Clouds 23 1015 53 6000 6.69 10 20:18 07.04.2021
575 Clouds 24 1015 50 6000 7.2 330 19:40 07.04.2021
576 Clouds 25 1015 50 6000 7.2 330 19:22 07.04.2021
577 Clouds 26 1014 50 6000 6.69 340 18:42 07.04.2021
578 Clouds 28 1013 44 6000 7.2 320 18:18 07.04.2021
579 Clouds 29 1013 37 6000 7.72 320 17:47 07.04.2021
580 Clouds 31 1013 25 6000 5.66 330 17:28 07.04.2021
581 Clouds 31 1013 20 6000 4.63 310 16:46 07.04.2021
582 Clear 32 1012 20 6000 4.63 310 16:21 07.04.2021
583 Clear 32 1012 22 6000 4.63 310 15:56 07.04.2021
584 Clear 32 1012 13 6000 4.63 300 15:38 07.04.2021
585 Clear 33 1012 14 6000 4.63 310 14:48 07.04.2021
586 Clear 33 1012 16 6000 4.63 300 14:25 07.04.2021
587 Clear 33 1012 17 6000 4.63 300 13:45 07.04.2021
588 Clear 32 1013 20 6000 4.63 310 13:20 07.04.2021
589 Clear 33 1013 21 6000 4.12 290 12:47 07.04.2021
590 Clear 33 1013 9 6000 3.6 270 12:21 07.04.2021
591 Clear 33 1013 9 6000 3.6 270 12:21 07.04.2021
592 Haze 33 1013 9 3000 3.09 280 11:45 07.04.2021
593 Haze 32 1013 12 3000 3.6 260 11:24 07.04.2021
594 Clear 32 1013 12 6000 3.09 240 10:50 07.04.2021
595 Haze 31 1013 12 4000 4.12 220 09:51 07.04.2021
596 Haze 31 1012 13 4000 3.6 210 09:30 07.04.2021
597 Haze 31 1012 13 4000 3.6 210 09:30 07.04.2021
598 Haze 31 1012 13 4000 3.6 210 09:30 07.04.2021
599 Haze 30 1012 13 4000 3.6 210 08:59 07.04.2021
600 Haze 27 1012 18 3000 3.6 160 08:33 07.04.2021
601 Haze 26 1012 21 3000 2.06 180 07:56 07.04.2021
602 Haze 24 1012 23 3000 2.06 210 07:29 07.04.2021
603 Haze 22 1012 26 3000 4.12 150 06:52 07.04.2021
604 Haze 21 1011 33 3000 2.57 130 06:18 07.04.2021
605 Haze 20 1011 49 4000 0.79 74 03:35 07.04.2021
606 Clouds 23 1011 43 6000 4.12 90 23:52 06.04.2021
607 Clouds 23 1011 46 6000 3.6 90 23:23 06.04.2021
608 Clouds 23 1012 49 6000 3.09 60 22:59 06.04.2021
609 Clouds 24 1011 43 6000 5.66 40 22:22 06.04.2021
610 Clouds 25 1011 33 6000 5.66 30 21:59 06.04.2021
611 Clouds 25 1011 33 6000 5.66 30 21:59 06.04.2021
612 Clouds 26 1011 24 6000 1.03 100 21:39 06.04.2021
613 Clouds 26 1011 24 6000 1.03 100 21:21 06.04.2021
614 Clouds 27 1011 22 6000 1.03 90 20:51 06.04.2021
615 Clouds 27 1010 22 6000 2.06 100 20:21 06.04.2021
616 Clouds 28 1010 21 6000 1.03 90 19:49 06.04.2021
617 Clouds 28 1010 21 6000 1.03 90 19:31 06.04.2021
618 Clouds 30 1010 20 6000 2.06 330 18:48 06.04.2021
619 Clouds 31 1009 19 6000 3.6 320 18:24 06.04.2021
620 Clouds 31 1009 18 6000 4.12 310 17:52 06.04.2021
621 Clouds 32 1009 17 6000 4.63 320 17:30 06.04.2021
622 Clouds 32 1009 13 6000 3.6 310 16:56 06.04.2021
623 Clouds 32 1009 13 6000 3.6 310 16:56 06.04.2021
624 Clouds 33 1009 13 6000 4.63 320 16:38 06.04.2021
625 Clouds 33 1009 12 6000 3.6 300 15:44 06.04.2021
626 Clouds 34 1009 9 6000 3.6 280 15:22 06.04.2021
627 Clouds 33 1009 10 6000 4.63 280 14:39 06.04.2021
628 Clear 33 1009 10 6000 4.63 280 14:19 06.04.2021
629 Haze 33 1010 12 2000 4.12 270 13:44 06.04.2021
630 Haze 32 1010 17 2000 3.6 290 13:25 06.04.2021
631 Haze 32 1010 18 2000 2.57 290 12:42 06.04.2021
632 Haze 31 1011 23 2000 1.54 290 12:22 06.04.2021
633 Haze 29 1011 28 3000 2.57 280 11:52 06.04.2021
634 Haze 27 1011 29 3000 2.06 280 11:21 06.04.2021
635 Haze 26 1012 34 4000 1.54 270 10:48 06.04.2021
636 Haze 25 1012 36 4000 0.51 90 10:29 06.04.2021
637 Haze 23 1012 40 4000 1.03 30 09:58 06.04.2021
638 Haze 24 1012 43 4000 0.82 29 09:38 06.04.2021
639 Haze 22 1012 49 4000 1.69 32 08:45 06.04.2021
640 Haze 20 1012 52 4000 2.26 26 08:19 06.04.2021
641 Clear 14 1012 62 6000 1.54 20 06:56 06.04.2021
642 Clear 14 1012 62 6000 1.54 20 06:20 06.04.2021
643 Clear 16 1012 63 10000 4.63 40 03:43 06.04.2021
644 Clear 18 1014 55 10000 3.6 30 00:47 06.04.2021
645 Clear 18 1014 55 10000 5.14 30 00:21 06.04.2021
646 Clear 18 1015 55 10000 5.66 30 23:48 05.04.2021
647 Clear 18 1015 52 10000 4.63 40 23:24 05.04.2021
648 Clear 19 1015 48 10000 4.63 30 22:53 05.04.2021
649 Clear 19 1015 48 10000 4.63 30 22:33 05.04.2021
650 Clear 21 1015 43 10000 5.14 20 21:47 05.04.2021
651 Clear 21 1015 40 10000 6.17 40 21:23 05.04.2021
652 Clear 21 1015 43 10000 5.14 40 20:49 05.04.2021
653 Clear 22 1014 43 10000 7.2 50 20:30 05.04.2021
654 Clear 23 1014 40 10000 7.72 40 19:45 05.04.2021
655 Clear 24 1014 38 10000 7.72 40 19:25 05.04.2021
656 Clear 26 1014 36 10000 7.2 360 18:57 05.04.2021
657 Clear 26 1014 36 10000 7.2 360 18:38 05.04.2021
658 Clear 28 1014 34 10000 7.2 360 18:19 05.04.2021
659 Clear 29 1013 23 10000 8.75 40 17:46 05.04.2021
660 Clear 30 1013 10 10000 8.75 40 17:21 05.04.2021
661 Clear 30 1013 10 10000 8.75 40 17:21 05.04.2021
662 Clear 32 1013 9 10000 7.2 50 16:44 05.04.2021
663 Clear 32 1013 9 10000 6.69 40 16:21 05.04.2021
664 Clear 32 1014 9 10000 4.63 40 15:56 05.04.2021
665 Clear 32 1014 9 10000 6.17 30 15:30 05.04.2021
666 Clear 31 1014 10 10000 7.2 30 14:58 05.04.2021
667 Clear 31 1014 10 10000 7.2 30 14:35 05.04.2021
668 Clear 30 1015 13 10000 7.2 50 13:41 05.04.2021
669 Clear 30 1016 14 10000 6.17 40 13:22 05.04.2021
670 Clear 29 1016 14 10000 6.69 60 12:45 05.04.2021
671 Clear 28 1017 14 10000 7.72 50 12:23 05.04.2021
672 Clear 26 1017 13 10000 7.72 50 11:46 05.04.2021
673 Clear 26 1017 13 10000 7.72 50 11:27 05.04.2021
674 Clear 26 1017 16 10000 7.72 50 10:46 05.04.2021
675 Clear 24 1018 19 10000 7.2 60 10:28 05.04.2021
676 Clear 23 1017 23 10000 7.72 50 09:48 05.04.2021
677 Clear 21 1018 24 10000 5.66 50 09:25 05.04.2021
678 Clear 21 1018 24 10000 5.14 60 08:45 05.04.2021
679 Clear 18 1018 32 10000 5.14 60 08:26 05.04.2021
680 Clear 16 1018 41 10000 4.63 50 07:38 05.04.2021
681 Clear 13 1018 50 10000 3.09 50 06:51 05.04.2021
682 Clear 16 1019 36 10000 5.14 80 02:36 05.04.2021
683 Clear 15 1020 39 10000 5.14 70 00:53 05.04.2021
684 Clear 17 1021 36 10000 5.66 60 23:52 04.04.2021
685 Clear 18 1021 48 10000 5.66 60 23:30 04.04.2021
686 Clear 18 1021 29 10000 5.14 50 22:54 04.04.2021
687 Clear 18 1021 29 10000 5.14 50 22:31 04.04.2021
688 Clear 20 1021 28 10000 6.17 60 21:48 04.04.2021
689 Clear 20 1021 28 10000 6.17 60 21:21 04.04.2021
690 Clear 20 1021 30 10000 6.17 60 20:42 04.04.2021
691 Clear 21 1020 32 10000 7.72 50 20:20 04.04.2021
692 Clear 22 1020 30 10000 6.69 30 19:38 04.04.2021
693 Clear 22 1020 30 10000 6.69 30 19:19 04.04.2021
694 Clear 23 1020 27 10000 7.2 40 18:49 04.04.2021
695 Clear 24 1019 27 10000 7.72 30 18:24 04.04.2021
696 Clear 24 1019 27 10000 7.72 30 18:24 04.04.2021
697 Clear 24 1019 29 10000 7.2 20 17:56 04.04.2021
698 Clear 25 1020 27 10000 6.17 20 17:24 04.04.2021
699 Clear 25 1019 27 10000 5.66 10 16:54 04.04.2021
700 Clear 25 1019 27 10000 5.66 10 16:33 04.04.2021
701 Clear 26 1020 22 10000 5.66 10 15:46 04.04.2021
702 Clear 26 1020 22 10000 5.66 10 15:28 04.04.2021
703 Clear 26 1020 21 10000 5.14 350 14:38 04.04.2021
704 Clear 26 1020 21 10000 5.14 350 14:19 04.04.2021
705 Clear 25 1021 22 10000 5.66 360 13:26 04.04.2021
706 Clear 25 1021 23 10000 5.14 360 12:51 04.04.2021
707 Clear 24 1022 23 10000 6.17 10 12:27 04.04.2021
708 Clear 24 1022 25 10000 5.14 350 11:49 04.04.2021
709 Clear 23 1022 25 10000 4.12 360 11:30 04.04.2021
710 Clear 23 1022 27 6000 3.6 340 10:46 04.04.2021
711 Clear 23 1022 28 6000 3.09 360 10:23 04.04.2021
712 Haze 23 1022 27 4000 1.03 340 09:44 04.04.2021
713 Haze 24 1022 29 4000 1.03 330 09:21 04.04.2021
714 Clear 22 1021 31 6000 1.03 330 08:44 04.04.2021
715 Clear 20 1021 37 6000 1.54 300 08:24 04.04.2021
716 Clear 15 1020 51 10000 4.63 130 06:40 04.04.2021
717 Clear 15 1020 51 10000 5.66 120 05:44 04.04.2021
718 Clear 15 1020 55 10000 5.14 90 02:39 04.04.2021
719 Clear 14 1021 67 10000 3.6 60 00:48 04.04.2021
720 Clear 15 1022 63 10000 4.12 60 00:18 04.04.2021
721 Clear 15 1022 67 10000 4.63 30 23:41 03.04.2021
722 Clear 16 1022 63 6000 4.63 30 22:56 03.04.2021
723 Clear 16 1022 63 6000 4.63 30 22:38 03.04.2021
724 Clear 16 1022 63 6000 4.12 30 22:19 03.04.2021
725 Clear 17 1022 59 6000 4.12 40 21:46 03.04.2021
726 Clear 19 1021 42 6000 3.09 20 21:22 03.04.2021
727 Clear 20 1021 37 6000 4.12 10 20:43 03.04.2021
728 Clear 20 1021 37 6000 4.63 360 20:24 03.04.2021
729 Clear 20 1020 37 6000 3.6 360 19:46 03.04.2021
730 Clear 20 1020 34 6000 3.6 330 19:20 03.04.2021
731 Clear 21 1020 35 10000 4.63 330 18:46 03.04.2021
732 Clear 21 1020 35 10000 4.12 340 18:23 03.04.2021
733 Clear 21 1020 30 10000 3.09 340 17:50 03.04.2021
734 Clear 22 1020 28 10000 2.57 330 17:21 03.04.2021
735 Clear 22 1020 28 10000 4.12 310 16:45 03.04.2021
736 Clear 23 1020 27 10000 3.6 310 16:21 03.04.2021
737 Clear 23 1020 25 10000 4.12 280 15:46 03.04.2021
738 Clear 22 1020 26 10000 3.09 280 15:22 03.04.2021
739 Clear 23 1020 20 10000 3.09 300 14:44 03.04.2021
740 Clear 23 1021 23 10000 1.54 350 14:22 03.04.2021
741 Clear 24 1021 25 10000 3.09 290 13:49 03.04.2021
742 Clear 22 1021 23 10000 2.57 300 13:24 03.04.2021
743 Clear 21 1021 26 10000 2.57 330 12:52 03.04.2021
744 Clear 20 1022 26 10000 1.54 350 12:31 03.04.2021
745 Clear 19 1022 27 10000 2.57 330 11:39 03.04.2021
746 Clear 18 1022 39 10000 1.03 30 10:58 03.04.2021
747 Clear 18 1022 39 10000 1.03 30 10:40 03.04.2021
748 Clear 18 1022 39 10000 2.06 320 10:18 03.04.2021
749 Clear 18 1022 39 10000 1.22 346 09:28 03.04.2021
750 Clear 15 1022 55 10000 2.06 30 08:58 03.04.2021
751 Clear 15 1022 55 10000 2.06 30 08:30 03.04.2021
752 Clear 14 1022 67 10000 2.06 90 07:29 03.04.2021
753 Clear 11 1021 76 10000 2.06 90 06:44 03.04.2021
754 Clear 12 1021 62 10000 2.06 20 03:53 03.04.2021
755 Clear 12 1021 62 10000 2.06 80 02:52 03.04.2021
756 Clear 12 1021 62 10000 2.06 80 02:26 03.04.2021
757 Clear 13 1021 62 10000 3.09 60 00:29 03.04.2021
758 Clear 14 1022 58 10000 2.06 40 23:53 02.04.2021
759 Clear 15 1022 58 10000 2.06 40 23:26 02.04.2021
760 Clear 15 1022 55 10000 3.09 360 22:55 02.04.2021
761 Clear 16 1022 55 10000 3.09 360 22:36 02.04.2021
762 Clear 15 1022 59 10000 3.09 360 21:54 02.04.2021
763 Clear 17 1022 55 10000 3.6 360 21:36 02.04.2021
764 Clear 17 1022 55 10000 3.6 360 21:18 02.04.2021
765 Clear 17 1022 55 10000 3.6 360 21:18 02.04.2021
766 Clear 17 1021 55 10000 5.14 330 20:36 02.04.2021
767 Clear 17 1021 55 10000 5.14 330 20:18 02.04.2021
768 Clouds 18 1020 39 10000 5.14 330 19:40 02.04.2021
769 Clouds 19 1020 39 10000 5.14 330 19:21 02.04.2021
770 Clouds 19 1020 39 10000 4.63 320 18:42 02.04.2021
771 Clouds 20 1020 37 10000 4.63 320 18:23 02.04.2021
772 Clouds 20 1020 37 10000 4.12 310 17:45 02.04.2021
773 Clouds 21 1019 35 10000 5.14 300 17:18 02.04.2021
774 Clouds 21 1019 33 10000 6.17 250 16:23 02.04.2021
775 Clouds 22 1019 33 10000 6.17 260 15:42 02.04.2021
776 Clouds 20 1020 37 10000 5.66 260 14:57 02.04.2021
777 Clouds 20 1020 35 10000 5.14 280 14:33 02.04.2021
778 Clouds 20 1020 37 10000 5.66 260 13:46 02.04.2021
779 Clouds 20 1020 40 10000 5.66 290 13:26 02.04.2021
780 Clouds 19 1020 42 10000 5.14 290 12:47 02.04.2021
781 Clouds 18 1021 42 10000 6.69 270 12:20 02.04.2021
782 Clouds 18 1021 42 10000 6.69 270 11:58 02.04.2021
783 Clouds 18 1021 45 10000 4.12 260 11:21 02.04.2021
784 Clouds 17 1021 45 10000 5.66 270 10:51 02.04.2021
785 Clouds 15 1021 51 10000 5.14 260 10:32 02.04.2021
786 Clouds 15 1021 51 10000 5.14 260 10:32 02.04.2021
787 Clouds 15 1021 55 10000 5.14 240 09:55 02.04.2021
788 Clouds 16 1021 55 10000 5.14 240 09:37 02.04.2021
789 Clouds 16 1021 55 10000 5.14 240 09:18 02.04.2021
790 Clouds 14 1020 62 10000 5.66 240 08:34 02.04.2021
791 Clouds 13 1020 62 10000 6.17 250 07:52 02.04.2021
792 Clouds 13 1020 67 10000 5.14 230 07:18 02.04.2021
793 Clouds 12 1019 62 10000 5.14 250 06:22 02.04.2021
794 Clouds 14 1018 54 10000 5.14 240 02:59 02.04.2021
795 Clouds 14 1019 58 10000 5.14 250 00:54 02.04.2021
796 Clouds 15 1019 58 10000 5.66 260 00:36 02.04.2021
797 Clouds 15 1019 55 10000 4.63 270 23:42 01.04.2021
798 Clouds 15 1019 55 10000 5.66 290 23:24 01.04.2021
799 Clouds 15 1019 55 10000 4.12 280 22:22 01.04.2021
800 Clouds 15 1018 51 10000 4.12 280 21:56 01.04.2021
801 Clouds 16 1018 48 10000 5.66 290 21:38 01.04.2021
802 Clouds 16 1018 48 10000 5.66 290 21:18 01.04.2021
803 Clouds 16 1018 41 10000 7.72 300 20:33 01.04.2021
804 Clouds 18 1017 27 10000 5.66 260 19:58 01.04.2021
805 Clouds 18 1017 29 10000 7.72 260 19:39 01.04.2021
806 Clouds 19 1017 27 10000 8.75 260 18:54 01.04.2021
807 Clouds 20 1016 28 10000 7.2 260 18:36 01.04.2021
808 Clouds 20 1016 28 10000 7.2 260 18:18 01.04.2021
809 Clouds 21 1015 24 10000 8.23 250 17:39 01.04.2021
810 Clouds 21 1015 24 10000 8.23 250 17:20 01.04.2021
811 Clouds 21 1015 26 10000 7.72 260 16:41 01.04.2021
812 Clouds 21 1015 28 10000 9.26 260 15:57 01.04.2021
813 Clouds 21 1015 28 10000 7.2 260 15:24 01.04.2021
814 Clouds 21 1015 28 10000 6.69 260 14:55 01.04.2021
815 Clouds 21 1016 24 10000 6.69 230 14:37 01.04.2021
816 Clouds 21 1016 24 10000 6.69 230 14:19 01.04.2021
817 Clouds 20 1016 32 10000 6.69 240 13:32 01.04.2021
818 Clouds 20 1016 32 10000 7.2 220 12:58 01.04.2021
819 Clouds 20 1016 32 10000 6.69 250 12:39 01.04.2021
820 Clouds 20 1016 32 10000 6.69 250 12:20 01.04.2021
821 Clouds 20 1017 32 10000 5.66 270 11:43 01.04.2021
822 Clouds 19 1017 34 10000 5.14 230 11:18 01.04.2021
823 Clouds 18 1017 39 10000 6.17 250 10:46 01.04.2021
824 Clouds 18 1017 39 10000 5.14 230 10:27 01.04.2021
825 Clouds 17 1016 39 10000 4.63 220 09:32 01.04.2021
826 Clouds 16 1016 45 10000 2.57 210 08:58 01.04.2021
827 Clouds 17 1016 45 10000 2.57 210 08:32 01.04.2021
828 Clouds 14 1016 62 10000 1.29 146 07:22 01.04.2021
829 Clouds 13 1016 66 10000 1.29 146 06:57 01.04.2021
830 Clouds 11 1016 66 10000 1.44 95 06:24 01.04.2021
831 Clouds 12 1015 66 10000 4.63 90 03:23 01.04.2021
832 Clouds 13 1016 58 10000 2.06 40 00:28 01.04.2021
833 Clouds 13 1016 58 10000 3.09 50 23:44 31.03.2021
834 Clouds 13 1016 58 10000 3.09 50 23:44 31.03.2021
835 Clouds 14 1017 58 10000 2.57 10 22:56 31.03.2021
836 Clouds 15 1017 55 10000 3.6 10 22:38 31.03.2021
837 Clouds 15 1017 55 10000 3.6 10 22:19 31.03.2021
838 Clouds 15 1017 58 10000 3.6 10 21:43 31.03.2021
839 Clouds 15 1017 58 10000 4.12 20 21:20 31.03.2021
840 Clouds 15 1016 51 10000 3.6 340 20:42 31.03.2021
841 Clouds 16 1016 51 10000 4.12 330 20:22 31.03.2021
842 Clouds 16 1016 51 10000 5.14 320 19:44 31.03.2021
843 Clouds 16 1016 59 10000 5.14 330 19:25 31.03.2021
844 Clouds 16 1016 55 10000 4.63 330 18:58 31.03.2021
845 Clouds 17 1015 51 10000 4.12 320 18:40 31.03.2021
846 Clouds 17 1015 51 10000 4.12 320 18:40 31.03.2021
847 Clouds 17 1015 51 10000 6.69 320 17:51 31.03.2021
848 Clouds 18 1015 48 10000 5.66 300 17:31 31.03.2021
849 Clouds 18 1015 48 10000 5.66 310 16:56 31.03.2021
850 Clouds 18 1015 48 10000 5.66 310 16:37 31.03.2021
851 Clouds 19 1015 45 10000 6.69 320 16:18 31.03.2021
852 Clouds 18 1015 48 10000 7.72 320 15:43 31.03.2021
853 Clouds 20 1015 39 10000 6.17 270 15:19 31.03.2021
854 Clouds 20 1015 37 10000 6.17 290 14:42 31.03.2021
855 Clouds 21 1015 35 10000 5.66 260 14:20 31.03.2021
856 Clouds 21 1015 35 10000 6.69 250 13:39 31.03.2021
857 Clouds 20 1015 37 10000 5.14 250 12:42 31.03.2021
858 Clouds 20 1016 40 10000 5.14 260 12:20 31.03.2021
859 Clouds 19 1016 45 10000 4.12 280 11:47 31.03.2021
860 Clouds 19 1016 45 10000 2.57 280 11:20 31.03.2021
861 Clouds 18 1016 42 10000 4.12 280 10:46 31.03.2021
862 Clouds 17 1016 48 10000 4.63 300 10:24 31.03.2021
863 Clouds 16 1017 55 10000 5.14 280 09:38 31.03.2021
864 Clouds 16 1016 55 10000 5.66 280 08:55 31.03.2021
865 Clear 15 1016 59 10000 2.57 260 08:37 31.03.2021
866 Clouds 15 1016 59 10000 2.57 280 07:52 31.03.2021
867 Clouds 14 1015 72 10000 3.6 290 06:39 31.03.2021
868 Clouds 12 1015 77 10000 2.06 290 03:51 31.03.2021
869 Clouds 14 1016 72 10000 5.14 290 01:43 31.03.2021
870 Clouds 14 1016 63 10000 3.09 280 00:49 31.03.2021
871 Clouds 15 1016 63 10000 1.54 280 00:20 31.03.2021
872 Clouds 15 1016 63 10000 2.57 300 23:39 30.03.2021
873 Clouds 15 1016 55 10000 2.57 320 22:59 30.03.2021
874 Clouds 15 1016 55 10000 2.57 320 22:40 30.03.2021
875 Clouds 15 1016 55 10000 3.09 330 22:21 30.03.2021
876 Clouds 16 1016 55 10000 5.14 320 21:49 30.03.2021
877 Clouds 16 1016 55 10000 5.14 320 21:20 30.03.2021
878 Clouds 16 1016 51 10000 5.14 320 20:53 30.03.2021
879 Clouds 16 1016 55 10000 5.14 320 20:53 30.03.2021
880 Clouds 17 1016 51 10000 5.14 320 20:28 30.03.2021
881 Clouds 18 1016 42 10000 5.14 320 19:51 30.03.2021
882 Clouds 19 1015 42 10000 5.14 320 19:27 30.03.2021
883 Clouds 19 1015 42 10000 5.14 330 18:40 30.03.2021
884 Clouds 19 1015 42 10000 6.17 350 17:58 30.03.2021
885 Clouds 19 1015 42 10000 6.17 350 17:38 30.03.2021
886 Clouds 19 1015 42 10000 5.14 330 17:20 30.03.2021
887 Clouds 20 1015 40 10000 5.66 330 16:45 30.03.2021
888 Clouds 20 1015 37 10000 5.14 330 16:23 30.03.2021
889 Clouds 20 1015 37 10000 5.14 310 15:21 30.03.2021
890 Clouds 22 1016 40 10000 5.66 340 14:57 30.03.2021
891 Clouds 19 1016 42 10000 5.66 340 14:22 30.03.2021
892 Clouds 19 1016 40 10000 5.66 310 13:59 30.03.2021
893 Clouds 19 1017 42 10000 5.66 310 13:37 30.03.2021
894 Clouds 20 1017 42 10000 5.66 330 12:49 30.03.2021
895 Clouds 18 1017 42 10000 5.14 330 12:28 30.03.2021
896 Clouds 18 1017 45 10000 6.17 330 11:58 30.03.2021
897 Clouds 16 1018 45 10000 6.69 340 11:23 30.03.2021
898 Clouds 16 1018 45 10000 5.66 350 10:47 30.03.2021
899 Clouds 16 1018 45 6000 6.69 10 10:28 30.03.2021
900 Haze 17 1018 48 4000 5.14 360 09:52 30.03.2021
901 Haze 15 1018 48 4000 4.12 350 09:31 30.03.2021
902 Haze 15 1018 58 2000 3.09 340 08:56 30.03.2021
903 Haze 14 1018 58 2000 3.09 340 08:38 30.03.2021
904 Haze 13 1018 58 2000 2.57 350 07:52 30.03.2021
905 Haze 12 1018 58 2000 2.57 360 07:22 30.03.2021
906 Clouds 12 1018 62 6000 3.6 340 05:49 30.03.2021
907 Clouds 13 1018 62 6000 4.12 350 05:19 30.03.2021
908 Clouds 13 1020 62 10000 5.14 350 00:40 30.03.2021
909 Clouds 14 1020 58 10000 6.17 10 23:51 29.03.2021
910 Clouds 14 1020 58 10000 5.14 360 22:54 29.03.2021
911 Clouds 14 1020 58 10000 5.14 360 22:32 29.03.2021
912 Clouds 15 1021 55 10000 8.23 20 21:51 29.03.2021
913 Clouds 15 1021 55 10000 8.23 20 21:31 29.03.2021
914 Clouds 15 1021 55 10000 8.75 20 20:50 29.03.2021
915 Clouds 15 1020 48 10000 8.75 20 20:28 29.03.2021
916 Clouds 16 1020 48 10000 8.75 10 19:50 29.03.2021
917 Clouds 16 1020 51 10000 7.72 10 19:25 29.03.2021
918 Clouds 16 1020 51 10000 8.75 10 18:51 29.03.2021
919 Clouds 17 1020 48 10000 8.23 10 18:27 29.03.2021
920 Clouds 18 1020 42 10000 7.2 10 17:52 29.03.2021
921 Clouds 19 1020 42 10000 7.2 10 17:32 29.03.2021
922 Clouds 19 1020 37 10000 7.2 340 16:45 29.03.2021
923 Clouds 20 1020 34 10000 8.75 10 16:24 29.03.2021
924 Clouds 20 1020 37 10000 8.75 360 15:40 29.03.2021
925 Clouds 20 1020 37 10000 7.72 10 15:22 29.03.2021
926 Clouds 21 1021 37 10000 7.72 20 14:46 29.03.2021
927 Clouds 21 1021 40 10000 8.23 10 13:56 29.03.2021
928 Clouds 20 1021 40 10000 8.23 10 13:36 29.03.2021
929 Clouds 20 1022 39 10000 7.72 10 12:57 29.03.2021
930 Clouds 19 1022 39 10000 7.72 10 12:39 29.03.2021
931 Clouds 19 1023 45 10000 8.23 20 11:45 29.03.2021
932 Clouds 17 1024 48 10000 7.2 10 11:27 29.03.2021
933 Clouds 17 1024 48 10000 7.2 10 11:27 29.03.2021
934 Clouds 17 1024 45 10000 8.23 10 10:45 29.03.2021
935 Clouds 16 1024 51 10000 6.69 360 10:19 29.03.2021
936 Clouds 16 1024 55 10000 7.2 360 09:32 29.03.2021
937 Clouds 13 1024 58 10000 4.12 350 08:34 29.03.2021
938 Clouds 13 1024 58 10000 4.12 350 07:54 29.03.2021
939 Clouds 11 1024 66 6000 2.06 60 07:19 29.03.2021
940 Clouds 10 1024 76 6000 2.06 40 06:23 29.03.2021
941 Clear 12 1025 66 10000 3.6 360 02:34 29.03.2021
942 Clear 13 1026 62 10000 3.6 350 00:30 29.03.2021
943 Clear 13 1026 62 10000 4.12 360 23:59 28.03.2021
944 Clear 13 1026 62 10000 4.12 360 23:25 28.03.2021
945 Clear 13 1027 62 10000 4.63 360 22:48 28.03.2021
946 Clear 14 1027 58 10000 5.66 350 22:29 28.03.2021
947 Clear 14 1027 58 10000 5.14 350 21:47 28.03.2021
948 Clear 14 1027 58 10000 6.17 340 21:25 28.03.2021
949 Clouds 15 1027 55 10000 6.17 350 20:56 28.03.2021
950 Clouds 15 1026 55 10000 6.69 360 20:38 28.03.2021
951 Clouds 15 1026 55 10000 6.69 360 20:18 28.03.2021
952 Clouds 15 1026 55 10000 6.69 360 19:41 28.03.2021
953 Clouds 16 1025 51 10000 7.72 360 19:21 28.03.2021
954 Clouds 16 1025 51 10000 8.23 360 18:49 28.03.2021
955 Clouds 17 1025 48 10000 8.23 350 18:22 28.03.2021
956 Clouds 18 1025 48 10000 7.72 10 17:42 28.03.2021
957 Clouds 18 1025 48 10000 7.2 350 17:20 28.03.2021
958 Clouds 19 1025 45 10000 7.2 340 16:41 28.03.2021
959 Clouds 18 1025 45 10000 7.2 360 16:21 28.03.2021
960 Clouds 18 1025 45 10000 7.72 360 15:25 28.03.2021
961 Clouds 19 1025 42 10000 6.17 350 14:50 28.03.2021
962 Clouds 18 1029 45 10000 5.66 360 14:27 28.03.2021
963 Clouds 18 1026 45 10000 5.66 350 13:38 28.03.2021
964 Clouds 18 1026 45 10000 5.66 340 13:00 28.03.2021
965 Clouds 17 1027 45 10000 5.66 20 12:37 28.03.2021
966 Clouds 17 1027 45 10000 5.66 20 12:19 28.03.2021
967 Clouds 17 1027 45 10000 6.69 340 11:39 28.03.2021
968 Clouds 17 1027 45 10000 6.69 340 11:39 28.03.2021
969 Clouds 17 1027 45 10000 6.69 340 11:18 28.03.2021
970 Clouds 17 1027 42 10000 6.17 350 10:43 28.03.2021
971 Clouds 16 1027 42 10000 6.69 360 10:21 28.03.2021
972 Clouds 16 1027 41 10000 6.69 20 09:44 28.03.2021
973 Clouds 16 1027 48 10000 4.63 50 09:23 28.03.2021
974 Clouds 15 1027 51 6000 2.57 70 08:42 28.03.2021
975 Haze 13 1027 58 4000 2.57 10 07:45 28.03.2021
976 Haze 10 1027 66 4000 2.57 360 06:23 28.03.2021
977 Clouds 12 1026 58 10000 3.09 20 03:51 28.03.2021
978 Clear 12 1027 62 10000 3.6 360 00:49 28.03.2021
979 Clear 12 1027 66 10000 4.63 360 00:19 28.03.2021
980 Clear 12 1027 66 10000 4.63 360 23:39 27.03.2021
981 Clear 13 1027 62 10000 4.63 350 22:53 27.03.2021
982 Clear 13 1028 62 10000 4.63 350 22:35 27.03.2021
983 Clear 13 1028 62 10000 5.14 360 21:46 27.03.2021
984 Clear 14 1028 58 10000 6.17 360 21:21 27.03.2021
985 Clear 14 1028 54 10000 6.69 360 20:59 27.03.2021
986 Clear 14 1028 54 10000 6.69 360 20:38 27.03.2021
987 Clear 14 1028 54 10000 6.69 360 20:19 27.03.2021
988 Clouds 14 1027 58 10000 7.2 360 19:42 27.03.2021
989 Clouds 14 1027 58 10000 7.2 360 19:23 27.03.2021
990 Clouds 14 1026 58 10000 6.17 360 18:48 27.03.2021
991 Clouds 15 1026 58 10000 7.72 350 18:26 27.03.2021
992 Clouds 16 1026 48 10000 9.26 340 17:40 27.03.2021
993 Clouds 16 1026 48 10000 9.26 340 17:20 27.03.2021
994 Clouds 17 1025 39 10000 8.23 340 16:48 27.03.2021
995 Clouds 17 1025 39 10000 8.23 340 16:27 27.03.2021
996 Clouds 19 1025 36 10000 6.69 340 15:46 27.03.2021
997 Clouds 19 1025 34 10000 6.69 340 15:20 27.03.2021
998 Clouds 18 1025 36 10000 6.69 340 14:44 27.03.2021
999 Clouds 19 1025 34 10000 5.66 340 13:42 27.03.2021
1000 Clouds 18 1026 36 10000 8.23 350 13:21 27.03.2021
1001 Clouds 18 1026 36 10000 6.17 340 12:50 27.03.2021
1002 Clouds 18 1026 36 10000 5.66 330 11:59 27.03.2021
1003 Clouds 17 1026 36 10000 5.66 360 11:39 27.03.2021
1004 Clouds 17 1026 36 10000 5.66 360 11:19 27.03.2021
1005 Clouds 16 1027 36 10000 5.66 350 10:42 27.03.2021
1006 Clouds 16 1027 39 10000 6.69 340 10:22 27.03.2021
1007 Clouds 15 1027 41 10000 5.66 360 09:28 27.03.2021
1008 Clouds 15 1027 38 10000 7.2 360 08:42 27.03.2021
1009 Clouds 13 1027 47 10000 5.14 340 08:20 27.03.2021
1010 Clouds 12 1027 50 10000 4.12 340 07:32 27.03.2021
1011 Clouds 12 1026 54 10000 3.09 330 06:43 27.03.2021
1012 Clouds 9 1025 57 10000 2.57 320 04:57 27.03.2021
1013 Clouds 10 1025 58 10000 3.09 330 04:39 27.03.2021
1014 Clouds 12 1025 50 10000 3.6 340 00:49 27.03.2021
1015 Clouds 12 1025 50 10000 3.09 340 00:27 27.03.2021
1016 Clouds 10 1025 50 10000 3.6 330 23:48 26.03.2021
1017 Clouds 11 1025 54 10000 3.09 330 22:53 26.03.2021
1018 Clouds 12 1025 54 10000 4.63 340 22:34 26.03.2021
1019 Clouds 12 1025 54 10000 5.14 340 21:25 26.03.2021
1020 Clouds 12 1025 58 10000 4.12 350 20:59 26.03.2021
1021 Clouds 13 1025 54 10000 5.14 330 20:32 26.03.2021
1022 Clouds 13 1024 47 10000 5.66 330 19:57 26.03.2021
1023 Clouds 13 1024 47 10000 5.66 330 19:39 26.03.2021
1024 Clouds 13 1024 44 10000 6.17 310 19:20 26.03.2021
1025 Clouds 14 1023 77 10000 7.2 310 18:42 26.03.2021
1026 Clouds 14 1023 77 10000 7.2 310 18:20 26.03.2021
1027 Clouds 14 1022 41 10000 8.23 310 17:45 26.03.2021
1028 Clouds 16 1022 41 10000 8.23 330 16:56 26.03.2021
1029 Clouds 16 1021 44 10000 7.72 330 16:33 26.03.2021
1030 Clouds 16 1021 44 10000 8.75 310 15:53 26.03.2021
1031 Clouds 17 1021 45 10000 8.23 340 15:21 26.03.2021
1032 Clouds 17 1020 48 10000 6.69 330 14:30 26.03.2021
1033 Clouds 17 1021 51 10000 7.2 320 13:34 26.03.2021
1034 Clouds 17 1021 48 10000 6.69 320 12:50 26.03.2021
1035 Clouds 17 1021 45 10000 6.17 310 12:24 26.03.2021
1036 Clouds 17 1021 45 10000 5.66 310 11:35 26.03.2021
1037 Clouds 17 1021 51 10000 5.14 300 10:55 26.03.2021
1038 Clouds 16 1021 48 10000 4.12 310 10:35 26.03.2021
1039 Clouds 16 1021 48 10000 4.12 310 09:45 26.03.2021
1040 Clouds 16 1021 55 10000 5.14 300 09:22 26.03.2021
1041 Clouds 15 1021 55 10000 5.14 310 08:40 26.03.2021
1042 Clouds 15 1021 58 10000 5.14 290 08:21 26.03.2021
1043 Clouds 14 1020 63 10000 3.6 280 07:23 26.03.2021
1044 Clouds 13 1020 67 6000 3.6 280 06:58 26.03.2021
1045 Clouds 13 1019 67 6000 4.12 280 06:35 26.03.2021
1046 Clouds 13 1019 67 6000 3.09 290 05:31 26.03.2021
1047 Clouds 13 1018 71 6000 1.54 360 02:22 26.03.2021
1048 Clouds 14 1018 67 6000 2.57 330 00:32 26.03.2021
1049 Clouds 14 1018 62 6000 3.6 320 23:44 25.03.2021
1050 Clouds 15 1018 58 6000 3.6 320 23:20 25.03.2021
1051 Clouds 15 1018 55 6000 3.6 310 22:37 25.03.2021
1052 Clouds 15 1018 55 6000 3.6 330 21:53 25.03.2021
1053 Clouds 15 1018 55 6000 3.6 330 21:34 25.03.2021
1054 Clouds 16 1017 63 6000 5.66 340 20:45 25.03.2021
1055 Clouds 16 1017 59 6000 5.66 350 20:26 25.03.2021
1056 Clouds 16 1017 59 10000 5.66 350 19:49 25.03.2021
1057 Clouds 16 1017 59 10000 5.66 350 19:49 25.03.2021
1058 Clouds 18 1016 34 10000 4.63 270 19:31 25.03.2021
1059 Clouds 18 1016 32 10000 4.63 280 18:51 25.03.2021
1060 Clouds 18 1015 32 10000 4.63 280 18:28 25.03.2021
1061 Clouds 18 1015 34 10000 4.63 240 17:57 25.03.2021
1062 Clouds 19 1015 32 10000 4.63 240 17:37 25.03.2021
1063 Clouds 19 1015 32 10000 5.66 250 16:56 25.03.2021
1064 Clouds 20 1014 30 10000 5.66 260 16:33 25.03.2021
1065 Clouds 20 1014 30 10000 7.2 250 15:49 25.03.2021
1066 Clouds 20 1014 32 10000 6.17 280 15:25 25.03.2021
1067 Clouds 21 1014 28 10000 5.66 280 14:49 25.03.2021
1068 Clouds 20 1014 24 10000 5.66 270 14:30 25.03.2021
1069 Clouds 20 1015 30 10000 6.69 250 13:28 25.03.2021
1070 Clouds 18 1015 32 10000 5.14 260 12:46 25.03.2021
1071 Clouds 18 1016 36 10000 4.12 250 12:22 25.03.2021
1072 Clouds 19 1016 39 10000 4.63 240 11:58 25.03.2021
1073 Clouds 19 1016 39 10000 5.14 250 11:40 25.03.2021
1074 Clouds 18 1016 39 10000 5.14 250 11:21 25.03.2021
1075 Clouds 18 1016 42 10000 5.14 230 10:48 25.03.2021
1076 Clouds 17 1016 42 10000 5.14 230 10:21 25.03.2021
1077 Clouds 17 1017 45 10000 3.6 230 09:48 25.03.2021
1078 Clouds 16 1017 51 10000 3.6 250 09:29 25.03.2021
1079 Clouds 16 1017 55 10000 3.09 220 08:37 25.03.2021
1080 Clouds 15 1016 55 10000 3.09 230 07:50 25.03.2021
1081 Clouds 13 1016 67 10000 3.6 240 06:57 25.03.2021
1082 Clouds 12 1016 67 10000 2.57 240 06:24 25.03.2021
1083 Clear 12 1016 67 10000 2.57 240 05:46 25.03.2021
1084 Clear 13 1015 71 10000 2.06 330 02:28 25.03.2021
1085 Clear 14 1015 62 10000 3.6 300 00:21 25.03.2021
1086 Clear 13 1015 62 10000 3.09 290 23:48 24.03.2021
1087 Clear 14 1015 58 10000 3.6 290 23:23 24.03.2021
1088 Clear 14 1015 58 10000 3.6 290 22:41 24.03.2021
1089 Clear 14 1015 62 10000 4.12 290 22:20 24.03.2021
1090 Clear 14 1015 62 10000 4.12 290 21:42 24.03.2021
1091 Clear 15 1015 55 10000 3.09 280 21:21 24.03.2021
1092 Clouds 15 1015 58 10000 3.6 290 20:41 24.03.2021
1093 Clouds 15 1015 55 10000 5.66 290 20:19 24.03.2021
1094 Clouds 16 1014 51 10000 5.66 300 19:35 24.03.2021
1095 Clouds 16 1013 51 10000 7.72 290 18:58 24.03.2021
1096 Clouds 16 1013 51 10000 7.72 290 18:39 24.03.2021
1097 Clouds 17 1013 48 10000 8.23 300 18:20 24.03.2021
1098 Clouds 19 1011 32 6000 9.26 270 17:41 24.03.2021
1099 Clouds 19 1011 32 6000 9.26 270 17:22 24.03.2021
1100 Clouds 20 1011 32 6000 10.8 260 16:42 24.03.2021
1101 Clouds 20 1011 30 6000 9.77 250 16:23 24.03.2021
1102 Sand 20 1010 30 4000 9.26 260 15:43 24.03.2021
1103 Sand 20 1010 30 4000 9.26 240 15:23 24.03.2021
1104 Sand 20 1010 30 4000 9.26 250 14:46 24.03.2021
1105 Sand 21 1010 30 4000 11.32 270 14:24 24.03.2021
1106 Sand 21 1010 28 4000 11.32 240 13:52 24.03.2021
1107 Sand 21 1010 28 4000 11.83 220 13:27 24.03.2021
1108 Sand 21 1010 28 4000 13.89 230 12:42 24.03.2021
1109 Sand 20 1011 28 4000 8.23 250 12:21 24.03.2021
1110 Sand 21 1011 28 4000 11.32 240 11:42 24.03.2021
1111 Sand 19 1011 30 4000 12.35 240 10:58 24.03.2021
1112 Sand 19 1012 32 4000 10.29 250 10:36 24.03.2021
1113 Sand 18 1012 36 3000 9.26 230 09:58 24.03.2021
1114 Sand 18 1012 34 3000 9.26 240 09:38 24.03.2021
1115 Sand 18 1012 34 3000 9.26 240 09:20 24.03.2021
1116 Sand 18 1012 36 3000 9.77 250 08:49 24.03.2021
1117 Sand 17 1012 36 3000 10.29 240 08:24 24.03.2021
1118 Sand 16 1012 41 2000 10.8 250 07:37 24.03.2021
1119 Sand 14 1012 41 1500 11.32 240 06:52 24.03.2021
1120 Clear 15 1010 45 800 9.26 260 03:56 24.03.2021
1121 Clear 16 1011 60 10000 3.01 265 00:47 24.03.2021
1122 Clear 17 1011 60 10000 2.62 290 23:56 23.03.2021
1123 Clear 17 1011 60 10000 3.02 308 23:21 23.03.2021
1124 Clear 17 1011 60 10000 3.02 308 22:52 23.03.2021
1125 Clear 17 1011 60 10000 3.02 308 22:31 23.03.2021
1126 Clear 17 1011 60 10000 4.07 317 21:52 23.03.2021
1127 Clear 17 1011 60 10000 4.07 317 21:33 23.03.2021
1128 Clear 18 1011 60 10000 4.46 325 20:48 23.03.2021
1129 Clear 18 1010 57 10000 5.12 329 20:29 23.03.2021
1130 Clear 18 1010 57 10000 5.12 329 19:57 23.03.2021
1131 Clear 18 1010 57 10000 5.12 329 19:37 23.03.2021
1132 Clouds 19 1009 52 10000 6.45 329 19:19 23.03.2021
1133 Clouds 19 1009 52 10000 6.45 329 18:38 23.03.2021
1134 Clouds 21 1008 47 10000 6.75 324 18:18 23.03.2021
1135 Clouds 21 1008 47 10000 6.75 324 17:43 23.03.2021
1136 Clouds 22 1007 44 10000 7.87 314 17:21 23.03.2021
1137 Clouds 22 1007 44 10000 7.87 314 17:21 23.03.2021
1138 Clouds 23 1007 38 10000 9.07 308 16:26 23.03.2021
1139 Clouds 23 1007 38 10000 9.07 308 15:50 23.03.2021
1140 Clouds 25 1006 32 10000 9.92 305 15:23 23.03.2021
1141 Clouds 25 1006 32 10000 9.92 305 14:49 23.03.2021
1142 Clouds 27 1005 31 10000 9.95 301 14:19 23.03.2021
1143 Clouds 27 1005 31 10000 9.95 301 13:47 23.03.2021
1144 Clouds 27 1004 36 10000 12.01 298 13:25 23.03.2021
1145 Clouds 27 1004 36 10000 12.01 298 12:46 23.03.2021
1146 Clouds 32 1001 19 10000 9.39 190 12:26 23.03.2021
1147 Clouds 31 990 24 10000 6.25 301 11:49 23.03.2021
1148 Clouds 32 1001 19 10000 9.39 190 11:26 23.03.2021
1149 Clouds 32 990 24 10000 3 308 10:43 23.03.2021
1150 Clouds 32 1001 19 10000 9.39 190 10:21 23.03.2021
1151 Sand 32 1001 19 2000 5.66 180 09:54 23.03.2021
1152 Sand 31 1001 19 2000 5.66 180 09:24 23.03.2021
1153 Sand 32 1001 19 2000 5.66 180 08:55 23.03.2021
1154 Sand 31 1002 22 2000 6.17 200 08:37 23.03.2021
1155 Sand 31 1002 22 2000 6.17 200 08:19 23.03.2021
1156 Haze 29 1002 30 4000 4.12 170 07:28 23.03.2021
1157 Haze 26 1002 38 4000 2.57 170 06:53 23.03.2021
1158 Clouds 26 1000 38 6000 2.06 270 03:57 23.03.2021
1159 Clouds 27 1000 32 6000 3.09 290 03:18 23.03.2021
1160 Clouds 30 1002 25 6000 8.75 130 23:57 22.03.2021
1161 Clouds 31 1003 23 6000 10.8 120 23:21 22.03.2021
1162 Clouds 30 1003 25 6000 9.77 120 22:44 22.03.2021
1163 Clouds 31 1004 23 6000 12.35 110 22:21 22.03.2021
1164 Clouds 30 1004 23 6000 12.86 110 21:50 22.03.2021
1165 Clouds 30 1004 23 6000 13.89 120 21:27 22.03.2021
1166 Clouds 30 1005 23 10000 7.72 110 20:49 22.03.2021
1167 Clouds 30 1005 26 10000 8.23 110 20:29 22.03.2021
1168 Clouds 30 1005 22 10000 8.23 110 19:58 22.03.2021
1169 Clouds 30 1005 22 10000 8.23 110 19:40 22.03.2021
1170 Clouds 30 1006 20 10000 5.66 100 19:21 22.03.2021
1171 Clouds 31 1006 20 10000 5.66 100 18:42 22.03.2021
1172 Clouds 30 1006 20 10000 1.03 130 18:23 22.03.2021
1173 Clouds 32 1006 18 10000 1.54 60 17:50 22.03.2021
1174 Clouds 33 1006 18 10000 3.09 30 17:22 22.03.2021
1175 Clouds 33 1006 18 10000 3.09 30 17:22 22.03.2021
1176 Clouds 33 1006 19 10000 3.09 20 16:57 22.03.2021
1177 Clouds 33 1006 19 10000 3.09 20 16:39 22.03.2021
1178 Clouds 35 1006 16 10000 1.03 30 15:43 22.03.2021
1179 Clouds 35 1006 16 10000 2.57 340 15:25 22.03.2021
1180 Clouds 35 1006 16 10000 2.06 340 14:59 22.03.2021
1181 Clouds 35 1007 16 10000 0.51 30 14:34 22.03.2021
1182 Clouds 35 1007 16 10000 1.54 350 13:53 22.03.2021
1183 Clouds 35 1007 16 10000 1.54 350 13:34 22.03.2021
1184 Clouds 34 1008 21 6000 2.06 360 12:59 22.03.2021
1185 Clouds 34 1008 21 6000 2.06 360 12:41 22.03.2021
1186 Clouds 34 1008 21 6000 2.06 360 12:18 22.03.2021
1187 Clouds 34 1009 24 6000 1.54 50 11:41 22.03.2021
1188 Clouds 34 1009 24 6000 1.54 50 11:21 22.03.2021
1189 Haze 32 1009 29 4000 3.09 330 10:42 22.03.2021
1190 Haze 32 1009 29 4000 3.09 330 10:22 22.03.2021
1191 Haze 32 1010 27 4000 3.6 320 09:37 22.03.2021
1192 Haze 30 1010 23 3000 4.63 350 08:59 22.03.2021
1193 Haze 30 1010 23 3000 4.63 350 08:41 22.03.2021
1194 Haze 29 1009 24 4000 4.12 340 08:23 22.03.2021
1195 Clouds 29 1009 21 6000 4.12 300 07:43 22.03.2021
1196 Clouds 29 1007 20 6000 3.09 50 06:52 22.03.2021
1197 Clouds 28 1007 20 6000 2.57 70 05:43 22.03.2021
1198 Clouds 30 1007 17 6000 1.54 50 01:58 22.03.2021
1199 Clouds 30 1007 17 6000 4.63 140 00:27 22.03.2021
1200 Clouds 30 1007 17 6000 4.12 140 23:53 21.03.2021
1201 Clouds 30 1007 17 6000 4.12 140 23:53 21.03.2021
1202 Clouds 29 1008 23 6000 1.54 210 23:19 21.03.2021
1203 Clouds 31 1008 20 6000 1.03 210 22:55 21.03.2021
1204 Dust 30 1008 19 3000 4.12 160 21:58 21.03.2021
1205 Sand 30 1008 20 3000 5.66 110 21:39 21.03.2021
1206 Sand 30 1008 20 3000 5.66 110 21:21 21.03.2021
1207 Sand 29 1008 21 3000 5.66 110 20:41 21.03.2021
1208 Haze 29 1008 21 3000 4.63 140 20:23 21.03.2021
1209 Haze 28 1008 21 3000 4.63 140 19:52 21.03.2021
1210 Haze 30 1008 20 2000 2.57 110 19:21 21.03.2021
1211 Haze 30 1008 21 2000 2.57 110 18:47 21.03.2021
1212 Haze 29 1008 24 2000 4.63 50 18:27 21.03.2021
1213 Haze 29 1008 28 2000 3.6 150 17:46 21.03.2021
1214 Haze 29 1007 30 2000 2.06 100 17:20 21.03.2021
1215 Haze 30 1008 32 2000 1.03 150 16:58 21.03.2021
1216 Haze 30 1007 32 2000 3.09 120 16:32 21.03.2021
1217 Haze 30 1006 37 2000 5.14 70 15:58 21.03.2021
1218 Haze 30 1006 37 2000 5.14 70 15:39 21.03.2021
1219 Haze 29 1007 45 2000 2.06 80 15:19 21.03.2021
1220 Haze 29 1007 45 2000 1.54 20 14:44 21.03.2021
1221 Haze 29 1007 45 2000 2.06 350 14:26 21.03.2021
1222 Haze 30 1008 37 2000 2.06 360 13:54 21.03.2021
1223 Haze 31 1008 35 3000 2.06 320 13:00 21.03.2021
1224 Haze 31 1008 35 3000 2.06 320 12:41 21.03.2021
1225 Haze 31 1009 33 3000 1.03 330 12:22 21.03.2021
1226 Haze 30 1010 32 3000 1.54 260 11:28 21.03.2021
1227 Haze 29 1010 34 3000 2.06 280 10:59 21.03.2021
1228 Haze 29 1010 34 3000 2.06 280 10:41 21.03.2021
1229 Haze 28 1010 36 3000 2.46 193 10:22 21.03.2021
1230 Haze 27 1010 41 3000 2.57 310 09:44 21.03.2021
1231 Haze 26 1010 41 3000 1.54 330 09:26 21.03.2021
1232 Haze 26 1010 38 3000 1.54 340 08:40 21.03.2021
1233 Haze 26 1010 38 3000 1.54 340 08:21 21.03.2021
1234 Haze 26 1010 38 3000 1.54 340 08:21 21.03.2021
1235 Haze 26 1010 27 4000 4.12 120 07:38 21.03.2021
1236 Clouds 24 1010 31 6000 4.63 110 06:56 21.03.2021
1237 Clouds 18 1009 48 6000 5.14 100 05:45 21.03.2021
1238 Clear 16 1010 77 6000 3.6 40 02:23 21.03.2021
1239 Clear 17 1010 72 6000 3.6 50 00:42 21.03.2021
1240 Clear 17 1010 72 6000 4.12 40 00:22 21.03.2021
1241 Clear 18 1010 63 6000 4.12 40 23:48 20.03.2021
1242 Clear 19 1010 59 6000 4.12 40 23:22 20.03.2021
1243 Haze 21 1010 56 4000 2.57 40 22:55 20.03.2021
1244 Haze 23 1010 49 4000 1.54 10 22:22 20.03.2021
1245 Clear 23 1010 53 6000 1.54 330 21:47 20.03.2021
1246 Clear 24 1009 43 6000 3.09 290 21:25 20.03.2021
1247 Clear 26 1009 27 10000 2.06 270 20:45 20.03.2021
1248 Clear 25 1009 22 10000 3.09 150 20:23 20.03.2021
1249 Clear 25 1009 31 10000 5.66 130 19:51 20.03.2021
1250 Clear 24 1009 50 10000 6.17 80 19:28 20.03.2021
1251 Clear 24 1010 46 6000 4.63 40 18:50 20.03.2021
1252 Clear 25 1010 38 6000 4.63 40 18:27 20.03.2021
1253 Clear 27 1010 28 6000 3.09 20 17:56 20.03.2021
1254 Clear 27 1010 28 6000 3.09 20 17:33 20.03.2021
1255 Clear 30 1010 12 6000 3.09 240 16:56 20.03.2021
1256 Clear 31 1009 12 10000 1.54 210 16:37 20.03.2021
1257 Clear 31 1009 12 10000 1.54 210 16:18 20.03.2021
1258 Clouds 32 1009 12 10000 1.54 220 15:40 20.03.2021
1259 Clouds 32 1010 12 10000 2.06 200 14:55 20.03.2021
1260 Clouds 31 1010 11 10000 5.66 210 14:31 20.03.2021
1261 Clouds 31 1010 10 10000 4.63 200 13:56 20.03.2021
1262 Clouds 31 1011 12 10000 2.06 200 13:24 20.03.2021
1263 Clouds 30 1012 14 10000 4.63 250 12:28 20.03.2021
1264 Clouds 29 1012 18 10000 3.09 280 11:55 20.03.2021
1265 Clouds 29 1012 18 10000 3.09 280 11:36 20.03.2021
1266 Clouds 29 1012 20 10000 2.06 290 11:18 20.03.2021
1267 Clouds 24 1013 35 10000 2.06 80 10:38 20.03.2021
1268 Clouds 24 1013 35 10000 2.06 80 10:19 20.03.2021
1269 Clouds 21 1015 43 10000 2.06 280 09:42 20.03.2021
1270 Clouds 21 1015 43 10000 2.06 280 09:21 20.03.2021
1271 Clouds 21 1015 43 10000 2.06 280 09:21 20.03.2021
1272 Clouds 21 1014 46 10000 2.06 320 08:48 20.03.2021
1273 Clouds 18 1013 55 10000 4.12 60 07:58 20.03.2021
1274 Clouds 18 1013 55 10000 4.12 60 07:39 20.03.2021
1275 Clouds 16 1014 63 10000 3.09 10 07:20 20.03.2021
1276 Clouds 16 1014 63 10000 2.57 70 06:34 20.03.2021
1277 Clear 14 1012 67 10000 7.72 70 04:44 20.03.2021
1278 Clear 14 1014 72 10000 4.12 30 03:43 20.03.2021
1279 Clear 15 1015 67 10000 4.63 60 00:43 20.03.2021
1280 Clear 15 1016 59 10000 5.14 60 23:45 19.03.2021
1281 Clear 16 1016 59 10000 5.14 70 23:18 19.03.2021
1282 Clear 16 1016 59 10000 5.14 60 22:42 19.03.2021
1283 Clear 17 1017 55 10000 6.17 50 22:22 19.03.2021
1284 Clear 17 1017 55 10000 7.2 50 21:38 19.03.2021
1285 Clear 17 1017 55 10000 7.2 50 21:38 19.03.2021
1286 Clear 17 1017 59 10000 6.17 40 21:19 19.03.2021
1287 Clear 18 1017 52 10000 6.69 50 20:44 19.03.2021
1288 Clear 18 1017 55 10000 7.2 40 20:26 19.03.2021
1289 Clear 19 1017 48 10000 8.23 30 19:47 19.03.2021
1290 Clear 20 1017 37 10000 6.17 30 19:22 19.03.2021
1291 Clear 21 1017 35 10000 5.14 20 18:49 19.03.2021
1292 Clear 21 1016 35 10000 5.14 30 18:21 19.03.2021
1293 Clear 22 1016 30 10000 4.63 50 17:58 19.03.2021
1294 Clear 22 1016 35 10000 5.66 20 17:38 19.03.2021
1295 Clear 22 1016 35 10000 5.66 20 17:18 19.03.2021
1296 Clear 23 1016 35 10000 5.66 20 16:43 19.03.2021
1297 Clear 23 1016 31 10000 4.63 30 16:23 19.03.2021
1298 Clear 24 1016 31 10000 3.6 20 15:33 19.03.2021
1299 Clear 24 1016 29 10000 4.63 30 14:51 19.03.2021
1300 Clear 23 1016 29 10000 4.12 40 14:33 19.03.2021
1301 Clear 24 1017 29 10000 1.54 30 13:50 19.03.2021
1302 Clear 22 1017 31 10000 3.09 360 13:19 19.03.2021
1303 Clear 21 1018 35 10000 3.6 350 12:42 19.03.2021
1304 Clear 21 1018 35 10000 4.63 350 12:18 19.03.2021
1305 Clear 21 1018 37 10000 2.57 50 11:33 19.03.2021
1306 Clear 19 1019 42 10000 2.57 30 10:43 19.03.2021
1307 Clear 19 1019 45 10000 3.09 50 10:22 19.03.2021
1308 Clear 19 1019 52 10000 4.63 50 09:44 19.03.2021
1309 Clear 18 1019 52 10000 5.14 50 09:25 19.03.2021
1310 Clear 18 1019 55 10000 6.17 60 08:52 19.03.2021
1311 Clear 16 1019 55 10000 5.66 60 08:28 19.03.2021
1312 Clear 15 1019 67 10000 5.66 60 07:50 19.03.2021
1313 Clear 15 1019 67 10000 5.66 60 07:31 19.03.2021
1314 Clear 12 1018 76 10000 3.09 90 05:29 19.03.2021
1315 Clear 13 1017 67 10000 4.12 30 02:20 19.03.2021
1316 Clear 15 1018 67 10000 5.14 40 23:57 18.03.2021
1317 Clear 15 1018 67 10000 5.14 40 23:29 18.03.2021
1318 Clear 15 1018 63 10000 5.66 40 22:54 18.03.2021
1319 Clear 15 1018 63 10000 5.66 40 22:26 18.03.2021
1320 Clear 15 1018 59 10000 6.17 50 21:55 18.03.2021
1321 Clear 16 1018 59 10000 6.17 50 21:36 18.03.2021
1322 Clear 17 1018 59 10000 6.17 30 20:43 18.03.2021
1323 Clear 17 1018 55 10000 4.63 40 20:23 18.03.2021
1324 Clear 18 1017 52 10000 6.17 30 19:43 18.03.2021
1325 Clear 19 1017 48 10000 5.14 20 19:24 18.03.2021
1326 Clouds 19 1017 48 10000 5.14 20 18:53 18.03.2021
1327 Clear 19 1017 48 10000 5.14 360 18:26 18.03.2021
1328 Clear 19 1017 48 10000 5.14 360 18:26 18.03.2021
1329 Clouds 20 1017 48 10000 5.14 10 17:44 18.03.2021
1330 Clouds 20 1016 42 10000 5.14 10 17:20 18.03.2021
1331 Clouds 21 1016 40 10000 2.06 360 16:42 18.03.2021
1332 Clouds 21 1016 40 10000 2.06 360 16:23 18.03.2021
1333 Clouds 22 1016 37 10000 5.14 320 15:43 18.03.2021
1334 Clouds 22 1016 37 10000 3.09 330 15:23 18.03.2021
1335 Clouds 22 1016 37 10000 5.14 340 14:52 18.03.2021
1336 Clouds 23 1016 37 10000 3.6 330 14:29 18.03.2021
1337 Clouds 23 1017 35 10000 4.63 350 13:49 18.03.2021
1338 Clouds 23 1017 35 10000 2.57 310 13:25 18.03.2021
1339 Clouds 23 1017 35 10000 3.6 320 12:42 18.03.2021
1340 Clouds 22 1017 33 10000 3.09 300 12:24 18.03.2021
1341 Clouds 22 1017 35 10000 3.6 350 11:51 18.03.2021
1342 Clouds 22 1017 35 10000 3.6 350 11:31 18.03.2021
1343 Clouds 21 1018 35 10000 2.57 320 10:45 18.03.2021
1344 Clouds 20 1018 37 10000 3.09 320 10:25 18.03.2021
1345 Clear 20 1018 35 10000 4.12 310 09:54 18.03.2021
1346 Clear 19 1018 40 10000 2.57 350 09:28 18.03.2021
1347 Clear 19 1018 37 10000 2.06 340 08:50 18.03.2021
1348 Clear 18 1018 45 10000 1.5 6 08:30 18.03.2021
1349 Clear 17 1018 48 10000 1.5 6 07:52 18.03.2021
1350 Clear 16 1018 48 10000 1.26 25 07:24 18.03.2021
1351 Clear 14 1017 58 10000 1.03 140 06:28 18.03.2021
1352 Clear 14 1017 62 10000 1.54 150 05:53 18.03.2021
1353 Clear 15 1016 72 10000 1.03 30 01:24 18.03.2021
1354 Clear 15 1017 63 10000 1.03 60 23:59 17.03.2021
1355 Clear 15 1016 59 10000 2.57 360 22:54 17.03.2021
1356 Clear 17 1016 55 10000 2.06 350 22:27 17.03.2021
1357 Clear 17 1016 55 10000 3.09 360 21:57 17.03.2021
1358 Clear 17 1016 55 10000 3.6 350 21:39 17.03.2021
1359 Clear 17 1016 55 10000 3.6 350 21:19 17.03.2021
1360 Clear 17 1016 55 10000 3.6 350 20:43 17.03.2021
1361 Clear 18 1016 52 10000 4.63 360 20:24 17.03.2021
1362 Clear 19 1015 45 10000 5.14 340 19:46 17.03.2021
1363 Clear 19 1015 45 10000 5.14 340 19:22 17.03.2021
1364 Clear 21 1014 32 10000 4.12 290 18:57 17.03.2021
1365 Clear 22 1014 32 10000 4.12 290 18:38 17.03.2021
1366 Clear 22 1014 28 10000 4.12 280 17:56 17.03.2021
1367 Clear 23 1013 27 10000 5.14 290 17:27 17.03.2021
1368 Clear 23 1013 23 10000 5.66 280 16:54 17.03.2021
1369 Clear 24 1013 20 10000 6.17 270 16:36 17.03.2021
1370 Clear 24 1013 20 10000 6.17 270 16:18 17.03.2021
1371 Clear 25 1012 20 10000 5.14 260 15:37 17.03.2021
1372 Clear 25 1012 20 10000 5.66 260 14:45 17.03.2021
1373 Clear 24 1012 19 10000 7.2 270 14:27 17.03.2021
1374 Clear 24 1012 22 10000 5.66 250 13:56 17.03.2021
1375 Clear 24 1013 22 10000 7.72 280 13:32 17.03.2021
1376 Clear 24 1013 25 10000 7.2 250 12:58 17.03.2021
1377 Clear 23 1013 25 10000 7.2 250 12:34 17.03.2021
1378 Clear 24 1014 25 10000 5.66 250 11:53 17.03.2021
1379 Clear 23 1014 28 10000 5.14 280 11:24 17.03.2021
1380 Clear 23 1014 27 10000 5.66 260 10:57 17.03.2021
1381 Clear 23 1015 25 10000 4.63 240 10:34 17.03.2021
1382 Clear 22 1015 28 10000 4.12 300 09:59 17.03.2021
1383 Clear 21 1015 28 10000 4.12 300 09:41 17.03.2021
1384 Clear 20 1015 37 10000 2.06 290 09:19 17.03.2021
1385 Clear 20 1015 37 10000 2.06 290 09:19 17.03.2021
1386 Clear 19 1015 52 10000 1.54 240 08:39 17.03.2021
1387 Clear 19 1015 52 10000 1.54 240 08:20 17.03.2021
1388 Clear 17 1015 55 10000 1.54 170 07:36 17.03.2021
1389 Clear 15 1014 67 10000 2.06 70 06:47 17.03.2021
1390 Clear 14 1013 72 10000 1.54 80 04:27 17.03.2021
1391 Clear 15 1013 67 10000 3.09 110 03:30 17.03.2021
1392 Clear 15 1014 67 10000 3.09 60 00:44 17.03.2021
1393 Clear 15 1014 63 10000 4.12 70 00:24 17.03.2021
1394 Clear 16 1015 63 10000 4.12 40 23:25 16.03.2021
1395 Clear 15 1015 63 10000 6.17 20 22:44 16.03.2021
1396 Clear 15 1015 63 10000 6.17 20 22:44 16.03.2021
1397 Clear 17 1015 59 10000 5.66 20 22:25 16.03.2021
1398 Clear 17 1015 59 10000 6.69 30 21:43 16.03.2021
1399 Clear 18 1015 59 10000 7.2 40 21:25 16.03.2021
1400 Clear 18 1015 63 10000 6.69 40 20:56 16.03.2021
1401 Clear 18 1015 63 10000 6.17 320 20:19 16.03.2021
1402 Clear 18 1015 63 10000 7.2 40 19:48 16.03.2021
1403 Clear 20 1014 64 10000 6.69 360 19:27 16.03.2021
1404 Clear 20 1013 56 10000 6.17 20 18:56 16.03.2021
1405 Clear 21 1013 52 10000 4.63 350 18:36 16.03.2021
1406 Clear 22 1013 46 10000 3.6 340 17:55 16.03.2021
1407 Clear 22 1013 46 10000 3.6 340 17:36 16.03.2021
1408 Clear 22 1013 43 10000 2.57 320 16:58 16.03.2021
1409 Clear 23 1013 43 10000 2.57 320 16:38 16.03.2021
1410 Clear 23 1013 40 10000 3.09 360 16:19 16.03.2021
1411 Clear 24 1013 40 10000 1.54 10 15:40 16.03.2021
1412 Clear 23 1013 43 10000 3.09 290 15:19 16.03.2021
1413 Clear 24 1013 40 10000 4.63 10 14:56 16.03.2021
1414 Clear 23 1013 40 10000 4.63 10 14:38 16.03.2021
1415 Clear 24 1013 40 10000 4.63 350 14:18 16.03.2021
1416 Clear 23 1013 40 10000 4.63 310 13:42 16.03.2021
1417 Clear 23 1013 43 6000 4.12 340 13:21 16.03.2021
1418 Clear 23 1014 40 6000 4.12 350 12:43 16.03.2021
1419 Clear 21 1014 49 6000 4.12 350 12:23 16.03.2021
1420 Clear 21 1014 52 6000 3.09 350 11:36 16.03.2021
1421 Clear 20 1015 56 6000 2.57 340 10:53 16.03.2021
1422 Clear 19 1015 59 6000 3.6 320 10:24 16.03.2021
1423 Clear 19 1015 63 6000 3.6 330 09:47 16.03.2021
1424 Clear 18 1015 72 6000 4.63 310 09:29 16.03.2021
1425 Clear 18 1015 68 6000 3.6 350 08:58 16.03.2021
1426 Clear 18 1015 72 6000 2.57 350 08:40 16.03.2021
1427 Clear 16 1015 72 6000 2.57 350 08:18 16.03.2021
1428 Mist 15 1014 77 3000 3.09 10 07:33 16.03.2021
1429 Mist 14 1013 88 2000 2.57 60 06:39 16.03.2021
1430 Mist 13 1013 88 2000 1.54 80 05:40 16.03.2021
1431 Mist 13 1013 88 2000 1.54 80 05:21 16.03.2021
1432 Clear 14 1011 82 10000 2.06 350 02:45 16.03.2021
1433 Clear 15 1011 82 10000 2.06 360 02:23 16.03.2021
1434 Clear 15 1011 82 10000 4.12 30 23:56 15.03.2021
1435 Clear 16 1011 77 10000 4.12 30 23:28 15.03.2021
1436 Clear 16 1011 77 10000 4.12 30 22:51 15.03.2021
1437 Clear 16 1012 77 10000 4.63 20 22:33 15.03.2021
1438 Clear 17 1012 77 10000 4.63 20 21:55 15.03.2021
1439 Clear 17 1011 72 10000 4.63 40 21:34 15.03.2021
1440 Clear 18 1011 72 10000 5.66 40 20:58 15.03.2021
1441 Clear 18 1011 68 10000 6.17 30 20:40 15.03.2021
1442 Clear 18 1011 68 10000 6.17 30 20:21 15.03.2021
1443 Clear 18 1011 68 10000 6.69 20 19:50 15.03.2021
1444 Clear 18 1011 68 10000 6.69 20 19:50 15.03.2021
1445 Clear 18 1011 68 10000 6.69 20 19:31 15.03.2021
1446 Clear 19 1011 68 10000 7.2 30 18:57 15.03.2021
1447 Clear 21 1010 64 10000 5.14 360 18:28 15.03.2021
1448 Clear 21 1010 56 10000 5.14 350 17:56 15.03.2021
1449 Clear 21 1010 56 10000 5.14 350 17:32 15.03.2021
1450 Clear 22 1010 53 10000 5.14 350 16:55 15.03.2021
1451 Clear 22 1010 53 10000 5.14 350 16:35 15.03.2021
1452 Clear 23 1009 49 10000 4.63 10 15:47 15.03.2021
1453 Clear 23 1009 49 10000 4.63 10 15:26 15.03.2021
1454 Clear 23 1009 46 10000 4.63 340 14:45 15.03.2021
1455 Clear 23 1009 46 10000 5.66 360 14:24 15.03.2021
1456 Clouds 23 1009 46 10000 5.14 360 13:53 15.03.2021
1457 Clouds 22 1009 46 10000 5.66 350 13:34 15.03.2021
1458 Clouds 25 1009 43 10000 4.63 350 12:50 15.03.2021
1459 Clouds 23 1010 43 10000 4.63 350 12:20 15.03.2021
1460 Clouds 24 1010 46 10000 4.63 360 11:56 15.03.2021
1461 Clouds 22 1010 46 10000 4.63 360 11:38 15.03.2021
1462 Clouds 21 1011 52 10000 4.12 360 10:59 15.03.2021
1463 Clouds 20 1011 52 10000 3.09 20 10:33 15.03.2021
1464 Clear 21 1011 56 10000 2.06 20 09:54 15.03.2021
1465 Clear 19 1011 63 10000 4.12 70 09:36 15.03.2021
1466 Clear 18 1011 68 10000 4.12 60 08:59 15.03.2021
1467 Clear 18 1011 68 10000 4.12 60 08:41 15.03.2021
1468 Clear 17 1011 77 10000 5.14 60 08:19 15.03.2021
1469 Clouds 16 1011 77 10000 5.14 50 07:32 15.03.2021
1470 Clouds 15 1010 88 6000 3.09 60 06:44 15.03.2021
1471 Clouds 15 1010 88 6000 3.09 40 05:34 15.03.2021
1472 Clouds 16 1009 82 10000 5.66 20 03:18 15.03.2021
1473 Clouds 15 1013 82 6000 4.12 20 00:21 15.03.2021
1474 Clear 16 1014 77 10000 3.6 10 23:22 14.03.2021
1475 Clear 15 1014 77 10000 3.09 20 22:49 14.03.2021
1476 Clear 16 1013 77 10000 5.14 50 22:27 14.03.2021
1477 Clear 15 1014 77 10000 3.09 60 21:51 14.03.2021
1478 Clear 16 1014 77 10000 4.12 50 21:22 14.03.2021
1479 Clouds 16 1014 77 10000 5.66 60 20:50 14.03.2021
1480 Clouds 17 1014 72 10000 6.17 40 20:27 14.03.2021
1481 Clouds 17 1014 72 10000 7.2 30 19:56 14.03.2021
1482 Clouds 17 1014 72 10000 7.2 30 19:37 14.03.2021
1483 Clouds 17 1014 72 10000 5.66 40 19:18 14.03.2021
1484 Clouds 18 1013 72 10000 6.17 30 18:36 14.03.2021
1485 Clouds 20 1013 68 10000 5.66 20 17:44 14.03.2021
1486 Clouds 20 1013 60 10000 6.69 10 17:24 14.03.2021
1487 Clear 20 1013 56 10000 7.2 360 16:54 14.03.2021
1488 Clear 22 1013 52 10000 7.2 10 16:35 14.03.2021
1489 Clear 22 1013 46 10000 7.2 20 15:59 14.03.2021
1490 Clear 22 1013 46 10000 7.2 20 15:40 14.03.2021
1491 Clear 23 1013 46 10000 5.14 340 14:51 14.03.2021
1492 Clear 23 1013 43 10000 5.66 10 14:30 14.03.2021
1493 Clear 23 1013 38 10000 5.14 360 13:53 14.03.2021
1494 Clear 22 1013 38 10000 5.14 360 13:34 14.03.2021
1495 Clear 21 1013 43 10000 6.17 20 12:56 14.03.2021
1496 Clear 21 1013 43 10000 6.17 20 12:37 14.03.2021
1497 Clear 20 1013 40 10000 6.69 30 12:18 14.03.2021
1498 Clear 19 1014 45 10000 6.69 40 11:38 14.03.2021
1499 Clear 19 1014 48 10000 6.69 50 11:19 14.03.2021
1500 Clear 19 1015 52 10000 6.69 30 10:38 14.03.2021
1501 Clear 18 1015 55 10000 6.17 40 10:19 14.03.2021
1502 Clouds 18 1015 59 10000 7.2 40 09:56 14.03.2021
1503 Clouds 16 1015 59 10000 7.2 40 09:37 14.03.2021
1504 Clouds 16 1015 63 10000 7.72 50 09:19 14.03.2021
1505 Clouds 16 1016 63 10000 7.2 50 08:36 14.03.2021
1506 Clouds 14 1015 67 10000 7.72 50 07:56 14.03.2021
1507 Clouds 12 1016 76 6000 4.63 60 07:27 14.03.2021
1508 Clouds 11 1016 82 6000 3.6 40 05:34 14.03.2021
1509 Clear 12 1017 76 10000 3.6 30 01:25 14.03.2021
1510 Clear 13 1018 71 10000 3.6 30 00:20 14.03.2021
1511 Clear 13 1018 71 10000 5.66 30 23:59 13.03.2021
1512 Clear 13 1018 71 10000 5.66 30 23:38 13.03.2021
1513 Clear 13 1018 71 10000 5.66 30 23:18 13.03.2021
1514 Clear 14 1018 67 10000 5.66 30 22:44 13.03.2021
1515 Clear 14 1018 67 10000 5.66 30 22:18 13.03.2021
1516 Clouds 14 1018 67 10000 6.69 40 21:35 13.03.2021
1517 Clouds 15 1018 63 10000 8.23 40 20:59 13.03.2021
1518 Clouds 15 1018 63 10000 8.23 40 20:41 13.03.2021
1519 Clouds 15 1018 63 10000 8.23 40 20:22 13.03.2021
1520 Clouds 16 1018 63 10000 9.77 30 19:38 13.03.2021
1521 Clouds 16 1018 63 10000 9.77 30 19:20 13.03.2021
1522 Clouds 17 1018 59 6000 9.26 30 18:42 13.03.2021
1523 Clouds 18 1017 55 6000 7.72 360 18:20 13.03.2021
1524 Clouds 18 1017 55 6000 7.2 360 17:49 13.03.2021
1525 Clouds 19 1017 52 6000 6.69 340 17:31 13.03.2021
1526 Clouds 20 1017 52 6000 6.17 360 16:52 13.03.2021
1527 Clouds 20 1017 45 6000 6.17 350 16:34 13.03.2021
1528 Clouds 20 1016 40 6000 4.63 350 15:55 13.03.2021
1529 Clouds 20 1016 42 6000 4.12 20 15:18 13.03.2021
1530 Clouds 21 1017 40 6000 4.63 350 14:41 13.03.2021
1531 Clouds 20 1016 42 6000 4.12 20 14:21 13.03.2021
1532 Clouds 20 1017 40 6000 4.63 360 13:28 13.03.2021
1533 Clouds 19 1017 42 6000 4.63 10 12:52 13.03.2021
1534 Clouds 19 1018 45 6000 4.63 10 12:34 13.03.2021
1535 Clouds 18 1019 48 6000 4.12 350 11:57 13.03.2021
1536 Clouds 18 1019 48 6000 4.63 360 11:38 13.03.2021
1537 Clouds 18 1019 48 6000 4.63 360 11:19 13.03.2021
1538 Clouds 16 1020 51 6000 4.63 340 10:31 13.03.2021
1539 Clouds 16 1020 51 10000 4.63 340 09:59 13.03.2021
1540 Clouds 15 1020 51 10000 4.12 20 09:32 13.03.2021
1541 Clouds 15 1020 55 10000 4.12 10 08:54 13.03.2021
1542 Clouds 15 1020 55 10000 4.12 10 08:54 13.03.2021
1543 Clouds 15 1020 55 10000 4.12 10 08:54 13.03.2021
1544 Clouds 15 1020 55 10000 5.14 10 08:21 13.03.2021
1545 Clouds 14 1020 55 10000 5.66 10 07:57 13.03.2021
1546 Clouds 13 1019 58 10000 4.63 360 07:33 13.03.2021
1547 Clouds 13 1019 62 10000 3.6 20 05:30 13.03.2021
1548 Clouds 12 1019 62 10000 4.12 350 02:42 13.03.2021
1549 Clouds 13 1019 62 10000 4.12 330 00:36 13.03.2021
1550 Clouds 13 1019 62 10000 2.57 360 23:46 12.03.2021
1551 Clouds 13 1019 67 10000 3.6 320 23:26 12.03.2021
1552 Clouds 14 1019 62 10000 4.12 330 22:32 12.03.2021
1553 Clouds 14 1019 62 10000 3.6 330 21:59 12.03.2021
1554 Clouds 14 1019 62 10000 4.63 340 21:38 12.03.2021
1555 Clouds 14 1019 62 10000 4.63 340 21:37 12.03.2021
1556 Clouds 14 1019 62 10000 4.63 340 21:37 12.03.2021
1557 Clouds 14 1019 62 10000 4.63 340 21:18 12.03.2021
1558 Clouds 14 1019 62 10000 5.66 340 20:48 12.03.2021
1559 Clouds 15 1019 58 10000 6.17 330 20:23 12.03.2021
1560 Clouds 15 1019 58 10000 6.17 340 19:45 12.03.2021
1561 Clouds 15 1019 58 10000 6.17 340 19:45 12.03.2021
1562 Clouds 16 1019 55 10000 6.17 320 19:26 12.03.2021
1563 Clouds 16 1018 55 10000 6.69 340 18:50 12.03.2021
1564 Clouds 17 1018 55 10000 6.69 330 18:28 12.03.2021
1565 Clouds 17 1018 55 10000 6.17 330 17:45 12.03.2021
1566 Clouds 18 1017 52 10000 6.17 330 17:27 12.03.2021
1567 Clouds 18 1017 48 10000 5.66 320 16:44 12.03.2021
1568 Clouds 19 1017 45 10000 6.69 330 16:25 12.03.2021
1569 Clouds 20 1017 42 10000 6.17 300 15:40 12.03.2021
1570 Clouds 20 1017 42 10000 6.17 300 15:18 12.03.2021
1571 Clouds 20 1016 45 10000 5.14 340 14:40 12.03.2021
1572 Clouds 20 1016 45 10000 5.14 340 14:18 12.03.2021
1573 Clouds 20 1017 42 10000 4.63 310 13:40 12.03.2021
1574 Clouds 20 1017 42 10000 4.63 310 13:19 12.03.2021
1575 Clouds 20 1017 40 10000 4.12 300 12:49 12.03.2021
1576 Clouds 19 1017 45 10000 5.14 320 12:28 12.03.2021
1577 Clouds 21 1017 45 10000 3.6 310 11:54 12.03.2021
1578 Clouds 17 1018 48 10000 2.57 330 11:30 12.03.2021
1579 Clouds 17 1018 48 10000 2.57 330 10:57 12.03.2021
1580 Clouds 17 1019 51 10000 4.63 340 10:28 12.03.2021
1581 Clouds 18 1019 51 10000 5.66 320 09:58 12.03.2021
1582 Clouds 17 1018 48 10000 7.72 330 09:28 12.03.2021
1583 Clouds 16 1018 55 10000 4.12 310 08:57 12.03.2021
1584 Clouds 16 1018 55 10000 5.66 290 08:38 12.03.2021
1585 Clouds 15 1018 55 10000 5.14 290 07:41 12.03.2021
1586 Clouds 15 1018 58 10000 5.66 290 07:19 12.03.2021
1587 Clouds 14 1017 62 10000 5.66 280 06:40 12.03.2021
1588 Clouds 14 1017 62 10000 5.14 290 05:43 12.03.2021
1589 Clouds 16 1015 67 10000 8.75 270 00:52 12.03.2021
1590 Clouds 16 1015 67 10000 8.75 280 23:40 11.03.2021
1591 Clouds 17 1015 67 10000 6.17 260 22:58 11.03.2021
1592 Clouds 17 1015 67 10000 6.17 260 22:38 11.03.2021
1593 Clouds 17 1015 67 10000 5.14 270 22:18 11.03.2021
1594 Clouds 17 1016 67 10000 6.69 270 21:46 11.03.2021
1595 Clouds 17 1016 67 10000 6.17 280 21:22 11.03.2021
1596 Clouds 17 1015 67 10000 5.14 280 20:49 11.03.2021
1597 Clouds 17 1015 67 10000 5.66 290 20:22 11.03.2021
1598 Clouds 19 1014 63 10000 5.66 300 19:49 11.03.2021
1599 Clouds 19 1014 63 10000 5.66 300 19:30 11.03.2021
1600 Clouds 21 1014 56 10000 7.2 290 18:52 11.03.2021
1601 Clouds 21 1014 56 10000 7.2 290 18:34 11.03.2021
1602 Clouds 21 1013 60 10000 7.72 310 17:52 11.03.2021
1603 Clouds 22 1012 56 10000 7.72 310 17:30 11.03.2021
1604 Clouds 24 1012 43 10000 6.17 300 16:32 11.03.2021
1605 Clouds 25 1012 41 10000 5.66 310 15:55 11.03.2021
1606 Clouds 25 1012 41 10000 4.63 280 15:37 11.03.2021
1607 Clouds 25 1012 41 10000 4.63 280 15:19 11.03.2021
1608 Clouds 25 1012 41 10000 4.12 280 14:38 11.03.2021
1609 Clouds 25 1012 41 10000 4.12 280 14:18 11.03.2021
1610 Clouds 25 1012 44 10000 4.12 290 13:43 11.03.2021
1611 Clouds 25 1013 46 10000 4.63 290 13:21 11.03.2021
1612 Clouds 24 1013 44 10000 5.14 310 12:49 11.03.2021
1613 Clouds 24 1013 46 10000 5.14 290 12:27 11.03.2021
1614 Clouds 23 1013 46 10000 5.66 300 11:45 11.03.2021
1615 Clouds 23 1013 46 10000 5.66 310 11:27 11.03.2021
1616 Clouds 23 1013 46 10000 3.09 270 10:50 11.03.2021
1617 Clouds 20 1013 56 10000 4.12 20 10:22 11.03.2021
1618 Clouds 22 1013 60 10000 1.54 260 09:48 11.03.2021
1619 Clouds 20 1014 60 10000 5.14 10 09:29 11.03.2021
1620 Clouds 20 1014 63 10000 1.54 300 08:48 11.03.2021
1621 Clouds 17 1014 77 10000 1.54 330 08:24 11.03.2021
1622 Clouds 17 1014 77 10000 1.54 330 08:24 11.03.2021
1623 Clouds 17 1014 68 10000 1.47 357 07:44 11.03.2021
1624 Clouds 17 1014 68 10000 1.47 357 07:44 11.03.2021
1625 Clouds 16 1014 77 6000 2.57 320 06:54 11.03.2021
1626 Clouds 16 1014 77 6000 5.14 290 06:36 11.03.2021
1627 Clouds 16 1014 77 6000 5.14 290 06:18 11.03.2021
1628 Clouds 20 1012 45 6000 3.6 280 02:25 11.03.2021
1629 Clouds 19 1012 34 6000 1.54 250 23:58 10.03.2021
1630 Clouds 20 1012 34 6000 2.93 344 23:22 10.03.2021
1631 -273 0 0 0 0 0 22:41 10.03.2021
1632 -273 0 0 0 0 0 22:41 10.03.2021
1633 -273 0 0 0 0 0 22:41 10.03.2021
1634 -273 0 0 0 0 0 22:41 10.03.2021
1635 Clouds 23 1012 28 6000 1.54 330 21:58 10.03.2021
1636 Clouds 23 1012 28 6000 1.54 330 21:39 10.03.2021
1637 Clouds 24 1012 23 6000 3.6 330 21:20 10.03.2021
1638 Clouds 24 1012 23 6000 3.6 320 20:42 10.03.2021
1639 Clouds 24 1011 29 6000 2.06 280 20:24 10.03.2021
1640 Clouds 24 1011 29 6000 2.06 280 20:23 10.03.2021
1641 Clouds 27 1011 19 6000 6.17 290 19:41 10.03.2021
1642 Clouds 26 1010 17 6000 8.23 270 19:21 10.03.2021
1643 Clear 29 1009 16 10000 7.2 170 18:44 10.03.2021
1644 Clear 29 1009 16 10000 6.17 180 18:24 10.03.2021
1645 Clear 30 1009 14 10000 5.66 180 17:46 10.03.2021
1646 Clear 32 1009 9 10000 5.66 180 17:21 10.03.2021
1647 Clear 32 1009 12 10000 5.66 190 16:57 10.03.2021
1648 Clear 32 1009 12 10000 7.2 190 16:37 10.03.2021
1649 Clear 33 1009 12 10000 7.2 190 16:19 10.03.2021
1650 Clear 34 1008 13 10000 8.23 190 15:41 10.03.2021
1651 Clear 34 1008 12 10000 8.23 190 15:22 10.03.2021
1652 Clear 34 1009 12 10000 7.2 180 14:41 10.03.2021
1653 Clear 34 1009 12 10000 7.2 180 14:41 10.03.2021
1654 Clear 34 1009 12 10000 7.2 180 14:19 10.03.2021
1655 Clear 34 1009 13 10000 7.72 200 13:46 10.03.2021
1656 Clear 34 1009 13 10000 7.72 200 13:25 10.03.2021
1657 Clear 33 1009 11 10000 9.77 200 12:45 10.03.2021
1658 Clear 33 1010 9 10000 9.77 200 12:19 10.03.2021
1659 Clear 33 1010 9 10000 9.26 200 11:32 10.03.2021
1660 Clear 32 1011 9 10000 10.29 190 10:58 10.03.2021
1661 Clear 30 1010 11 10000 8.75 180 10:38 10.03.2021
1662 Clear 30 1010 11 10000 8.75 180 10:20 10.03.2021
1663 Clear 30 1011 11 10000 8.23 180 09:42 10.03.2021
1664 Clear 29 1011 12 10000 10.29 170 09:22 10.03.2021
1665 Clear 29 1011 13 10000 9.77 170 08:57 10.03.2021
1666 Clear 29 1011 13 10000 9.77 170 08:57 10.03.2021
1667 Clear 26 1011 14 10000 8.75 170 08:38 10.03.2021
1668 Clear 25 1011 14 10000 8.75 170 08:20 10.03.2021
1669 Clouds 24 1011 19 6000 5.66 170 07:30 10.03.2021
1670 Clouds 24 1011 20 6000 6.17 170 06:56 10.03.2021
1671 Clouds 21 1011 23 6000 5.66 170 06:25 10.03.2021
1672 Clear 21 1010 24 10000 5.66 150 02:27 10.03.2021
1673 Clear 22 1012 23 10000 6.17 160 23:52 09.03.2021
1674 Clear 21 1012 23 10000 4.63 160 23:20 09.03.2021
1675 Clear 20 1012 22 10000 4.12 170 22:39 09.03.2021
1676 Clear 21 1012 23 10000 4.63 150 22:21 09.03.2021
1677 Clear 22 1012 21 6000 4.12 150 21:46 09.03.2021
1678 Clear 23 1012 21 6000 4.12 140 21:25 09.03.2021
1679 Clear 23 1012 21 6000 4.12 150 20:58 09.03.2021
1680 Clear 23 1012 21 6000 4.12 150 20:40 09.03.2021
1681 Clear 24 1012 19 6000 4.12 140 20:21 09.03.2021
1682 Clear 24 1012 19 6000 4.63 130 19:47 09.03.2021
1683 Clear 24 1012 22 6000 4.63 130 19:26 09.03.2021
1684 Haze 26 1012 19 4000 2.57 140 18:48 09.03.2021
1685 Haze 27 1011 18 4000 3.09 100 18:26 09.03.2021
1686 Haze 28 1011 16 4000 3.6 70 17:53 09.03.2021
1687 Haze 28 1011 16 4000 3.6 70 17:53 09.03.2021
1688 Haze 28 1011 16 4000 3.6 70 17:31 09.03.2021
1689 Clear 29 1011 15 10000 5.14 70 16:55 09.03.2021
1690 Clear 29 1011 15 10000 5.14 70 16:37 09.03.2021
1691 Clear 30 1011 13 10000 5.14 60 16:18 09.03.2021
1692 Clear 29 1011 13 10000 5.14 70 15:43 09.03.2021
1693 Clear 29 1011 14 10000 5.14 80 15:20 09.03.2021
1694 Clear 29 1011 14 10000 7.2 90 14:28 09.03.2021
1695 Clear 29 1012 15 6000 6.69 90 13:57 09.03.2021
1696 Clear 29 1012 15 6000 6.69 90 13:38 09.03.2021
1697 Clouds 27 1013 18 6000 8.23 70 13:19 09.03.2021
1698 Clouds 27 1014 18 6000 7.72 60 12:39 09.03.2021
1699 Clouds 27 1014 18 6000 6.69 50 12:19 09.03.2021
1700 Clouds 28 1015 18 6000 7.2 50 11:42 09.03.2021
1701 Clouds 25 1015 17 6000 7.2 60 11:21 09.03.2021
1702 Clouds 26 1015 17 6000 8.23 40 10:55 09.03.2021
1703 Clouds 26 1015 17 6000 8.23 40 10:36 09.03.2021
1704 Clouds 25 1015 18 6000 7.2 60 10:18 09.03.2021
1705 Clouds 24 1016 19 6000 9.26 50 09:41 09.03.2021
1706 Clouds 24 1016 19 6000 7.2 60 09:22 09.03.2021
1707 Clouds 22 1016 21 6000 7.72 60 08:46 09.03.2021
1708 Clouds 22 1015 21 6000 7.72 60 08:21 09.03.2021
1709 Clouds 19 1015 27 6000 5.66 60 07:38 09.03.2021
1710 Clouds 19 1015 27 6000 5.66 60 07:20 09.03.2021
1711 Clear 15 1014 33 10000 6.69 90 05:55 09.03.2021
1712 Clear 16 1014 33 10000 6.69 90 05:37 09.03.2021
1713 Clear 14 1016 58 10000 3.6 60 00:30 09.03.2021
1714 Clear 15 1017 58 10000 4.12 80 23:43 08.03.2021
1715 Clear 16 1017 58 10000 4.12 80 23:25 08.03.2021
1716 Clear 15 1017 55 10000 4.12 80 22:48 08.03.2021
1717 Clear 16 1017 55 10000 4.12 80 22:29 08.03.2021
1718 Clear 17 1017 51 10000 5.66 60 21:57 08.03.2021
1719 Clear 17 1017 51 10000 5.66 60 21:35 08.03.2021
1720 Clear 18 1017 52 10000 4.63 40 20:48 08.03.2021
1721 Clear 18 1017 52 10000 4.63 40 20:28 08.03.2021
1722 Clear 18 1017 52 10000 4.63 40 20:28 08.03.2021
1723 Clear 19 1017 55 10000 4.63 40 19:59 08.03.2021
1724 Clear 19 1017 55 10000 5.66 30 19:36 08.03.2021
1725 Clear 20 1017 52 10000 5.14 20 18:42 08.03.2021
1726 Clear 20 1017 49 10000 4.63 10 18:23 08.03.2021
1727 Clear 20 1017 49 10000 4.63 360 17:56 08.03.2021
1728 Clear 21 1016 46 10000 6.17 360 17:38 08.03.2021
1729 Clear 22 1016 40 10000 5.14 10 16:56 08.03.2021
1730 Clear 22 1016 37 10000 5.66 360 16:30 08.03.2021
1731 Clear 22 1016 37 10000 5.66 350 15:57 08.03.2021
1732 Clear 23 1016 35 10000 5.14 350 15:30 08.03.2021
1733 Clear 24 1015 33 10000 4.12 30 14:51 08.03.2021
1734 Clear 23 1016 33 10000 3.6 20 14:20 08.03.2021
1735 Clear 23 1016 35 10000 4.63 30 13:44 08.03.2021
1736 Clear 23 1016 35 10000 4.63 30 13:22 08.03.2021
1737 Clear 23 1016 40 10000 4.63 30 12:49 08.03.2021
1738 Clear 23 1017 38 10000 3.09 30 12:29 08.03.2021
1739 Clear 22 1017 40 10000 5.14 30 11:44 08.03.2021
1740 Clear 21 1017 37 10000 4.63 40 11:20 08.03.2021
1741 Clear 20 1018 49 10000 4.12 50 10:45 08.03.2021
1742 Clear 19 1018 49 10000 4.12 50 10:27 08.03.2021
1743 Clear 18 1018 59 10000 3.6 70 09:45 08.03.2021
1744 Clear 18 1018 59 10000 3.6 70 09:23 08.03.2021
1745 Clear 15 1018 67 10000 4.12 60 08:30 08.03.2021
1746 Clear 15 1018 72 10000 4.12 60 07:49 08.03.2021
1747 Clear 15 1018 77 10000 3.09 70 07:21 08.03.2021
1748 Clear 13 1017 88 6000 2.57 80 05:19 08.03.2021
1749 Clear 14 1017 82 10000 1.54 30 01:28 08.03.2021
1750 Clear 14 1017 82 10000 1.54 30 01:28 08.03.2021
1751 Clear 15 1018 77 10000 1.54 50 00:38 08.03.2021
1752 Clear 15 1018 77 10000 2.57 50 23:51 07.03.2021
1753 Clear 16 1018 77 10000 3.6 60 23:20 07.03.2021
1754 Clear 15 1018 77 10000 3.09 60 22:45 07.03.2021
1755 Clear 15 1018 77 10000 3.09 60 22:45 07.03.2021
1756 Clouds 16 1018 72 10000 4.12 50 22:26 07.03.2021
1757 Clouds 15 1018 72 10000 4.12 50 21:49 07.03.2021
1758 Clouds 16 1018 72 10000 4.63 40 21:30 07.03.2021
1759 Clouds 16 1018 67 10000 5.66 40 20:55 07.03.2021
1760 Clouds 17 1018 67 10000 5.66 40 20:37 07.03.2021
1761 Clouds 17 1018 59 10000 4.12 50 20:18 07.03.2021
1762 Clouds 17 1018 59 10000 4.12 50 19:39 07.03.2021
1763 Clouds 18 1018 55 10000 5.66 40 19:21 07.03.2021
1764 Clouds 18 1018 52 10000 5.66 50 18:50 07.03.2021
1765 Clouds 19 1017 48 10000 5.66 40 18:20 07.03.2021
1766 Clouds 20 1017 49 10000 6.17 20 17:56 07.03.2021
1767 Clouds 20 1017 49 10000 6.17 20 17:37 07.03.2021
1768 Clouds 21 1017 49 10000 6.17 20 17:18 07.03.2021
1769 Clouds 21 1017 49 10000 6.17 20 17:18 07.03.2021
1770 Clouds 22 1016 43 10000 5.66 10 16:39 07.03.2021
1771 Clouds 23 1016 43 10000 5.66 10 16:20 07.03.2021
1772 Clouds 23 1016 38 10000 5.66 360 15:47 07.03.2021
1773 Clouds 23 1016 38 10000 5.66 360 15:29 07.03.2021
1774 Clouds 24 1016 35 10000 4.63 30 14:47 07.03.2021
1775 Clouds 23 1016 38 10000 5.66 360 14:28 07.03.2021
1776 Clouds 22 1017 35 10000 5.66 360 13:45 07.03.2021
1777 Clouds 22 1017 33 10000 4.63 10 13:26 07.03.2021
1778 Clouds 22 1017 40 10000 4.63 10 12:47 07.03.2021
1779 Clouds 22 1018 40 10000 3.6 20 12:29 07.03.2021
1780 Clouds 22 1018 43 10000 3.09 30 11:52 07.03.2021
1781 Clouds 21 1019 49 10000 2.57 50 11:23 07.03.2021
1782 Clouds 20 1019 46 10000 3.09 50 10:51 07.03.2021
1783 Clouds 21 1020 46 10000 3.6 20 10:33 07.03.2021
1784 Clouds 21 1020 46 10000 4.63 20 09:52 07.03.2021
1785 Clouds 21 1021 46 10000 4.12 20 09:27 07.03.2021
1786 Clouds 19 1021 49 10000 4.63 50 08:55 07.03.2021
1787 Clouds 15 1021 72 10000 5.66 30 08:37 07.03.2021
1788 Clouds 15 1021 72 10000 5.66 30 08:19 07.03.2021
1789 Clear 14 1019 82 10000 4.63 70 04:57 07.03.2021
1790 Clear 14 1019 88 10000 5.14 50 02:26 07.03.2021
1791 Clear 15 1019 94 10000 4.63 50 00:24 07.03.2021
1792 Clear 15 1020 88 10000 4.63 50 23:40 06.03.2021
1793 Clear 15 1020 88 10000 4.12 60 23:20 06.03.2021
1794 Clear 14 1020 82 10000 4.12 60 22:45 06.03.2021
1795 Clear 16 1020 82 10000 4.12 70 22:21 06.03.2021
1796 Clear 17 1021 67 10000 4.12 70 21:41 06.03.2021
1797 Clear 17 1021 67 10000 4.12 70 21:41 06.03.2021
1798 Clear 17 1021 67 10000 5.14 40 21:20 06.03.2021
1799 Clear 17 1021 63 10000 4.63 50 20:41 06.03.2021
1800 Clear 19 1021 59 10000 5.66 50 19:55 06.03.2021
1801 Clear 19 1021 59 10000 5.66 50 19:37 06.03.2021
1802 Clear 20 1021 49 10000 6.17 30 19:18 06.03.2021
1803 Clear 20 1021 49 10000 6.17 50 18:41 06.03.2021
1804 Clear 21 1020 46 10000 5.66 30 18:20 06.03.2021
1805 Clear 22 1020 43 10000 6.17 10 17:48 06.03.2021
1806 Clear 22 1020 43 10000 5.76 60 17:27 06.03.2021
1807 Clear 22 1020 43 10000 4.12 20 16:57 06.03.2021
1808 Clear 23 1020 33 10000 4.63 20 16:32 06.03.2021
1809 Clear 23 1019 31 10000 6.17 10 15:56 06.03.2021
1810 Clear 23 1019 31 10000 7.2 30 15:38 06.03.2021
1811 Clear 23 1019 31 10000 7.2 30 15:18 06.03.2021
1812 Clear 23 1019 28 10000 5.66 30 14:31 06.03.2021
1813 Clear 24 1020 29 10000 4.12 50 13:52 06.03.2021
1814 Clear 24 1020 29 10000 4.12 50 13:33 06.03.2021
1815 Clear 23 1021 37 10000 5.14 20 12:58 06.03.2021
1816 Clear 22 1021 37 10000 5.14 20 12:38 06.03.2021
1817 Clear 22 1021 37 10000 4.12 40 12:18 06.03.2021
1818 Clear 22 1021 37 10000 4.12 40 12:18 06.03.2021
1819 Clear 21 1022 35 10000 6.17 60 11:38 06.03.2021
1820 Clear 20 1022 40 10000 5.14 30 11:18 06.03.2021
1821 Clear 20 1022 42 10000 5.66 40 10:42 06.03.2021
1822 Clear 18 1023 48 10000 7.2 30 09:57 06.03.2021
1823 Clear 17 1023 55 10000 8.75 40 09:24 06.03.2021
1824 Clear 17 1023 55 10000 7.72 40 08:54 06.03.2021
1825 Clear 16 1023 59 10000 7.72 40 08:30 06.03.2021
1826 Clear 16 1023 59 10000 7.72 40 08:30 06.03.2021
1827 Clear 13 1023 76 10000 3.09 40 07:43 06.03.2021
1828 Clear 13 1023 76 10000 3.09 40 07:21 06.03.2021
1829 Clear 10 1023 81 10000 1.54 20 05:50 06.03.2021
1830 Clear 10 1022 76 10000 3.6 70 03:47 06.03.2021
1831 Clear 12 1023 71 10000 2.06 20 01:32 06.03.2021
1832 Clear 12 1023 76 10000 2.57 30 00:46 06.03.2021
1833 Clear 13 1024 71 10000 4.63 60 23:44 05.03.2021
1834 Clear 14 1024 67 10000 6.17 60 23:19 05.03.2021
1835 Clear 13 1024 67 10000 4.63 50 22:43 05.03.2021
1836 Clear 15 1024 67 10000 6.69 50 22:20 05.03.2021
1837 Clear 14 1024 63 10000 5.14 50 21:43 05.03.2021
1838 Clear 16 1024 63 10000 6.17 40 21:25 05.03.2021
1839 Clear 16 1024 63 10000 6.69 30 20:47 05.03.2021
1840 Clear 17 1024 51 10000 3.6 20 20:25 05.03.2021
1841 Clear 17 1024 48 10000 3.09 20 19:49 05.03.2021
1842 Clear 18 1024 48 10000 4.63 360 19:25 05.03.2021
1843 Clear 18 1024 48 10000 4.63 360 18:52 05.03.2021
1844 Clear 18 1023 48 10000 5.14 350 18:27 05.03.2021
1845 Clear 20 1023 42 10000 5.14 350 17:56 05.03.2021
1846 Clear 20 1023 42 10000 5.14 350 17:33 05.03.2021
1847 Clear 20 1023 37 10000 5.14 360 16:44 05.03.2021
1848 Clear 21 1022 40 10000 5.66 340 16:24 05.03.2021
1849 Clear 22 1022 37 10000 5.14 340 15:55 05.03.2021
1850 Clear 21 1022 35 10000 4.63 340 15:28 05.03.2021
1851 Clear 22 1022 35 10000 3.09 340 14:58 05.03.2021
1852 Clear 22 1022 33 10000 2.06 10 14:38 05.03.2021
1853 Clear 22 1022 32 10000 2.57 340 13:46 05.03.2021
1854 Clear 21 1023 31 10000 2.06 10 13:21 05.03.2021
1855 Clouds 22 1023 33 10000 2.57 340 12:48 05.03.2021
1856 Clouds 20 1024 37 10000 2.06 340 11:41 05.03.2021
1857 Clouds 20 1024 37 10000 2.06 340 11:41 05.03.2021
1858 Clouds 18 1025 42 10000 2.06 10 11:21 05.03.2021
1859 Clouds 18 1025 42 10000 2.06 10 10:59 05.03.2021
1860 Clouds 17 1025 55 10000 1.54 10 10:39 05.03.2021
1861 Clouds 17 1025 55 10000 1.54 10 10:20 05.03.2021
1862 Clouds 17 1025 59 6000 2.06 20 09:46 05.03.2021
1863 Clouds 15 1025 63 6000 2.06 50 09:26 05.03.2021
1864 Clouds 15 1025 67 6000 2.06 30 08:40 05.03.2021
1865 Clouds 14 1025 72 6000 2.57 40 08:21 05.03.2021
1866 Clouds 13 1024 82 6000 1.03 90 07:38 05.03.2021
1867 Mist 14 1024 82 4000 1.74 5 06:49 05.03.2021
1868 Mist 12 1024 87 4000 1.79 3 06:30 05.03.2021
1869 Mist 12 1023 82 4000 1.54 330 01:47 05.03.2021
1870 Mist 12 1023 82 4000 1.54 330 01:47 05.03.2021
1871 Haze 14 1023 77 4000 0.51 280 00:26 05.03.2021
1872 Haze 14 1023 77 4000 2.57 360 23:31 04.03.2021
1873 Haze 14 1023 72 4000 2.06 330 22:38 04.03.2021
1874 Haze 14 1023 67 4000 2.57 320 21:56 04.03.2021
1875 Haze 15 1023 67 4000 2.57 320 21:37 04.03.2021
1876 Haze 15 1023 63 4000 2.57 330 21:18 04.03.2021
1877 Clouds 15 1023 55 6000 3.09 330 20:41 04.03.2021
1878 Clouds 17 1023 55 6000 3.09 330 20:21 04.03.2021
1879 Clouds 16 1022 55 10000 3.09 340 19:54 04.03.2021
1880 Clouds 17 1022 55 10000 4.12 350 19:30 04.03.2021
1881 Clouds 17 1022 51 10000 5.14 350 18:55 04.03.2021
1882 Clouds 17 1021 51 10000 4.12 330 18:31 04.03.2021
1883 Clouds 18 1021 48 10000 4.63 340 17:59 04.03.2021
1884 Clouds 18 1021 48 10000 4.63 340 17:40 04.03.2021
1885 Clouds 18 1021 48 10000 5.14 320 17:20 04.03.2021
1886 Clouds 18 1020 48 10000 4.63 330 16:44 04.03.2021
1887 Clouds 18 1020 48 10000 4.63 330 16:44 04.03.2021
1888 Clouds 18 1020 48 10000 5.66 340 16:24 04.03.2021
1889 Clouds 19 1020 45 10000 5.66 340 15:48 04.03.2021
1890 Clouds 19 1020 42 10000 6.17 350 15:29 04.03.2021
1891 Clouds 20 1020 42 10000 6.17 330 14:44 04.03.2021
1892 Clouds 19 1020 39 10000 5.66 330 14:18 04.03.2021
1893 Clouds 19 1019 40 10000 7.2 310 13:42 04.03.2021
1894 Clouds 19 1020 37 10000 5.66 340 13:22 04.03.2021
1895 Clouds 19 1020 40 10000 5.14 330 12:42 04.03.2021
1896 Clouds 18 1020 39 10000 6.17 320 12:18 04.03.2021
1897 Clouds 18 1021 48 10000 4.63 320 11:40 04.03.2021
1898 Clouds 18 1021 48 10000 4.63 320 11:20 04.03.2021
1899 Clouds 16 1021 55 10000 4.63 290 10:37 04.03.2021
1900 Clouds 15 1021 55 10000 4.12 300 10:18 04.03.2021
1901 Clouds 14 1021 55 10000 4.63 280 09:32 04.03.2021
1902 Clouds 13 1021 58 10000 4.12 240 08:56 04.03.2021
1903 Clouds 13 1021 62 10000 4.12 240 08:32 04.03.2021
1904 Clouds 11 1021 71 10000 4.12 220 07:46 04.03.2021
1905 Clouds 9 1020 71 10000 4.12 210 06:52 04.03.2021
1906 Clouds 9 1020 71 10000 4.12 210 06:23 04.03.2021
1907 Clear 10 1019 71 10000 3.6 250 02:39 04.03.2021
1908 Clouds 10 1020 66 10000 4.12 250 00:41 04.03.2021
1909 Clouds 10 1020 66 10000 4.12 250 22:43 03.03.2021
1910 Clouds 11 1020 66 10000 4.12 250 22:25 03.03.2021
1911 Clouds 11 1020 62 10000 4.63 260 21:43 03.03.2021
1912 Clouds 12 1020 62 10000 4.63 260 21:24 03.03.2021
1913 Clouds 12 1020 62 10000 5.14 280 20:56 03.03.2021
1914 Clouds 12 1021 58 10000 7.2 290 20:38 03.03.2021
1915 Clouds 12 1020 50 10000 8.23 270 19:57 03.03.2021
1916 Clouds 13 1020 50 10000 6.69 280 19:39 03.03.2021
1917 Clouds 13 1020 50 10000 6.69 280 19:19 03.03.2021
1918 Clouds 13 1020 47 10000 6.69 260 18:45 03.03.2021
1919 Clouds 13 1020 47 10000 6.69 260 18:45 03.03.2021
1920 Clouds 13 1020 44 10000 7.72 260 18:20 03.03.2021
1921 Clouds 14 1020 44 10000 7.72 260 17:42 03.03.2021
1922 Clouds 14 1020 47 10000 5.66 280 17:18 03.03.2021
1923 Clouds 16 1019 47 10000 8.23 290 16:40 03.03.2021
1924 Clouds 16 1019 51 10000 7.72 280 16:21 03.03.2021
1925 Clouds 16 1019 47 6000 8.23 300 15:33 03.03.2021
1926 Clouds 17 1018 42 10000 5.14 280 14:54 03.03.2021
1927 Clouds 17 1018 42 10000 5.14 280 14:29 03.03.2021
1928 Clouds 17 1018 42 10000 5.66 310 13:52 03.03.2021
1929 Clouds 17 1018 42 10000 5.66 310 13:52 03.03.2021
1930 Clouds 17 1019 48 10000 7.72 260 13:31 03.03.2021
1931 Clouds 16 1019 51 10000 6.17 270 12:44 03.03.2021
1932 Clouds 16 1020 51 10000 3.09 300 12:26 03.03.2021
1933 Clouds 17 1020 55 10000 4.63 260 11:48 03.03.2021
1934 Clouds 15 1020 48 6000 5.66 280 11:28 03.03.2021
1935 Clouds 16 1020 48 10000 6.17 270 10:50 03.03.2021
1936 Clouds 15 1021 48 10000 5.14 280 10:30 03.03.2021
1937 Clouds 15 1021 48 10000 4.63 260 09:49 03.03.2021
1938 Clouds 15 1021 48 10000 4.63 260 09:31 03.03.2021
1939 Clouds 14 1021 47 10000 2.57 300 08:44 03.03.2021
1940 Clouds 14 1021 55 10000 2.06 270 08:22 03.03.2021
1941 Clouds 14 1021 58 10000 2.06 290 07:41 03.03.2021
1942 Clouds 11 1021 62 10000 2.97 331 06:51 03.03.2021
1943 Clouds 10 1021 71 10000 2.32 332 05:49 03.03.2021
1944 Clouds 11 1021 71 10000 1.54 300 04:59 03.03.2021
1945 Clouds 12 1021 66 10000 1.54 300 04:35 03.03.2021
1946 Clouds 12 1021 66 10000 2.57 310 03:51 03.03.2021
1947 Clouds 12 1022 67 10000 3.6 300 23:59 02.03.2021
1948 Clouds 13 1022 67 10000 2.57 300 23:31 02.03.2021
1949 Clouds 14 1022 62 10000 4.12 310 22:43 02.03.2021
1950 Clouds 14 1022 62 10000 4.12 310 22:20 02.03.2021
1951 Clouds 13 1022 62 10000 4.63 310 21:41 02.03.2021
1952 Clouds 14 1022 62 10000 4.12 310 21:22 02.03.2021
1953 Clouds 14 1022 62 10000 4.63 320 20:49 02.03.2021
1954 Clouds 15 1022 58 10000 5.66 310 20:23 02.03.2021
1955 Clouds 15 1022 58 10000 5.66 310 19:58 02.03.2021
1956 Clouds 15 1022 58 10000 5.66 310 19:58 02.03.2021
1957 Clouds 15 1021 58 10000 6.69 310 19:39 02.03.2021
1958 Clouds 15 1021 58 10000 6.69 310 19:21 02.03.2021
1959 Clouds 16 1021 51 10000 5.66 310 18:41 02.03.2021
1960 Clouds 16 1021 51 10000 5.66 310 18:21 02.03.2021
1961 Clouds 17 1020 51 10000 6.69 340 17:50 02.03.2021
1962 Clouds 17 1020 51 10000 6.69 340 17:30 02.03.2021
1963 Clouds 17 1020 48 10000 6.17 310 16:57 02.03.2021
1964 Clouds 19 1020 45 10000 5.66 320 16:36 02.03.2021
1965 Clouds 19 1020 42 10000 4.63 340 15:52 02.03.2021
1966 Clouds 20 1020 42 10000 6.17 310 15:25 02.03.2021
1967 Clouds 20 1020 40 10000 6.17 290 14:28 02.03.2021
1968 Clouds 20 1020 37 10000 7.2 290 13:59 02.03.2021
1969 Clouds 20 1021 40 10000 5.66 310 13:39 02.03.2021
1970 Clouds 20 1021 40 10000 5.66 310 13:20 02.03.2021
1971 Clouds 19 1021 40 10000 4.63 320 12:31 02.03.2021
1972 Clouds 18 1022 45 10000 6.69 320 11:57 02.03.2021
1973 Clouds 17 1022 45 10000 6.69 320 11:38 02.03.2021
1974 Clouds 17 1022 45 10000 4.63 310 11:18 02.03.2021
1975 Clouds 15 1023 51 10000 4.12 280 10:39 02.03.2021
1976 Clouds 15 1023 51 10000 4.12 280 10:20 02.03.2021
1977 Clouds 16 1023 48 10000 5.14 290 09:40 02.03.2021
1978 Clear 15 1023 55 10000 4.63 320 09:19 02.03.2021
1979 Clear 14 1023 55 10000 3.6 310 08:38 02.03.2021
1980 Clear 13 1023 58 10000 4.12 310 07:59 02.03.2021
1981 Clear 13 1022 62 10000 2.57 290 07:38 02.03.2021
1982 Clear 12 1022 71 10000 2.06 290 06:35 02.03.2021
1983 Clouds 12 1022 71 10000 2.06 290 05:46 02.03.2021
1984 Clouds 12 1022 71 10000 2.06 290 05:46 02.03.2021
1985 Clouds 12 1022 71 10000 2.06 290 05:28 02.03.2021
1986 Clouds 13 1022 71 10000 3.09 310 01:46 02.03.2021
1987 Clouds 13 1022 71 10000 4.12 310 01:28 02.03.2021
1988 Clouds 13 1022 71 10000 3.6 310 00:51 02.03.2021
1989 Clouds 14 1022 67 10000 4.63 300 23:28 01.03.2021
1990 Clouds 14 1022 72 10000 4.63 310 22:42 01.03.2021
1991 Clouds 14 1022 72 10000 4.63 310 22:22 01.03.2021
1992 Clouds 14 1022 72 10000 3.09 310 21:50 01.03.2021
1993 Clouds 15 1022 67 10000 4.63 310 21:24 01.03.2021
1994 Clouds 15 1022 67 10000 5.14 310 20:49 01.03.2021
1995 Clouds 16 1021 59 10000 3.6 310 20:28 01.03.2021
1996 Clouds 16 1021 59 10000 5.66 310 19:56 01.03.2021
1997 Clouds 17 1021 59 10000 5.66 310 19:34 01.03.2021
1998 Clouds 17 1020 59 10000 4.63 320 18:59 01.03.2021
1999 Clouds 19 1019 52 10000 4.12 320 18:36 01.03.2021
2000 Clouds 19 1019 52 10000 4.12 320 18:18 01.03.2021
2001 Clouds 19 1019 52 10000 5.66 320 17:41 01.03.2021
2002 Clouds 19 1019 48 10000 5.66 330 17:19 01.03.2021
2003 Clouds 20 1019 45 10000 2.57 320 16:44 01.03.2021
2004 Clouds 20 1019 45 10000 2.57 320 16:26 01.03.2021
2005 Clouds 20 1019 45 10000 3.09 320 15:42 01.03.2021
2006 Clouds 20 1019 42 10000 3.6 350 15:21 01.03.2021
2007 Clouds 21 1019 42 10000 4.12 310 14:48 01.03.2021
2008 Clouds 21 1019 40 10000 3.6 310 14:29 01.03.2021
2009 Clouds 21 1019 40 10000 3.6 310 13:43 01.03.2021
2010 Clouds 21 1019 40 10000 3.09 290 13:24 01.03.2021
2011 Clouds 21 1019 40 10000 3.09 290 13:24 01.03.2021
2012 Clouds 21 1019 40 10000 5.66 300 12:58 01.03.2021
2013 Clouds 20 1020 45 10000 4.12 280 12:38 01.03.2021
2014 Clouds 20 1020 45 10000 4.12 280 12:19 01.03.2021
2015 Clouds 20 1020 45 10000 4.12 270 11:42 01.03.2021
2016 Clouds 18 1020 55 10000 2.06 270 10:45 01.03.2021
2017 Clouds 18 1020 55 10000 2.06 270 10:45 01.03.2021
2018 Clouds 17 1020 63 10000 3.09 270 10:23 01.03.2021
2019 Clouds 17 1021 63 10000 2.57 290 09:59 01.03.2021
2020 Clouds 17 1021 63 10000 2.57 290 09:40 01.03.2021
2021 Clouds 17 1021 67 10000 3.6 260 09:21 01.03.2021
2022 Clouds 17 1021 67 10000 3.6 260 09:21 01.03.2021
2023 Clouds 16 1021 63 10000 3.6 280 08:51 01.03.2021
2024 Clouds 17 1020 63 10000 3.09 250 08:20 01.03.2021
2025 Clouds 13 1020 72 6000 2.06 220 06:53 01.03.2021
2026 Clouds 13 1019 82 6000 2.06 220 05:39 01.03.2021
2027 Clouds 14 1019 77 10000 1.54 300 01:48 01.03.2021
2028 Clouds 16 1020 72 10000 2.06 290 23:40 28.02.2021
2029 Clouds 16 1020 72 10000 1.54 280 22:52 28.02.2021
2030 Clouds 16 1020 72 10000 1.54 320 22:25 28.02.2021
2031 Clouds 15 1020 72 10000 2.57 330 21:54 28.02.2021
2032 Clouds 16 1020 72 10000 2.57 330 21:32 28.02.2021
2033 Clouds 16 1020 63 10000 3.09 330 20:58 28.02.2021
2034 Clouds 17 1020 63 10000 2.57 330 20:38 28.02.2021
2035 Clouds 17 1020 52 10000 2.57 330 19:57 28.02.2021
2036 Clouds 18 1019 52 10000 4.12 310 19:38 28.02.2021
2037 Clouds 18 1019 52 10000 4.12 310 19:20 28.02.2021
2038 Clouds 19 1019 48 10000 4.12 310 18:43 28.02.2021
2039 Clouds 19 1019 48 10000 4.12 310 18:25 28.02.2021
2040 Clouds 19 1019 48 10000 4.12 310 18:24 28.02.2021
2041 Clouds 19 1018 48 10000 3.6 310 17:48 28.02.2021
2042 Clouds 20 1018 42 10000 3.6 310 17:28 28.02.2021
2043 Clouds 20 1018 42 10000 3.09 310 16:56 28.02.2021
2044 Clouds 20 1018 42 10000 3.6 310 16:37 28.02.2021
2045 Clouds 20 1018 42 10000 3.6 310 16:18 28.02.2021
2046 Clouds 21 1018 37 10000 3.6 310 15:40 28.02.2021
2047 Clouds 21 1018 37 10000 3.6 310 15:22 28.02.2021
2048 Clouds 21 1018 40 10000 4.63 320 14:52 28.02.2021
2049 Clouds 22 1018 40 10000 4.63 340 14:28 28.02.2021
2050 Clouds 22 1018 40 10000 4.12 300 13:52 28.02.2021
2051 Clouds 21 1018 40 10000 4.12 290 13:21 28.02.2021
2052 Clouds 21 1018 43 10000 2.57 290 12:56 28.02.2021
2053 Clouds 20 1019 45 10000 3.6 320 12:38 28.02.2021
2054 Clouds 20 1019 45 10000 3.6 320 12:19 28.02.2021
2055 Clouds 20 1019 42 10000 2.57 310 11:46 28.02.2021
2056 Clouds 19 1019 48 10000 2.57 310 11:26 28.02.2021
2057 Clouds 19 1019 48 10000 3.6 330 10:55 28.02.2021
2058 Clouds 18 1020 59 10000 2.57 330 10:29 28.02.2021
2059 Clouds 18 1020 59 10000 3.6 10 09:56 28.02.2021
2060 Clouds 16 1020 67 10000 3.09 350 09:34 28.02.2021
2061 Clear 15 1020 77 6000 1.54 350 08:52 28.02.2021
2062 Clear 15 1020 77 6000 1.54 350 08:33 28.02.2021
2063 Mist 15 1020 77 3000 2.77 332 07:57 28.02.2021
2064 Mist 14 1019 94 3000 2.82 329 07:39 28.02.2021
2065 Mist 14 1019 94 3000 1.96 329 07:19 28.02.2021
2066 Mist 13 1019 100 3000 2.16 335 06:23 28.02.2021
2067 Mist 12 1018 88 2000 1.54 350 03:46 28.02.2021
2068 Mist 14 1018 94 2000 3.09 310 02:20 28.02.2021
2069 Mist 15 1018 88 1000 1.54 360 01:20 28.02.2021
2070 Mist 15 1018 88 1000 2.57 360 00:38 28.02.2021
2071 Mist 15 1018 88 3000 3.09 360 23:50 27.02.2021
2072 Mist 15 1018 82 3000 3.6 350 23:21 27.02.2021
2073 Clouds 15 1018 82 6000 3.6 350 22:49 27.02.2021
2074 Clear 15 1018 82 10000 3.6 350 22:23 27.02.2021
2075 Clear 16 1018 77 10000 3.6 360 21:55 27.02.2021
2076 Clear 16 1018 77 10000 3.6 10 21:35 27.02.2021
2077 Clear 15 1018 72 10000 3.6 20 20:55 27.02.2021
2078 Clear 17 1017 67 10000 5.66 20 20:37 27.02.2021
2079 Clear 17 1017 67 10000 5.66 20 20:18 27.02.2021
2080 Clear 17 1017 63 10000 5.66 20 19:41 27.02.2021
2081 Clear 18 1017 59 10000 6.17 20 19:23 27.02.2021
2082 Clouds 18 1017 59 10000 7.2 10 18:39 27.02.2021
2083 Clouds 18 1017 59 10000 7.2 10 18:19 27.02.2021
2084 Clouds 19 1016 55 10000 8.23 10 17:43 27.02.2021
2085 Clouds 20 1016 55 10000 8.75 20 17:20 27.02.2021
2086 Clouds 20 1016 52 10000 7.2 20 16:51 27.02.2021
2087 Clouds 21 1016 49 10000 7.72 10 16:31 27.02.2021
2088 Clouds 22 1016 43 10000 8.23 360 15:53 27.02.2021
2089 Clouds 22 1016 43 10000 8.23 360 15:33 27.02.2021
2090 Clouds 22 1016 40 10000 6.17 10 14:48 27.02.2021
2091 Clouds 22 1016 40 10000 6.69 360 14:30 27.02.2021
2092 Clouds 22 1016 43 10000 7.2 360 13:49 27.02.2021
2093 Clouds 21 1016 43 10000 5.66 20 13:27 27.02.2021
2094 Clouds 21 1016 49 10000 5.66 10 12:55 27.02.2021
2095 Clouds 20 1017 52 10000 5.14 10 12:28 27.02.2021
2096 Clouds 21 1017 52 10000 5.66 20 11:56 27.02.2021
2097 Clouds 20 1017 52 10000 5.66 20 11:38 27.02.2021
2098 Clouds 20 1017 56 10000 5.14 360 11:18 27.02.2021
2099 Clouds 20 1017 56 10000 5.14 30 10:42 27.02.2021
2100 Clouds 19 1017 63 10000 4.63 10 10:19 27.02.2021
2101 Clouds 19 1018 68 6000 4.63 10 09:44 27.02.2021
2102 Clouds 17 1018 77 6000 4.63 10 09:25 27.02.2021
2103 Mist 16 1018 82 3000 3.09 340 08:40 27.02.2021
2104 Mist 15 1018 82 3000 3.09 340 08:21 27.02.2021
2105 Mist 14 1018 82 3000 3.09 330 07:37 27.02.2021
2106 Mist 12 1017 94 3000 3.6 40 04:26 27.02.2021
2107 Clear 14 1018 82 10000 4.63 40 00:42 27.02.2021
2108 Clear 14 1018 82 10000 4.63 30 23:54 26.02.2021
2109 Clear 15 1018 82 10000 4.63 30 23:26 26.02.2021
2110 Clear 15 1018 77 10000 5.14 40 22:46 26.02.2021
2111 Clear 15 1018 77 10000 5.14 40 22:26 26.02.2021
2112 Clear 15 1018 72 10000 6.17 40 21:43 26.02.2021
2113 Clear 16 1018 72 10000 6.17 40 21:22 26.02.2021
2114 Clouds 16 1018 72 6000 7.2 50 20:44 26.02.2021
2115 Clouds 16 1018 72 6000 7.2 50 20:21 26.02.2021
2116 Clouds 16 1018 72 6000 6.17 40 19:48 26.02.2021
2117 Clouds 17 1018 67 6000 7.72 30 19:25 26.02.2021
2118 Haze 18 1018 63 4000 4.12 30 18:42 26.02.2021
2119 Haze 19 1018 59 3000 4.63 350 18:22 26.02.2021
2120 Haze 19 1018 55 3000 4.63 320 17:41 26.02.2021
2121 Haze 19 1018 55 3000 4.63 330 17:23 26.02.2021
2122 Haze 20 1018 55 3000 4.63 330 16:52 26.02.2021
2123 Haze 20 1017 49 3000 4.63 310 16:31 26.02.2021
2124 Haze 20 1017 52 3000 4.63 340 15:57 26.02.2021
2125 Haze 20 1017 52 3000 3.6 310 15:38 26.02.2021
2126 Haze 21 1017 52 3000 3.6 310 15:20 26.02.2021
2127 Haze 21 1018 46 4000 4.63 340 14:45 26.02.2021
2128 Haze 21 1018 46 4000 4.63 340 14:25 26.02.2021
2129 Haze 22 1018 37 4000 1.03 340 13:44 26.02.2021
2130 Haze 22 1018 37 4000 3.09 360 13:24 26.02.2021
2131 Haze 21 1019 43 4000 1.03 360 12:39 26.02.2021
2132 Haze 20 1020 52 4000 1.03 50 11:58 26.02.2021
2133 Haze 18 1020 59 4000 1.54 310 11:38 26.02.2021
2134 Haze 18 1020 59 4000 3.09 10 10:54 26.02.2021
2135 Mist 16 1021 72 3000 1.03 10 09:59 26.02.2021
2136 Mist 16 1021 72 3000 1.03 10 09:39 26.02.2021
2137 Mist 15 1021 72 3000 1.54 10 09:21 26.02.2021
2138 Mist 15 1021 72 4000 2.06 30 08:29 26.02.2021
2139 Mist 14 1021 77 2000 2.06 10 07:52 26.02.2021
2140 Mist 12 1021 82 2000 1.03 100 06:48 26.02.2021
2141 Mist 13 1020 87 3000 1.03 40 05:39 26.02.2021
2142 Clear 14 1020 77 6000 1.54 10 03:51 26.02.2021
2143 Clear 13 1021 77 6000 2.57 10 02:36 26.02.2021
2144 Clear 14 1022 77 6000 2.57 330 00:24 26.02.2021
2145 Clear 15 1022 77 6000 2.06 350 23:30 25.02.2021
2146 Clear 14 1022 72 6000 3.6 340 22:51 25.02.2021
2147 Clear 15 1022 72 6000 3.6 360 22:33 25.02.2021
2148 Clear 15 1022 72 6000 4.63 330 21:48 25.02.2021
2149 Clouds 16 1022 72 10000 4.63 340 21:30 25.02.2021
2150 Clouds 15 1022 72 10000 5.14 340 20:43 25.02.2021
2151 Clouds 16 1021 72 10000 4.12 330 20:24 25.02.2021
2152 Clouds 17 1021 72 10000 6.17 320 19:58 25.02.2021
2153 Clouds 18 1021 72 10000 6.17 320 19:39 25.02.2021
2154 Clouds 18 1021 63 10000 6.17 320 19:19 25.02.2021
2155 Clouds 19 1020 59 10000 2.57 350 18:39 25.02.2021
2156 Clouds 19 1020 55 10000 2.06 330 17:57 25.02.2021
2157 Clouds 20 1020 52 10000 2.06 330 17:30 25.02.2021
2158 Clouds 20 1020 52 10000 3.6 330 16:55 25.02.2021
2159 Clouds 20 1020 52 10000 3.09 320 16:33 25.02.2021
2160 Clouds 21 1020 52 10000 3.09 320 15:39 25.02.2021
2161 Clouds 21 1021 52 10000 3.6 330 15:19 25.02.2021
2162 Clouds 21 1021 52 10000 3.6 330 15:19 25.02.2021
2163 Clouds 22 1020 46 10000 3.6 300 14:32 25.02.2021
2164 Clouds 23 1020 43 10000 2.06 280 13:58 25.02.2021
2165 Clouds 23 1021 43 10000 1.03 200 13:40 25.02.2021
2166 Clouds 23 1021 43 10000 1.03 200 13:19 25.02.2021
2167 Clouds 20 1021 49 10000 1.54 300 12:23 25.02.2021
2168 Clouds 20 1022 52 10000 1.54 330 11:57 25.02.2021
2169 Clouds 19 1022 55 10000 2.06 290 11:39 25.02.2021
2170 Clouds 18 1022 63 10000 3.09 310 10:51 25.02.2021
2171 Clouds 17 1023 67 10000 2.57 330 10:32 25.02.2021
2172 Clouds 17 1023 67 10000 2.57 300 09:45 25.02.2021
2173 Clouds 17 1023 77 10000 2.57 310 09:22 25.02.2021
2174 Clouds 15 1023 77 6000 2.43 310 08:32 25.02.2021
2175 Clouds 15 1023 77 6000 2.44 303 07:59 25.02.2021
2176 Clouds 14 1023 77 6000 2.44 303 07:38 25.02.2021
2177 Clouds 13 1023 94 6000 1.54 170 06:57 25.02.2021
2178 Clouds 13 1023 94 6000 1.54 270 05:24 25.02.2021
2179 Clear 14 1022 88 10000 3.09 310 01:45 25.02.2021
2180 Clear 14 1022 88 10000 2.57 310 00:48 25.02.2021
2181 Clear 14 1023 88 10000 2.06 290 00:19 25.02.2021
2182 Clear 15 1023 88 10000 2.57 310 23:36 24.02.2021
2183 Clear 15 1023 82 10000 2.06 290 22:50 24.02.2021
2184 Clear 15 1023 82 10000 3.09 300 22:30 24.02.2021
2185 Clouds 14 1023 77 10000 4.12 300 21:49 24.02.2021
2186 Clouds 15 1023 77 10000 3.6 320 21:30 24.02.2021
2187 Clouds 15 1023 72 10000 3.09 330 20:49 24.02.2021
2188 Clouds 16 1023 72 10000 4.12 330 20:26 24.02.2021
2189 Clouds 16 1023 67 10000 4.12 330 19:43 24.02.2021
2190 Clouds 17 1023 59 10000 3.09 330 19:21 24.02.2021
2191 Clouds 17 1022 59 10000 5.14 340 18:53 24.02.2021
2192 Clouds 18 1022 59 10000 3.6 330 18:31 24.02.2021
2193 Clouds 18 1022 52 10000 4.63 320 17:42 24.02.2021
2194 Clouds 19 1022 52 10000 5.14 330 17:23 24.02.2021
2195 Clouds 19 1022 48 10000 6.17 340 16:48 24.02.2021
2196 Clouds 20 1022 45 10000 3.09 320 16:21 24.02.2021
2197 Clouds 20 1021 45 10000 5.14 320 15:55 24.02.2021
2198 Clouds 20 1021 45 10000 4.63 320 15:32 24.02.2021
2199 Clouds 21 1021 40 10000 4.63 330 14:47 24.02.2021
2200 Clouds 21 1022 43 10000 5.66 350 14:28 24.02.2021
2201 Clouds 21 1022 43 10000 7.2 310 13:43 24.02.2021
2202 Clouds 20 1022 43 10000 6.69 330 13:23 24.02.2021
2203 Clouds 21 1022 43 10000 5.14 330 12:58 24.02.2021
2204 Clouds 20 1022 45 10000 4.63 320 12:36 24.02.2021
2205 Clouds 20 1023 49 10000 6.69 360 11:56 24.02.2021
2206 Clouds 19 1023 52 10000 4.12 320 11:31 24.02.2021
2207 Clouds 19 1023 55 10000 5.66 350 10:43 24.02.2021
2208 Clouds 18 1024 63 10000 6.17 350 10:24 24.02.2021
2209 Clouds 16 1024 72 6000 4.12 340 09:26 24.02.2021
2210 Clouds 15 1024 82 6000 3.6 330 08:50 24.02.2021
2211 Clouds 14 1024 82 6000 3.6 330 08:32 24.02.2021
2212 Clouds 12 1024 94 6000 2.06 330 07:38 24.02.2021
2213 Clouds 12 1024 94 6000 2.06 330 07:18 24.02.2021
2214 Clouds 12 1023 100 6000 5.06 345 05:26 24.02.2021
2215 Clouds 14 1022 94 10000 4.12 330 01:59 24.02.2021
2216 Clouds 12 1022 94 6000 4.63 300 23:39 23.02.2021
2217 Clouds 13 1022 82 10000 3.6 280 22:50 23.02.2021
2218 Clouds 13 1022 82 10000 2.57 300 22:23 23.02.2021
2219 Clouds 13 1022 82 10000 2.06 300 21:48 23.02.2021
2220 Clouds 14 1022 77 10000 2.57 310 21:25 23.02.2021
2221 Clouds 13 1022 77 10000 3.6 330 20:59 23.02.2021
2222 Clouds 14 1022 77 10000 3.6 330 20:38 23.02.2021
2223 Clouds 14 1022 72 10000 3.6 330 20:19 23.02.2021
2224 Clouds 14 1022 72 10000 4.12 240 19:44 23.02.2021
2225 Clouds 14 1021 67 10000 3.09 340 19:26 23.02.2021
2226 Clouds 15 1021 67 10000 3.6 330 18:44 23.02.2021
2227 Clouds 15 1021 72 10000 3.6 340 18:25 23.02.2021
2228 Clouds 15 1020 67 10000 3.09 350 17:52 23.02.2021
2229 Clouds 15 1020 72 10000 4.12 330 17:27 23.02.2021
2230 Clouds 15 1020 72 10000 5.14 350 16:46 23.02.2021
2231 Clouds 15 1020 72 10000 3.6 10 16:23 23.02.2021
2232 Clouds 15 1020 67 10000 5.66 360 15:50 23.02.2021
2233 Clouds 15 1020 67 10000 7.2 360 15:31 23.02.2021
2234 Clouds 16 1019 77 10000 7.72 340 14:55 23.02.2021
2235 Clouds 17 1020 88 6000 8.23 350 14:37 23.02.2021
2236 Clouds 19 1019 48 6000 10.29 320 14:19 23.02.2021
2237 Clouds 19 1019 48 10000 4.63 310 13:38 23.02.2021
2238 Clouds 18 1019 52 10000 5.14 300 12:59 23.02.2021
2239 Clouds 19 1019 48 10000 5.66 270 12:41 23.02.2021
2240 Clouds 19 1019 48 10000 5.66 270 12:18 23.02.2021
2241 Clouds 17 1019 55 10000 5.14 290 11:45 23.02.2021
2242 Clouds 17 1020 55 10000 3.6 270 11:18 23.02.2021
2243 Clouds 15 1020 67 10000 4.12 250 10:38 23.02.2021
2244 Clouds 15 1020 67 10000 4.12 250 10:18 23.02.2021
2245 Clouds 13 1020 72 6000 4.12 250 09:41 23.02.2021
2246 Clouds 13 1021 72 6000 3.6 270 09:21 23.02.2021
2247 Clouds 13 1021 76 6000 3.09 280 08:45 23.02.2021
2248 Clouds 13 1021 76 6000 2.06 280 08:20 23.02.2021
2249 Clouds 12 1021 82 6000 2.57 270 07:34 23.02.2021
2250 Clouds 10 1020 93 6000 1.03 270 05:27 23.02.2021
2251 Clouds 10 1020 87 6000 1.54 270 02:43 23.02.2021
2252 Clouds 12 1020 82 6000 1.54 310 02:24 23.02.2021
2253 Clouds 12 1021 87 6000 3.6 330 00:19 23.02.2021
2254 Clouds 12 1021 87 6000 3.6 340 23:43 22.02.2021
2255 Clouds 12 1021 82 6000 3.09 10 22:57 22.02.2021
2256 Clouds 13 1021 82 6000 3.09 10 22:38 22.02.2021
2257 Clouds 13 1021 88 6000 3.6 360 22:19 22.02.2021
2258 Clouds 13 1021 88 6000 4.12 360 21:38 22.02.2021
2259 Clouds 13 1021 88 6000 2.57 10 21:20 22.02.2021
2260 Clouds 14 1021 82 6000 4.12 10 20:45 22.02.2021
2261 Clouds 14 1021 82 6000 5.66 350 20:26 22.02.2021
2262 Clouds 14 1021 82 6000 4.63 360 19:49 22.02.2021
2263 Clouds 15 1021 77 10000 4.63 360 19:30 22.02.2021
2264 Clouds 15 1021 77 10000 6.17 350 18:49 22.02.2021
2265 Clouds 17 1021 67 10000 6.17 350 18:29 22.02.2021
2266 Clouds 17 1021 67 10000 6.17 350 17:51 22.02.2021
2267 Clouds 17 1020 55 10000 6.17 360 17:22 22.02.2021
2268 Clouds 18 1020 48 10000 6.17 360 16:51 22.02.2021
2269 Clouds 18 1020 48 10000 6.69 360 16:30 22.02.2021
2270 Clouds 19 1020 42 10000 5.14 10 15:36 22.02.2021
2271 Clouds 20 1020 42 10000 5.14 340 14:54 22.02.2021
2272 Clouds 20 1020 42 10000 5.14 340 14:35 22.02.2021
2273 Clouds 20 1020 37 10000 2.06 10 13:58 22.02.2021
2274 Clouds 20 1020 37 10000 2.06 10 13:36 22.02.2021
2275 Clouds 19 1020 37 10000 4.63 10 12:55 22.02.2021
2276 Clouds 18 1021 39 10000 2.57 20 12:23 22.02.2021
2277 Clouds 18 1021 42 10000 3.09 30 11:56 22.02.2021
2278 Clouds 17 1021 42 10000 3.09 30 11:32 22.02.2021
2279 Clouds 17 1022 48 10000 4.63 40 10:59 22.02.2021
2280 Clouds 17 1022 48 10000 4.63 40 10:41 22.02.2021
2281 Clouds 17 1022 45 10000 4.63 50 10:20 22.02.2021
2282 Clouds 16 1022 51 10000 5.14 50 09:39 22.02.2021
2283 Clear 16 1022 55 10000 4.12 50 09:21 22.02.2021
2284 Clear 16 1022 55 10000 4.12 50 09:21 22.02.2021
2285 Clear 14 1022 63 10000 4.63 50 08:49 22.02.2021
2286 Clear 14 1022 67 10000 2.57 60 08:21 22.02.2021
2287 Clear 12 1022 71 6000 2.57 40 07:50 22.02.2021
2288 Clear 11 1022 71 6000 2.57 60 07:23 22.02.2021
2289 Clear 9 1022 81 10000 3.6 90 06:28 22.02.2021
2290 Clear 9 1022 81 10000 3.6 90 05:21 22.02.2021
2291 Clear 10 1022 66 10000 2.06 20 03:23 22.02.2021
2292 Clouds 10 1022 71 10000 4.63 80 02:31 22.02.2021
2293 Clouds 12 1023 62 10000 5.14 90 00:44 22.02.2021
2294 Clouds 12 1023 62 10000 5.14 90 00:19 22.02.2021
2295 Clouds 11 1023 66 10000 3.6 80 23:27 21.02.2021
2296 Clouds 12 1023 66 10000 3.09 70 22:37 21.02.2021
2297 Clouds 12 1023 71 10000 2.57 70 21:59 21.02.2021
2298 Clouds 12 1023 71 10000 2.57 70 21:35 21.02.2021
2299 Clouds 13 1023 67 10000 3.6 60 20:58 21.02.2021
2300 Clouds 13 1023 67 10000 3.6 60 20:39 21.02.2021
2301 Clouds 13 1023 67 10000 3.6 60 20:19 21.02.2021
2302 Clouds 13 1023 67 10000 3.09 50 19:49 21.02.2021
2303 Clouds 14 1023 62 10000 4.63 40 19:30 21.02.2021
2304 Clouds 14 1022 58 10000 4.63 40 18:40 21.02.2021
2305 Clouds 15 1022 55 10000 4.63 30 18:22 21.02.2021
2306 Clouds 16 1021 48 10000 4.63 360 17:29 21.02.2021
2307 Clouds 17 1021 42 10000 5.14 360 16:55 21.02.2021
2308 Clouds 17 1021 42 10000 5.14 360 16:34 21.02.2021
2309 Clouds 17 1021 42 10000 5.14 360 15:54 21.02.2021
2310 Clouds 18 1021 39 10000 4.12 360 15:22 21.02.2021
2311 Clouds 18 1021 34 10000 6.17 10 14:50 21.02.2021
2312 Clouds 19 1021 37 10000 5.66 360 14:28 21.02.2021
2313 Clouds 18 1021 39 10000 2.57 350 13:46 21.02.2021
2314 Clouds 18 1022 39 10000 5.14 320 13:23 21.02.2021
2315 Clouds 18 1021 42 10000 2.06 360 12:32 21.02.2021
2316 Clouds 18 1023 39 10000 2.06 310 11:56 21.02.2021
2317 Clouds 16 1023 44 10000 3.6 30 11:36 21.02.2021
2318 Clouds 15 1023 47 10000 4.12 20 10:36 21.02.2021
2319 Clouds 15 1024 55 6000 2.06 50 10:18 21.02.2021
2320 Clouds 14 1024 58 6000 1.54 40 09:41 21.02.2021
2321 Clouds 14 1024 58 6000 3.09 70 09:23 21.02.2021
2322 Mist 12 1024 71 3000 1.54 80 08:32 21.02.2021
2323 Mist 12 1024 71 4000 1.03 10 07:44 21.02.2021
2324 Mist 11 1024 76 4000 2.06 340 07:21 21.02.2021
2325 Clear 8 1023 81 6000 2.72 3 05:28 21.02.2021
2326 Clear 7 1023 81 10000 3.46 26 02:40 21.02.2021
2327 Clear 9 1024 81 10000 3.75 29 00:55 21.02.2021
2328 Clear 10 1024 76 10000 1.03 90 00:20 21.02.2021
2329 Clouds 10 1024 76 10000 3.09 70 23:38 20.02.2021
2330 Clouds 10 1024 76 10000 2.57 70 22:55 20.02.2021
2331 Clouds 11 1025 66 10000 2.06 70 22:31 20.02.2021
2332 Clouds 12 1025 66 10000 3.6 50 21:47 20.02.2021
2333 Clouds 12 1025 66 10000 3.6 50 21:29 20.02.2021
2334 Clouds 12 1025 66 10000 4.12 40 20:57 20.02.2021
2335 Clouds 13 1025 58 10000 5.14 20 20:36 20.02.2021
2336 Clouds 13 1025 58 10000 5.14 20 20:18 20.02.2021
2337 Clouds 14 1025 54 10000 5.66 30 19:40 20.02.2021
2338 Clouds 15 1025 47 10000 5.14 10 18:55 20.02.2021
2339 Clouds 15 1024 47 10000 5.14 340 18:33 20.02.2021
2340 Clouds 15 1024 47 10000 5.14 340 18:33 20.02.2021
2341 Clouds 15 1024 44 10000 5.66 350 17:47 20.02.2021
2342 Clouds 15 1024 44 10000 5.66 350 17:28 20.02.2021
2343 Clouds 16 1024 41 10000 5.66 340 16:49 20.02.2021
2344 Clouds 16 1024 39 10000 5.66 360 16:26 20.02.2021
2345 Clouds 17 1024 36 10000 6.17 350 15:42 20.02.2021
2346 Clouds 18 1024 34 10000 4.63 310 14:53 20.02.2021
2347 Clouds 17 1024 39 10000 4.63 290 14:27 20.02.2021
2348 Clouds 18 1024 36 10000 4.12 330 13:58 20.02.2021
2349 Clouds 17 1024 36 10000 5.14 330 13:39 20.02.2021
2350 Clouds 17 1024 36 10000 5.14 330 13:21 20.02.2021
2351 Clouds 17 1024 36 10000 5.14 330 13:21 20.02.2021
2352 Clouds 16 1024 39 10000 5.14 350 12:46 20.02.2021
2353 Clouds 16 1025 41 10000 4.63 340 11:56 20.02.2021
2354 Clouds 16 1025 39 10000 6.17 10 11:36 20.02.2021
2355 Clouds 16 1025 39 10000 4.63 350 10:53 20.02.2021
2356 Clouds 15 1026 44 10000 4.63 40 10:29 20.02.2021
2357 Clouds 15 1026 44 6000 1.54 10 09:48 20.02.2021
2358 Clouds 14 1026 54 6000 2.57 40 09:18 20.02.2021
2359 Haze 13 1026 67 4000 3.75 7 08:31 20.02.2021
2360 Mist 12 1025 76 4000 2.8 0 07:50 20.02.2021
2361 Clouds 10 1023 87 10000 1.03 170 02:37 20.02.2021
2362 Clouds 10 1023 81 10000 2.25 353 02:19 20.02.2021
2363 Clouds 11 1024 82 10000 2.64 358 01:21 20.02.2021
2364 Clouds 12 1024 71 10000 1.54 320 00:45 20.02.2021
2365 Clouds 10 1024 82 10000 1.54 330 23:43 19.02.2021
2366 Clouds 10 1024 81 10000 3.58 353 22:51 19.02.2021
2367 Clouds 11 1025 82 10000 3.83 353 22:26 19.02.2021
2368 Clouds 10 1025 82 10000 3.83 353 21:48 19.02.2021
2369 Clouds 11 1025 76 10000 4.53 355 21:28 19.02.2021
2370 Clouds 12 1025 76 10000 1.03 20 20:47 19.02.2021
2371 Clouds 13 1025 71 10000 2.57 360 20:27 19.02.2021
2372 Clouds 14 1024 62 10000 5.14 360 19:51 19.02.2021
2373 Clouds 14 1024 62 10000 5.14 360 19:23 19.02.2021
2374 Clouds 13 1024 67 10000 5.14 350 18:56 19.02.2021
2375 Clouds 14 1024 62 10000 4.63 360 18:33 19.02.2021
2376 Clouds 15 1023 58 10000 3.6 340 17:48 19.02.2021
2377 Clouds 15 1023 58 10000 3.6 350 16:51 19.02.2021
2378 Clouds 16 1023 59 10000 3.09 270 16:23 19.02.2021
2379 Clouds 15 1023 59 10000 2.06 340 15:57 19.02.2021
2380 Clouds 16 1023 59 10000 3.09 270 15:30 19.02.2021
2381 Clouds 15 1023 59 10000 1.54 310 14:56 19.02.2021
2382 Clouds 16 1023 63 10000 1.54 280 14:36 19.02.2021
2383 Clouds 15 1023 63 10000 1.03 270 13:57 19.02.2021
2384 Clouds 14 1023 67 10000 2.06 290 13:37 19.02.2021
2385 Clouds 15 1023 67 10000 2.06 290 13:19 19.02.2021
2386 Clouds 15 1023 63 10000 1.54 260 12:41 19.02.2021
2387 Clouds 16 1023 72 10000 1.03 170 12:22 19.02.2021
2388 Clouds 12 1024 76 10000 4.12 210 11:44 19.02.2021
2389 Clouds 12 1024 76 10000 4.12 210 11:20 19.02.2021
2390 Clouds 13 1024 67 10000 4.12 200 10:42 19.02.2021
2391 Clouds 13 1024 62 10000 3.6 200 10:20 19.02.2021
2392 Clouds 13 1024 67 10000 5.14 200 09:39 19.02.2021
2393 Clouds 13 1024 71 8000 6.69 230 09:21 19.02.2021
2394 Clouds 13 1024 58 6000 6.17 190 08:49 19.02.2021
2395 Clouds 14 1024 51 6000 6.69 190 08:22 19.02.2021
2396 Haze 12 1023 54 4000 4.63 180 07:48 19.02.2021
2397 Haze 11 1023 54 4000 4.63 180 07:27 19.02.2021
2398 Haze 12 1023 54 4000 4.63 180 06:47 19.02.2021
2399 Clouds 10 1022 58 6000 4.63 180 05:21 19.02.2021
2400 Clouds 11 1022 58 6000 4.63 180 04:41 19.02.2021
2401 Clouds 10 1023 66 10000 3.6 190 01:47 19.02.2021
2402 Clear 10 1023 66 10000 4.12 170 00:36 19.02.2021
2403 Clear 10 1023 71 10000 2.06 180 23:54 18.02.2021
2404 Clear 10 1023 71 10000 2.06 180 23:34 18.02.2021
2405 Clouds 10 1023 66 10000 1.03 200 22:47 18.02.2021
2406 Clouds 11 1024 66 10000 1.54 210 22:28 18.02.2021
2407 Clouds 12 1024 62 10000 1.03 230 21:47 18.02.2021
2408 Clouds 13 1024 58 10000 1.03 280 21:25 18.02.2021
2409 Clouds 13 1024 58 10000 1.03 280 21:25 18.02.2021
2410 Clouds 12 1024 62 10000 1.54 300 20:41 18.02.2021
2411 Clouds 13 1023 62 10000 2.06 300 20:23 18.02.2021
2412 Clouds 12 1023 58 10000 1.54 290 19:46 18.02.2021
2413 Clouds 14 1023 54 10000 3.6 290 19:26 18.02.2021
2414 Clouds 13 1023 54 10000 3.6 300 18:53 18.02.2021
2415 Clouds 14 1023 54 10000 3.6 300 18:29 18.02.2021
2416 Clouds 14 1022 54 10000 4.63 300 17:52 18.02.2021
2417 Clouds 15 1022 47 10000 5.14 280 17:26 18.02.2021
2418 Clouds 14 1022 47 10000 5.14 280 16:56 18.02.2021
2419 Clouds 15 1022 47 10000 5.14 270 16:38 18.02.2021
2420 Clouds 15 1022 47 10000 5.14 270 16:19 18.02.2021
2421 Clouds 16 1021 44 10000 5.66 270 15:38 18.02.2021
2422 Clouds 16 1021 44 10000 5.66 270 15:20 18.02.2021
2423 Clouds 17 1021 36 10000 3.6 280 14:48 18.02.2021
2424 Clouds 17 1021 36 10000 4.63 260 14:29 18.02.2021
2425 Clouds 15 1021 41 10000 4.63 260 13:45 18.02.2021
2426 Clouds 14 1021 41 10000 4.63 280 13:19 18.02.2021
2427 Clouds 14 1022 41 10000 4.63 290 12:45 18.02.2021
2428 Clouds 15 1022 44 10000 5.66 280 12:22 18.02.2021
2429 Clouds 16 1022 45 10000 7.2 270 11:46 18.02.2021
2430 Clouds 14 1022 51 10000 5.14 270 11:26 18.02.2021
2431 Clouds 14 1023 54 10000 3.6 250 10:47 18.02.2021
2432 Clouds 12 1023 62 10000 4.12 230 10:29 18.02.2021
2433 Clouds 13 1023 62 10000 5.14 230 09:49 18.02.2021
2434 Clouds 13 1023 62 10000 5.14 220 09:24 18.02.2021
2435 Clouds 11 1023 66 10000 4.63 230 08:47 18.02.2021
2436 Clouds 11 1022 71 10000 5.14 210 08:25 18.02.2021
2437 Clouds 9 1022 76 10000 4.63 220 07:35 18.02.2021
2438 Clouds 10 1022 76 10000 4.12 220 06:54 18.02.2021
2439 Clouds 9 1020 87 10000 5.14 230 03:31 18.02.2021
2440 Clouds 9 1020 81 10000 5.66 240 23:56 17.02.2021
2441 Clouds 9 1020 87 10000 7.2 240 23:30 17.02.2021
2442 Clouds 9 1020 87 10000 6.69 250 22:53 17.02.2021
2443 Clouds 10 1020 76 10000 5.14 250 22:27 17.02.2021
2444 Clouds 10 1020 81 10000 4.63 240 21:57 17.02.2021
2445 Clouds 10 1020 76 10000 4.63 240 21:22 17.02.2021
2446 Clouds 10 1020 76 10000 5.66 240 20:52 17.02.2021
2447 Clouds 10 1019 81 10000 4.12 250 20:32 17.02.2021
2448 Clouds 10 1019 81 10000 3.6 280 19:51 17.02.2021
2449 Clouds 10 1019 76 10000 5.66 280 19:32 17.02.2021
2450 Clouds 9 1019 76 10000 4.12 270 18:49 17.02.2021
2451 Clouds 9 1018 76 10000 5.66 270 18:30 17.02.2021
2452 Clouds 9 1018 76 10000 5.66 260 17:42 17.02.2021
2453 Clouds 9 1018 93 10000 7.2 280 17:21 17.02.2021
2454 Clouds 9 1017 87 4000 9.26 290 16:49 17.02.2021
2455 Clouds 10 1017 76 10000 7.72 270 16:28 17.02.2021
2456 Clouds 11 1016 62 2000 10.29 270 15:45 17.02.2021
2457 Clouds 12 1016 62 10000 8.23 250 15:27 17.02.2021
2458 Clouds 12 1016 62 10000 8.23 250 15:27 17.02.2021
2459 Clouds 10 1016 71 10000 14.92 250 14:51 17.02.2021
2460 Clouds 10 1015 71 10000 9.26 280 14:29 17.02.2021
2461 Clouds 13 1015 47 6000 9.26 270 13:52 17.02.2021
2462 Clouds 12 1015 47 6000 9.26 270 13:33 17.02.2021
2463 Clouds 12 1015 44 6000 9.77 270 12:57 17.02.2021
2464 Clouds 12 1015 50 6000 11.83 250 12:26 17.02.2021
2465 Clouds 11 1015 58 6000 11.32 270 11:47 17.02.2021
2466 Clouds 11 1015 47 6000 11.32 260 11:29 17.02.2021
2467 Clouds 13 1016 50 6000 11.32 260 10:56 17.02.2021
2468 Clouds 13 1016 50 6000 11.32 260 10:38 17.02.2021
2469 Clouds 12 1016 54 6000 11.32 250 10:19 17.02.2021
2470 Clouds 10 1016 54 10000 12.35 250 09:38 17.02.2021
2471 Clouds 10 1016 62 10000 9.26 250 08:58 17.02.2021
2472 Clouds 10 1016 62 10000 9.26 250 08:37 17.02.2021
2473 Clouds 9 1016 66 10000 11.32 270 08:18 17.02.2021
2474 Clouds 8 1015 71 10000 11.83 240 06:48 17.02.2021
2475 Clouds 8 1013 71 10000 10.29 270 03:53 17.02.2021
2476 Clouds 8 1013 76 10000 10.29 270 02:33 17.02.2021
2477 Clouds 8 1013 71 10000 8.23 260 01:37 17.02.2021
2478 Clouds 9 1013 76 10000 7.2 240 00:28 17.02.2021
2479 Clouds 10 1014 76 10000 6.17 250 23:49 16.02.2021
2480 Clouds 9 1014 76 10000 6.17 250 23:25 16.02.2021
2481 Clouds 10 1014 81 10000 5.14 250 22:42 16.02.2021
2482 Clouds 9 1014 81 10000 5.14 250 22:22 16.02.2021
2483 Clouds 10 1014 76 6000 7.72 290 21:40 16.02.2021
2484 Clouds 10 1014 76 6000 7.72 290 21:22 16.02.2021
2485 Clouds 9 1013 71 10000 6.69 260 20:58 16.02.2021
2486 Clouds 10 1013 71 10000 6.69 260 20:38 16.02.2021
2487 Clouds 10 1013 71 10000 6.69 260 20:20 16.02.2021
2488 Clouds 10 1013 93 10000 4.63 240 19:40 16.02.2021
2489 Clouds 10 1013 76 6000 5.14 280 19:21 16.02.2021
2490 Clouds 10 1013 71 6000 6.69 280 18:38 16.02.2021
2491 Sand 10 1011 58 2000 9.26 300 18:19 16.02.2021
2492 Sand 10 1011 58 2000 11.32 280 17:49 16.02.2021
2493 Sand 11 1011 58 2000 11.32 280 17:23 16.02.2021
2494 Sand 12 1011 54 2000 10.8 270 16:47 16.02.2021
2495 Sand 13 1010 38 2000 12.35 270 16:24 16.02.2021
2496 Sand 13 1009 41 4000 12.86 260 15:47 16.02.2021
2497 Sand 13 1009 44 4000 11.32 260 15:26 16.02.2021
2498 Clouds 13 1009 54 6000 11.32 240 14:48 16.02.2021
2499 Clouds 12 1009 58 10000 6.69 260 14:29 16.02.2021
2500 Clouds 12 1010 66 10000 6.69 240 13:56 16.02.2021
2501 Clouds 12 1009 66 10000 9.77 250 13:33 16.02.2021
2502 Clouds 12 1009 66 10000 8.75 260 12:44 16.02.2021
2503 Clouds 12 1010 66 10000 7.72 270 12:24 16.02.2021
2504 Clouds 11 1010 76 6000 6.17 270 11:50 16.02.2021
2505 Clouds 12 1010 82 6000 5.14 260 11:24 16.02.2021
2506 Clouds 11 1010 82 10000 8.23 260 10:56 16.02.2021
2507 Clouds 12 1010 82 6000 8.23 270 10:38 16.02.2021
2508 Clouds 12 1010 82 6000 8.23 270 10:20 16.02.2021
2509 Clouds 14 1010 67 6000 7.72 270 09:47 16.02.2021
2510 Clouds 14 1010 67 6000 7.72 270 09:47 16.02.2021
2511 Clouds 14 1010 67 10000 6.17 280 09:26 16.02.2021
2512 Clouds 14 1010 62 6000 5.66 270 08:42 16.02.2021
2513 Clouds 14 1010 67 6000 4.63 270 08:21 16.02.2021
2514 Clouds 13 1010 67 6000 3.6 300 07:25 16.02.2021
2515 Mist 13 1010 72 3000 4.63 320 05:28 16.02.2021
2516 Haze 15 1011 67 3000 2.57 310 00:51 16.02.2021
2517 Haze 15 1011 67 4000 3.09 310 23:41 15.02.2021
2518 Clear 15 1011 63 10000 2.57 340 23:20 15.02.2021
2519 Clear 15 1012 63 10000 4.63 310 22:44 15.02.2021
2520 Clear 15 1012 58 10000 0.51 90 22:21 15.02.2021
2521 Clear 15 1012 59 10000 1.03 70 21:42 15.02.2021
2522 Clear 16 1012 59 10000 2.06 90 21:21 15.02.2021
2523 Clear 16 1013 55 10000 2.06 110 20:47 15.02.2021
2524 Clear 17 1013 55 10000 2.06 30 20:27 15.02.2021
2525 Clear 17 1013 55 10000 3.09 10 19:44 15.02.2021
2526 Clear 18 1013 55 10000 3.09 340 19:23 15.02.2021
2527 Clear 18 1013 52 10000 3.09 10 18:47 15.02.2021
2528 Clear 18 1013 52 10000 3.09 10 18:26 15.02.2021
2529 Clear 18 1013 52 10000 3.09 360 17:43 15.02.2021
2530 Clear 18 1013 52 10000 3.09 330 17:25 15.02.2021
2531 Clear 19 1013 52 10000 3.09 300 16:57 15.02.2021
2532 Clear 19 1012 48 10000 4.12 330 16:28 15.02.2021
2533 Clear 19 1013 45 10000 3.6 350 15:57 15.02.2021
2534 Clear 20 1013 42 10000 3.09 330 15:38 15.02.2021
2535 Clear 20 1013 42 10000 3.09 330 15:18 15.02.2021
2536 Clear 20 1013 40 10000 3.09 330 14:38 15.02.2021
2537 Clear 21 1013 40 10000 4.12 320 14:19 15.02.2021
2538 Clear 21 1013 40 10000 4.12 320 13:47 15.02.2021
2539 Clear 20 1013 30 10000 1.54 310 13:19 15.02.2021
2540 Clear 19 1013 34 10000 4.12 340 12:45 15.02.2021
2541 Clear 19 1014 40 10000 3.09 270 12:21 15.02.2021
2542 Clear 19 1014 42 10000 2.06 10 11:45 15.02.2021
2543 Clear 17 1015 48 10000 1.54 10 11:22 15.02.2021
2544 Clear 17 1015 51 10000 2.06 60 10:49 15.02.2021
2545 Clear 17 1015 51 10000 2.06 30 10:25 15.02.2021
2546 Clear 16 1016 55 6000 3.09 30 09:55 15.02.2021
2547 Clear 15 1016 58 6000 3.6 60 09:33 15.02.2021
2548 Clear 14 1016 71 6000 1.52 345 08:50 15.02.2021
2549 Clear 12 1016 76 6000 1.63 352 07:40 15.02.2021
2550 Clear 12 1016 76 6000 1.82 359 06:59 15.02.2021
2551 Clear 12 1015 76 6000 1.82 359 06:39 15.02.2021
2552 Clear 12 1016 76 10000 1.68 16 02:32 15.02.2021
2553 Clear 13 1017 76 10000 1.71 13 00:46 15.02.2021
2554 Clear 13 1017 76 10000 4.12 70 23:41 14.02.2021
2555 Clear 14 1017 72 10000 3.6 360 23:22 14.02.2021
2556 Clear 14 1017 72 10000 4.12 350 22:38 14.02.2021
2557 Clear 14 1017 72 10000 4.12 350 22:19 14.02.2021
2558 Clear 14 1017 72 10000 5.14 360 21:48 14.02.2021
2559 Clear 16 1017 63 10000 5.14 350 21:29 14.02.2021
2560 Clear 15 1017 63 10000 3.09 340 20:46 14.02.2021
2561 Clear 16 1017 63 10000 2.57 350 20:26 14.02.2021
2562 Clear 16 1016 63 10000 3.09 30 19:48 14.02.2021
2563 Clear 17 1016 59 10000 5.14 10 18:56 14.02.2021
2564 Clear 17 1016 59 10000 5.14 10 18:37 14.02.2021
2565 Clear 18 1016 55 10000 3.09 350 17:57 14.02.2021
2566 Clear 18 1016 55 10000 4.63 340 17:39 14.02.2021
2567 Clear 18 1015 55 10000 4.63 340 16:55 14.02.2021
2568 Clear 19 1015 52 10000 4.12 350 16:33 14.02.2021
2569 Clear 19 1015 52 10000 4.12 340 15:53 14.02.2021
2570 Clear 20 1015 49 10000 4.63 350 15:35 14.02.2021
2571 Clear 21 1015 43 10000 3.6 360 14:49 14.02.2021
2572 Clear 21 1015 43 10000 3.6 360 14:27 14.02.2021
2573 Clouds 22 1015 40 10000 3.09 340 13:54 14.02.2021
2574 Clouds 21 1015 40 10000 3.6 350 13:30 14.02.2021
2575 Clouds 21 1015 40 10000 2.06 350 12:44 14.02.2021
2576 Clouds 21 1016 43 10000 3.09 350 12:20 14.02.2021
2577 Clouds 19 1017 48 10000 2.57 340 11:50 14.02.2021
2578 Clouds 18 1017 52 10000 3.09 20 11:21 14.02.2021
2579 Clouds 18 1017 55 10000 2.57 20 10:45 14.02.2021
2580 Clouds 17 1018 63 10000 3.6 30 09:57 14.02.2021
2581 Clouds 16 1018 67 10000 5.66 80 09:38 14.02.2021
2582 Clouds 16 1018 67 10000 5.66 80 09:20 14.02.2021
2583 Clear 15 1018 72 6000 4.12 20 08:39 14.02.2021
2584 Clear 13 1018 77 6000 3.09 60 07:56 14.02.2021
2585 Clear 12 1017 82 6000 1.54 70 06:51 14.02.2021
2586 Clear 11 1017 87 6000 1.03 40 05:42 14.02.2021
2587 Clear 11 1017 87 10000 2.06 30 03:31 14.02.2021
2588 Clear 11 1017 87 10000 3.09 70 02:21 14.02.2021
2589 Clear 13 1017 82 10000 3.6 40 00:47 14.02.2021
2590 Clear 13 1017 82 10000 5.14 50 00:26 14.02.2021
2591 Clear 13 1018 82 10000 4.12 30 23:41 13.02.2021
2592 Clear 14 1018 82 10000 4.12 30 23:21 13.02.2021
2593 Clear 14 1018 82 10000 4.12 40 22:42 13.02.2021
2594 Clear 14 1018 82 10000 4.63 50 22:19 13.02.2021
2595 Clear 14 1018 82 10000 5.14 40 21:42 13.02.2021
2596 Clear 15 1018 72 10000 7.72 30 20:55 13.02.2021
2597 Clear 16 1018 72 10000 7.2 30 20:30 13.02.2021
2598 Clear 16 1018 72 10000 7.2 30 20:30 13.02.2021
2599 Clear 16 1018 72 10000 5.66 40 19:56 13.02.2021
2600 Clear 16 1018 72 10000 5.66 40 19:37 13.02.2021
2601 Clear 18 1018 59 10000 5.66 20 19:18 13.02.2021
2602 Clear 18 1018 59 10000 5.66 20 18:40 13.02.2021
2603 Clear 19 1017 55 10000 5.66 10 18:20 13.02.2021
2604 Clear 19 1017 55 10000 5.66 10 17:42 13.02.2021
2605 Clear 19 1017 55 10000 6.17 360 17:22 13.02.2021
2606 Clear 21 1017 49 10000 5.66 40 16:42 13.02.2021
2607 Clear 21 1017 49 10000 5.66 40 16:20 13.02.2021
2608 Clear 22 1017 35 10000 3.6 40 15:34 13.02.2021
2609 Clear 22 1017 35 10000 5.14 50 14:57 13.02.2021
2610 Clear 23 1017 33 10000 2.57 60 14:32 13.02.2021
2611 Clear 22 1017 33 10000 5.66 60 13:48 13.02.2021
2612 Clear 22 1017 35 10000 4.63 30 13:24 13.02.2021
2613 Clear 21 1018 37 10000 4.12 20 12:46 13.02.2021
2614 Clear 21 1018 43 10000 4.12 40 12:18 13.02.2021
2615 Clear 20 1018 46 10000 4.63 20 11:45 13.02.2021
2616 Clear 20 1019 49 10000 4.63 20 11:19 13.02.2021
2617 Clouds 19 1019 52 6000 4.12 20 10:45 13.02.2021
2618 Clouds 18 1020 68 6000 2.06 10 10:25 13.02.2021
2619 Mist 17 1020 77 3000 2.57 10 09:55 13.02.2021
2620 Mist 16 1020 94 1500 2.57 10 09:30 13.02.2021
2621 Fog 15 1020 100 800 1.54 360 08:55 13.02.2021
2622 Fog 14 1020 100 800 1.54 360 08:34 13.02.2021
2623 Fog 14 1019 100 500 1.54 10 07:50 13.02.2021
2624 Fog 14 1019 100 500 1.03 40 06:38 13.02.2021
2625 Mist 14 1018 94 3000 1.54 60 05:26 13.02.2021
2626 Clear 13 1018 94 10000 1.03 80 03:58 13.02.2021
2627 Clear 13 1019 94 10000 2.06 20 01:43 13.02.2021
2628 Clear 15 1019 88 10000 2.06 60 00:36 13.02.2021
2629 Clear 15 1018 82 10000 2.57 60 23:54 12.02.2021
2630 Clear 15 1018 82 10000 2.57 50 23:24 12.02.2021
2631 Clear 15 1019 82 10000 3.09 50 22:42 12.02.2021
2632 Clear 16 1019 77 10000 3.6 60 22:21 12.02.2021
2633 Clear 16 1019 77 10000 3.6 60 21:45 12.02.2021
2634 Clear 17 1019 72 10000 5.14 40 21:26 12.02.2021
2635 Clear 16 1019 67 10000 5.66 30 20:46 12.02.2021
2636 Clear 18 1018 55 10000 6.17 30 20:28 12.02.2021
2637 Clear 18 1018 48 10000 5.14 350 19:57 12.02.2021
2638 Clear 18 1018 48 10000 5.14 350 19:37 12.02.2021
2639 Clear 19 1017 34 10000 5.66 20 18:57 12.02.2021
2640 Clear 20 1017 45 10000 5.14 10 18:30 12.02.2021
2641 Clear 20 1017 49 10000 4.63 360 17:46 12.02.2021
2642 Clear 20 1016 49 10000 6.17 360 17:21 12.02.2021
2643 Clear 21 1016 43 10000 7.2 350 16:28 12.02.2021
2644 Clear 22 1016 40 10000 7.2 360 15:46 12.02.2021
2645 Clear 22 1015 43 10000 6.69 360 15:21 12.02.2021
2646 Clear 23 1015 40 10000 7.2 10 14:42 12.02.2021
2647 Clear 23 1015 40 10000 7.2 10 14:42 12.02.2021
2648 Clear 23 1015 38 10000 7.2 360 14:23 12.02.2021
2649 Clear 22 1015 30 10000 6.69 350 13:41 12.02.2021
2650 Clear 22 1015 30 10000 6.69 350 13:22 12.02.2021
2651 Clear 21 1015 35 10000 5.14 350 12:47 12.02.2021
2652 Clear 22 1016 43 10000 5.66 350 12:28 12.02.2021
2653 Clear 20 1016 45 10000 5.66 350 11:42 12.02.2021
2654 Clear 19 1016 52 10000 4.63 360 11:19 12.02.2021
2655 Clear 19 1016 55 10000 4.63 30 10:41 12.02.2021
2656 Clouds 17 1017 67 10000 4.63 10 09:49 12.02.2021
2657 Clouds 15 1017 72 10000 5.66 30 09:29 12.02.2021
2658 Clouds 15 1017 77 10000 5.14 30 08:49 12.02.2021
2659 Clouds 15 1017 82 10000 4.63 40 08:28 12.02.2021
2660 Clouds 14 1017 88 6000 3.09 50 07:57 12.02.2021
2661 Clouds 13 1017 88 6000 3.09 50 07:35 12.02.2021
2662 Clouds 12 1016 94 6000 3.09 30 06:55 12.02.2021
2663 Clouds 12 1016 94 6000 3.6 60 05:47 12.02.2021
2664 Clouds 13 1016 88 6000 2.06 60 04:32 12.02.2021
2665 Clear 12 1016 94 10000 3.6 50 01:35 12.02.2021
2666 Clear 14 1017 88 10000 3.6 20 23:41 11.02.2021
2667 Clear 14 1017 88 10000 3.6 20 23:22 11.02.2021
2668 Clear 14 1016 82 10000 4.63 30 22:57 11.02.2021
2669 Clear 14 1016 82 10000 4.63 30 22:38 11.02.2021
2670 Clear 14 1016 82 10000 4.63 30 22:20 11.02.2021
2671 Clear 15 1017 72 10000 5.66 30 21:38 11.02.2021
2672 Clear 15 1016 72 10000 6.69 40 21:19 11.02.2021
2673 Clear 15 1017 67 10000 6.17 40 20:42 11.02.2021
2674 Clear 17 1017 59 10000 6.17 40 20:22 11.02.2021
2675 Clear 17 1017 59 10000 6.17 40 19:48 11.02.2021
2676 Clear 18 1016 59 10000 6.69 30 19:29 11.02.2021
2677 Clear 18 1016 59 10000 5.14 30 18:55 11.02.2021
2678 Clear 19 1016 52 10000 6.17 20 18:29 11.02.2021
2679 Clear 20 1016 49 10000 6.17 10 17:54 11.02.2021
2680 Clear 21 1015 37 10000 5.66 40 17:22 11.02.2021
2681 Clear 21 1015 37 10000 5.66 40 17:22 11.02.2021
2682 Clear 22 1016 35 10000 6.17 30 16:59 11.02.2021
2683 Clear 22 1016 35 10000 6.17 30 16:41 11.02.2021
2684 Clear 23 1015 28 10000 6.69 30 16:21 11.02.2021
2685 Clear 23 1015 28 10000 6.17 30 15:43 11.02.2021
2686 Clear 23 1015 28 10000 6.17 30 15:25 11.02.2021
2687 Clear 24 1016 25 10000 5.66 20 14:47 11.02.2021
2688 Clear 24 1016 25 10000 5.66 20 14:28 11.02.2021
2689 Clear 24 1016 23 10000 6.17 30 13:41 11.02.2021
2690 Clear 24 1016 23 10000 6.17 30 13:19 11.02.2021
2691 Clear 23 1017 25 10000 6.17 20 12:51 11.02.2021
2692 Clear 23 1017 25 10000 6.17 50 12:26 11.02.2021
2693 Clear 22 1018 24 10000 7.2 30 11:46 11.02.2021
2694 Clear 21 1019 28 10000 7.72 50 11:22 11.02.2021
2695 Clear 21 1019 34 10000 6.69 50 10:44 11.02.2021
2696 Clear 19 1020 34 10000 7.2 50 10:26 11.02.2021
2697 Clear 19 1020 39 10000 7.2 50 09:53 11.02.2021
2698 Clear 18 1020 45 10000 7.2 50 09:22 11.02.2021
2699 Clear 17 1020 48 10000 6.69 40 08:53 11.02.2021
2700 Clear 16 1020 72 10000 6.69 50 08:24 11.02.2021
2701 Clear 13 1020 100 10000 3.6 80 07:30 11.02.2021
2702 Clear 12 1020 87 10000 4.12 60 06:40 11.02.2021
2703 Clear 11 1020 87 10000 4.12 70 05:33 11.02.2021
2704 Clear 13 1020 82 10000 3.6 80 02:29 11.02.2021
2705 Clear 15 1020 82 10000 4.12 60 00:54 11.02.2021
2706 Clear 15 1021 77 10000 3.6 50 00:21 11.02.2021
2707 Clear 16 1021 72 10000 4.63 40 23:44 10.02.2021
2708 Clear 16 1021 72 10000 2.06 60 22:53 10.02.2021
2709 Clear 16 1021 72 10000 2.06 60 22:53 10.02.2021
2710 Clear 15 1021 67 10000 3.09 60 22:31 10.02.2021
2711 Clear 14 1021 58 10000 4.63 40 21:59 10.02.2021
2712 Clear 15 1021 55 10000 6.17 40 21:38 10.02.2021
2713 Clear 16 1021 55 10000 6.17 40 21:19 10.02.2021
2714 Clear 16 1021 51 10000 5.14 40 20:41 10.02.2021
2715 Clear 17 1021 51 10000 5.66 40 20:22 10.02.2021
2716 Clear 17 1021 48 10000 6.17 40 19:46 10.02.2021
2717 Clear 18 1021 45 10000 6.17 30 19:25 10.02.2021
2718 Clear 18 1021 45 10000 7.2 30 18:44 10.02.2021
2719 Clear 20 1020 48 10000 7.2 30 18:23 10.02.2021
2720 Clear 21 1020 56 6000 6.69 10 17:57 10.02.2021
2721 Clear 21 1020 56 6000 6.69 10 17:24 10.02.2021
2722 Clear 21 1020 56 6000 6.69 10 17:24 10.02.2021
2723 Clear 22 1020 56 6000 4.63 10 16:53 10.02.2021
2724 Clear 22 1019 53 6000 4.63 10 16:31 10.02.2021
2725 Clear 23 1019 49 6000 4.63 360 15:59 10.02.2021
2726 Clear 23 1019 49 6000 4.63 360 15:24 10.02.2021
2727 Clear 23 1019 49 6000 4.63 360 15:24 10.02.2021
2728 Clear 23 1019 49 6000 4.63 10 14:52 10.02.2021
2729 Clear 23 1019 49 6000 4.63 360 14:34 10.02.2021
2730 Haze 24 1019 43 4000 4.63 350 13:53 10.02.2021
2731 Haze 23 1019 46 4000 3.6 360 13:29 10.02.2021
2732 Haze 23 1019 46 3000 3.6 360 12:53 10.02.2021
2733 Haze 23 1020 53 3000 2.57 20 12:30 10.02.2021
2734 Haze 23 1020 53 3000 3.09 10 11:57 10.02.2021
2735 Haze 19 1021 63 2000 2.57 60 11:38 10.02.2021
2736 Haze 19 1021 63 2000 2.57 60 11:19 10.02.2021
2737 Mist 19 1022 77 2000 3.6 350 10:23 10.02.2021
2738 Mist 16 1022 77 2000 2.57 340 09:56 10.02.2021
2739 Mist 15 1022 82 1000 3.09 340 09:31 10.02.2021
2740 Mist 14 1022 88 1000 2.57 350 08:53 10.02.2021
2741 Mist 13 1022 94 1000 2.06 40 08:33 10.02.2021
2742 Fog 12 1021 100 10000 1.03 60 07:37 10.02.2021
2743 Fog 13 1021 94 10000 2.06 20 06:21 10.02.2021
2744 Clear 18 1019 45 10000 2.57 270 01:28 10.02.2021
2745 Clear 18 1020 45 10000 2.91 328 23:59 09.02.2021
2746 Clear 19 1020 42 10000 0.51 100 23:32 09.02.2021
2747 Clear 18 1020 42 10000 1.03 170 22:49 09.02.2021
2748 Clear 18 1020 42 10000 3.09 110 22:24 09.02.2021
2749 Clear 18 1020 45 6000 3.09 90 21:52 09.02.2021
2750 Clear 18 1020 42 6000 3.6 100 21:25 09.02.2021
2751 Clear 20 1020 40 6000 4.63 110 20:45 09.02.2021
2752 Clear 20 1020 40 6000 3.6 100 20:25 09.02.2021
2753 Haze 20 1020 40 4000 3.6 100 19:52 09.02.2021
2754 Haze 20 1020 40 4000 3.6 90 19:29 09.02.2021
2755 Haze 21 1020 37 4000 4.12 80 18:56 09.02.2021
2756 Haze 21 1020 37 4000 4.12 80 18:35 09.02.2021
2757 Haze 24 1019 31 4000 3.6 50 17:56 09.02.2021
2758 Haze 24 1019 31 4000 3.09 30 17:36 09.02.2021
2759 Haze 24 1019 31 4000 3.09 30 17:18 09.02.2021
2760 Clouds 27 1019 18 6000 1.54 270 16:38 09.02.2021
2761 Clouds 27 1019 18 6000 1.54 270 16:18 09.02.2021
2762 Clouds 27 1019 18 6000 2.57 250 15:41 09.02.2021
2763 Clouds 27 1019 17 6000 2.06 250 15:23 09.02.2021
2764 Clouds 27 1019 17 6000 1.54 250 14:48 09.02.2021
2765 Clouds 28 1019 16 6000 2.57 220 14:26 09.02.2021
2766 Clouds 28 1019 16 6000 2.57 220 13:43 09.02.2021
2767 Clouds 30 1019 15 6000 2.06 220 13:21 09.02.2021
2768 Clouds 30 1019 14 6000 3.09 240 12:48 09.02.2021
2769 Clouds 30 1019 15 6000 2.57 200 12:28 09.02.2021
2770 Clouds 28 1020 16 6000 2.57 210 11:44 09.02.2021
2771 Clouds 25 1020 17 6000 3.09 240 11:23 09.02.2021
2772 Clouds 27 1021 18 6000 3.09 230 10:58 09.02.2021
2773 Clouds 25 1021 18 6000 3.09 330 10:23 09.02.2021
2774 Haze 26 1021 19 4000 2.57 170 09:59 09.02.2021
2775 Haze 25 1021 19 4000 2.57 170 09:40 09.02.2021
2776 Haze 26 1021 19 4000 3.09 180 09:20 09.02.2021
2777 Haze 24 1021 25 4000 3.6 150 08:30 09.02.2021
2778 Haze 22 1021 35 4000 4.12 140 07:54 09.02.2021
2779 Clouds 18 1020 36 6000 2.57 190 05:40 09.02.2021
2780 Haze 18 1019 34 2000 4.63 140 03:49 09.02.2021
2781 Haze 20 1020 37 2000 4.12 150 02:26 09.02.2021
2782 Haze 20 1020 40 2000 4.12 160 00:31 09.02.2021
2783 Haze 20 1020 40 2000 2.06 150 23:44 08.02.2021
2784 Haze 22 1021 40 2000 1.03 260 23:19 08.02.2021
2785 Haze 22 1020 37 4000 2.06 260 22:43 08.02.2021
2786 Clouds 21 1020 31 6000 3.99 141 22:23 08.02.2021
2787 Clouds 23 1020 31 6000 1.54 150 21:53 08.02.2021
2788 Clouds 23 1020 31 6000 3.6 130 21:31 08.02.2021
2789 Clouds 24 1020 29 6000 4.63 140 20:57 08.02.2021
2790 Clouds 25 1020 29 6000 4.63 130 20:36 08.02.2021
2791 Clouds 24 1020 35 6000 4.12 130 20:18 08.02.2021
2792 Clouds 24 1020 35 6000 4.12 130 19:41 08.02.2021
2793 Clouds 24 1021 35 6000 2.57 150 19:22 08.02.2021
2794 Clouds 26 1020 31 6000 0.86 275 18:46 08.02.2021
2795 Clouds 24 1020 31 6000 1.03 200 18:19 08.02.2021
2796 Clouds 27 1020 29 6000 2.06 190 17:43 08.02.2021
2797 Clouds 25 1020 29 6000 2.06 190 17:24 08.02.2021
2798 Clouds 28 1019 28 6000 5.14 220 16:43 08.02.2021
2799 Clouds 26 1019 28 6000 5.14 220 16:21 08.02.2021
2800 Clouds 26 1019 22 6000 5.14 230 15:42 08.02.2021
2801 Clouds 27 1019 18 6000 5.14 230 15:20 08.02.2021
2802 Clouds 27 1019 17 6000 5.14 240 14:51 08.02.2021
2803 Clouds 27 1019 17 6000 5.14 240 14:31 08.02.2021
2804 Clouds 27 1019 17 6000 5.14 230 13:56 08.02.2021
2805 Clouds 27 1019 17 6000 6.17 270 13:32 08.02.2021
2806 Clouds 27 1019 15 6000 6.17 260 12:53 08.02.2021
2807 Clouds 28 1019 14 10000 6.17 250 12:35 08.02.2021
2808 Clouds 28 1020 13 10000 5.66 240 11:48 08.02.2021
2809 Clouds 28 1020 17 10000 5.14 170 11:22 08.02.2021
2810 Clouds 26 1021 19 6000 5.14 180 10:45 08.02.2021
2811 Clouds 26 1021 25 6000 1.03 300 10:24 08.02.2021
2812 Clouds 24 1021 29 6000 0.51 300 09:53 08.02.2021
2813 Clouds 23 1021 37 6000 4.16 175 09:35 08.02.2021
2814 Clouds 20 1022 42 6000 3.95 162 08:47 08.02.2021
2815 Clouds 18 1022 52 6000 2.7 160 08:21 08.02.2021
2816 Clouds 15 1022 63 6000 2.7 160 07:34 08.02.2021
2817 Clouds 13 1021 71 6000 1.03 220 06:25 08.02.2021
2818 Clouds 14 1020 67 6000 1.54 250 02:37 08.02.2021
2819 Clouds 14 1020 82 6000 0.82 45 01:48 08.02.2021
2820 Clear 15 1021 77 6000 3.6 70 00:21 08.02.2021
2821 Clear 16 1021 72 6000 4.12 70 23:50 07.02.2021
2822 Clear 16 1021 72 6000 4.12 70 23:50 07.02.2021
2823 Clear 16 1021 72 6000 4.12 70 23:21 07.02.2021
2824 Clear 16 1021 72 6000 3.6 70 22:45 07.02.2021
2825 Clear 17 1021 63 6000 4.12 70 22:27 07.02.2021
2826 Haze 17 1021 59 4000 3.6 80 21:53 07.02.2021
2827 Haze 18 1021 59 4000 3.09 70 21:28 07.02.2021
2828 Haze 18 1021 55 4000 1.03 50 20:59 07.02.2021
2829 Clear 18 1021 68 6000 1.54 50 20:40 07.02.2021
2830 Clear 18 1021 68 6000 1.54 50 20:22 07.02.2021
2831 Clear 19 1021 55 10000 1.54 70 19:42 07.02.2021
2832 Clear 20 1021 49 10000 1.03 60 19:22 07.02.2021
2833 Clear 20 1021 49 10000 2.06 60 18:43 07.02.2021
2834 Clear 21 1020 46 10000 4.12 50 18:25 07.02.2021
2835 Clear 20 1020 46 10000 4.12 50 17:44 07.02.2021
2836 Clear 22 1020 40 10000 4.12 50 17:21 07.02.2021
2837 Clear 22 1020 40 10000 4.12 50 16:57 07.02.2021
2838 Clear 23 1020 40 10000 3.6 60 16:36 07.02.2021
2839 Clear 23 1020 40 10000 3.6 60 16:18 07.02.2021
2840 Clear 22 1020 43 10000 4.12 50 15:41 07.02.2021
2841 Clear 23 1020 40 10000 3.6 60 15:21 07.02.2021
2842 Clear 23 1020 43 10000 4.12 50 14:42 07.02.2021
2843 Clear 23 1020 43 10000 3.6 40 14:24 07.02.2021
2844 Clear 23 1020 43 10000 2.57 30 13:40 07.02.2021
2845 Clear 22 1021 49 10000 2.57 40 13:22 07.02.2021
2846 Clear 22 1021 49 10000 3.09 60 12:39 07.02.2021
2847 Clear 22 1021 49 10000 1.03 50 12:20 07.02.2021
2848 Clear 21 1022 52 6000 2.57 40 11:42 07.02.2021
2849 Clear 20 1022 56 6000 3.6 30 11:24 07.02.2021
2850 Clouds 20 1023 64 6000 4.12 60 10:29 07.02.2021
2851 Clear 19 1023 68 6000 2.57 30 09:57 07.02.2021
2852 Clear 19 1023 68 6000 2.57 30 09:38 07.02.2021
2853 Mist 18 1023 77 4000 2.06 10 09:18 07.02.2021
2854 Mist 15 1022 82 2000 2.06 30 07:57 07.02.2021
2855 Mist 12 1021 94 4000 2.2 345 06:32 07.02.2021
2856 Clear 14 1021 82 6000 4.12 90 04:45 07.02.2021
2857 Mist 13 1021 88 3000 4.12 80 02:52 07.02.2021
2858 Mist 13 1022 88 4000 2.57 60 00:41 07.02.2021
2859 Mist 14 1022 77 4000 2.06 30 23:58 06.02.2021
2860 Haze 14 1022 77 4000 2.06 30 23:19 06.02.2021
2861 Clear 14 1022 77 6000 3.31 359 22:31 06.02.2021
2862 Clear 15 1021 72 6000 2.06 90 21:39 06.02.2021
2863 Clear 15 1021 72 6000 2.06 90 21:20 06.02.2021
2864 Clear 15 1022 63 6000 2.06 50 20:45 06.02.2021
2865 Clear 16 1022 63 6000 2.06 50 20:23 06.02.2021
2866 Clear 17 1021 63 6000 2.06 20 19:55 06.02.2021
2867 Clear 18 1021 59 6000 2.57 20 19:27 06.02.2021
2868 Clear 18 1021 63 6000 2.57 10 18:46 06.02.2021
2869 Clear 19 1021 59 6000 3.09 340 18:27 06.02.2021
2870 Clear 19 1021 59 6000 3.6 340 17:44 06.02.2021
2871 Clear 19 1021 59 6000 3.09 320 17:21 06.02.2021
2872 Clear 19 1021 59 6000 3.6 310 16:58 06.02.2021
2873 Clear 20 1020 52 6000 3.09 310 16:34 06.02.2021
2874 Clear 20 1020 52 6000 3.09 330 15:57 06.02.2021
2875 Clear 21 1020 49 6000 1.54 290 15:38 06.02.2021
2876 Clear 21 1020 49 6000 1.54 290 15:18 06.02.2021
2877 Clear 21 1020 46 6000 2.06 310 14:44 06.02.2021
2878 Clear 21 1020 46 6000 4.12 340 14:23 06.02.2021
2879 Clear 22 1021 46 6000 1.54 250 13:47 06.02.2021
2880 Clouds 21 1021 46 6000 1.03 300 12:56 06.02.2021
2881 Clouds 19 1021 49 6000 1.54 320 12:21 06.02.2021
2882 Clouds 19 1022 59 6000 1.03 280 11:47 06.02.2021
2883 Clouds 18 1022 59 6000 1.54 340 11:22 06.02.2021
2884 Clouds 18 1022 59 6000 1.03 230 10:56 06.02.2021
2885 Clouds 18 1023 59 6000 1.54 310 10:28 06.02.2021
2886 Clouds 18 1023 59 6000 0.63 342 09:57 06.02.2021
2887 Clouds 18 1023 63 6000 0.63 342 09:37 06.02.2021
2888 Clouds 18 1023 63 6000 1.37 324 09:18 06.02.2021
2889 Clouds 16 1023 67 6000 1.03 60 08:33 06.02.2021
2890 Haze 15 1022 67 4000 2.06 10 07:59 06.02.2021
2891 Clouds 13 1022 82 6000 1.54 40 05:43 06.02.2021
2892 Clouds 13 1021 88 6000 1.03 60 03:56 06.02.2021
2893 Clouds 13 1021 88 6000 2.73 331 01:58 06.02.2021
2894 Clear 14 1021 88 6000 1.03 330 00:48 06.02.2021
2895 Clear 14 1021 88 6000 1.54 320 00:19 06.02.2021
2896 Clear 13 1021 82 6000 1.03 330 23:43 05.02.2021
2897 Clear 15 1021 77 6000 1.54 330 23:24 05.02.2021
2898 Clouds 15 1022 77 10000 2.57 330 22:47 05.02.2021
2899 Clouds 15 1022 77 10000 2.06 300 22:20 05.02.2021
2900 Clouds 15 1022 77 10000 1.54 320 21:47 05.02.2021
2901 Clouds 16 1022 72 10000 2.06 290 21:28 05.02.2021
2902 Clouds 15 1022 72 10000 2.06 300 20:47 05.02.2021
2903 Clouds 16 1021 72 10000 4.12 320 19:53 05.02.2021
2904 Clouds 17 1021 67 10000 4.12 320 19:20 05.02.2021
2905 Clouds 17 1021 67 10000 4.12 320 18:54 05.02.2021
2906 Clouds 18 1021 63 10000 5.66 320 18:28 05.02.2021
2907 Clouds 18 1021 63 10000 5.14 320 17:47 05.02.2021
2908 Clouds 18 1021 63 10000 5.14 320 17:47 05.02.2021
2909 Clouds 18 1020 59 10000 4.63 320 17:27 05.02.2021
2910 Clouds 19 1020 55 10000 5.66 300 16:50 05.02.2021
2911 Clouds 19 1020 55 10000 5.66 300 16:28 05.02.2021
2912 Clouds 20 1019 52 10000 5.14 320 15:58 05.02.2021
2913 Clouds 20 1019 52 10000 5.66 330 15:27 05.02.2021
2914 Clouds 20 1019 52 10000 4.63 320 14:57 05.02.2021
2915 Clouds 20 1019 52 10000 4.63 320 14:37 05.02.2021
2916 Clouds 21 1019 49 10000 5.14 310 14:18 05.02.2021
2917 Clouds 21 1019 52 10000 4.63 290 13:39 05.02.2021
2918 Clouds 21 1019 52 10000 4.63 290 13:19 05.02.2021
2919 Clouds 21 1019 49 10000 6.17 290 12:41 05.02.2021
2920 Clouds 21 1019 49 10000 6.17 290 12:41 05.02.2021
2921 Clouds 20 1019 56 10000 5.66 310 11:59 05.02.2021
2922 Clouds 19 1019 59 10000 5.66 300 11:38 05.02.2021
2923 Clouds 19 1019 59 10000 5.66 300 11:19 05.02.2021
2924 Clouds 19 1020 63 10000 6.17 320 10:46 05.02.2021
2925 Clouds 18 1020 68 10000 6.69 320 10:24 05.02.2021
2926 Clouds 17 1020 72 10000 6.69 310 09:42 05.02.2021
2927 Clouds 17 1020 77 10000 5.14 310 09:23 05.02.2021
2928 Clouds 16 1020 94 10000 4.12 300 08:40 05.02.2021
2929 Clear 15 1020 100 10000 4.63 290 07:41 05.02.2021
2930 Clouds 15 1019 100 10000 3.6 330 07:22 05.02.2021
2931 Clouds 15 1019 100 10000 3.09 300 06:32 05.02.2021
2932 Clouds 14 1018 100 10000 4.63 290 05:33 05.02.2021
2933 Clouds 15 1017 100 10000 4.12 300 02:26 05.02.2021
2934 Clouds 15 1017 100 10000 6.69 340 01:28 05.02.2021
2935 Clouds 15 1017 100 10000 4.63 310 00:36 05.02.2021
2936 Clouds 15 1017 100 10000 4.63 310 00:18 05.02.2021
2937 Clouds 16 1017 100 10000 4.63 310 23:42 04.02.2021
2938 Clouds 16 1017 100 10000 4.63 310 23:42 04.02.2021
2939 Clouds 16 1016 100 10000 5.14 310 23:23 04.02.2021
2940 Clouds 16 1016 100 10000 3.6 300 22:54 04.02.2021
2941 Clouds 16 1016 100 10000 6.69 330 22:30 04.02.2021
2942 Clouds 16 1016 88 10000 4.63 300 21:58 04.02.2021
2943 Clouds 16 1016 88 10000 3.6 300 21:39 04.02.2021
2944 Clear 16 1016 82 10000 4.63 320 20:58 04.02.2021
2945 Clouds 17 1016 88 8000 4.12 340 20:34 04.02.2021
2946 Clear 16 1016 82 10000 4.12 320 19:52 04.02.2021
2947 Clear 17 1016 77 10000 6.69 10 19:27 04.02.2021
2948 Clear 15 1016 77 10000 4.12 350 18:46 04.02.2021
2949 Clear 16 1015 77 10000 4.63 340 18:24 04.02.2021
2950 Clear 17 1015 72 10000 5.14 330 17:47 04.02.2021
2951 Clear 17 1014 67 10000 5.66 330 17:22 04.02.2021
2952 Clear 17 1014 67 10000 5.14 320 16:50 04.02.2021
2953 Clear 18 1013 68 10000 5.66 330 16:50 04.02.2021
2954 Clear 18 1013 68 10000 5.66 330 16:21 04.02.2021
2955 Clear 18 1013 68 10000 5.66 330 16:21 04.02.2021
2956 Clear 17 1013 63 10000 7.72 310 15:58 04.02.2021
2957 Clear 18 1013 63 10000 7.72 310 15:38 04.02.2021
2958 Clear 19 1014 59 10000 8.23 300 15:20 04.02.2021
2959 Clear 20 1013 42 10000 9.26 280 14:40 04.02.2021
2960 Clear 20 1013 42 10000 9.26 280 14:20 04.02.2021
2961 Clear 21 1013 40 10000 10.29 290 13:44 04.02.2021
2962 Clear 21 1012 56 10000 4.12 290 12:58 04.02.2021
2963 Clear 21 1012 56 10000 4.12 290 12:34 04.02.2021
2964 Clear 20 1013 60 10000 5.14 280 11:53 04.02.2021
2965 Clear 20 1013 68 10000 5.14 290 11:33 04.02.2021
2966 Clear 19 1014 77 10000 5.14 300 10:51 04.02.2021
2967 Clear 18 1014 82 10000 5.14 330 10:21 04.02.2021
2968 Clouds 18 1014 82 6000 4.63 270 09:44 04.02.2021
2969 Clouds 18 1014 77 6000 4.12 270 09:19 04.02.2021
2970 Haze 16 1014 59 4000 4.12 190 08:50 04.02.2021
2971 Haze 17 1014 59 4000 4.12 190 08:25 04.02.2021
2972 Haze 16 1013 63 4000 4.12 190 07:50 04.02.2021
2973 Haze 15 1013 67 4000 4.63 180 07:32 04.02.2021
2974 Haze 14 1013 67 4000 5.14 170 06:44 04.02.2021
2975 Clouds 16 1012 63 6000 3.6 240 05:31 04.02.2021
2976 Clouds 17 1011 55 6000 3.09 200 02:30 04.02.2021
2977 Clouds 18 1012 48 6000 1.54 210 01:20 04.02.2021
2978 Clouds 19 1011 37 6000 5.14 180 23:54 03.02.2021
2979 Clouds 20 1012 34 6000 3.09 180 23:30 03.02.2021
2980 Clouds 20 1012 34 6000 3.09 180 23:30 03.02.2021
2981 Clouds 21 1012 26 6000 2.06 230 22:38 03.02.2021
2982 Clouds 21 1012 26 6000 2.06 230 22:20 03.02.2021
2983 Clouds 20 1012 28 6000 1.54 260 21:46 03.02.2021
2984 Clouds 21 1012 24 6000 3.6 180 21:23 03.02.2021
2985 Clouds 22 1011 23 6000 4.63 180 20:50 03.02.2021
2986 Clouds 22 1011 23 6000 4.63 180 20:31 03.02.2021
2987 Clouds 22 1011 21 6000 4.12 180 19:55 03.02.2021
2988 Clouds 23 1011 20 6000 4.12 180 19:25 03.02.2021
2989 Haze 23 1011 25 4000 4.12 170 18:57 03.02.2021
2990 Haze 23 1011 25 4000 4.12 170 18:37 03.02.2021
2991 Haze 23 1010 27 4000 3.6 70 18:19 03.02.2021
2992 Haze 23 1010 27 4000 4.63 50 17:44 03.02.2021
2993 Haze 23 1010 23 4000 4.12 60 17:24 03.02.2021
2994 Clouds 25 1010 16 6000 3.09 260 16:42 03.02.2021
2995 Clouds 26 1009 15 10000 3.6 260 16:22 03.02.2021
2996 Clouds 26 1009 14 10000 3.09 230 15:40 03.02.2021
2997 Clouds 26 1010 13 10000 4.12 230 15:22 03.02.2021
2998 Clear 27 1009 12 10000 3.09 180 14:45 03.02.2021
2999 Clear 27 1010 12 10000 3.09 150 14:22 03.02.2021
3000 Clear 27 1010 13 10000 2.57 200 13:47 03.02.2021
3001 Clear 27 1010 14 10000 3.6 200 13:21 03.02.2021
3002 Clear 27 1010 16 10000 4.63 220 12:42 03.02.2021
3003 Clear 27 1011 16 10000 5.66 220 12:21 03.02.2021
3004 Clear 26 1011 17 10000 5.14 210 11:42 03.02.2021
3005 Clear 26 1012 18 10000 4.63 200 11:23 03.02.2021
3006 Clear 25 1012 18 10000 5.14 200 10:42 03.02.2021
3007 Clear 25 1013 18 10000 4.63 180 10:20 03.02.2021
3008 Clear 24 1013 18 6000 3.6 190 09:43 03.02.2021
3009 Haze 24 1013 23 4000 3.6 200 09:20 03.02.2021
3010 Haze 23 1013 23 4000 1.54 250 08:48 03.02.2021
3011 Haze 19 1012 32 4000 4.63 150 07:59 03.02.2021
3012 Haze 17 1012 34 4000 4.12 150 07:26 03.02.2021
3013 Haze 15 1012 38 4000 3.6 160 06:38 03.02.2021
3014 Haze 15 1012 41 4000 1.54 170 04:50 03.02.2021
3015 Haze 16 1012 39 4000 2.57 170 04:27 03.02.2021
3016 Haze 16 1012 36 4000 1.93 115 02:42 03.02.2021
3017 Haze 16 1012 36 4000 2.06 170 01:58 03.02.2021
3018 Haze 17 1012 34 4000 2.57 130 00:27 03.02.2021
3019 Haze 18 1013 34 4000 4.12 140 23:47 02.02.2021
3020 Haze 18 1013 34 4000 4.63 150 23:28 02.02.2021
3021 Haze 18 1013 32 4000 4.63 150 22:52 02.02.2021
3022 Haze 19 1013 30 4000 4.63 150 22:22 02.02.2021
3023 Haze 19 1013 28 4000 4.12 140 21:54 02.02.2021
3024 Haze 21 1014 30 4000 3.6 90 21:29 02.02.2021
3025 Haze 21 1014 30 4000 3.6 90 20:59 02.02.2021
3026 Haze 20 1014 30 4000 3.6 90 20:41 02.02.2021
3027 Haze 20 1014 30 4000 3.6 90 20:18 02.02.2021
3028 Haze 20 1014 30 4000 3.6 90 20:18 02.02.2021
3029 Haze 21 1014 32 4000 3.6 90 19:42 02.02.2021
3030 Haze 21 1014 30 4000 3.09 90 19:23 02.02.2021
3031 Clouds 23 1014 31 6000 3.09 50 18:44 02.02.2021
3032 Clouds 23 1013 31 6000 2.06 10 18:24 02.02.2021
3033 Clear 23 1013 27 10000 1.54 180 17:49 02.02.2021
3034 Clear 25 1013 19 10000 1.54 200 17:22 02.02.2021
3035 Clear 25 1013 18 10000 2.57 220 16:56 02.02.2021
3036 Clear 26 1013 17 10000 3.09 220 16:37 02.02.2021
3037 Clouds 27 1013 17 6000 2.57 210 15:58 02.02.2021
3038 Clouds 27 1012 17 6000 3.09 230 15:40 02.02.2021
3039 Clouds 27 1012 17 6000 3.09 230 15:20 02.02.2021
3040 Clouds 27 1013 15 6000 5.14 270 14:39 02.02.2021
3041 Clear 28 1013 15 6000 5.14 270 14:18 02.02.2021
3042 Clear 27 1013 14 6000 3.6 270 13:44 02.02.2021
3043 Clear 27 1013 16 6000 4.12 260 13:25 02.02.2021
3044 Clear 27 1013 16 6000 4.12 250 12:55 02.02.2021
3045 Clear 27 1013 16 6000 3.09 260 12:26 02.02.2021
3046 Clear 26 1014 18 6000 2.57 240 11:41 02.02.2021
3047 Clear 24 1014 18 6000 2.57 240 11:20 02.02.2021
3048 Haze 25 1015 21 4000 1.54 230 10:47 02.02.2021
3049 Haze 25 1015 23 4000 3.09 240 10:26 02.02.2021
3050 Haze 23 1015 33 3000 2.06 270 09:46 02.02.2021
3051 Haze 22 1016 40 3000 2.06 290 09:24 02.02.2021
3052 Haze 20 1015 42 3000 1.82 178 08:43 02.02.2021
3053 Haze 14 1015 62 3000 0.76 139 07:58 02.02.2021
3054 Haze 14 1015 62 3000 0.19 350 07:27 02.02.2021
3055 Haze 13 1015 62 4000 1.03 250 06:41 02.02.2021
3056 Clear 14 1015 54 6000 1.54 250 05:51 02.02.2021
3057 Clear 14 1015 51 6000 2.06 190 04:36 02.02.2021
3058 Clear 15 1014 55 6000 1.03 100 02:25 02.02.2021
3059 Clear 15 1014 55 10000 1.03 140 01:23 02.02.2021
3060 Clear 17 1015 55 10000 1.03 60 00:18 02.02.2021
3061 Clear 17 1015 55 10000 1.03 60 23:18 01.02.2021
3062 Clear 18 1015 48 10000 3.09 40 22:40 01.02.2021
3063 Clear 18 1015 48 10000 3.09 40 22:21 01.02.2021
3064 Clear 18 1015 45 10000 5.66 80 21:48 01.02.2021
3065 Clear 19 1015 45 10000 5.66 80 21:26 01.02.2021
3066 Clear 19 1015 42 10000 6.17 70 20:47 01.02.2021
3067 Clear 20 1015 42 10000 6.17 70 20:25 01.02.2021
3068 Clear 21 1015 40 10000 6.17 70 19:55 01.02.2021
3069 Clear 20 1015 40 10000 6.17 70 19:37 01.02.2021
3070 Clear 20 1015 40 10000 6.17 70 19:18 01.02.2021
3071 Clear 23 1015 35 10000 4.63 40 18:41 01.02.2021
3072 Clear 23 1015 35 10000 4.63 40 18:22 01.02.2021
3073 Clear 24 1014 27 10000 4.12 50 17:45 01.02.2021
3074 Clear 24 1014 27 10000 4.12 50 17:22 01.02.2021
3075 Clear 26 1014 22 10000 5.66 40 16:42 01.02.2021
3076 Clear 26 1014 22 10000 5.66 40 16:23 01.02.2021
3077 Clear 27 1014 19 10000 5.14 40 15:42 01.02.2021
3078 Clear 27 1014 18 10000 5.66 30 15:19 01.02.2021
3079 Clear 27 1014 19 10000 5.66 60 14:51 01.02.2021
3080 Clear 27 1014 19 10000 5.66 60 14:24 01.02.2021
3081 Clear 27 1015 19 10000 5.14 90 13:46 01.02.2021
3082 Clear 26 1015 19 10000 5.14 90 13:26 01.02.2021
3083 Clear 26 1015 21 10000 5.66 60 12:45 01.02.2021
3084 Clear 26 1015 22 10000 3.6 80 12:25 01.02.2021
3085 Clear 26 1015 22 10000 3.6 80 12:25 01.02.2021
3086 Clear 25 1016 25 10000 6.69 80 11:47 01.02.2021
3087 Clear 24 1016 25 10000 6.69 80 11:21 01.02.2021
3088 Clear 25 1017 29 10000 6.69 80 10:53 01.02.2021
3089 Clear 24 1017 29 10000 6.69 70 10:27 01.02.2021
3090 Clear 23 1017 38 6000 4.63 70 09:55 01.02.2021
3091 Clear 22 1017 43 6000 4.63 60 09:36 01.02.2021
3092 Haze 20 1018 40 3000 4.63 80 08:56 01.02.2021
3093 Haze 19 1018 42 3000 4.12 80 08:27 01.02.2021
3094 Clear 15 1018 51 6000 4.12 130 07:32 01.02.2021
3095 Clear 14 1017 51 6000 4.12 100 05:27 01.02.2021
3096 Clear 14 1017 51 6000 1.54 130 02:40 01.02.2021
3097 Clear 15 1017 51 6000 4.63 150 00:26 01.02.2021
3098 Clear 18 1017 45 6000 4.63 150 23:26 31.01.2021
3099 Clear 16 1018 45 6000 4.12 150 22:41 31.01.2021
3100 Clear 18 1018 45 6000 4.12 150 22:22 31.01.2021
3101 Clear 19 1017 42 6000 4.63 160 21:47 31.01.2021
3102 Clear 19 1017 42 6000 4.63 150 21:21 31.01.2021
3103 Clear 19 1018 42 6000 4.63 170 20:46 31.01.2021
3104 Clear 19 1017 40 6000 4.63 160 20:21 31.01.2021
3105 Clear 20 1017 42 6000 4.63 160 19:41 31.01.2021
3106 Clear 20 1017 42 6000 4.63 160 19:23 31.01.2021
3107 Clear 20 1017 42 10000 5.66 160 18:57 31.01.2021
3108 Clear 21 1017 40 10000 4.63 170 18:38 31.01.2021
3109 Clear 21 1017 40 10000 4.63 170 18:19 31.01.2021
3110 Clear 20 1017 37 10000 5.14 180 17:45 31.01.2021
3111 Clear 22 1017 35 10000 4.12 190 17:23 31.01.2021
3112 Clear 23 1016 33 10000 5.66 180 16:47 31.01.2021
3113 Clear 23 1016 33 10000 4.63 170 16:28 31.01.2021
3114 Clear 23 1016 33 10000 6.17 170 15:51 31.01.2021
3115 Clear 24 1016 29 10000 6.69 170 15:32 31.01.2021
3116 Clear 24 1016 29 10000 7.2 170 14:42 31.01.2021
3117 Clear 24 1016 29 10000 6.17 190 14:22 31.01.2021
3118 Clear 24 1016 29 10000 6.69 190 13:53 31.01.2021
3119 Clear 23 1017 28 10000 6.69 200 13:34 31.01.2021
3120 Clear 23 1017 28 10000 5.66 200 12:49 31.01.2021
3121 Clear 21 1017 32 10000 5.66 210 12:22 31.01.2021
3122 Clear 21 1018 32 10000 7.2 190 11:44 31.01.2021
3123 Clear 20 1018 32 10000 7.2 180 11:25 31.01.2021
3124 Clear 20 1018 32 10000 8.23 200 10:57 31.01.2021
3125 Clear 21 1018 32 10000 8.23 200 10:35 31.01.2021
3126 Clear 19 1018 32 10000 7.72 180 09:51 31.01.2021
3127 Clear 19 1018 32 10000 7.72 180 09:27 31.01.2021
3128 Clear 17 1018 34 10000 7.72 180 08:34 31.01.2021
3129 Clear 15 1018 36 10000 7.2 180 06:58 31.01.2021
3130 Clear 15 1017 36 10000 9.26 180 05:40 31.01.2021
3131 Clear 14 1018 36 10000 8.75 190 00:52 31.01.2021
3132 Clear 15 1018 39 10000 9.26 190 00:22 31.01.2021
3133 Clear 15 1018 36 10000 9.77 190 23:34 30.01.2021
3134 Clear 17 1018 36 10000 8.75 190 22:57 30.01.2021
3135 Clear 16 1018 36 10000 10.29 190 22:31 30.01.2021
3136 Clear 16 1018 36 10000 10.29 190 22:31 30.01.2021
3137 Clear 17 1018 36 10000 8.75 190 21:42 30.01.2021
3138 Clear 16 1018 36 10000 7.72 180 21:23 30.01.2021
3139 Clear 17 1018 36 10000 9.26 190 20:50 30.01.2021
3140 Clear 17 1018 39 10000 8.75 180 20:31 30.01.2021
3141 Clear 17 1018 39 10000 8.75 190 19:54 30.01.2021
3142 Clear 17 1018 42 10000 8.23 180 19:36 30.01.2021
3143 Clear 17 1018 42 10000 8.23 180 19:18 30.01.2021
3144 Clear 17 1018 34 10000 7.2 180 18:39 30.01.2021
3145 Clear 18 1018 34 10000 7.2 180 18:19 30.01.2021
3146 Clear 18 1018 36 10000 6.17 180 17:23 30.01.2021
3147 Clear 18 1018 36 10000 7.2 190 16:56 30.01.2021
3148 Clear 19 1018 34 10000 6.69 200 16:37 30.01.2021
3149 Clear 19 1018 34 10000 6.69 200 16:18 30.01.2021
3150 Clear 19 1018 34 10000 5.66 190 15:40 30.01.2021
3151 Clear 19 1018 34 10000 5.66 190 15:21 30.01.2021
3152 Clear 20 1019 32 10000 7.72 190 14:52 30.01.2021
3153 Clear 20 1019 30 6000 6.69 200 14:22 30.01.2021
3154 Clear 20 1019 30 6000 9.77 190 13:40 30.01.2021
3155 Clear 19 1019 30 6000 9.77 190 13:19 30.01.2021
3156 Clear 19 1019 32 6000 8.23 180 12:42 30.01.2021
3157 Clear 18 1020 36 6000 7.72 200 12:20 30.01.2021
3158 Clear 19 1020 34 6000 8.23 200 11:37 30.01.2021
3159 Clear 17 1021 36 6000 7.72 210 10:51 30.01.2021
3160 Clear 15 1022 44 6000 7.2 180 09:53 30.01.2021
3161 Clear 15 1022 44 6000 7.2 180 09:31 30.01.2021
3162 Clear 15 1022 44 6000 7.2 180 08:56 30.01.2021
3163 Clear 15 1022 44 6000 7.2 180 08:36 30.01.2021
3164 Haze 11 1021 62 4000 4.63 180 07:23 30.01.2021
3165 Haze 11 1021 62 4000 4.63 180 06:19 30.01.2021
3166 Clear 12 1021 62 10000 5.66 180 03:35 30.01.2021
3167 Clear 12 1021 54 10000 5.66 180 02:26 30.01.2021
3168 Clear 13 1021 58 10000 3.6 170 01:59 30.01.2021
3169 Clear 13 1021 58 10000 4.12 180 00:49 30.01.2021
3170 Clear 13 1021 58 10000 4.12 180 00:21 30.01.2021
3171 Clear 14 1021 58 10000 3.6 180 23:49 29.01.2021
3172 Clear 14 1021 58 10000 3.6 180 23:27 29.01.2021
3173 Clear 14 1021 58 10000 3.6 190 22:45 29.01.2021
3174 Clear 13 1021 58 10000 2.57 200 22:22 29.01.2021
3175 Clear 14 1021 58 10000 3.09 190 21:44 29.01.2021
3176 Clear 13 1021 58 10000 1.54 190 21:26 29.01.2021
3177 Clear 13 1021 58 10000 2.06 200 20:42 29.01.2021
3178 Clear 14 1021 58 10000 2.06 230 20:21 29.01.2021
3179 Clear 13 1021 54 10000 2.06 240 19:39 29.01.2021
3180 Clear 14 1021 54 10000 2.06 240 19:20 29.01.2021
3181 Clouds 15 1021 55 10000 2.57 260 18:45 29.01.2021
3182 Clouds 15 1021 55 10000 3.09 290 17:46 29.01.2021
3183 Clouds 15 1020 55 10000 3.6 300 17:22 29.01.2021
3184 Clouds 15 1020 51 10000 5.14 300 16:47 29.01.2021
3185 Clouds 15 1020 51 10000 5.14 300 16:24 29.01.2021
3186 Clouds 15 1020 48 10000 3.6 300 15:54 29.01.2021
3187 Clouds 16 1020 48 10000 3.6 300 15:36 29.01.2021
3188 Clouds 15 1019 48 10000 5.14 300 14:58 29.01.2021
3189 Clouds 16 1019 48 10000 5.14 300 14:21 29.01.2021
3190 Clouds 16 1019 45 10000 4.12 280 13:46 29.01.2021
3191 Clouds 16 1019 45 10000 4.12 280 13:27 29.01.2021
3192 Clouds 16 1020 48 10000 6.17 270 12:30 29.01.2021
3193 Clouds 17 1020 48 10000 4.12 280 11:59 29.01.2021
3194 Clouds 16 1020 48 10000 4.12 280 11:41 29.01.2021
3195 Clouds 17 1020 48 10000 4.12 280 11:18 29.01.2021
3196 Clouds 16 1020 51 10000 5.14 300 10:41 29.01.2021
3197 Clouds 15 1020 55 10000 5.14 200 10:19 29.01.2021
3198 Clouds 15 1020 55 10000 5.14 200 09:37 29.01.2021
3199 Clouds 14 1020 58 10000 4.63 210 08:50 29.01.2021
3200 Clouds 12 1020 62 10000 5.14 210 08:26 29.01.2021
3201 Clouds 14 1019 67 10000 5.14 200 07:47 29.01.2021
3202 Clouds 13 1018 71 10000 4.63 200 07:26 29.01.2021
3203 Clouds 13 1018 71 10000 4.63 200 07:26 29.01.2021
3204 Clouds 12 1018 67 10000 5.14 200 06:38 29.01.2021
3205 Clouds 12 1017 62 10000 9.26 240 04:53 29.01.2021
3206 Clouds 13 1016 35 10000 7.72 200 00:52 29.01.2021
3207 Clouds 13 1016 35 10000 7.72 200 00:23 29.01.2021
3208 Clouds 13 1016 35 10000 7.2 210 23:57 28.01.2021
3209 Clouds 14 1017 35 10000 8.23 210 23:39 28.01.2021
3210 Clouds 14 1017 35 10000 8.23 210 23:20 28.01.2021
3211 Clouds 15 1017 33 10000 5.66 220 22:41 28.01.2021
3212 Clouds 14 1017 33 10000 5.66 220 22:22 28.01.2021
3213 Clouds 15 1017 33 10000 5.66 220 21:44 28.01.2021
3214 Clouds 15 1017 31 10000 5.14 220 21:26 28.01.2021
3215 Clouds 14 1017 31 10000 5.66 230 20:46 28.01.2021
3216 Clouds 15 1017 29 10000 5.66 240 20:19 28.01.2021
3217 Clouds 15 1017 29 10000 5.66 240 20:19 28.01.2021
3218 Clouds 15 1017 29 10000 5.66 240 20:19 28.01.2021
3219 Clouds 15 1017 29 10000 6.69 240 19:57 28.01.2021
3220 Clouds 15 1017 31 10000 6.17 240 19:32 28.01.2021
3221 Clouds 15 1017 31 10000 5.14 240 18:54 28.01.2021
3222 Clouds 16 1016 31 10000 5.66 240 18:36 28.01.2021
3223 Clouds 16 1016 31 10000 5.66 240 18:18 28.01.2021
3224 Clouds 15 1016 29 10000 5.66 240 17:43 28.01.2021
3225 Clouds 17 1016 27 10000 6.69 240 17:24 28.01.2021
3226 Clouds 17 1016 29 10000 7.72 220 16:43 28.01.2021
3227 Clouds 18 1016 32 10000 7.2 230 16:21 28.01.2021
3228 Clouds 18 1016 32 10000 6.17 250 15:38 28.01.2021
3229 Clouds 18 1016 29 10000 6.17 240 14:58 28.01.2021
3230 Clouds 18 1016 29 10000 6.17 240 14:39 28.01.2021
3231 Clouds 18 1016 29 10000 6.17 240 14:39 28.01.2021
3232 Clouds 18 1016 32 10000 5.66 230 14:20 28.01.2021
3233 Clouds 18 1017 34 10000 5.14 250 13:40 28.01.2021
3234 Clouds 18 1017 36 10000 5.66 250 12:52 28.01.2021
3235 Clouds 18 1017 39 10000 4.63 240 12:33 28.01.2021
3236 Clouds 17 1018 42 10000 4.63 270 11:59 28.01.2021
3237 Clouds 17 1018 42 10000 4.63 270 11:40 28.01.2021
3238 Clouds 18 1018 42 10000 5.14 260 11:19 28.01.2021
3239 Clouds 16 1019 45 10000 5.14 280 10:50 28.01.2021
3240 Clouds 15 1019 51 10000 5.66 230 10:27 28.01.2021
3241 Clouds 15 1020 51 10000 6.17 230 09:44 28.01.2021
3242 Clouds 15 1020 55 10000 4.12 220 09:22 28.01.2021
3243 Clouds 15 1019 55 10000 4.12 220 08:49 28.01.2021
3244 Clouds 13 1019 62 10000 4.63 230 08:18 28.01.2021
3245 Clouds 13 1018 58 10000 3.4 280 07:44 28.01.2021
3246 Clear 12 1018 66 10000 2.22 262 06:49 28.01.2021
3247 Clear 13 1017 67 10000 2.02 268 05:35 28.01.2021
3248 Clear 14 1016 62 10000 2.75 306 03:49 28.01.2021
3249 Clear 14 1016 63 10000 3.09 280 01:37 28.01.2021
3250 Clear 15 1016 63 10000 3.09 290 23:47 27.01.2021
3251 Clear 15 1016 67 10000 4.63 300 23:23 27.01.2021
3252 Clear 16 1016 67 10000 4.12 310 22:41 27.01.2021
3253 Clear 16 1016 72 10000 3.6 290 22:21 27.01.2021
3254 Clear 14 1016 72 10000 3.09 320 21:43 27.01.2021
3255 Clear 16 1016 72 10000 3.6 300 21:23 27.01.2021
3256 Clear 17 1015 67 10000 3.09 310 20:52 27.01.2021
3257 Clear 17 1015 67 10000 3.09 310 20:24 27.01.2021
3258 Clear 16 1015 63 10000 6.17 310 19:49 27.01.2021
3259 Clear 17 1015 63 10000 6.17 310 19:23 27.01.2021
3260 Clouds 20 1013 32 6000 4.12 250 18:46 27.01.2021
3261 Clouds 20 1013 32 6000 4.12 250 18:24 27.01.2021
3262 Clouds 21 1012 24 6000 5.66 210 17:55 27.01.2021
3263 Clouds 21 1012 24 6000 5.66 210 17:35 27.01.2021
3264 Clouds 22 1012 24 6000 5.14 190 16:57 27.01.2021
3265 Clouds 21 1012 24 6000 5.14 190 16:39 27.01.2021
3266 Clouds 22 1012 23 6000 6.69 200 16:21 27.01.2021
3267 Clouds 22 1011 21 6000 7.72 200 15:49 27.01.2021
3268 Clouds 23 1011 21 6000 7.72 200 15:29 27.01.2021
3269 Clouds 23 1011 21 6000 7.72 200 14:38 27.01.2021
3270 Clouds 23 1011 21 6000 7.72 200 14:18 27.01.2021
3271 Clouds 23 1012 25 6000 8.23 220 13:35 27.01.2021
3272 Sand 21 1012 30 4000 6.69 190 12:42 27.01.2021
3273 Sand 21 1012 30 4000 6.69 190 12:24 27.01.2021
3274 Sand 21 1012 32 3000 7.2 180 11:50 27.01.2021
3275 Sand 20 1013 37 3000 7.2 200 11:26 27.01.2021
3276 Sand 20 1013 37 3000 6.69 200 10:48 27.01.2021
3277 Sand 20 1013 37 3000 7.2 200 10:26 27.01.2021
3278 Sand 19 1013 39 3000 7.2 180 09:56 27.01.2021
3279 Sand 18 1013 42 3000 8.23 180 09:29 27.01.2021
3280 Sand 17 1013 45 3000 8.23 180 08:47 27.01.2021
3281 Clouds 16 1013 48 6000 7.2 180 07:57 27.01.2021
3282 Clouds 16 1013 48 6000 7.2 180 07:37 27.01.2021
3283 Clouds 14 1013 51 6000 5.14 170 06:45 27.01.2021
3284 Clouds 14 1012 51 6000 4.63 170 05:56 27.01.2021
3285 Clouds 14 1012 51 6000 4.63 170 05:34 27.01.2021
3286 Clear 13 1013 71 10000 2.06 190 02:46 27.01.2021
3287 Clear 12 1013 71 10000 1.54 190 02:20 27.01.2021
3288 Clear 13 1014 71 10000 1.54 230 01:32 27.01.2021
3289 Clear 14 1014 67 10000 2.57 110 00:27 27.01.2021
3290 Clear 13 1014 72 10000 2.06 90 23:40 26.01.2021
3291 Clear 14 1015 72 10000 1.54 70 23:21 26.01.2021
3292 Clear 14 1015 72 10000 2.57 30 22:40 26.01.2021
3293 Clear 15 1015 67 10000 3.6 30 22:19 26.01.2021
3294 Clear 15 1016 67 10000 3.09 40 21:52 26.01.2021
3295 Clear 15 1016 67 10000 2.06 40 21:25 26.01.2021
3296 Clear 15 1016 67 10000 2.06 70 20:54 26.01.2021
3297 Clear 15 1016 67 10000 2.06 70 20:36 26.01.2021
3298 Clear 16 1016 63 10000 5.14 60 20:18 26.01.2021
3299 Clear 16 1016 63 10000 5.14 60 20:18 26.01.2021
3300 Clear 15 1016 59 10000 4.12 60 19:40 26.01.2021
3301 Clear 17 1016 55 10000 4.12 20 19:19 26.01.2021
3302 Clear 17 1016 51 10000 2.57 50 18:42 26.01.2021
3303 Clear 18 1016 42 10000 4.12 50 18:23 26.01.2021
3304 Clear 19 1016 39 10000 4.63 40 17:47 26.01.2021
3305 Clear 20 1016 40 10000 4.63 30 17:23 26.01.2021
3306 Clear 21 1016 32 10000 6.69 40 16:52 26.01.2021
3307 Clear 21 1016 32 10000 6.69 40 16:21 26.01.2021
3308 Clear 21 1016 30 10000 5.66 30 15:57 26.01.2021
3309 Clear 22 1016 30 10000 5.66 30 15:36 26.01.2021
3310 Clear 22 1016 24 10000 6.69 50 14:49 26.01.2021
3311 Clear 22 1016 24 10000 6.69 50 14:30 26.01.2021
3312 Clear 22 1016 24 10000 6.17 50 13:59 26.01.2021
3313 Clear 22 1017 23 10000 7.2 40 13:29 26.01.2021
3314 Clear 21 1018 26 10000 6.17 30 12:55 26.01.2021
3315 Clear 21 1018 26 10000 6.17 30 12:37 26.01.2021
3316 Clear 20 1018 26 10000 6.17 30 12:18 26.01.2021
3317 Clear 19 1019 34 10000 6.17 40 11:43 26.01.2021
3318 Clear 19 1019 37 10000 6.17 50 10:59 26.01.2021
3319 Clear 19 1020 34 10000 5.14 40 10:34 26.01.2021
3320 Clear 18 1020 37 10000 5.66 40 09:51 26.01.2021
3321 Clear 17 1021 48 10000 5.14 70 09:32 26.01.2021
3322 Clear 17 1021 48 10000 5.14 60 08:56 26.01.2021
3323 Clouds 15 1021 58 6000 4.12 50 08:38 26.01.2021
3324 Clouds 13 1021 67 6000 4.63 50 07:54 26.01.2021
3325 Clear 11 1021 76 10000 0.51 130 06:58 26.01.2021
3326 Clear 11 1021 82 10000 2.57 70 05:46 26.01.2021
3327 Clear 10 1021 82 10000 1.54 60 05:25 26.01.2021
3328 Clouds 12 1021 76 6000 4.63 110 03:32 26.01.2021
3329 Clear 14 1021 72 10000 4.63 90 00:59 26.01.2021
3330 Clear 14 1022 72 10000 4.63 100 00:24 26.01.2021
3331 Clear 14 1021 72 10000 4.12 90 23:28 25.01.2021
3332 Clear 14 1022 72 10000 3.6 90 22:44 25.01.2021
3333 Clear 14 1022 72 10000 3.6 90 22:44 25.01.2021
3334 Clear 15 1022 72 6000 3.6 80 22:25 25.01.2021
3335 Clear 14 1022 72 6000 3.6 80 21:41 25.01.2021
3336 Clear 15 1022 72 6000 3.6 70 21:18 25.01.2021
3337 Clear 15 1022 67 6000 3.09 70 20:41 25.01.2021
3338 Clear 16 1021 67 6000 3.09 60 20:23 25.01.2021
3339 Clear 15 1021 67 6000 2.06 80 19:47 25.01.2021
3340 Clear 17 1021 63 6000 3.78 341 19:23 25.01.2021
3341 Clear 17 1021 63 6000 2.06 20 18:45 25.01.2021
3342 Clear 18 1021 59 6000 3.09 350 18:24 25.01.2021
3343 Clouds 18 1021 59 10000 3.6 360 17:48 25.01.2021
3344 Clouds 18 1020 59 10000 4.63 340 17:25 25.01.2021
3345 Clouds 19 1020 55 10000 3.6 340 16:49 25.01.2021
3346 Clouds 19 1020 52 10000 3.09 340 16:26 25.01.2021
3347 Clouds 20 1020 49 10000 3.6 360 15:55 25.01.2021
3348 Clouds 20 1020 49 10000 3.6 360 15:36 25.01.2021
3349 Clouds 20 1020 49 10000 3.09 10 14:59 25.01.2021
3350 Clouds 20 1020 49 10000 3.6 350 14:38 25.01.2021
3351 Clouds 20 1020 49 10000 3.6 350 14:18 25.01.2021
3352 Clouds 20 1020 49 10000 3.09 340 13:43 25.01.2021
3353 Clouds 20 1019 45 10000 3.6 20 13:20 25.01.2021
3354 Clouds 19 1020 52 10000 5.14 350 12:41 25.01.2021
3355 Clouds 19 1020 52 10000 5.14 350 12:18 25.01.2021
3356 Clouds 18 1021 59 6000 4.63 10 11:29 25.01.2021
3357 Haze 18 1021 59 3000 4.63 10 10:52 25.01.2021
3358 Haze 16 1021 63 3000 3.6 20 10:22 25.01.2021
3359 Haze 15 1022 67 3000 3.09 360 09:53 25.01.2021
3360 Haze 14 1022 67 4000 2.06 30 09:30 25.01.2021
3361 Mist 14 1022 72 4000 2.76 353 08:38 25.01.2021
3362 Clouds 13 1021 76 6000 2.2 346 07:58 25.01.2021
3363 Clouds 12 1021 82 6000 1.97 344 07:29 25.01.2021
3364 Clouds 10 1021 82 6000 2.57 90 06:39 25.01.2021
3365 Clouds 10 1020 82 10000 1.03 60 02:56 25.01.2021
3366 Clouds 13 1021 71 10000 3.6 90 00:45 25.01.2021
3367 Clouds 13 1021 71 10000 3.6 70 23:40 24.01.2021
3368 Clouds 13 1021 71 10000 3.6 70 23:18 24.01.2021
3369 Clouds 13 1021 71 10000 3.09 70 22:41 24.01.2021
3370 Clouds 14 1021 67 10000 3.09 60 22:18 24.01.2021
3371 Clouds 13 1021 67 10000 2.06 50 21:44 24.01.2021
3372 Clouds 15 1021 67 10000 3.09 40 21:21 24.01.2021
3373 Clouds 14 1021 63 10000 3.09 40 20:43 24.01.2021
3374 Clouds 16 1021 63 10000 4.12 40 20:19 24.01.2021
3375 Clouds 16 1021 63 10000 4.63 40 19:50 24.01.2021
3376 Clouds 17 1021 59 10000 5.14 20 19:26 24.01.2021
3377 Clouds 17 1021 59 10000 2.57 10 18:57 24.01.2021
3378 Clouds 17 1020 59 10000 2.57 20 18:38 24.01.2021
3379 Clouds 17 1020 59 10000 2.57 20 18:19 24.01.2021
3380 Clouds 18 1020 52 10000 4.12 10 17:48 24.01.2021
3381 Clouds 18 1020 52 10000 4.12 10 17:21 24.01.2021
3382 Clouds 19 1019 48 10000 4.12 340 16:43 24.01.2021
3383 Clouds 19 1019 48 10000 4.12 340 16:25 24.01.2021
3384 Clouds 19 1019 48 10000 5.14 340 15:58 24.01.2021
3385 Clouds 19 1019 45 10000 4.63 340 15:40 24.01.2021
3386 Clouds 19 1019 45 10000 4.63 340 15:18 24.01.2021
3387 Clouds 19 1019 48 10000 5.14 340 14:37 24.01.2021
3388 Clouds 19 1019 48 10000 4.63 340 13:42 24.01.2021
3389 Clouds 19 1019 45 10000 4.63 330 13:23 24.01.2021
3390 Clouds 19 1019 45 10000 5.14 340 12:43 24.01.2021
3391 Clouds 19 1019 42 10000 4.63 340 12:19 24.01.2021
3392 Clouds 19 1019 45 10000 4.63 330 11:49 24.01.2021
3393 Clouds 18 1020 48 10000 3.6 320 11:24 24.01.2021
3394 Clear 17 1020 55 6000 3.6 310 10:43 24.01.2021
3395 Clear 16 1021 51 6000 2.57 310 10:18 24.01.2021
3396 Haze 16 1021 59 4000 1.54 300 09:22 24.01.2021
3397 Haze 15 1021 58 4000 2.18 338 08:56 24.01.2021
3398 Haze 14 1021 67 4000 1.95 335 08:22 24.01.2021
3399 Mist 10 1019 82 3000 2.1 341 02:41 24.01.2021
3400 Mist 10 1019 82 3000 1.91 340 01:49 24.01.2021
3401 Clear 12 1019 82 6000 1.54 300 00:25 24.01.2021
3402 Clear 11 1019 71 6000 2.06 180 23:49 23.01.2021
3403 Clear 13 1019 76 6000 3.09 100 23:26 23.01.2021
3404 Clear 13 1019 76 6000 2.57 90 22:51 23.01.2021
3405 Clear 13 1019 72 6000 4.63 40 22:33 23.01.2021
3406 Haze 13 1019 72 3000 2.06 360 21:53 23.01.2021
3407 Haze 14 1020 72 3000 3.09 340 21:22 23.01.2021
3408 Haze 14 1020 72 3000 3.09 340 20:48 23.01.2021
3409 Haze 14 1020 72 3000 3.09 340 20:48 23.01.2021
3410 Haze 15 1020 67 3000 3.6 350 20:25 23.01.2021
3411 Clear 15 1019 67 6000 3.6 330 19:47 23.01.2021
3412 Clear 16 1019 63 6000 4.12 330 19:24 23.01.2021
3413 Clear 16 1019 63 10000 4.12 320 18:51 23.01.2021
3414 Clouds 17 1019 55 10000 3.09 330 18:26 23.01.2021
3415 Clouds 17 1019 55 10000 3.09 330 17:55 23.01.2021
3416 Clouds 18 1018 52 10000 3.09 340 17:27 23.01.2021
3417 Clouds 18 1018 52 10000 4.63 340 16:51 23.01.2021
3418 Clouds 18 1018 52 10000 4.63 340 16:31 23.01.2021
3419 Clear 19 1018 48 10000 4.12 320 15:48 23.01.2021
3420 Clear 19 1018 45 10000 4.12 330 15:26 23.01.2021
3421 Clear 19 1018 42 10000 3.09 360 14:37 23.01.2021
3422 Clear 19 1018 42 10000 3.09 360 14:19 23.01.2021
3423 Clear 19 1018 39 10000 2.57 320 13:40 23.01.2021
3424 Clear 19 1018 39 10000 2.57 320 13:21 23.01.2021
3425 Clear 19 1018 39 10000 2.57 360 12:42 23.01.2021
3426 Clear 19 1018 42 10000 2.57 350 12:22 23.01.2021
3427 Clear 18 1019 45 10000 3.6 360 11:34 23.01.2021
3428 Clear 18 1020 45 10000 3.09 350 10:54 23.01.2021
3429 Clear 16 1020 51 6000 3.6 10 10:23 23.01.2021
3430 Clear 15 1020 55 6000 2.57 10 09:51 23.01.2021
3431 Clear 15 1021 63 6000 2.06 40 09:24 23.01.2021
3432 Clear 12 1021 76 6000 3.22 8 08:39 23.01.2021
3433 Clear 9 1021 82 6000 2.93 2 07:38 23.01.2021
3434 Mist 9 1020 87 3000 2.64 355 06:48 23.01.2021
3435 Clouds 9 1020 81 6000 2.06 20 01:44 23.01.2021
3436 Clouds 11 1021 82 6000 3.09 60 00:23 23.01.2021
3437 Clouds 11 1021 82 6000 3.09 70 23:35 22.01.2021
3438 Clouds 12 1021 76 6000 3.09 20 22:41 22.01.2021
3439 Clouds 13 1022 71 10000 3.6 10 21:59 22.01.2021
3440 Clouds 13 1022 71 10000 3.6 10 21:38 22.01.2021
3441 Clouds 13 1022 71 10000 3.6 10 21:20 22.01.2021
3442 Clouds 12 1022 67 10000 4.63 30 20:46 22.01.2021
3443 Clouds 14 1022 67 10000 4.63 30 20:25 22.01.2021
3444 Clouds 14 1022 67 10000 6.69 10 19:37 22.01.2021
3445 Clouds 14 1022 67 10000 6.69 10 19:18 22.01.2021
3446 Clouds 14 1022 58 10000 6.17 360 18:44 22.01.2021
3447 Clouds 15 1022 58 10000 6.17 360 18:25 22.01.2021
3448 Clouds 15 1022 58 10000 6.17 10 17:46 22.01.2021
3449 Clouds 16 1022 55 10000 6.69 360 17:28 22.01.2021
3450 Clouds 17 1022 55 10000 7.72 360 16:54 22.01.2021
3451 Clouds 17 1022 55 10000 7.72 360 16:27 22.01.2021
3452 Clouds 18 1022 48 10000 6.69 20 15:44 22.01.2021
3453 Clouds 18 1022 48 10000 6.69 20 15:19 22.01.2021
3454 Clouds 19 1022 42 10000 6.69 30 14:31 22.01.2021
3455 Clouds 19 1022 42 10000 8.75 30 13:53 22.01.2021
3456 Clouds 19 1022 39 10000 6.69 20 13:35 22.01.2021
3457 Clouds 18 1022 42 10000 8.75 40 12:55 22.01.2021
3458 Clouds 18 1022 42 10000 10.29 30 12:27 22.01.2021
3459 Clear 18 1023 42 10000 7.02 46 11:49 22.01.2021
3460 Clear 18 1024 45 10000 7.02 46 11:30 22.01.2021
3461 Clear 16 1024 48 10000 8.75 30 10:46 22.01.2021
3462 Clear 15 1025 48 10000 10.29 30 10:22 22.01.2021
3463 Clear 16 1025 51 10000 8.75 40 09:42 22.01.2021
3464 Clear 14 1025 51 10000 6.17 50 08:57 22.01.2021
3465 Clear 13 1025 51 10000 6.17 50 08:31 22.01.2021
3466 Clear 11 1026 66 10000 5.86 36 07:45 22.01.2021
3467 Clear 10 1025 87 10000 4.12 30 04:59 22.01.2021
3468 Clear 11 1027 76 10000 5.14 30 01:20 22.01.2021
3469 Clear 12 1027 66 10000 5.14 40 00:27 22.01.2021
3470 Clear 13 1027 62 10000 4.63 40 23:43 21.01.2021
3471 Clear 13 1027 62 10000 4.63 40 23:20 21.01.2021
3472 Clear 13 1028 62 10000 4.63 40 22:47 21.01.2021
3473 Clear 13 1028 62 10000 5.66 30 21:58 21.01.2021
3474 Clear 13 1028 62 10000 5.66 30 21:38 21.01.2021
3475 Clear 13 1028 62 10000 5.66 30 21:18 21.01.2021
3476 Clear 13 1028 62 10000 5.14 30 20:43 21.01.2021
3477 Clear 14 1028 58 10000 6.17 30 20:21 21.01.2021
3478 Clear 13 1028 58 10000 6.17 30 19:47 21.01.2021
3479 Clear 14 1029 58 10000 6.69 30 19:25 21.01.2021
3480 Clouds 14 1028 58 10000 7.2 30 18:43 21.01.2021
3481 Clouds 15 1029 55 10000 7.2 30 18:22 21.01.2021
3482 Clouds 15 1028 51 10000 7.72 30 17:57 21.01.2021
3483 Clouds 15 1028 51 10000 7.72 30 17:57 21.01.2021
3484 Clouds 16 1028 48 10000 6.69 20 17:21 21.01.2021
3485 Clouds 16 1028 44 10000 3.09 20 16:58 21.01.2021
3486 Clouds 16 1028 44 10000 3.09 20 16:38 21.01.2021
3487 Clouds 17 1028 45 10000 3.6 10 16:20 21.01.2021
3488 Clouds 17 1028 45 10000 5.14 10 15:47 21.01.2021
3489 Clouds 17 1028 42 10000 5.66 30 15:26 21.01.2021
3490 Clouds 17 1028 42 10000 5.66 10 14:46 21.01.2021
3491 Clouds 17 1028 39 10000 5.14 20 14:24 21.01.2021
3492 Clouds 18 1028 36 10000 5.66 20 13:43 21.01.2021
3493 Clouds 18 1028 36 10000 5.66 20 13:43 21.01.2021
3494 Clouds 17 1029 42 6000 4.63 360 13:23 21.01.2021
3495 Clouds 17 1029 42 6000 4.63 360 13:23 21.01.2021
3496 Clouds 17 1029 39 6000 5.14 30 12:44 21.01.2021
3497 Clouds 17 1029 42 6000 5.14 40 12:24 21.01.2021
3498 Clouds 17 1029 42 6000 5.14 10 11:52 21.01.2021
3499 Clouds 15 1030 44 6000 4.12 10 11:32 21.01.2021
3500 Clouds 15 1030 44 6000 4.12 10 10:53 21.01.2021
3501 Haze 16 1031 44 4000 3.6 10 10:34 21.01.2021
3502 Haze 15 1031 47 4000 4.12 350 09:49 21.01.2021
3503 Haze 14 1031 54 4000 2.57 20 09:30 21.01.2021
3504 Haze 13 1031 54 2000 1.54 30 08:59 21.01.2021
3505 Haze 12 1031 62 2000 2.6 4 08:27 21.01.2021
3506 Haze 10 1031 66 2000 2.6 4 07:45 21.01.2021
3507 Haze 9 1030 66 2000 1.8 360 07:25 21.01.2021
3508 Haze 9 1030 66 4000 1.7 12 05:59 21.01.2021
3509 Haze 9 1029 87 4000 2.03 1 04:32 21.01.2021
3510 Clear 11 1029 71 6000 1.56 348 02:18 21.01.2021
3511 Clear 11 1029 66 6000 2.57 340 00:41 21.01.2021
3512 Clear 12 1029 58 6000 3.09 340 23:44 20.01.2021
3513 Clear 12 1029 58 6000 2.57 330 23:24 20.01.2021
3514 Clear 12 1029 58 6000 3.6 330 22:52 20.01.2021
3515 Clear 12 1029 58 6000 3.6 330 22:29 20.01.2021
3516 Clear 13 1029 54 6000 3.09 330 21:54 20.01.2021
3517 Clear 13 1029 54 6000 3.09 330 21:23 20.01.2021
3518 Clear 13 1029 54 6000 3.09 330 21:23 20.01.2021
3519 Clouds 13 1029 54 6000 3.6 330 20:52 20.01.2021
3520 Clouds 13 1029 54 6000 3.6 330 20:23 20.01.2021
3521 Clouds 12 1028 50 6000 4.12 340 19:48 20.01.2021
3522 Clouds 13 1028 50 6000 4.12 340 19:29 20.01.2021
3523 Clouds 14 1028 47 10000 5.14 340 18:43 20.01.2021
3524 Clouds 14 1028 47 10000 5.14 340 18:22 20.01.2021
3525 Clouds 14 1028 47 10000 5.14 340 17:52 20.01.2021
3526 Clouds 14 1027 47 10000 6.17 340 17:34 20.01.2021
3527 Clouds 14 1026 47 10000 6.17 330 16:51 20.01.2021
3528 Clouds 15 1026 47 10000 6.17 330 16:23 20.01.2021
3529 Clouds 16 1026 44 10000 7.72 340 15:45 20.01.2021
3530 Clouds 17 1026 39 10000 6.69 300 15:19 20.01.2021
3531 Clouds 16 1025 39 10000 6.17 320 14:43 20.01.2021
3532 Clouds 16 1025 39 10000 6.17 320 14:21 20.01.2021
3533 Clouds 15 1025 51 10000 7.2 310 13:40 20.01.2021
3534 Clouds 15 1025 55 10000 7.72 290 12:59 20.01.2021
3535 Clouds 16 1025 48 10000 7.2 290 12:27 20.01.2021
3536 Clouds 15 1025 51 10000 7.72 310 11:53 20.01.2021
3537 Clouds 15 1026 48 10000 6.69 310 11:34 20.01.2021
3538 Clouds 16 1026 44 10000 7.72 300 10:51 20.01.2021
3539 Clouds 15 1026 55 10000 8.23 310 10:28 20.01.2021
3540 Clouds 15 1026 55 10000 5.14 290 09:44 20.01.2021
3541 Clouds 14 1026 62 10000 6.17 280 09:23 20.01.2021
3542 Clouds 13 1026 67 10000 5.14 290 08:47 20.01.2021
3543 Clouds 13 1025 67 10000 4.63 270 08:26 20.01.2021
3544 Clouds 12 1025 71 10000 5.14 290 07:56 20.01.2021
3545 Clouds 10 1024 76 10000 7.2 260 07:25 20.01.2021
3546 Clouds 11 1023 82 10000 4.12 250 05:38 20.01.2021
3547 Clouds 12 1023 82 10000 7.72 270 03:27 20.01.2021
3548 Clouds 13 1022 76 10000 3.6 290 00:59 20.01.2021
3549 Clouds 13 1022 76 10000 3.6 290 00:31 20.01.2021
3550 Clouds 13 1021 76 10000 3.6 310 23:46 19.01.2021
3551 Clouds 13 1022 82 10000 6.17 290 23:20 19.01.2021
3552 Clouds 14 1021 72 10000 7.2 270 22:43 19.01.2021
3553 Clouds 14 1021 72 10000 4.12 250 22:22 19.01.2021
3554 Clouds 14 1021 77 10000 3.6 250 21:59 19.01.2021
3555 Clouds 13 1021 77 10000 3.6 250 21:41 19.01.2021
3556 Clouds 14 1021 72 10000 4.63 270 21:22 19.01.2021
3557 Clouds 13 1021 67 10000 4.12 280 20:43 19.01.2021
3558 Clouds 14 1021 62 10000 3.09 280 20:22 19.01.2021
3559 Clouds 14 1021 72 10000 1.54 240 19:48 19.01.2021
3560 Rain 14 1021 72 8000 2.57 270 19:27 19.01.2021
3561 Clouds 15 1021 63 10000 4.12 310 18:46 19.01.2021
3562 Clouds 15 1020 63 10000 3.09 310 18:26 19.01.2021
3563 Clouds 15 1020 63 10000 2.57 330 17:46 19.01.2021
3564 Clouds 15 1020 67 10000 4.63 310 17:26 19.01.2021
3565 Clouds 15 1020 63 10000 3.09 340 16:49 19.01.2021
3566 Clouds 15 1019 59 10000 5.14 330 16:26 19.01.2021
3567 Clouds 15 1019 63 10000 5.14 320 15:59 19.01.2021
3568 Clouds 16 1019 63 10000 5.14 320 15:40 19.01.2021
3569 Clouds 16 1018 63 10000 8.23 300 14:57 19.01.2021
3570 Clouds 17 1018 42 10000 8.23 260 14:39 19.01.2021
3571 Clouds 18 1018 42 10000 8.23 260 14:20 19.01.2021
3572 Clouds 19 1018 42 10000 8.75 260 13:40 19.01.2021
3573 Clouds 19 1018 42 10000 8.75 260 13:21 19.01.2021
3574 Clouds 19 1018 42 10000 8.75 260 12:47 19.01.2021
3575 Clouds 19 1018 42 10000 10.8 240 12:28 19.01.2021
3576 Clouds 18 1018 42 10000 9.26 230 11:43 19.01.2021
3577 Clouds 17 1019 45 10000 5.66 230 11:23 19.01.2021
3578 Clear 17 1019 45 10000 6.17 230 10:50 19.01.2021
3579 Clear 16 1020 48 10000 7.2 220 10:31 19.01.2021
3580 Clear 15 1020 51 6000 6.69 210 09:53 19.01.2021
3581 Clear 15 1020 47 6000 6.69 210 09:27 19.01.2021
3582 Clear 14 1020 51 6000 6.17 200 08:56 19.01.2021
3583 Clear 12 1020 54 6000 6.17 200 08:21 19.01.2021
3584 Clear 13 1020 50 6000 5.14 200 07:47 19.01.2021
3585 Clear 11 1020 54 10000 5.14 200 06:53 19.01.2021
3586 Clear 12 1020 50 10000 4.12 200 02:32 19.01.2021
3587 Clear 12 1020 47 10000 3.09 200 00:55 19.01.2021
3588 Clear 14 1020 47 10000 4.63 210 23:58 18.01.2021
3589 Clear 15 1020 41 10000 4.12 220 23:32 18.01.2021
3590 Clear 15 1020 41 10000 5.66 220 22:51 18.01.2021
3591 Clear 14 1020 41 10000 5.14 220 22:26 18.01.2021
3592 Clear 15 1020 44 10000 5.14 220 21:58 18.01.2021
3593 Clear 15 1021 41 10000 5.66 230 21:39 18.01.2021
3594 Clear 15 1021 41 10000 5.66 230 21:20 18.01.2021
3595 Clear 14 1021 44 10000 5.14 240 20:43 18.01.2021
3596 Clear 16 1021 41 10000 5.66 250 20:24 18.01.2021
3597 Clear 16 1020 41 10000 4.12 250 19:51 18.01.2021
3598 Clear 15 1020 41 10000 4.63 240 19:32 18.01.2021
3599 Clear 15 1020 39 10000 4.12 250 18:47 18.01.2021
3600 Clear 16 1020 39 10000 4.12 250 18:23 18.01.2021
3601 Clouds 17 1020 36 10000 5.14 250 17:45 18.01.2021
3602 Clouds 17 1020 36 10000 4.63 260 17:22 18.01.2021
3603 Clouds 18 1019 24 10000 8.23 260 16:46 18.01.2021
3604 Clouds 18 1019 24 10000 8.23 260 16:22 18.01.2021
3605 Clouds 19 1019 26 10000 6.69 250 15:48 18.01.2021
3606 Clouds 19 1019 26 10000 6.69 250 15:25 18.01.2021
3607 Clouds 18 1019 24 10000 7.72 250 14:44 18.01.2021
3608 Clouds 18 1019 24 10000 7.72 250 14:26 18.01.2021
3609 Clouds 18 1019 32 10000 5.66 230 13:47 18.01.2021
3610 Clouds 17 1019 32 10000 5.66 230 13:28 18.01.2021
3611 Clouds 16 1020 39 10000 6.69 220 12:55 18.01.2021
3612 Clouds 16 1020 39 10000 6.69 220 12:21 18.01.2021
3613 Clouds 16 1021 48 10000 4.63 190 11:57 18.01.2021
3614 Clouds 16 1021 48 10000 4.63 190 11:39 18.01.2021
3615 Clouds 16 1021 48 10000 4.63 190 11:20 18.01.2021
3616 Clouds 16 1021 51 10000 5.14 200 10:44 18.01.2021
3617 Clear 15 1022 51 10000 5.14 210 09:50 18.01.2021
3618 Clouds 14 1022 54 10000 3.6 220 09:32 18.01.2021
3619 Clouds 14 1022 54 10000 3.6 220 09:32 18.01.2021
3620 Clouds 14 1022 54 10000 4.63 210 08:55 18.01.2021
3621 Clouds 12 1021 58 10000 3.6 200 08:25 18.01.2021
3622 Clouds 12 1021 62 10000 4.12 210 07:37 18.01.2021
3623 Clouds 12 1020 62 6000 5.14 230 05:49 18.01.2021
3624 Clouds 12 1019 62 6000 5.66 250 04:40 18.01.2021
3625 Clouds 12 1019 62 6000 5.66 250 04:18 18.01.2021
3626 Clouds 12 1019 62 6000 5.66 240 03:43 18.01.2021
3627 Clouds 13 1019 58 6000 6.17 240 03:20 18.01.2021
3628 Clouds 13 1018 58 6000 5.14 240 02:40 18.01.2021
3629 Clouds 11 1018 58 6000 6.69 250 01:56 18.01.2021
3630 Clouds 15 1018 63 6000 6.17 240 00:39 18.01.2021
3631 Clouds 15 1018 67 6000 6.17 250 23:49 17.01.2021
3632 Clouds 15 1018 67 6000 6.17 250 23:24 17.01.2021
3633 Clouds 15 1018 67 6000 5.14 240 22:47 17.01.2021
3634 Clouds 15 1018 67 6000 3.6 250 22:22 17.01.2021
3635 Clouds 14 1018 67 6000 4.12 240 21:42 17.01.2021
3636 Clouds 14 1018 72 6000 4.63 240 21:24 17.01.2021
3637 Clouds 14 1017 72 6000 3.09 240 20:50 17.01.2021
3638 Clouds 14 1017 77 6000 2.57 300 20:31 17.01.2021
3639 Clouds 14 1017 77 6000 3.6 310 19:52 17.01.2021
3640 Rain 16 1016 59 6000 6.69 300 19:31 17.01.2021
3641 Clouds 17 1016 39 6000 7.72 230 18:53 17.01.2021
3642 Clouds 17 1016 39 6000 7.72 230 18:28 17.01.2021
3643 Clouds 16 1016 42 6000 7.72 230 17:50 17.01.2021
3644 Clouds 17 1015 39 6000 7.72 240 17:28 17.01.2021
3645 Clouds 17 1015 39 6000 7.2 250 16:45 17.01.2021
3646 Clouds 18 1014 36 6000 8.23 250 16:25 17.01.2021
3647 Clouds 18 1014 39 6000 7.72 250 15:45 17.01.2021
3648 Clouds 18 1014 39 6000 7.72 250 15:45 17.01.2021
3649 Clouds 18 1014 39 6000 7.72 250 15:45 17.01.2021
3650 Clouds 18 1014 39 6000 9.26 260 15:26 17.01.2021
3651 Clouds 18 1014 39 6000 8.23 270 14:55 17.01.2021
3652 Clouds 20 1013 32 6000 9.26 230 14:27 17.01.2021
3653 Clouds 20 1013 34 6000 10.29 230 13:59 17.01.2021
3654 Clouds 20 1013 34 6000 10.29 240 13:41 17.01.2021
3655 Clouds 20 1013 34 6000 10.29 240 13:21 17.01.2021
3656 Clouds 20 1013 34 6000 11.32 240 12:44 17.01.2021
3657 Sand 19 1013 39 4000 10.8 240 12:24 17.01.2021
3658 Clouds 19 1014 37 10000 8.75 230 11:25 17.01.2021
3659 Clouds 18 1015 42 10000 7.72 220 10:51 17.01.2021
3660 Clouds 17 1015 42 6000 7.72 220 10:25 17.01.2021
3661 Clouds 17 1015 42 6000 6.69 220 09:57 17.01.2021
3662 Sand 15 1015 44 4000 6.17 210 08:59 17.01.2021
3663 Sand 15 1015 44 4000 6.17 210 08:40 17.01.2021
3664 Clear 14 1014 47 10000 4.63 220 04:32 17.01.2021
3665 Clear 15 1013 41 10000 6.69 210 02:51 17.01.2021
3666 Clear 15 1013 41 10000 6.17 210 00:57 17.01.2021
3667 Clear 15 1013 41 10000 6.17 210 00:21 17.01.2021
3668 Clear 16 1013 39 10000 6.17 210 23:52 16.01.2021
3669 Clear 15 1013 39 10000 4.63 200 23:24 16.01.2021
3670 Clear 17 1014 36 10000 5.14 200 22:55 16.01.2021
3671 Clear 17 1014 36 10000 4.63 210 22:21 16.01.2021
3672 Clear 17 1014 36 10000 4.12 200 21:46 16.01.2021
3673 Clear 17 1014 36 10000 4.63 220 21:23 16.01.2021
3674 Clear 16 1014 36 10000 5.14 230 20:49 16.01.2021
3675 Clear 17 1014 36 10000 5.14 230 20:27 16.01.2021
3676 Clouds 17 1014 36 10000 6.17 240 19:49 16.01.2021
3677 Clouds 18 1014 34 10000 5.66 240 19:30 16.01.2021
3678 Clouds 18 1014 34 10000 5.14 240 18:47 16.01.2021
3679 Clouds 18 1013 36 10000 5.14 240 18:27 16.01.2021
3680 Clouds 19 1013 34 10000 5.66 240 17:59 16.01.2021
3681 Clouds 19 1013 34 10000 5.66 240 17:39 16.01.2021
3682 Clouds 19 1013 34 10000 5.66 240 17:21 16.01.2021
3683 Clouds 20 1012 34 10000 8.23 240 16:42 16.01.2021
3684 Clouds 20 1012 34 10000 8.23 240 16:18 16.01.2021
3685 Clouds 20 1012 34 10000 5.66 280 15:41 16.01.2021
3686 Clouds 20 1012 32 10000 7.72 230 14:35 16.01.2021
3687 Clouds 20 1012 34 10000 6.69 220 13:54 16.01.2021
3688 Clouds 20 1012 34 10000 6.69 220 13:32 16.01.2021
3689 Clouds 19 1012 37 10000 6.69 180 12:49 16.01.2021
3690 Clouds 19 1012 37 10000 6.69 200 12:31 16.01.2021
3691 Clouds 19 1013 34 10000 7.72 200 11:59 16.01.2021
3692 Clouds 19 1013 34 10000 7.72 200 11:40 16.01.2021
3693 Clouds 18 1013 34 10000 7.72 200 11:19 16.01.2021
3694 Clouds 18 1014 36 10000 5.66 200 10:42 16.01.2021
3695 Clouds 17 1015 39 6000 4.63 200 09:57 16.01.2021
3696 Clouds 15 1015 41 6000 4.12 190 09:21 16.01.2021
3697 Clouds 14 1015 47 6000 4.12 200 08:20 16.01.2021
3698 Haze 13 1014 51 4000 4.63 170 07:18 16.01.2021
3699 Haze 14 1014 54 4000 4.12 170 05:45 16.01.2021
3700 Haze 13 1014 54 4000 4.12 160 04:36 16.01.2021
3701 Clouds 12 1014 51 6000 2.57 190 02:54 16.01.2021
3702 Clouds 16 1015 48 10000 3.6 170 00:48 16.01.2021
3703 Clouds 12 1015 51 10000 1.54 160 00:24 16.01.2021
3704 Clear 16 1015 48 10000 3.09 180 23:40 15.01.2021
3705 Clear 16 1015 48 10000 3.09 180 22:47 15.01.2021
3706 Clear 16 1015 48 10000 3.09 180 22:23 15.01.2021
3707 Clear 16 1016 48 10000 3.6 180 21:46 15.01.2021
3708 Clouds 17 1016 42 10000 3.09 170 20:58 15.01.2021
3709 Clouds 17 1016 42 10000 3.09 170 20:40 15.01.2021
3710 Clouds 17 1016 42 10000 2.06 180 20:19 15.01.2021
3711 Clouds 17 1016 42 10000 2.06 180 19:40 15.01.2021
3712 Clouds 17 1016 42 10000 2.06 230 19:22 15.01.2021
3713 Clouds 18 1016 39 10000 3.09 260 18:42 15.01.2021
3714 Clouds 18 1016 39 10000 3.09 240 18:19 15.01.2021
3715 Clouds 18 1016 39 10000 3.6 240 17:50 15.01.2021
3716 Clouds 18 1015 39 10000 4.63 230 17:24 15.01.2021
3717 Clouds 18 1015 39 10000 4.63 230 16:52 15.01.2021
3718 Clouds 19 1015 37 10000 4.63 230 16:25 15.01.2021
3719 Clouds 20 1015 34 10000 4.63 240 15:42 15.01.2021
3720 Clouds 20 1015 34 10000 5.14 240 15:22 15.01.2021
3721 Clouds 19 1015 37 6000 5.14 230 14:51 15.01.2021
3722 Clouds 20 1016 37 6000 5.14 260 14:27 15.01.2021
3723 Clouds 19 1016 37 6000 5.66 220 13:44 15.01.2021
3724 Clouds 19 1016 39 6000 5.66 220 13:24 15.01.2021
3725 Clouds 19 1016 42 6000 5.66 200 12:59 15.01.2021
3726 Clouds 19 1016 42 6000 6.17 230 12:36 15.01.2021
3727 Clouds 19 1016 42 6000 6.17 230 12:18 15.01.2021
3728 Clouds 18 1018 48 6000 3.6 200 11:41 15.01.2021
3729 Clouds 18 1018 48 6000 4.63 230 10:58 15.01.2021
3730 Clouds 17 1018 52 6000 4.12 190 10:39 15.01.2021
3731 Clouds 17 1018 52 6000 4.12 190 10:19 15.01.2021
3732 Clouds 17 1019 55 6000 4.12 200 09:47 15.01.2021
3733 Clouds 16 1019 55 6000 3.6 210 09:27 15.01.2021
3734 Haze 15 1018 63 4000 3.6 190 08:27 15.01.2021
3735 Haze 14 1018 63 3000 3.6 190 07:42 15.01.2021
3736 Haze 13 1018 62 3000 4.63 170 07:21 15.01.2021
3737 Clouds 14 1017 67 6000 3.09 170 05:56 15.01.2021
3738 Clouds 15 1016 63 10000 5.14 260 02:28 15.01.2021
3739 Clouds 14 1016 59 10000 3.6 250 00:37 15.01.2021
3740 Clouds 17 1016 55 10000 3.6 240 23:30 14.01.2021
3741 Clouds 17 1016 51 10000 4.63 250 22:52 14.01.2021
3742 Clouds 17 1016 51 10000 4.63 260 22:28 14.01.2021
3743 Clouds 17 1016 51 10000 4.63 240 21:58 14.01.2021
3744 Clouds 17 1016 51 10000 5.14 250 21:39 14.01.2021
3745 Clouds 17 1016 55 10000 4.63 270 21:20 14.01.2021
3746 Clouds 17 1016 55 10000 4.63 270 20:43 14.01.2021
3747 Clouds 16 1015 59 10000 3.6 270 19:59 14.01.2021
3748 Clouds 17 1014 51 10000 4.12 280 19:36 14.01.2021
3749 Clouds 17 1014 51 10000 4.12 280 19:18 14.01.2021
3750 Clouds 17 1014 48 10000 4.63 280 18:42 14.01.2021
3751 Clouds 17 1014 36 10000 4.63 240 17:59 14.01.2021
3752 Clouds 18 1013 36 10000 5.14 230 17:33 14.01.2021
3753 Clouds 17 1012 36 10000 6.17 240 16:56 14.01.2021
3754 Clouds 18 1012 36 10000 6.17 240 16:35 14.01.2021
3755 Clouds 18 1012 34 10000 6.69 250 15:55 14.01.2021
3756 Clouds 19 1012 34 10000 6.69 250 15:32 14.01.2021
3757 Clouds 19 1012 34 10000 6.17 270 14:48 14.01.2021
3758 Clouds 19 1012 32 10000 7.2 230 14:30 14.01.2021
3759 Clouds 19 1012 32 10000 6.17 250 13:56 14.01.2021
3760 Clouds 19 1012 34 10000 9.26 250 13:25 14.01.2021
3761 Clouds 19 1012 37 10000 9.26 240 12:58 14.01.2021
3762 Clouds 19 1012 37 10000 9.26 240 12:23 14.01.2021
3763 Clouds 19 1012 39 10000 8.75 250 11:59 14.01.2021
3764 Clouds 18 1012 39 10000 8.75 250 11:41 14.01.2021
3765 Clear 18 1013 39 10000 8.75 250 11:19 14.01.2021
3766 Clear 18 1013 39 10000 8.23 240 10:42 14.01.2021
3767 Clear 17 1013 42 10000 7.72 250 10:19 14.01.2021
3768 Clear 17 1014 45 10000 6.69 230 09:44 14.01.2021
3769 Clear 16 1014 48 10000 4.63 210 09:22 14.01.2021
3770 Clear 16 1014 48 10000 4.63 210 08:39 14.01.2021
3771 Clear 16 1014 48 10000 4.63 210 08:19 14.01.2021
3772 Clear 15 1013 51 10000 4.12 210 07:41 14.01.2021
3773 Clouds 15 1013 55 6000 4.12 210 06:41 14.01.2021
3774 Clouds 15 1013 58 6000 3.6 220 05:23 14.01.2021
3775 Clouds 17 1014 63 6000 4.12 240 00:36 14.01.2021
3776 Clouds 17 1014 63 6000 4.63 250 23:49 13.01.2021
3777 Clouds 17 1014 63 6000 3.6 260 23:20 13.01.2021
3778 Clouds 18 1014 63 6000 3.6 260 22:28 13.01.2021
3779 Clouds 18 1014 68 6000 4.63 280 21:50 13.01.2021
3780 Clouds 18 1014 68 6000 4.63 280 21:24 13.01.2021
3781 Clouds 18 1014 68 6000 3.6 290 20:57 13.01.2021
3782 Clouds 18 1013 68 6000 3.6 290 20:29 13.01.2021
3783 Clouds 17 1013 68 6000 4.63 290 19:57 13.01.2021
3784 Clouds 18 1013 68 6000 4.63 290 19:37 13.01.2021
3785 Clouds 19 1013 63 6000 4.63 290 19:18 13.01.2021
3786 Clouds 19 1013 63 6000 5.66 290 18:37 13.01.2021
3787 Sand 19 1012 59 4000 5.66 290 17:51 13.01.2021
3788 Sand 19 1012 59 4000 5.66 290 17:24 13.01.2021
3789 Sand 20 1011 64 4000 7.2 290 16:50 13.01.2021
3790 Sand 22 1011 46 4000 5.66 260 16:22 13.01.2021
3791 Sand 22 1011 33 4000 7.2 250 15:52 13.01.2021
3792 Sand 23 1011 31 4000 8.23 250 15:32 13.01.2021
3793 Sand 23 1010 28 4000 8.75 240 14:46 13.01.2021
3794 Sand 24 1010 33 4000 9.26 220 13:53 13.01.2021
3795 Sand 24 1010 33 4000 10.29 200 13:27 13.01.2021
3796 Sand 24 1010 33 3000 10.29 200 12:47 13.01.2021
3797 Sand 24 1010 29 3000 11.32 190 12:28 13.01.2021
3798 Sand 24 1010 29 3000 12.35 200 11:55 13.01.2021
3799 Sand 24 1010 29 3000 12.86 190 11:35 13.01.2021
3800 Sand 23 1011 28 3000 10.29 200 10:56 13.01.2021
3801 Sand 23 1011 28 3000 10.29 200 10:37 13.01.2021
3802 Sand 23 1012 31 3000 10.8 190 10:18 13.01.2021
3803 Sand 22 1012 31 3000 10.8 180 09:31 13.01.2021
3804 Sand 22 1013 37 3000 9.77 180 08:52 13.01.2021
3805 Sand 21 1013 37 3000 9.77 180 08:31 13.01.2021
3806 Haze 20 1013 52 3000 3.6 190 07:35 13.01.2021
3807 Clouds 20 1013 52 6000 3.09 190 06:56 13.01.2021
3808 Clouds 20 1013 40 10000 4.12 180 04:21 13.01.2021
3809 Clouds 19 1013 45 10000 2.57 180 03:48 13.01.2021
3810 Clouds 20 1014 42 10000 2.57 180 03:29 13.01.2021
3811 Clear 21 1014 35 10000 4.63 160 01:32 13.01.2021
3812 Clear 23 1015 33 10000 4.12 160 00:29 13.01.2021
3813 Clear 23 1015 33 10000 4.12 160 23:24 12.01.2021
3814 Clear 23 1015 33 10000 4.63 160 22:47 12.01.2021
3815 Clear 22 1015 35 10000 4.63 140 22:24 12.01.2021
3816 Clear 21 1016 35 10000 4.63 140 21:53 12.01.2021
3817 Clear 22 1016 35 10000 4.63 140 21:31 12.01.2021
3818 Clear 22 1016 33 10000 4.12 130 20:53 12.01.2021
3819 Clear 23 1017 33 10000 4.12 130 20:29 12.01.2021
3820 Clear 22 1017 33 10000 4.12 130 19:56 12.01.2021
3821 Clear 23 1017 31 10000 3.6 120 19:37 12.01.2021
3822 Clear 23 1017 31 10000 3.09 110 18:51 12.01.2021
3823 Clear 23 1017 31 10000 1.96 237 18:25 12.01.2021
3824 Clouds 24 1017 29 6000 1.96 237 17:55 12.01.2021
3825 Clouds 26 1017 24 6000 1.54 200 17:31 12.01.2021
3826 Haze 27 1017 24 4000 2.57 210 16:44 12.01.2021
3827 Haze 26 1017 24 4000 2.57 210 16:25 12.01.2021
3828 Clouds 28 1017 21 6000 4.12 220 15:45 12.01.2021
3829 Clouds 28 1017 21 6000 4.12 220 15:24 12.01.2021
3830 Clouds 27 1017 23 6000 5.66 200 14:49 12.01.2021
3831 Clouds 28 1017 23 6000 5.66 200 14:26 12.01.2021
3832 Clouds 28 1018 23 6000 5.66 210 13:54 12.01.2021
3833 Clouds 28 1018 23 6000 5.66 210 13:33 12.01.2021
3834 Clouds 28 1018 23 6000 5.66 220 12:33 12.01.2021
3835 Clear 28 1019 23 10000 4.63 220 11:45 12.01.2021
3836 Clear 26 1019 23 10000 4.63 220 11:26 12.01.2021
3837 Clear 28 1020 23 10000 4.63 210 10:43 12.01.2021
3838 Clear 24 1020 27 10000 5.66 182 10:19 12.01.2021
3839 Clouds 25 1020 29 6000 5.66 182 09:52 12.01.2021
3840 Clouds 22 1021 35 6000 4.9 180 09:23 12.01.2021
3841 Clouds 20 1020 45 6000 1.03 90 08:27 12.01.2021
3842 Clouds 19 1020 48 6000 3.92 182 07:52 12.01.2021
3843 Clouds 16 1020 59 6000 1.03 110 07:32 12.01.2021
3844 Clear 15 1020 67 6000 2.42 183 05:45 12.01.2021
3845 Clear 15 1020 59 10000 1.77 181 03:46 12.01.2021
3846 Clear 15 1019 63 10000 1.03 130 03:22 12.01.2021
3847 Clear 16 1020 59 10000 1.18 121 02:18 12.01.2021
3848 Clear 17 1020 59 10000 2.06 30 00:35 12.01.2021
3849 Clear 17 1020 52 10000 3.09 60 23:43 11.01.2021
3850 Clear 18 1020 55 10000 2.57 70 23:20 11.01.2021
3851 Clear 18 1020 59 10000 3.6 60 22:47 11.01.2021
3852 Clear 18 1021 59 10000 1.54 70 22:28 11.01.2021
3853 Clear 18 1021 59 6000 2.57 90 21:46 11.01.2021
3854 Clear 19 1021 55 6000 4.48 58 21:26 11.01.2021
3855 Clear 19 1021 55 6000 4.48 58 20:59 11.01.2021
3856 Clear 20 1021 52 6000 5.66 60 20:39 11.01.2021
3857 Clear 20 1021 52 6000 5.66 60 20:21 11.01.2021
3858 Clear 20 1021 52 6000 6.69 50 19:50 11.01.2021
3859 Clouds 21 1021 49 6000 7.2 50 19:23 11.01.2021
3860 Clouds 20 1021 49 6000 4.63 50 18:44 11.01.2021
3861 Clouds 22 1021 43 6000 2.57 60 18:24 11.01.2021
3862 Clouds 23 1020 40 6000 3.6 50 17:42 11.01.2021
3863 Clouds 23 1020 40 6000 3.09 40 17:24 11.01.2021
3864 Clouds 23 1020 38 6000 4.12 40 16:50 11.01.2021
3865 Clouds 24 1020 33 6000 4.63 30 16:30 11.01.2021
3866 Clear 25 1020 31 10000 5.14 50 15:59 11.01.2021
3867 Clear 25 1020 29 10000 5.66 60 15:37 11.01.2021
3868 Clear 25 1020 27 10000 5.66 70 14:58 11.01.2021
3869 Clear 25 1020 29 10000 6.69 40 14:38 11.01.2021
3870 Clear 25 1020 27 10000 7.2 50 13:48 11.01.2021
3871 Clear 25 1020 27 10000 7.2 50 13:24 11.01.2021
3872 Clear 25 1020 36 10000 5.66 50 12:46 11.01.2021
3873 Clear 25 1021 33 10000 6.17 50 12:27 11.01.2021
3874 Clear 24 1021 38 10000 5.66 40 11:53 11.01.2021
3875 Clear 22 1022 56 10000 3.6 40 11:26 11.01.2021
3876 Clear 22 1022 56 10000 3.6 40 10:42 11.01.2021
3877 Clear 21 1023 64 10000 3.6 40 10:24 11.01.2021
3878 Clear 20 1023 73 6000 3.6 50 09:39 11.01.2021
3879 Clear 18 1023 94 6000 2.57 60 09:20 11.01.2021
3880 Clear 18 1023 94 6000 1.54 50 08:44 11.01.2021
3881 Mist 16 1023 100 4000 3.6 60 08:18 11.01.2021
3882 Mist 15 1022 100 1500 1.54 60 07:27 11.01.2021
3883 Mist 15 1022 100 1000 3.6 70 06:58 11.01.2021
3884 Mist 15 1022 100 2000 3.91 47 03:51 11.01.2021
3885 Mist 16 1022 100 4000 1.54 70 01:30 11.01.2021
3886 Clouds 17 1022 100 6000 4.12 40 23:59 10.01.2021
3887 Clouds 17 1022 94 6000 1.54 40 23:35 10.01.2021
3888 Clear 16 1022 94 6000 1.54 60 22:48 10.01.2021
3889 Clear 17 1022 94 6000 1.54 40 22:24 10.01.2021
3890 Clear 17 1022 94 6000 1.54 40 22:24 10.01.2021
3891 Clear 17 1022 94 6000 1.54 70 21:46 10.01.2021
3892 Clear 18 1022 94 6000 2.06 80 21:21 10.01.2021
3893 Clear 18 1022 94 6000 2.06 80 21:21 10.01.2021
3894 Clear 18 1022 94 6000 1.54 70 20:56 10.01.2021
3895 Clear 19 1022 88 6000 2.57 40 20:33 10.01.2021
3896 Clear 19 1022 88 6000 2.57 50 19:58 10.01.2021
3897 Clear 19 1022 88 6000 2.57 50 19:36 10.01.2021
3898 Clear 19 1022 94 6000 4.12 30 19:18 10.01.2021
3899 Clouds 20 1022 83 6000 3.6 40 18:41 10.01.2021
3900 Clouds 20 1021 83 6000 3.09 30 18:19 10.01.2021
3901 Clouds 21 1021 83 6000 2.57 360 17:22 10.01.2021
3902 Clouds 21 1021 83 6000 3.6 10 16:37 10.01.2021
3903 Clouds 21 1021 83 6000 3.6 10 16:18 10.01.2021
3904 Clouds 22 1020 60 6000 4.63 10 15:25 10.01.2021
3905 Clouds 23 1020 60 6000 4.12 20 14:52 10.01.2021
3906 Clouds 23 1020 60 6000 4.12 20 14:33 10.01.2021
3907 Clouds 21 1020 73 6000 3.6 350 13:55 10.01.2021
3908 Clouds 21 1020 73 6000 3.6 350 13:37 10.01.2021
3909 Clouds 21 1020 73 6000 3.6 350 13:37 10.01.2021
3910 Clouds 22 1020 73 6000 3.6 350 13:18 10.01.2021
3911 Clouds 21 1020 73 6000 1.54 10 12:50 10.01.2021
3912 Clouds 21 1020 73 6000 1.54 10 12:32 10.01.2021
3913 Mist 20 1021 77 4000 3.6 20 11:44 10.01.2021
3914 Mist 20 1021 77 4000 3.6 20 11:19 10.01.2021
3915 Mist 19 1022 88 2000 2.06 20 10:42 10.01.2021
3916 Mist 19 1022 88 2000 2.06 20 10:21 10.01.2021
3917 Fog 16 1023 100 1500 2.06 50 09:28 10.01.2021
3918 Fog 15 1022 100 500 3.23 9 08:22 10.01.2021
3919 Fog 14 1022 100 500 3.22 9 07:33 10.01.2021
3920 Fog 14 1021 100 500 2.69 357 06:20 10.01.2021
3921 Fog 15 1021 100 500 2.69 357 05:38 10.01.2021
3922 Mist 15 1020 100 800 2.56 1 03:55 10.01.2021
3923 Mist 15 1020 100 2000 2.82 358 01:30 10.01.2021
3924 Clear 15 1020 100 6000 3 1 23:58 09.01.2021
3925 Clear 15 1020 88 6000 3 1 23:40 09.01.2021
3926 Clear 15 1020 88 6000 3.45 355 22:50 09.01.2021
3927 Clear 16 1020 94 6000 3.39 5 22:19 09.01.2021
3928 Clear 16 1020 94 6000 1.03 80 21:58 09.01.2021
3929 Clear 15 1020 94 6000 1.03 80 21:39 09.01.2021
3930 Clear 17 1020 88 6000 2.06 60 21:20 09.01.2021
3931 Mist 17 1020 88 4000 1.54 70 20:46 09.01.2021
3932 Mist 18 1020 88 4000 1.54 40 20:27 09.01.2021
3933 Mist 18 1019 88 4000 3.09 360 19:39 09.01.2021
3934 Mist 19 1019 88 4000 3.09 360 19:19 09.01.2021
3935 Mist 19 1019 88 2000 5.12 25 18:36 09.01.2021
3936 Mist 20 1019 77 3000 6.09 34 17:51 09.01.2021
3937 Mist 20 1019 77 3000 6.09 34 17:32 09.01.2021
3938 Mist 20 1018 77 2000 1.54 340 16:56 09.01.2021
3939 Mist 21 1018 77 4000 2.57 360 16:22 09.01.2021
3940 Mist 22 1018 68 4000 3.09 350 15:41 09.01.2021
3941 Mist 21 1018 68 4000 3.6 340 15:19 09.01.2021
3942 Mist 21 1017 68 4000 2.57 340 14:37 09.01.2021
3943 Mist 21 1017 68 4000 2.57 340 14:18 09.01.2021
3944 Mist 22 1018 77 4000 1.54 10 13:43 09.01.2021
3945 Mist 19 1018 88 4000 2.57 330 13:24 09.01.2021
3946 Mist 18 1018 94 2000 2.57 350 12:28 09.01.2021
3947 Mist 18 1018 94 2000 3.09 360 11:58 09.01.2021
3948 Mist 18 1018 94 1000 2.06 20 11:37 09.01.2021
3949 Mist 18 1018 94 1000 2.06 20 11:18 09.01.2021
3950 Fog 19 1019 100 500 2.06 310 10:42 09.01.2021
3951 Fog 15 1020 100 500 1.03 10 10:22 09.01.2021
3952 Fog 17 1020 100 300 1.03 50 09:43 09.01.2021
3953 Fog 14 1020 100 300 1.03 330 09:20 09.01.2021
3954 Fog 13 1019 100 100 2.06 50 07:49 09.01.2021
3955 Fog 13 1019 100 200 2.06 50 06:53 09.01.2021
3956 Fog 13 1019 100 200 2.06 50 06:33 09.01.2021
3957 Fog 14 1017 100 100 1.03 40 03:53 09.01.2021
3958 Fog 14 1017 100 50 3.23 359 02:41 09.01.2021
3959 Fog 14 1017 100 50 2.92 359 02:23 09.01.2021
3960 Fog 14 1017 100 50 2.92 359 02:23 09.01.2021
3961 Fog 14 1017 100 50 2.88 7 01:25 09.01.2021
3962 Mist 15 1017 100 1000 1.54 80 00:33 09.01.2021
3963 Mist 15 1017 100 1000 1.54 80 00:33 09.01.2021
3964 Mist 15 1017 100 1000 3.05 7 23:46 08.01.2021
3965 Mist 15 1017 100 1000 1.54 90 22:46 08.01.2021
3966 Mist 17 1018 100 4000 1.03 70 21:54 08.01.2021
3967 Mist 17 1018 94 4000 1.03 70 21:26 08.01.2021
3968 Mist 17 1018 94 4000 1.03 70 20:38 08.01.2021
3969 Mist 18 1018 88 4000 1.54 60 19:58 08.01.2021
3970 Mist 18 1018 88 4000 1.54 60 19:25 08.01.2021
3971 Haze 19 1017 77 4000 1.54 40 18:59 08.01.2021
3972 Haze 19 1017 77 4000 1.54 40 18:34 08.01.2021
3973 Haze 20 1017 73 4000 1.54 30 17:55 08.01.2021
3974 Haze 20 1017 77 4000 3.09 10 17:28 08.01.2021
3975 Haze 20 1017 77 4000 3.09 10 16:50 08.01.2021
3976 Haze 22 1016 64 4000 4.12 360 15:55 08.01.2021
3977 Haze 22 1016 64 4000 3.6 350 15:33 08.01.2021
3978 Haze 24 1016 56 4000 3.6 350 14:40 08.01.2021
3979 Haze 23 1016 56 4000 3.6 350 14:20 08.01.2021
3980 Haze 22 1016 56 3000 3.09 350 13:22 08.01.2021
3981 Haze 22 1016 60 3000 3.09 330 12:52 08.01.2021
3982 Haze 22 1017 60 3000 2.57 340 12:23 08.01.2021
3983 Haze 21 1017 64 3000 3.09 350 11:59 08.01.2021
3984 Haze 20 1018 60 3000 2.06 50 11:39 08.01.2021
3985 Haze 20 1018 60 3000 2.06 50 11:20 08.01.2021
3986 Haze 21 1018 63 3000 2.06 50 10:45 08.01.2021
3987 Mist 17 1019 82 2000 2.57 40 09:57 08.01.2021
3988 Mist 17 1019 82 2000 2.57 40 09:38 08.01.2021
3989 Mist 15 1019 100 2000 1.54 30 09:19 08.01.2021
3990 Fog 14 1019 100 50 3.09 27 07:43 08.01.2021
3991 Fog 13 1019 100 50 2.92 27 07:25 08.01.2021
3992 Fog 13 1019 100 50 2.92 27 07:25 08.01.2021
3993 Mist 14 1018 100 2000 1.54 50 04:18 08.01.2021
3994 Mist 14 1018 100 2000 1.54 50 04:18 08.01.2021
3995 Mist 16 1018 82 4000 1.03 40 23:43 07.01.2021
3996 Mist 17 1018 82 4000 1.54 60 23:25 07.01.2021
3997 Mist 18 1019 88 4000 1.54 70 22:36 07.01.2021
3998 Clear 18 1019 88 6000 2.06 70 21:53 07.01.2021
3999 Clear 18 1019 94 6000 1.54 70 21:34 07.01.2021
4000 Clear 19 1019 88 6000 2.57 50 20:57 07.01.2021
4001 Clear 19 1019 88 6000 2.57 50 20:38 07.01.2021
4002 Clear 19 1019 88 6000 2.57 50 20:18 07.01.2021
4003 Clear 20 1019 83 6000 2.57 60 19:38 07.01.2021
4004 Clear 20 1019 83 10000 3.6 60 18:54 07.01.2021
4005 Clear 20 1019 83 10000 2.06 40 18:23 07.01.2021
4006 Clear 21 1019 83 10000 2.57 20 17:42 07.01.2021
4007 Clear 21 1019 83 10000 3.6 360 17:18 07.01.2021
4008 Clear 24 1018 53 10000 4.12 30 16:51 07.01.2021
4009 Clear 24 1018 53 10000 4.12 30 16:20 07.01.2021
4010 Clouds 25 1018 44 6000 4.12 30 15:34 07.01.2021
4011 Clouds 25 1017 44 6000 3.6 40 14:42 07.01.2021
4012 Clouds 25 1017 44 6000 3.6 40 14:42 07.01.2021
4013 Clouds 25 1017 44 6000 3.6 40 14:42 07.01.2021
4014 Clouds 25 1017 44 6000 3.6 40 14:42 07.01.2021
4015 Clouds 25 1017 44 6000 4.12 30 14:23 07.01.2021
4016 Clouds 25 1017 44 6000 4.63 40 13:41 07.01.2021
4017 Clouds 25 1017 44 6000 3.6 50 13:18 07.01.2021
4018 Clear 25 1017 44 10000 2.68 30 12:35 07.01.2021
4019 Clouds 22 1018 60 6000 2.1 30 11:52 07.01.2021
4020 Clouds 21 1019 68 6000 3.1 30 11:34 07.01.2021
4021 Clouds 19 1020 77 6000 2.1 30 10:48 07.01.2021
4022 Clouds 19 1020 77 6000 2.1 30 10:20 07.01.2021
4023 Clouds 17 1020 93 6000 3.1 30 09:46 07.01.2021
4024 Clouds 17 1020 93 6000 3.1 30 09:19 07.01.2021
4025 Mist 15 1020 100 1200 3.6 60 08:29 07.01.2021
4026 Clouds 15 1019 100 1200 4.1 40 07:48 07.01.2021
4027 Clouds 15 1019 100 1200 4.1 40 07:22 07.01.2021
4028 Fog 15 1019 100 300 3.1 70 04:30 07.01.2021
4029 Fog 17 1019 100 300 3.1 60 00:30 07.01.2021
4030 Fog 17 1020 100 300 3.1 60 23:48 06.01.2021
4031 Mist 17 1020 93 2000 2.1 20 22:39 06.01.2021
4032 Mist 18 1020 93 4000 1.5 30 21:44 06.01.2021
4033 Mist 18 1020 93 4000 1.5 30 21:23 06.01.2021
4034 Mist 19 1020 88 4000 3.1 30 20:58 06.01.2021
4035 Mist 19 1020 88 4000 3.1 30 20:36 06.01.2021
4036 Mist 19 1020 88 4000 4.6 50 20:18 06.01.2021
4037 Mist 20 1020 82 4000 4.6 50 19:38 06.01.2021
4038 Mist 20 1020 82 4000 4.6 50 19:18 06.01.2021
4039 Mist 20 1020 82 4000 4.6 40 18:41 06.01.2021
4040 Clouds 21 1019 77 6000 4.6 20 18:23 06.01.2021
4041 Clouds 21 1019 77 6000 4.6 20 17:42 06.01.2021
4042 Clouds 21 1019 77 6000 4.6 20 17:24 06.01.2021
4043 Clouds 22 1019 68 6000 3.1 20 16:42 06.01.2021
4044 Clouds 23 1019 68 6000 3.1 20 16:19 06.01.2021
4045 Clouds 23 1018 60 6000 4.6 30 15:52 06.01.2021
4046 Clouds 23 1018 60 6000 4.6 30 15:32 06.01.2021
4047 Clouds 24 1019 53 6000 4.1 360 14:51 06.01.2021
4048 Clouds 24 1007 59 10000 4.42 41 14:21 06.01.2021
4049 Clouds 24 1018 47 6000 1.5 40 13:45 06.01.2021
4050 Clouds 24 1018 47 6000 1.5 40 13:23 06.01.2021
4051 Haze 23 1019 49 4000 2.6 10 12:48 06.01.2021
4052 Haze 23 1019 49 4000 2.6 10 12:20 06.01.2021
4053 Haze 22 1019 60 3000 2.6 50 11:36 06.01.2021
4054 Haze 22 1019 60 3000 2.6 50 11:18 06.01.2021
4055 Haze 20 1021 68 3000 3.1 60 10:22 06.01.2021
4056 Mist 20 1021 68 2000 3.1 50 09:51 06.01.2021
4057 Mist 18 1021 82 2000 3.1 70 08:59 06.01.2021
4058 Mist 18 1021 82 2000 3.6 50 08:38 06.01.2021
4059 Mist 17 1021 88 2000 3.6 50 07:58 06.01.2021
4060 Mist 17 1020 93 2000 3.6 50 06:55 06.01.2021
4061 Mist 18 1020 88 2000 4.1 60 05:51 06.01.2021
4062 Mist 17 1020 88 1000 2.6 60 04:35 06.01.2021
4063 Mist 18 1020 100 1000 3.1 40 02:47 06.01.2021
4064 Mist 18 1020 100 1000 3.1 30 02:26 06.01.2021
4065 Mist 18 1020 100 1000 2.6 20 01:34 06.01.2021
4066 Fog 18 1020 100 800 2.6 350 23:34 05.01.2021
4067 Fog 17 1020 100 800 3.01 349 22:51 05.01.2021
4068 Mist 18 1020 93 1500 3.01 349 22:32 05.01.2021
4069 Mist 18 1019 93 1500 2.64 351 21:58 05.01.2021
4070 Mist 19 1019 88 1500 2.61 351 21:18 05.01.2021
4071 Mist 19 1019 93 1200 2.9 358 20:29 05.01.2021
4072 Mist 19 1019 93 2000 2.9 358 19:45 05.01.2021
4073 Mist 19 1019 88 2000 1.5 360 19:24 05.01.2021
4074 Mist 19 1020 88 4000 3.36 345 18:47 05.01.2021
4075 Mist 19 1019 88 4000 1.12 6 18:28 05.01.2021
4076 Mist 19 1019 88 4000 1 360 17:54 05.01.2021
4077 Mist 20 1019 82 4000 2.6 10 17:31 05.01.2021
4078 Sand 21 1018 68 4000 4.6 330 16:54 05.01.2021
4079 Sand 21 1018 68 4000 4.6 330 16:24 05.01.2021
4080 Sand 21 1018 68 4000 4.6 330 15:59 05.01.2021
4081 Sand 21 1018 68 4000 4.6 330 15:40 05.01.2021
4082 Sand 22 1017 73 4000 9.8 310 14:48 05.01.2021
4083 Sand 23 1017 73 4000 9.8 310 14:18 05.01.2021
4084 Clear 24 1017 47 6000 3.6 350 13:43 05.01.2021
4085 Clouds 23 1016 56 6000 2.1 70 13:20 05.01.2021
4086 Clouds 23 1016 56 6000 2.1 70 12:46 05.01.2021
4087 Clouds 22 1016 56 6000 1.5 80 12:20 05.01.2021
4088 -273 0 0 0 0 0 11:34 05.01.2021
4089 -273 0 0 0 0 0 11:33 05.01.2021
4090 Clouds 22 1016 56 6000 1.5 80 11:33 05.01.2021
4091 Clouds 22 1016 56 6000 1.5 80 11:32 05.01.2021
4092 Clouds 22 1016 56 6000 1.5 80 11:32 05.01.2021
4093 Clouds 22 1017 60 6000 2.6 70 10:46 05.01.2021
4094 Clouds 20 1017 77 6000 1.5 70 10:25 05.01.2021
4095 Mist 20 1018 77 4000 2.1 50 09:48 05.01.2021
4096 Mist 19 1018 82 4000 3.6 70 09:27 05.01.2021
4097 Mist 17 1018 93 2000 2.6 60 08:23 05.01.2021
4098 Fog 15 1017 100 200 2.26 57 06:46 05.01.2021
4099 Fog 17 1017 100 500 2.58 326 03:56 05.01.2021
4100 Mist 17 1016 100 1000 2.63 359 00:48 05.01.2021
4101 Mist 16 1016 100 2000 2.56 359 23:45 04.01.2021
4102 Mist 17 1016 100 2000 1.39 19 23:25 04.01.2021
4103 Mist 17 1017 100 2000 1.39 19 22:49 04.01.2021
4104 Mist 17 1017 100 3000 2.12 52 22:27 04.01.2021
4105 Mist 17 1017 100 3000 2.12 52 21:47 04.01.2021
4106 Mist 17 1017 100 3000 1 110 21:29 04.01.2021
4107 Mist 17 1017 100 3000 0.5 110 20:43 04.01.2021
4108 Mist 18 1017 100 3000 0.5 110 20:23 04.01.2021
4109 Mist 18 1017 93 3000 1.5 100 19:51 04.01.2021
4110 Mist 18 1017 93 3000 1 60 19:24 04.01.2021
4111 Mist 19 1017 93 4000 2.1 360 18:54 04.01.2021
4112 Mist 20 1017 93 4000 2.1 360 18:24 04.01.2021
4113 Mist 20 1016 82 4000 2.6 30 17:42 04.01.2021
4114 Mist 21 1016 82 4000 2.6 30 17:24 04.01.2021
4115 Haze 21 1016 77 4000 3.1 30 16:46 04.01.2021
4116 Haze 20 1016 77 4000 3.1 30 16:27 04.01.2021
4117 Clouds 22 1016 68 6000 4.1 10 15:49 04.01.2021
4118 Clouds 22 1015 68 6000 3.6 10 15:28 04.01.2021
4119 Clouds 22 1015 64 6000 3.6 360 14:42 04.01.2021
4120 Clouds 22 1015 64 6000 4.1 350 13:47 04.01.2021
4121 Clear 22 1015 49 6000 2.1 40 13:24 04.01.2021
4122 Clear 22 1016 56 6000 3.1 350 12:42 04.01.2021
4123 Clear 22 1016 60 6000 2.6 360 11:58 04.01.2021
4124 Clear 20 1016 64 6000 3.1 40 11:22 04.01.2021
4125 Haze 20 1016 68 4000 2.6 40 10:49 04.01.2021
4126 Mist 19 1017 77 4000 1.5 20 10:28 04.01.2021
4127 Mist 18 1017 82 4000 2.1 60 09:53 04.01.2021
4128 Mist 17 1018 88 3000 2.6 350 09:20 04.01.2021
4129 Mist 16 1018 100 3000 2.6 40 08:46 04.01.2021
4130 Mist 15 1017 100 1000 1 70 07:58 04.01.2021
4131 Mist 15 1017 100 1000 1 70 07:37 04.01.2021
4132 Fog 14 1018 100 100 2.35 20 05:33 04.01.2021
4133 Fog 14 1017 100 200 2.87 1 04:30 04.01.2021
4134 Mist 14 1017 100 2000 1.5 130 00:47 04.01.2021
4135 Mist 15 1018 100 2000 1 100 23:49 03.01.2021
4136 Mist 16 1018 100 2000 1.5 70 23:24 03.01.2021
4137 Mist 16 1018 100 2000 1 80 22:56 03.01.2021
4138 Mist 17 1018 100 2000 1.5 60 22:33 03.01.2021
4139 Mist 17 1018 93 2000 2.1 60 21:56 03.01.2021
4140 Mist 17 1018 93 2000 2.1 60 21:29 03.01.2021
4141 Mist 17 1018 88 2000 1.5 60 20:50 03.01.2021
4142 Mist 18 1018 88 2000 1.5 60 20:32 03.01.2021
4143 Mist 18 1019 88 2000 1.5 30 19:57 03.01.2021
4144 Mist 19 1018 82 4000 1.5 30 19:35 03.01.2021
4145 Mist 19 1018 82 4000 1.5 10 18:57 03.01.2021
4146 Clear 19 1018 82 6000 1 20 18:38 03.01.2021
4147 Clear 19 1018 82 6000 1.5 30 18:19 03.01.2021
4148 Clear 19 1018 82 6000 1.5 30 18:19 03.01.2021
4149 Clear 20 1018 77 6000 2.6 30 17:48 03.01.2021
4150 Clear 20 1018 77 6000 2.6 30 17:23 03.01.2021
4151 Clear 20 1018 72 6000 3.6 20 16:43 03.01.2021
4152 Clear 20 1018 72 6000 3.6 20 16:20 03.01.2021
4153 Clear 21 1017 60 6000 4.6 360 15:46 03.01.2021
4154 Clear 21 1017 60 6000 4.6 360 15:28 03.01.2021
4155 Mist 21 1017 68 4000 4.6 360 14:57 03.01.2021
4156 Mist 21 1017 68 4000 4.6 360 14:29 03.01.2021
4157 Mist 21 1017 77 2000 3.6 340 13:42 03.01.2021
4158 Mist 20 1017 77 2000 3.6 340 13:23 03.01.2021
4159 Mist 20 1017 77 2000 3.1 320 12:33 03.01.2021
4160 Clear 19 1018 77 4000 1.5 340 11:42 03.01.2021
4161 Clear 19 1018 77 4000 1.5 340 11:24 03.01.2021
4162 Mist 16 1019 100 1500 2.97 11 10:36 03.01.2021
4163 Mist 17 1019 100 1500 2.97 11 10:36 03.01.2021
4164 Mist 16 1019 100 1500 2.97 11 10:36 03.01.2021
4165 Fog 14 1019 100 800 2.75 9 10:18 03.01.2021
4166 Fog 14 1019 100 200 2.75 9 09:41 03.01.2021
4167 Fog 14 1019 100 200 2.45 7 09:22 03.01.2021
4168 Mist 13 1019 100 1000 2.67 9 07:42 03.01.2021
4169 Mist 13 1018 100 2000 2.37 2 05:58 03.01.2021
4170 Mist 14 1018 93 2000 2.49 13 02:27 03.01.2021
4171 Mist 14 1018 93 4000 2.49 13 01:45 03.01.2021
4172 Mist 15 1018 87 4000 3.28 25 00:19 03.01.2021
4173 Clouds 16 1018 87 6000 3.53 33 23:28 02.01.2021
4174 Clouds 16 1019 87 6000 1 70 22:55 02.01.2021
4175 Clouds 16 1019 87 6000 1 70 22:32 02.01.2021
4176 Clouds 16 1019 82 6000 2.1 70 21:51 02.01.2021
4177 Clouds 17 1019 82 6000 2.1 70 21:31 02.01.2021
4178 Clouds 17 1019 88 6000 3.6 60 20:55 02.01.2021
4179 Clouds 18 1019 77 6000 3.6 60 20:36 02.01.2021
4180 Clouds 18 1019 77 6000 3.6 60 20:18 02.01.2021
4181 Clouds 19 1018 72 6000 3.6 60 19:21 02.01.2021
4182 Haze 19 1018 68 4000 4.1 30 18:58 02.01.2021
4183 Haze 19 1018 68 4000 4.1 30 18:40 02.01.2021
4184 Haze 19 1018 68 4000 4.1 30 18:20 02.01.2021
4185 Clouds 20 1018 64 6000 3.1 30 17:45 02.01.2021
4186 Clouds 21 1018 60 6000 3.1 20 16:59 02.01.2021
4187 Clouds 21 1018 60 6000 3.6 20 16:23 02.01.2021
4188 Clouds 21 1018 60 6000 3.6 30 15:57 02.01.2021
4189 Clouds 21 1018 60 6000 3.6 20 15:38 02.01.2021
4190 Clouds 21 1018 60 6000 3.6 20 15:20 02.01.2021
4191 Clouds 21 1017 64 10000 4.6 30 14:36 02.01.2021
4192 Clouds 21 1017 64 10000 4.6 30 13:54 02.01.2021
4193 Clouds 21 1017 64 10000 4.1 10 13:32 02.01.2021
4194 Clouds 21 1017 64 10000 4.6 20 12:53 02.01.2021
4195 Haze 20 1017 64 4000 3.6 10 12:32 02.01.2021
4196 Mist 20 1018 77 4000 2.1 360 11:45 02.01.2021
4197 Mist 18 1018 82 4000 2.1 350 11:22 02.01.2021
4198 Mist 18 1019 88 2000 1.5 30 10:49 02.01.2021
4199 Mist 17 1019 100 1000 2.6 20 10:28 02.01.2021
4200 Mist 15 1019 100 1000 2.1 40 09:52 02.01.2021
4201 Fog 15 1019 100 800 1.5 70 09:23 02.01.2021
4202 Fog 15 1019 100 800 1.5 70 08:50 02.01.2021
4203 Fog 15 1019 100 800 1.5 70 08:28 02.01.2021
4204 Fog 15 1019 100 800 2.1 70 07:47 02.01.2021
4205 Clouds 14 1005 62 10000 2.03 14 07:22 02.01.2021
4206 Clouds 13 1005 62 10000 2.38 24 06:42 02.01.2021
4207 Clouds 12 1005 62 10000 2.2 25 05:45 02.01.2021
4208 Mist 15 1018 87 1500 1 160 00:59 02.01.2021
4209 Mist 15 1018 87 1500 0.5 160 00:37 02.01.2021
4210 Mist 16 1018 87 1500 2.87 17 23:56 01.01.2021
4211 Mist 16 1018 87 1500 1 10 23:21 01.01.2021
4212 Mist 16 1019 87 1500 1.5 40 22:47 01.01.2021
4213 Mist 16 1019 87 1500 1 30 22:25 01.01.2021
4214 Mist 17 1018 82 1500 2.1 340 21:44 01.01.2021
4215 Mist 17 1018 82 1500 2.1 340 21:22 01.01.2021
4216 Mist 17 1018 82 1500 1.5 360 20:54 01.01.2021
4217 Mist 17 1018 82 3000 2.1 360 20:23 01.01.2021
4218 Haze 18 1018 72 3000 3.1 360 19:59 01.01.2021
4219 Haze 18 1018 72 3000 3.1 360 19:41 01.01.2021
4220 Haze 18 1018 72 3000 3.1 360 19:20 01.01.2021
4221 Clouds 19 1017 68 6000 2.6 350 18:42 01.01.2021
4222 Clouds 19 1017 68 6000 2.6 350 18:22 01.01.2021
4223 Clouds 19 1017 68 10000 3.1 360 17:43 01.01.2021
4224 Clouds 19 1017 68 10000 3.1 360 17:23 01.01.2021
4225 Clouds 20 1016 60 10000 4.1 360 16:45 01.01.2021
4226 Clouds 20 1016 60 10000 4.1 360 16:25 01.01.2021
4227 Clouds 21 1016 49 10000 4.6 10 15:39 01.01.2021
4228 Clouds 21 1016 49 6000 3.6 360 14:44 01.01.2021
4229 Clouds 21 1016 49 6000 3.6 360 14:25 01.01.2021
4230 Clouds 21 1016 46 6000 4.1 30 13:38 01.01.2021
4231 Clouds 21 1017 43 6000 4.1 10 12:51 01.01.2021
4232 Clouds 20 1017 43 6000 4.1 10 12:27 01.01.2021
4233 Haze 20 1018 60 3000 2.6 20 11:42 01.01.2021
4234 Haze 20 1018 60 3000 2.6 20 11:19 01.01.2021
4235 Haze 19 1018 60 3000 2.6 20 10:56 01.01.2021
4236 Mist 18 1018 68 2000 2.1 30 10:28 01.01.2021
4237 Mist 17 1019 77 2000 2.93 9 09:39 01.01.2021
4238 Mist 15 1019 82 1000 2.36 1 08:49 01.01.2021
4239 Mist 15 1019 82 1000 1.97 356 08:25 01.01.2021
4240 Mist 13 1017 87 3000 1 140 04:51 01.01.2021
4241 Mist 14 1017 87 3000 2.34 341 02:25 01.01.2021
4242 Clear 14 1017 87 6000 2.51 340 00:37 01.01.2021
4243 Clear 15 1017 82 6000 2.44 349 23:56 31.12.2020
4244 Clear 15 1017 82 6000 2.57 1 23:22 31.12.2020
4245 Clear 14 1017 82 6000 1 130 22:56 31.12.2020
4246 Clear 14 1017 87 6000 2.57 1 22:37 31.12.2020
4247 Clear 15 1017 82 6000 3.03 9 22:19 31.12.2020
4248 Clear 15 1017 77 6000 1.5 40 21:44 31.12.2020
4249 Clear 17 1017 77 6000 1.5 40 21:21 31.12.2020
4250 Clear 16 1017 77 6000 2.1 360 20:47 31.12.2020
4251 Clear 18 1017 72 6000 2.1 360 19:59 31.12.2020
4252 Clear 18 1017 72 6000 2.1 360 19:38 31.12.2020
4253 Clear 18 1017 72 6000 2.1 360 19:20 31.12.2020
4254 Clear 19 1016 68 6000 2.6 350 18:42 31.12.2020
4255 Clear 19 1016 68 6000 2.6 350 18:23 31.12.2020
4256 Clouds 19 1016 63 6000 2.1 340 17:42 31.12.2020
4257 Clouds 19 1016 63 6000 2.1 340 17:21 31.12.2020
4258 Clouds 20 1016 52 6000 3.6 350 16:40 31.12.2020
4259 Clouds 20 1016 52 6000 3.6 350 16:21 31.12.2020
4260 Clouds 20 1016 52 6000 3.6 350 16:21 31.12.2020
4261 Clouds 20 1015 52 6000 3.6 360 15:45 31.12.2020
4262 Clouds 21 1015 52 6000 3.6 360 15:21 31.12.2020
4263 Clouds 21 1015 46 6000 3.1 350 14:55 31.12.2020
4264 Clouds 21 1015 46 6000 3.1 350 14:37 31.12.2020
4265 Haze 21 1015 56 4000 3.6 10 14:19 31.12.2020
4266 Haze 21 1015 56 4000 3.6 10 13:38 31.12.2020
4267 Haze 21 1016 64 2000 2.1 360 13:19 31.12.2020
4268 Haze 21 1016 64 2000 2.1 360 12:53 31.12.2020
4269 Haze 20 1016 64 2000 2.1 360 12:34 31.12.2020
4270 Mist 19 1016 68 1000 2.6 20 11:51 31.12.2020
4271 Mist 18 1016 72 1000 2.12 16 11:32 31.12.2020
4272 Mist 16 1017 100 1000 2.1 330 10:49 31.12.2020
4273 Mist 16 1017 100 1000 2.1 330 10:29 31.12.2020
4274 Fog 16 1017 100 500 2.28 357 09:56 31.12.2020
4275 Fog 15 1017 100 500 2.28 357 09:34 31.12.2020
4276 Fog 13 1018 100 200 2.14 343 08:50 31.12.2020
4277 Fog 12 1018 100 200 2.14 343 08:32 31.12.2020
4278 Fog 12 1017 100 200 2.1 90 07:59 31.12.2020
4279 Fog 12 1017 100 200 2.1 90 07:29 31.12.2020
4280 Mist 11 1017 100 1000 1.9 332 05:45 31.12.2020
4281 Mist 12 1016 100 1000 2.43 336 04:30 31.12.2020
4282 Mist 12 1017 100 2000 2.5 352 02:56 31.12.2020
4283 Mist 12 1017 100 2000 2.62 348 02:25 31.12.2020
4284 Mist 12 1017 100 4000 2.62 348 01:45 31.12.2020
4285 Mist 12 1017 100 4000 2.62 350 01:25 31.12.2020
4286 Mist 12 1017 93 4000 1.5 70 00:46 31.12.2020
4287 Clear 13 1017 93 6000 1.5 70 23:52 30.12.2020
4288 Clear 14 1017 87 6000 2.1 90 23:20 30.12.2020
4289 Clear 13 1017 87 6000 2.1 90 22:49 30.12.2020
4290 Clear 14 1017 87 10000 2.1 90 22:30 30.12.2020
4291 Clear 14 1017 87 10000 1.5 80 21:46 30.12.2020
4292 Clear 14 1017 82 10000 3.1 50 21:24 30.12.2020
4293 Clear 14 1017 82 10000 3.1 50 20:51 30.12.2020
4294 Clear 15 1017 77 10000 3.1 50 20:22 30.12.2020
4295 Clear 16 1017 77 10000 3.6 10 19:41 30.12.2020
4296 Clear 17 1017 77 10000 3.6 10 19:23 30.12.2020
4297 Clouds 17 1017 68 10000 4.1 10 18:47 30.12.2020
4298 Clouds 18 1017 68 10000 4.1 10 18:29 30.12.2020
4299 Clouds 18 1017 63 10000 5.1 360 17:52 30.12.2020
4300 Clouds 18 1016 59 10000 5.1 360 17:33 30.12.2020
4301 Clouds 19 1016 55 10000 5.7 350 16:59 30.12.2020
4302 Clouds 19 1016 55 10000 6.7 350 16:35 30.12.2020
4303 Clouds 20 1016 52 10000 6.7 350 15:48 30.12.2020
4304 Clouds 20 1016 52 10000 6.7 350 15:26 30.12.2020
4305 Clouds 20 1016 52 10000 5.7 10 14:44 30.12.2020
4306 Clouds 20 1016 52 10000 5.7 10 14:25 30.12.2020
4307 Clouds 20 1016 52 10000 5.7 350 13:48 30.12.2020
4308 Clouds 20 1017 49 10000 5.1 10 12:44 30.12.2020
4309 Clouds 20 1017 49 10000 5.1 40 12:22 30.12.2020
4310 Clouds 19 1017 68 6000 4.6 30 11:38 30.12.2020
4311 Clouds 19 1017 68 6000 4.6 30 11:19 30.12.2020
4312 Mist 17 1018 93 3000 4.1 10 10:49 30.12.2020
4313 Mist 17 1018 93 3000 4.1 10 10:49 30.12.2020
4314 Mist 15 1018 100 3000 3.1 10 10:29 30.12.2020
4315 Mist 14 1018 100 3000 2.1 40 09:50 30.12.2020
4316 Mist 13 1019 100 2000 1.5 50 09:30 30.12.2020
4317 Fog 12 1019 100 200 4.19 20 08:35 30.12.2020
4318 Fog 10 1019 100 100 1 100 07:31 30.12.2020
4319 Fog 10 1019 100 100 1 100 06:53 30.12.2020
4320 Fog 10 1019 100 100 3.18 3 06:32 30.12.2020
4321 Fog 10 1018 100 100 1.5 10 05:45 30.12.2020
4322 Fog 10 1018 100 100 3.48 360 05:27 30.12.2020
4323 Mist 11 1018 100 3000 2.6 40 03:28 30.12.2020
4324 Mist 11 1018 100 3000 2.1 60 02:43 30.12.2020
4325 Mist 11 1018 100 3000 2.1 60 02:25 30.12.2020
4326 Mist 11 1018 100 3000 2.1 60 02:25 30.12.2020
4327 Mist 12 1018 93 3000 3.1 70 01:33 30.12.2020
4328 Mist 12 1018 100 4000 3.6 80 00:51 30.12.2020
4329 Mist 11 1018 100 4000 2.6 60 00:32 30.12.2020
4330 Mist 12 1018 100 4000 2.6 60 23:57 29.12.2020
4331 Mist 12 1018 100 4000 4.1 60 23:39 29.12.2020
4332 Mist 12 1018 93 4000 4.1 70 23:18 29.12.2020
4333 Mist 13 1019 93 4000 3.6 60 22:41 29.12.2020
4334 Mist 13 1019 93 4000 3.6 60 22:23 29.12.2020
4335 Mist 13 1019 93 4000 2.1 50 21:47 29.12.2020
4336 Mist 14 1019 93 4000 3.6 40 21:29 29.12.2020
4337 Mist 14 1019 87 4000 3.6 40 20:48 29.12.2020
4338 Mist 14 1019 87 4000 3.6 50 20:26 29.12.2020
4339 Haze 15 1019 82 4000 3.6 50 19:56 29.12.2020
4340 Haze 15 1019 77 4000 3.1 40 19:37 29.12.2020
4341 Haze 16 1019 77 4000 3.1 40 19:18 29.12.2020
4342 Clear 17 1019 77 6000 3.1 360 18:39 29.12.2020
4343 Clear 17 1019 77 6000 3.1 360 18:19 29.12.2020
4344 Clear 18 1018 63 6000 3.1 10 17:44 29.12.2020
4345 Clear 18 1018 63 6000 4.1 20 17:19 29.12.2020
4346 Clear 19 1018 55 6000 3.1 360 16:36 29.12.2020
4347 Clear 20 1018 49 10000 4.6 360 15:59 29.12.2020
4348 Clear 20 1018 49 10000 4.6 360 15:36 29.12.2020
4349 Clear 20 1018 49 6000 4.1 10 14:59 29.12.2020
4350 Clear 20 1018 49 6000 4.1 20 14:36 29.12.2020
4351 Clear 20 1018 49 6000 4.1 20 14:18 29.12.2020
4352 Clear 21 1018 45 6000 3.6 10 13:45 29.12.2020
4353 Haze 20 1018 56 2000 3.6 350 13:21 29.12.2020
4354 Haze 19 1018 59 1500 4.1 10 12:38 29.12.2020
4355 Haze 19 1018 63 1500 3.1 360 12:19 29.12.2020
4356 Haze 20 1018 63 1500 3.1 360 11:53 29.12.2020
4357 Mist 15 1020 100 1000 1.5 60 11:31 29.12.2020
4358 Mist 15 1020 100 1000 1.5 60 10:30 29.12.2020
4359 Fog 13 1021 100 400 1 20 09:49 29.12.2020
4360 Fog 12 1021 100 400 1 20 09:22 29.12.2020
4361 Fog 12 1020 100 200 1 40 08:53 29.12.2020
4362 Fog 12 1020 100 400 1 60 08:23 29.12.2020
4363 Fog 11 1020 93 800 1 40 07:26 29.12.2020
4364 Mist 12 1020 93 2000 1 40 06:45 29.12.2020
4365 Mist 12 1019 87 2000 0.5 50 05:25 29.12.2020
4366 Mist 13 1019 87 4000 1.5 80 00:49 29.12.2020
4367 Mist 14 1019 87 4000 2.07 354 00:21 29.12.2020
4368 Mist 15 1019 77 4000 0.5 70 23:36 28.12.2020
4369 Haze 15 1019 77 4000 3.16 347 22:28 28.12.2020
4370 Haze 15 1019 77 4000 3.16 347 22:28 28.12.2020
4371 Clouds 16 1019 72 6000 2.1 90 21:46 28.12.2020
4372 Clouds 16 1019 72 6000 2.1 90 21:27 28.12.2020
4373 Clouds 15 1018 72 6000 2.6 90 20:43 28.12.2020
4374 Clouds 16 1018 72 6000 2.6 90 20:23 28.12.2020
4375 Clouds 16 1018 72 6000 2.6 90 19:50 28.12.2020
4376 Clouds 17 1018 67 6000 2.1 90 19:25 28.12.2020
4377 Haze 16 1018 67 4000 1.5 80 18:59 28.12.2020
4378 Haze 17 1018 63 4000 1.5 70 18:30 28.12.2020
4379 Haze 17 1018 63 4000 1.5 70 17:49 28.12.2020
4380 Haze 19 1017 59 4000 1 10 17:31 28.12.2020
4381 Haze 19 1017 59 4000 2.1 330 16:59 28.12.2020
4382 Haze 20 1017 56 4000 2.1 330 16:29 28.12.2020
4383 Clouds 20 1017 56 6000 2.1 300 15:54 28.12.2020
4384 Clouds 20 1017 56 6000 3.1 300 15:33 28.12.2020
4385 Haze 21 1016 52 4000 2.6 280 14:31 28.12.2020
4386 Haze 21 1016 52 2000 3.6 270 13:47 28.12.2020
4387 Haze 20 1017 56 2000 3.6 250 13:20 28.12.2020
4388 Haze 20 1017 55 2000 4.1 250 12:27 28.12.2020
4389 Haze 20 1018 55 2000 4.6 240 11:56 28.12.2020
4390 Haze 19 1018 55 2000 4.6 240 11:37 28.12.2020
4391 Haze 18 1018 59 2000 4.1 210 11:18 28.12.2020
4392 Haze 18 1018 59 2000 4.1 210 10:29 28.12.2020
4393 Haze 18 1018 63 2000 3.6 200 09:58 28.12.2020
4394 Mist 17 1018 67 2000 3.6 200 09:37 28.12.2020
4395 Mist 15 1018 72 2000 4.6 170 09:18 28.12.2020
4396 Mist 12 1017 81 2000 1.35 269 06:53 28.12.2020
4397 Mist 12 1017 81 4000 1.58 302 05:25 28.12.2020
4398 Clouds 12 1017 81 6000 2.1 160 03:51 28.12.2020
4399 Clouds 14 1016 76 6000 1.5 220 01:56 28.12.2020
4400 Clear 13 1016 76 6000 1 190 00:19 28.12.2020
4401 Clear 14 1017 71 6000 1.66 339 23:35 27.12.2020
4402 Clear 14 1017 71 6000 1.9 330 22:52 27.12.2020
4403 Clear 15 1017 67 6000 1.5 80 21:55 27.12.2020
4404 Clear 16 1017 63 6000 1.93 345 21:24 27.12.2020
4405 Clear 17 1017 59 6000 1.93 345 20:40 27.12.2020
4406 Clear 17 1017 59 6000 1 300 19:24 27.12.2020
4407 Clear 17 1017 59 6000 0.77 349 18:54 27.12.2020
4408 Clear 18 1017 55 6000 0.77 349 18:36 27.12.2020
4409 Clear 19 1017 55 6000 1 280 18:18 27.12.2020
4410 Clear 19 1016 55 6000 1.5 290 17:42 27.12.2020
4411 Clear 19 1016 55 6000 1.5 290 17:21 27.12.2020
4412 Clear 20 1016 52 6000 3.1 310 16:26 27.12.2020
4413 Clear 22 1015 43 6000 3.1 300 15:40 27.12.2020
4414 Clear 22 1015 43 6000 3.1 300 14:58 27.12.2020
4415 Clear 22 1015 43 6000 3.1 330 14:38 27.12.2020
4416 Clear 22 1015 40 6000 3.1 350 13:43 27.12.2020
4417 Clear 22 1015 40 6000 3.1 350 13:19 27.12.2020
4418 Clear 21 1015 43 6000 2.6 340 12:43 27.12.2020
4419 Clear 20 1016 45 6000 2.6 340 11:49 27.12.2020
4420 Haze 20 1016 49 3000 1.5 360 11:29 27.12.2020
4421 Haze 19 1016 52 3000 2.1 360 10:51 27.12.2020
4422 Haze 18 1017 55 3000 2.1 360 10:24 27.12.2020
4423 Mist 17 1017 100 2000 1 30 09:42 27.12.2020
4424 Mist 14 1017 100 2000 2.19 11 08:39 27.12.2020
4425 Mist 14 1017 100 2000 2.06 352 08:18 27.12.2020
4426 Mist 12 1017 100 2000 1.69 342 07:26 27.12.2020
4427 Mist 11 1016 100 4000 2.03 16 05:44 27.12.2020
4428 Mist 12 1016 100 4000 2.58 355 03:33 27.12.2020
4429 Mist 12 1016 100 4000 1.5 80 02:45 27.12.2020
4430 Mist 12 1016 93 4000 1.5 60 01:33 27.12.2020
4431 Clear 13 1017 93 6000 2.1 70 23:57 26.12.2020
4432 Clear 14 1017 93 6000 1.5 10 23:27 26.12.2020
4433 Clear 13 1017 93 6000 1.5 50 22:49 26.12.2020
4434 Clear 13 1017 93 6000 3.1 70 22:21 26.12.2020
4435 Clear 14 1017 87 10000 3.1 60 21:57 26.12.2020
4436 Clear 14 1017 87 10000 4.1 60 21:38 26.12.2020
4437 Clear 14 1018 87 10000 3.6 40 21:19 26.12.2020
4438 Clear 15 1018 82 10000 4.1 30 20:41 26.12.2020
4439 Clear 16 1018 82 10000 4.1 30 20:18 26.12.2020
4440 Clear 17 1018 77 10000 6.2 20 19:26 26.12.2020
4441 Clear 17 1017 77 10000 6.2 20 18:50 26.12.2020
4442 Clear 18 1017 68 10000 6.7 20 18:28 26.12.2020
4443 Clear 18 1017 59 10000 7.7 10 17:41 26.12.2020
4444 Clear 19 1017 59 10000 7.7 10 17:20 26.12.2020
4445 Clear 20 1016 56 10000 7.2 10 16:36 26.12.2020
4446 Clear 21 1016 52 10000 7.7 10 15:27 26.12.2020
4447 Clear 21 1016 52 10000 7.7 20 14:51 26.12.2020
4448 Clear 21 1016 49 10000 7.7 10 14:28 26.12.2020
4449 Clear 22 1016 49 10000 7.7 10 13:51 26.12.2020
4450 Clear 21 1016 40 10000 8.7 20 13:31 26.12.2020
4451 Clear 22 1016 43 10000 8.2 10 12:48 26.12.2020
4452 Clear 20 1017 46 10000 8.7 30 12:30 26.12.2020
4453 Clear 20 1017 46 10000 8.7 30 12:30 26.12.2020
4454 Clear 21 1017 46 10000 8.7 30 11:51 26.12.2020
4455 Clear 20 1017 45 10000 9.3 20 11:22 26.12.2020
4456 Clear 20 1017 45 6000 9.8 30 10:55 26.12.2020
4457 Clear 19 1018 52 6000 7.7 20 10:28 26.12.2020
4458 Clear 18 1018 59 6000 6.2 30 09:52 26.12.2020
4459 Clear 16 1018 87 6000 5.1 30 09:31 26.12.2020
4460 Mist 14 1018 100 2000 2.6 40 08:39 26.12.2020
4461 Mist 13 1018 100 2000 2.1 50 07:56 26.12.2020
4462 Mist 11 1018 100 1000 3.1 70 06:47 26.12.2020
4463 Clear 11 1018 93 6000 2.1 50 03:52 26.12.2020
4464 Clear 11 1018 93 6000 3.1 70 02:24 26.12.2020
4465 Clear 12 1020 87 10000 2.1 60 00:28 26.12.2020
4466 Clear 12 1020 87 10000 2.6 60 23:43 25.12.2020
4467 Clear 12 1020 87 10000 2.6 60 23:25 25.12.2020
4468 Clear 12 1020 87 10000 3.1 50 22:50 25.12.2020
4469 Clear 13 1020 82 10000 2.6 50 22:25 25.12.2020
4470 Clear 13 1020 82 10000 4.1 40 21:37 25.12.2020
4471 Clear 13 1020 82 10000 4.1 40 21:19 25.12.2020
4472 Clear 14 1020 76 10000 3.6 50 20:38 25.12.2020
4473 Clear 16 1020 63 10000 6.2 40 19:54 25.12.2020
4474 Clear 16 1020 63 10000 6.2 40 19:36 25.12.2020
4475 Clouds 17 1020 59 10000 6.2 30 18:41 25.12.2020
4476 Clouds 18 1020 59 10000 5.7 10 17:58 25.12.2020
4477 Clouds 18 1020 59 10000 5.7 10 17:35 25.12.2020
4478 Clouds 19 1019 52 10000 6.7 10 16:51 25.12.2020
4479 Clouds 19 1019 52 10000 6.7 10 16:21 25.12.2020
4480 Clouds 20 1019 45 10000 7.2 40 15:49 25.12.2020
4481 Clouds 20 1019 45 10000 7.2 40 15:25 25.12.2020
4482 Clouds 20 1019 45 10000 7.2 20 14:32 25.12.2020
4483 Clouds 19 1018 48 10000 5.7 40 13:49 25.12.2020
4484 Clouds 19 1018 48 10000 5.7 40 13:26 25.12.2020
4485 Clouds 19 1019 52 10000 5.1 30 12:56 25.12.2020
4486 Clouds 19 1019 52 10000 5.1 30 12:27 25.12.2020
4487 Clouds 19 1020 59 10000 4.6 20 11:47 25.12.2020
4488 Clouds 18 1020 59 6000 4.6 20 11:24 25.12.2020
4489 Clouds 18 1021 63 6000 4.6 40 10:43 25.12.2020
4490 Mist 17 1021 67 4000 4.6 360 09:49 25.12.2020
4491 Mist 15 1021 77 4000 3.1 30 09:26 25.12.2020
4492 Mist 14 1021 82 4000 1 30 08:37 25.12.2020
4493 Mist 11 1021 81 4000 2.93 22 06:52 25.12.2020
4494 Mist 10 1021 87 4000 1 80 06:21 25.12.2020
4495 Clear 13 1020 76 6000 3.1 60 02:23 25.12.2020
4496 Clear 13 1020 76 6000 1.51 37 00:35 25.12.2020
4497 Clear 13 1020 76 6000 1.5 90 23:32 24.12.2020
4498 Clouds 14 1020 71 6000 1 70 22:56 24.12.2020
4499 Clear 14 1020 67 6000 2.1 60 22:26 24.12.2020
4500 Clear 14 1020 67 6000 2.6 50 21:53 24.12.2020
4501 Clouds 14 1021 67 6000 1.5 80 21:25 24.12.2020
4502 Clouds 16 1020 67 6000 2.6 360 20:18 24.12.2020
4503 Clouds 17 1020 59 10000 3.1 340 18:22 24.12.2020
4504 Clouds 18 1019 48 10000 2.6 360 17:45 24.12.2020
4505 Clouds 18 1019 48 10000 2.6 360 17:26 24.12.2020
4506 Clouds 18 1019 48 10000 3.1 340 16:27 24.12.2020
4507 Clouds 19 1019 45 10000 3.1 330 15:49 24.12.2020
4508 Clouds 19 1019 42 10000 2.6 360 15:29 24.12.2020
4509 Clouds 19 1019 45 10000 4.1 330 14:58 24.12.2020
4510 Clouds 19 1019 45 10000 4.1 330 14:40 24.12.2020
4511 Clouds 19 1019 45 10000 4.1 330 14:22 24.12.2020
4512 Clouds 19 1019 45 10000 4.1 310 13:39 24.12.2020
4513 Clouds 20 1019 45 10000 4.1 310 13:19 24.12.2020
4514 Clouds 18 1019 52 10000 5.1 300 12:41 24.12.2020
4515 Clouds 18 1019 52 10000 5.1 300 12:19 24.12.2020
4516 Clouds 18 1020 48 10000 3.6 310 11:39 24.12.2020
4517 Clouds 18 1020 48 10000 3.6 310 11:20 24.12.2020
4518 Clouds 18 1021 52 10000 4.6 310 10:49 24.12.2020
4519 Clouds 18 1021 52 6000 3.1 340 10:30 24.12.2020
4520 Haze 18 1022 55 4000 4.23 334 09:51 24.12.2020
4521 Haze 17 1022 63 4000 4.25 337 09:23 24.12.2020
4522 Haze 15 1022 72 2000 4.08 344 07:59 24.12.2020
4523 Haze 15 1021 71 2000 4.08 344 07:38 24.12.2020
4524 Haze 13 1021 71 2000 2.66 346 06:52 24.12.2020
4525 Haze 12 1021 76 2000 3.45 2 04:24 24.12.2020
4526 Clouds 12 1021 71 6000 1.5 10 01:54 24.12.2020
4527 Clouds 12 1021 71 6000 1.5 10 01:30 24.12.2020
4528 Clouds 12 1021 71 6000 1.5 20 00:56 24.12.2020
4529 Clouds 14 1021 67 6000 2.1 350 00:20 24.12.2020
4530 Clouds 14 1021 67 6000 2.1 330 23:40 23.12.2020
4531 Clouds 14 1021 67 6000 2.1 330 23:22 23.12.2020
4532 Clouds 13 1021 71 6000 2.1 330 22:52 23.12.2020
4533 Clouds 15 1022 67 6000 3.6 330 22:29 23.12.2020
4534 Clouds 15 1022 67 6000 3.1 330 21:49 23.12.2020
4535 Clouds 15 1022 72 6000 3.6 320 21:25 23.12.2020
4536 Clouds 14 1022 72 6000 2.1 320 20:49 23.12.2020
4537 Clouds 15 1021 72 6000 3.1 330 20:31 23.12.2020
4538 Clouds 15 1021 67 6000 4.1 330 19:59 23.12.2020
4539 Clouds 16 1021 67 6000 4.1 330 19:38 23.12.2020
4540 Clouds 16 1021 67 6000 3.1 330 19:19 23.12.2020
4541 Clouds 15 1021 67 6000 3.1 330 18:46 23.12.2020
4542 Clouds 17 1020 63 6000 3.1 330 18:21 23.12.2020
4543 Clouds 17 1007 65 10000 6.57 339 17:39 23.12.2020
4544 Clouds 18 1007 65 10000 6.69 335 17:20 23.12.2020
4545 Clouds 18 1007 65 10000 6.69 335 16:43 23.12.2020
4546 Clouds 19 1007 65 10000 5.51 345 16:25 23.12.2020
4547 Clouds 19 1007 65 10000 5.51 345 15:54 23.12.2020
4548 Clouds 19 1007 65 10000 6.25 353 15:28 23.12.2020
4549 Clouds 19 1007 65 10000 6.25 353 14:58 23.12.2020
4550 Clouds 19 1007 65 10000 6.25 353 14:39 23.12.2020
4551 Clouds 19 1007 65 10000 5.64 355 14:20 23.12.2020
4552 Clouds 21 1019 45 10000 5.64 355 13:43 23.12.2020
4553 Clouds 22 1018 44 10000 4.65 352 13:19 23.12.2020
4554 Clouds 22 1018 43 10000 5.08 345 12:51 23.12.2020
4555 Clouds 21 1019 45 10000 4.3 340 12:25 23.12.2020
4556 Clouds 21 1019 45 10000 4.3 340 11:47 23.12.2020
4557 Clouds 20 1019 49 10000 4.09 336 11:19 23.12.2020
4558 Clouds 20 1019 49 10000 4.09 336 10:48 23.12.2020
4559 Clouds 18 1007 61 10000 4.02 334 10:30 23.12.2020
4560 Mist 16 1021 87 1500 2.1 320 09:35 23.12.2020
4561 Mist 16 1021 87 1500 2.1 320 08:49 23.12.2020
4562 Mist 15 1021 87 1500 2.89 344 08:21 23.12.2020
4563 Mist 13 1021 93 1500 1.95 337 07:27 23.12.2020
4564 Mist 13 1020 93 1500 1 120 06:41 23.12.2020
4565 Mist 13 1020 87 2000 1.98 342 05:39 23.12.2020
4566 Mist 14 1020 87 2000 1.79 346 04:58 23.12.2020
4567 Mist 14 1020 76 2000 1 50 01:31 23.12.2020
4568 Haze 14 1020 82 4000 1.5 60 00:21 23.12.2020
4569 Haze 14 1020 82 4000 1.5 60 00:21 23.12.2020
4570 Haze 15 1020 77 4000 2.1 360 23:36 22.12.2020
4571 Haze 15 1021 77 4000 1.5 10 23:18 22.12.2020
4572 Haze 15 1021 77 4000 2.6 20 22:41 22.12.2020
4573 Haze 15 1021 77 4000 2.6 20 22:20 22.12.2020
4574 Haze 15 1021 72 4000 3.6 10 21:45 22.12.2020
4575 Haze 16 1021 72 4000 3.6 10 21:20 22.12.2020
4576 Haze 16 1021 77 4000 3.6 360 20:50 22.12.2020
4577 Haze 16 1021 77 4000 4.1 360 20:25 22.12.2020
4578 Haze 17 1021 72 4000 4.6 350 19:50 22.12.2020
4579 Haze 17 1020 77 4000 4.1 350 19:26 22.12.2020
4580 Haze 17 1020 77 4000 4.6 350 18:57 22.12.2020
4581 Haze 17 1020 77 4000 4.6 350 18:38 22.12.2020
4582 Clouds 18 1020 72 6000 4.6 340 18:19 22.12.2020
4583 Clouds 18 1020 68 6000 4.6 330 17:36 22.12.2020
4584 Clouds 18 1020 68 6000 4.6 330 17:36 22.12.2020
4585 Clouds 18 1020 68 6000 4.6 340 17:18 22.12.2020
4586 Clouds 18 1019 63 6000 4.6 350 16:46 22.12.2020
4587 Clouds 19 1019 63 6000 4.6 350 16:19 22.12.2020
4588 Clouds 20 1019 64 6000 4.6 350 15:45 22.12.2020
4589 Clouds 21 1019 56 10000 5.1 350 15:27 22.12.2020
4590 Clouds 21 1019 52 10000 4.1 340 14:55 22.12.2020
4591 Clouds 22 1019 53 10000 5.1 350 14:37 22.12.2020
4592 Clouds 22 1019 53 10000 5.1 350 14:18 22.12.2020
4593 Clouds 22 1019 49 10000 4.1 10 13:42 22.12.2020
4594 Clouds 22 1019 49 6000 4.1 20 13:18 22.12.2020
4595 Clouds 21 1019 52 6000 3.6 10 12:43 22.12.2020
4596 Clouds 21 1019 52 6000 3.6 10 12:25 22.12.2020
4597 Clouds 20 1019 60 6000 4.6 30 11:56 22.12.2020
4598 Clouds 20 1019 60 6000 5.7 40 11:38 22.12.2020
4599 Clouds 20 1020 64 6000 5.7 40 11:19 22.12.2020
4600 Clouds 20 1020 64 6000 5.7 40 10:46 22.12.2020
4601 Clouds 19 1020 72 6000 4.6 20 10:23 22.12.2020
4602 Mist 19 1020 72 3000 4.1 20 09:55 22.12.2020
4603 Mist 17 1021 82 3000 3.6 20 09:21 22.12.2020
4604 Mist 16 1021 100 3000 2.1 10 08:48 22.12.2020
4605 Mist 15 1021 100 3000 2.1 10 08:27 22.12.2020
4606 Mist 15 1020 100 3000 2.6 70 07:47 22.12.2020
4607 Mist 14 1020 100 3000 4.1 80 06:38 22.12.2020
4608 Mist 13 1020 100 3000 4.1 80 05:41 22.12.2020
4609 Clouds 13 1019 100 6000 2.6 60 02:51 22.12.2020
4610 Clouds 13 1019 93 6000 2.6 80 00:44 22.12.2020
4611 Clouds 14 1019 93 6000 3.6 60 23:52 21.12.2020
4612 Clouds 14 1020 93 6000 3.6 60 23:31 21.12.2020
4613 Clouds 14 1020 87 6000 4.1 50 22:38 21.12.2020
4614 Clouds 15 1020 87 6000 4.1 50 22:19 21.12.2020
4615 Clouds 15 1020 87 6000 4.1 50 21:57 21.12.2020
4616 Clouds 15 1020 82 6000 4.1 50 21:39 21.12.2020
4617 Clouds 16 1020 82 6000 3.6 40 21:18 21.12.2020
4618 Clouds 17 1020 77 6000 3.1 40 20:27 21.12.2020
4619 Clouds 17 1020 77 6000 3.6 40 19:58 21.12.2020
4620 Clouds 17 1020 72 6000 4.1 40 19:39 21.12.2020
4621 Clouds 17 1020 72 6000 4.1 40 19:18 21.12.2020
4622 Clouds 17 1020 72 10000 4.1 40 18:51 21.12.2020
4623 Clouds 18 1020 68 10000 5.1 30 18:32 21.12.2020
4624 Clouds 20 1019 60 10000 4.6 10 17:43 21.12.2020
4625 Clouds 20 1019 60 10000 4.6 10 17:24 21.12.2020
4626 Clouds 20 1019 56 10000 7.2 10 16:47 21.12.2020
4627 Clouds 20 1019 56 10000 5.7 20 16:27 21.12.2020
4628 Clear 21 1019 56 10000 5.1 20 15:54 21.12.2020
4629 Clear 21 1019 49 10000 6.2 20 15:35 21.12.2020
4630 Clear 21 1019 52 10000 6.7 360 14:57 21.12.2020
4631 Clear 21 1019 49 10000 5.1 20 14:21 21.12.2020
4632 Clear 21 1019 52 10000 6.7 360 13:44 21.12.2020
4633 Clear 21 1019 52 10000 6.7 360 13:26 21.12.2020
4634 Clear 21 1019 52 10000 4.1 30 12:45 21.12.2020
4635 Clear 20 1019 52 10000 4.1 30 12:25 21.12.2020
4636 Clear 20 1019 56 10000 7.2 10 11:58 21.12.2020
4637 Clear 20 1020 56 10000 6.2 30 11:40 21.12.2020
4638 Clear 20 1020 56 10000 6.2 30 11:22 21.12.2020
4639 Clear 20 1020 60 10000 5.1 10 10:48 21.12.2020
4640 Clear 19 1020 63 10000 3.1 340 10:30 21.12.2020
4641 Clear 18 1021 68 6000 3.6 350 09:47 21.12.2020
4642 Clear 17 1021 72 6000 4.1 10 09:25 21.12.2020
4643 Mist 17 1021 82 4000 4.1 10 08:52 21.12.2020
4644 Mist 14 1021 100 4000 2.1 40 07:52 21.12.2020
4645 Clouds 12 1020 93 6000 4.6 80 06:47 21.12.2020
4646 Clouds 12 1020 93 6000 2.6 70 04:58 21.12.2020
4647 Clouds 13 1021 93 6000 2.6 70 01:28 21.12.2020
4648 Clouds 13 1020 87 10000 1.5 60 00:33 21.12.2020
4649 Clouds 14 1021 87 10000 3.1 70 23:36 20.12.2020
4650 Clouds 13 1021 93 10000 3.1 80 22:59 20.12.2020
4651 Clouds 14 1021 87 10000 3.6 50 22:41 20.12.2020
4652 Clouds 14 1021 87 10000 3.6 50 22:22 20.12.2020
4653 Clouds 14 1021 82 10000 3.6 50 21:40 20.12.2020
4654 Clouds 14 1021 82 10000 3.6 50 21:21 20.12.2020
4655 Clouds 15 1021 77 10000 4.1 40 20:52 20.12.2020
4656 Clouds 15 1021 77 10000 5.1 50 20:26 20.12.2020
4657 Clouds 16 1021 72 10000 5.1 40 19:51 20.12.2020
4658 Clouds 17 1021 67 10000 5.1 20 19:33 20.12.2020
4659 Clouds 17 1021 67 10000 5.1 30 18:59 20.12.2020
4660 Clouds 17 1021 63 10000 7.2 20 18:41 20.12.2020
4661 Clouds 18 1021 63 10000 7.2 20 18:22 20.12.2020
4662 Clouds 18 1021 63 10000 5.7 360 17:45 20.12.2020
4663 Clouds 19 1021 63 10000 5.7 360 17:27 20.12.2020
4664 Clouds 19 1020 63 10000 5.7 350 16:47 20.12.2020
4665 Clouds 20 1020 52 10000 6.2 10 16:27 20.12.2020
4666 Clouds 20 1020 52 10000 5.7 20 15:50 20.12.2020
4667 Clouds 20 1020 49 10000 7.2 20 15:25 20.12.2020
4668 Clouds 20 1020 49 10000 7.2 20 14:55 20.12.2020
4669 Clouds 21 1020 46 10000 7.7 10 14:33 20.12.2020
4670 Clouds 21 1020 49 10000 8.7 30 13:47 20.12.2020
4671 Clouds 21 1020 46 10000 7.7 30 13:28 20.12.2020
4672 Clouds 21 1020 46 10000 8.2 20 12:58 20.12.2020
4673 Clouds 21 1020 49 10000 7.7 40 12:39 20.12.2020
4674 Clouds 20 1020 49 10000 7.7 40 12:21 20.12.2020
4675 Clear 20 1022 77 10000 5.1 40 11:44 20.12.2020
4676 Clear 19 1022 77 10000 5.1 40 11:25 20.12.2020
4677 Clear 19 1022 77 10000 5.1 40 10:48 20.12.2020
4678 Clear 17 1022 100 6000 4.6 30 10:20 20.12.2020
4679 Clear 15 1022 100 6000 4.6 30 09:46 20.12.2020
4680 Clear 15 1022 100 6000 4.6 30 09:27 20.12.2020
4681 Clear 13 1022 100 6000 2.1 20 08:59 20.12.2020
4682 Mist 13 1022 100 2000 2.1 20 08:39 20.12.2020
4683 Fog 13 1022 100 200 2.1 40 07:28 20.12.2020
4684 Fog 13 1021 100 200 2.6 70 05:52 20.12.2020
4685 Mist 13 1021 93 3000 3.6 70 02:24 20.12.2020
4686 Clear 14 1021 87 6000 4.1 70 00:39 20.12.2020
4687 Clear 14 1022 87 6000 3.6 70 23:22 19.12.2020
4688 Clear 14 1022 87 6000 3.6 70 22:59 19.12.2020
4689 Clear 14 1022 87 6000 1 80 22:40 19.12.2020
4690 Clear 14 1022 87 6000 1 80 22:20 19.12.2020
4691 Clear 15 1022 82 10000 2.6 40 21:43 19.12.2020
4692 Clear 15 1022 82 10000 2.6 40 21:25 19.12.2020
4693 Clear 15 1022 82 10000 3.1 30 20:48 19.12.2020
4694 Clear 15 1022 82 10000 3.1 40 20:24 19.12.2020
4695 Clear 16 1022 77 10000 2.6 30 19:58 19.12.2020
4696 Clear 17 1022 72 10000 4.6 30 19:38 19.12.2020
4697 Clear 17 1022 72 10000 4.6 30 19:19 19.12.2020
4698 Clear 18 1022 68 6000 4.6 30 18:33 19.12.2020
4699 Clouds 19 1022 59 10000 3.6 20 17:55 19.12.2020
4700 Clouds 19 1021 59 10000 4.6 20 17:31 19.12.2020
4701 Clouds 20 1021 56 10000 5.7 30 16:58 19.12.2020
4702 Clouds 20 1021 56 10000 5.7 30 16:38 19.12.2020
4703 Clouds 20 1021 56 10000 5.7 30 16:38 19.12.2020
4704 Clouds 20 1021 56 10000 5.7 30 16:20 19.12.2020
4705 Clouds 20 1021 56 10000 5.1 20 15:49 19.12.2020
4706 Clouds 20 1021 56 10000 5.1 20 15:20 19.12.2020
4707 Clouds 21 1020 49 10000 7.2 50 14:37 19.12.2020
4708 Clouds 21 1021 52 10000 6.7 20 13:55 19.12.2020
4709 Clouds 20 1021 52 10000 6.7 20 13:36 19.12.2020
4710 Clouds 20 1021 52 10000 6.7 20 13:18 19.12.2020
4711 Clouds 20 1021 56 10000 7.2 30 12:41 19.12.2020
4712 Clouds 20 1021 56 10000 7.2 30 12:21 19.12.2020
4713 Clouds 20 1021 56 10000 7.7 40 11:48 19.12.2020
4714 Clouds 20 1021 60 10000 7.2 30 11:19 19.12.2020
4715 Clear 20 1022 68 10000 6.7 40 10:42 19.12.2020
4716 Clear 19 1022 68 10000 6.7 40 10:19 19.12.2020
4717 Mist 17 1023 88 2000 3.1 30 09:42 19.12.2020
4718 Mist 16 1023 93 2000 3.1 30 08:59 19.12.2020
4719 Mist 15 1023 93 2000 2.1 10 08:23 19.12.2020
4720 Mist 13 1023 93 2000 3.86 32 07:22 19.12.2020
4721 Mist 13 1022 93 1500 3.7 33 06:51 19.12.2020
4722 Mist 12 1022 93 4000 1.5 70 05:25 19.12.2020
4723 Clear 13 1022 87 6000 1 70 03:55 19.12.2020
4724 Clear 13 1022 87 6000 2.1 40 01:36 19.12.2020
4725 Clear 14 1022 82 10000 2.1 50 00:36 19.12.2020
4726 Clear 14 1022 82 10000 2.1 50 00:18 19.12.2020
4727 Clouds 14 1022 82 10000 2.6 50 23:44 18.12.2020
4728 Clouds 15 1022 82 10000 2.6 50 23:22 18.12.2020
4729 Clouds 15 1022 82 10000 4.6 50 22:45 18.12.2020
4730 Clouds 15 1022 82 10000 4.6 50 22:21 18.12.2020
4731 Clouds 15 1022 77 10000 4.1 40 21:47 18.12.2020
4732 Clouds 16 1022 72 10000 4.1 40 21:28 18.12.2020
4733 Clouds 16 1022 72 10000 4.1 40 20:40 18.12.2020
4734 Clouds 16 1022 72 10000 4.6 40 20:19 18.12.2020
4735 Clear 19 1022 63 10000 3.58 20 19:41 18.12.2020
4736 Clear 18 1008 59 10000 5.81 40 19:20 18.12.2020
4737 Clear 18 1021 58 10000 6.13 39 18:40 18.12.2020
4738 Clear 18 1008 59 10000 5.85 42 18:22 18.12.2020
4739 Clear 19 1008 59 10000 6.11 44 17:24 18.12.2020
4740 Clear 20 1008 59 10000 6.11 44 16:49 18.12.2020
4741 Clear 20 1008 59 10000 4.89 51 16:27 18.12.2020
4742 Clear 20 1008 59 10000 4.89 51 15:59 18.12.2020
4743 Clear 21 1008 59 10000 4.89 51 15:41 18.12.2020
4744 Clear 20 1008 59 10000 4.05 50 15:22 18.12.2020
4745 Clear 21 1008 59 10000 4.05 50 14:54 18.12.2020
4746 Clear 21 1008 59 10000 3.65 44 14:21 18.12.2020
4747 Clear 22 1009 56 10000 3.65 44 13:50 18.12.2020
4748 Clear 21 1009 56 10000 3.65 37 13:27 18.12.2020
4749 Clear 20 1009 56 10000 3.7 38 12:47 18.12.2020
4750 Clear 19 1009 56 10000 3.65 34 11:59 18.12.2020
4751 Clear 18 1009 56 10000 3.83 33 11:23 18.12.2020
4752 Clear 21 1021 46 10000 3.83 33 10:40 18.12.2020
4753 Clear 21 1021 46 10000 3.83 33 10:40 18.12.2020
4754 Clear 17 1009 56 10000 3.38 29 10:20 18.12.2020
4755 Clear 19 1022 52 10000 3.38 29 09:39 18.12.2020
4756 Clear 18 1022 60 10000 2.41 18 09:21 18.12.2020
4757 Clear 18 1022 60 10000 2.41 18 09:21 18.12.2020
4758 Clear 18 1022 60 10000 2.41 18 08:54 18.12.2020
4759 Clear 14 1023 87 10000 1.34 70 08:30 18.12.2020
4760 Fog 13 1021 93 800 1.92 15 07:39 18.12.2020
4761 Clear 13 1008 58 10000 1.77 17 07:18 18.12.2020
4762 Clear 14 1023 87 10000 1.34 70 06:51 18.12.2020
4763 Clear 13 1008 58 10000 1.67 7 05:42 18.12.2020
4764 Clear 14 1021 87 10000 0.89 140 04:51 18.12.2020
4765 Clear 14 1021 87 10000 0.89 140 04:51 18.12.2020
4766 Clear 16 1021 82 10000 2.35 343 02:24 18.12.2020
4767 Clear 14 1021 78 10000 2.35 343 01:40 18.12.2020
4768 Clear 17 1021 67 10000 2.42 360 00:27 18.12.2020
4769 Clear 17 1021 67 10000 2.42 360 23:50 17.12.2020
4770 Clear 17 1021 67 10000 2.92 14 23:19 17.12.2020
4771 Clear 15 1021 74 10000 2.92 14 22:47 17.12.2020
4772 Clear 16 1022 73 10000 3.39 14 22:26 17.12.2020
4773 Clear 16 1022 73 10000 3.39 14 21:43 17.12.2020
4774 Clear 17 1022 70 10000 3.85 15 21:19 17.12.2020
4775 Clear 17 1022 70 10000 3.85 15 20:43 17.12.2020
4776 Clear 17 1021 68 10000 4.33 16 20:19 17.12.2020
4777 Clear 17 1021 68 10000 4.33 16 19:49 17.12.2020
4778 Clouds 18 1021 64 10000 4.47 18 19:25 17.12.2020
4779 Clouds 18 1021 64 10000 4.47 18 18:47 17.12.2020
4780 Clouds 18 1007 64 10000 4.32 27 18:27 17.12.2020
4781 Clouds 18 1007 64 10000 4.32 27 17:58 17.12.2020
4782 Clouds 19 1020 58 10000 4.32 27 17:38 17.12.2020
4783 Clouds 20 1007 64 10000 4.21 34 17:20 17.12.2020
4784 Clouds 20 1020 49 6000 2.1 320 16:37 17.12.2020
4785 Clouds 20 1007 64 10000 2.31 31 16:19 17.12.2020
4786 Clouds 20 1007 64 10000 2.31 31 15:44 17.12.2020
4787 Clouds 21 1007 64 10000 1.44 28 15:26 17.12.2020
4788 Clouds 21 1007 64 10000 1.44 28 14:48 17.12.2020
4789 Clouds 21 1007 64 10000 1.02 22 14:20 17.12.2020
4790 Clouds 21 1008 62 10000 1.02 22 13:48 17.12.2020
4791 Haze 20 1020 60 3000 2.1 280 13:20 17.12.2020
4792 Haze 20 1020 60 3000 2.1 280 12:41 17.12.2020
4793 Haze 20 1020 60 3000 2.1 280 12:22 17.12.2020
4794 Haze 19 1021 68 800 2.1 280 11:42 17.12.2020
4795 Haze 19 1021 68 800 2.1 280 11:22 17.12.2020
4796 Haze 19 1021 68 1000 1.5 250 10:48 17.12.2020
4797 Mist 19 1021 68 3000 2.1 220 09:40 17.12.2020
4798 Mist 18 1021 77 3000 1.08 267 08:57 17.12.2020
4799 Mist 15 1021 82 3000 1.5 210 07:44 17.12.2020
4800 Mist 15 1021 82 3000 1.5 210 07:25 17.12.2020
4801 Mist 15 1021 87 4000 2.1 230 06:50 17.12.2020
4802 Mist 15 1021 87 4000 2.1 230 06:32 17.12.2020
4803 Mist 15 1019 82 4000 2.6 220 03:31 17.12.2020
4804 Clear 16 1020 82 6000 2.1 220 00:29 17.12.2020
4805 Clear 17 1020 77 10000 2.6 220 23:50 16.12.2020
4806 Clear 17 1020 77 10000 2.6 220 23:19 16.12.2020
4807 Clear 16 1020 77 10000 2.6 220 22:50 16.12.2020
4808 Clear 17 1020 77 10000 2.6 240 22:31 16.12.2020
4809 Clear 15 1019 77 10000 2.1 240 21:46 16.12.2020
4810 Clear 16 1019 77 10000 2.1 240 21:26 16.12.2020
4811 Clear 16 1019 77 10000 2.6 220 20:52 16.12.2020
4812 Clear 16 1019 77 10000 2.1 210 20:20 16.12.2020
4813 Clear 15 1019 77 10000 1.5 200 19:45 16.12.2020
4814 Clouds 15 1019 77 10000 1.5 170 19:18 16.12.2020
4815 Clouds 15 1019 77 10000 1.5 170 18:52 16.12.2020
4816 Clouds 16 1019 72 10000 2.1 100 18:27 16.12.2020
4817 Clouds 17 1018 67 10000 4.6 50 17:43 16.12.2020
4818 Clouds 18 1018 68 10000 2.1 260 16:58 16.12.2020
4819 Clouds 18 1018 68 10000 4.1 270 16:39 16.12.2020
4820 Clouds 19 1017 59 10000 4.1 290 16:20 16.12.2020
4821 Clouds 19 1017 59 10000 4.1 290 15:49 16.12.2020
4822 Clouds 19 1017 59 10000 4.1 270 15:24 16.12.2020
4823 Clouds 19 1017 63 10000 5.1 260 14:46 16.12.2020
4824 Rain 19 1017 63 10000 5.1 260 14:28 16.12.2020
4825 Rain 19 1016 63 10000 5.7 260 13:45 16.12.2020
4826 Rain 19 1016 63 10000 5.7 260 13:27 16.12.2020
4827 Rain 20 1016 63 10000 6.2 240 12:55 16.12.2020
4828 Rain 18 1016 68 10000 5.1 200 12:34 16.12.2020
4829 Rain 19 1017 68 6000 5.1 210 11:39 16.12.2020
4830 Rain 18 1017 68 6000 5.1 210 11:20 16.12.2020
4831 Rain 18 1017 72 4000 5.1 200 10:43 16.12.2020
4832 Mist 17 1017 77 3000 4.6 210 10:19 16.12.2020
4833 Mist 17 1017 77 3000 4.6 210 09:40 16.12.2020
4834 Clouds 15 1017 82 6000 4.6 190 08:27 16.12.2020
4835 Clouds 15 1017 82 10000 5.1 200 07:49 16.12.2020
4836 Clouds 15 1017 77 10000 5.1 210 07:30 16.12.2020
4837 Clouds 15 1017 77 10000 4.1 220 06:41 16.12.2020
4838 Clouds 17 1015 72 10000 6.2 220 02:26 16.12.2020
4839 Rain 17 1015 77 10000 5.1 230 00:23 16.12.2020
4840 Rain 16 1015 72 10000 5.1 220 23:44 15.12.2020
4841 Rain 17 1015 72 10000 5.1 230 22:46 15.12.2020
4842 Rain 17 1015 72 10000 6.2 240 22:24 15.12.2020
4843 Rain 17 1015 68 10000 7.2 240 21:51 15.12.2020
4844 Clouds 18 1014 63 10000 6.7 240 21:25 15.12.2020
4845 Clouds 18 1013 52 10000 6.7 200 20:58 15.12.2020
4846 Clouds 18 1013 52 10000 6.7 200 20:39 15.12.2020
4847 Clouds 18 1013 48 10000 7.7 210 20:21 15.12.2020
4848 Clouds 18 1013 48 10000 7.7 210 19:42 15.12.2020
4849 Clouds 19 1013 48 10000 7.7 210 19:23 15.12.2020
4850 Clouds 19 1013 48 10000 7.2 210 18:39 15.12.2020
4851 Clouds 19 1013 48 10000 7.2 210 18:21 15.12.2020
4852 Clouds 19 1013 45 10000 8.7 220 17:43 15.12.2020
4853 Clouds 19 1013 45 10000 8.7 220 17:23 15.12.2020
4854 Clouds 19 1012 42 10000 8.7 220 16:38 15.12.2020
4855 Clouds 20 1012 42 10000 8.7 220 16:19 15.12.2020
4856 Clouds 20 1012 45 10000 9.8 230 15:37 15.12.2020
4857 Clouds 20 1012 45 10000 9.8 230 15:18 15.12.2020
4858 Clouds 20 1011 45 10000 10.3 230 14:41 15.12.2020
4859 Clouds 20 1011 45 10000 10.8 230 14:19 15.12.2020
4860 Clouds 20 1011 45 10000 10.3 230 13:48 15.12.2020
4861 Clouds 20 1011 45 10000 10.3 230 13:23 15.12.2020
4862 Clouds 20 1011 45 10000 10.8 240 12:45 15.12.2020
4863 Clouds 19 1011 52 10000 10.3 210 12:19 15.12.2020
4864 Clouds 19 1011 52 10000 10.3 210 11:50 15.12.2020
4865 Clouds 19 1011 48 10000 10.8 210 11:22 15.12.2020
4866 Clouds 18 1012 52 10000 10.3 210 10:47 15.12.2020
4867 Clouds 17 1012 55 10000 8.7 210 10:20 15.12.2020
4868 Clouds 15 1013 58 10000 11.3 200 09:42 15.12.2020
4869 Clouds 15 1013 58 10000 11.3 200 09:23 15.12.2020
4870 Clouds 15 1012 58 10000 10.8 190 08:41 15.12.2020
4871 Clouds 15 1012 58 10000 10.8 190 08:21 15.12.2020
4872 Clouds 14 1012 58 10000 8.7 190 07:44 15.12.2020
4873 Clouds 14 1012 58 10000 8.7 200 06:59 15.12.2020
4874 Clouds 14 1011 58 10000 9.3 200 05:37 15.12.2020
4875 Clouds 15 1010 54 6000 10.3 210 00:54 15.12.2020
4876 Clouds 15 1010 48 6000 9.3 210 23:54 14.12.2020
4877 Clouds 16 1010 48 6000 9.3 210 23:21 14.12.2020
4878 Clouds 16 1010 45 6000 8.2 220 22:44 14.12.2020
4879 Clouds 17 1010 45 6000 8.2 220 22:22 14.12.2020
4880 Clear 16 1010 45 6000 10.3 230 21:41 14.12.2020
4881 Clear 17 1010 45 6000 8.2 220 21:19 14.12.2020
4882 Clear 17 1010 39 6000 8.2 220 20:48 14.12.2020
4883 Clear 18 1010 39 6000 8.2 220 20:27 14.12.2020
4884 Clear 18 1010 36 6000 8.2 220 19:49 14.12.2020
4885 Clear 18 1010 36 6000 8.2 220 19:28 14.12.2020
4886 Clear 19 1010 32 6000 8.2 220 18:44 14.12.2020
4887 Clear 19 1010 32 6000 8.2 220 18:24 14.12.2020
4888 Clear 19 1010 34 6000 8.2 220 17:45 14.12.2020
4889 Clear 19 1010 34 6000 8.2 220 17:22 14.12.2020
4890 Sand 19 1009 34 4000 9.8 220 16:50 14.12.2020
4891 Sand 19 1009 34 4000 9.3 220 16:28 14.12.2020
4892 Sand 20 1009 28 4000 10.3 230 15:33 14.12.2020
4893 Sand 21 1008 23 4000 10.8 240 14:54 14.12.2020
4894 Sand 21 1009 26 4000 10.8 230 14:36 14.12.2020
4895 Clouds 21 1009 26 6000 10.8 220 14:18 14.12.2020
4896 Clouds 20 1009 35 6000 8.7 230 13:39 14.12.2020
4897 Clouds 21 1009 35 6000 8.7 230 13:18 14.12.2020
4898 Clouds 21 1009 37 6000 8.2 220 12:44 14.12.2020
4899 Clouds 20 1009 37 6000 8.2 220 12:23 14.12.2020
4900 Clouds 20 1009 40 6000 9.8 210 11:31 14.12.2020
4901 Clouds 20 1010 43 6000 8.7 220 10:30 14.12.2020
4902 Clouds 21 1010 43 6000 8.2 230 09:58 14.12.2020
4903 Clouds 20 1010 42 6000 4.6 180 09:29 14.12.2020
4904 Clouds 20 1010 42 6000 4.6 170 08:46 14.12.2020
4905 Clouds 20 1010 42 6000 4.6 170 08:27 14.12.2020
4906 Clouds 18 1010 36 6000 3.1 190 07:27 14.12.2020
4907 Clouds 18 1009 31 6000 4.6 220 06:45 14.12.2020
4908 Clouds 20 1008 28 10000 5.1 210 04:52 14.12.2020
4909 Clouds 21 1007 24 10000 8.2 180 02:26 14.12.2020
4910 Clouds 23 1007 25 10000 8.2 190 00:55 14.12.2020
4911 Clouds 24 1007 22 10000 7.7 220 00:31 14.12.2020
4912 Clouds 24 1007 23 10000 8.2 180 23:48 13.12.2020
4913 Clouds 24 1007 23 10000 8.2 180 23:27 13.12.2020
4914 Clouds 24 1007 23 10000 8.2 180 22:46 13.12.2020
4915 Clouds 25 1007 22 10000 8.7 180 22:20 13.12.2020
4916 Clouds 24 1007 22 10000 6.7 170 21:42 13.12.2020
4917 Clouds 25 1007 22 10000 6.7 170 21:24 13.12.2020
4918 Clear 21 999 22 10000 6.14 179 20:35 13.12.2020
4919 Clouds 21 1008 30 10000 4.52 174 19:57 13.12.2020
4920 Clouds 21 1008 30 10000 4.52 174 19:37 13.12.2020
4921 Clouds 21 1008 30 10000 3.31 160 19:19 13.12.2020
4922 Clouds 21 1008 28 10000 2.1 100 18:42 13.12.2020
4923 Clouds 22 1008 26 10000 2.1 120 18:20 13.12.2020
4924 Clouds 22 1008 26 10000 2.06 159 17:47 13.12.2020
4925 Clouds 23 1008 26 10000 2.17 214 17:21 13.12.2020
4926 Clouds 24 1008 23 10000 1 190 16:56 13.12.2020
4927 Clouds 24 1008 23 10000 1 190 16:56 13.12.2020
4928 Clouds 24 1008 22 10000 2.6 180 16:38 13.12.2020
4929 Clouds 27 1009 19 10000 2.6 200 16:19 13.12.2020
4930 Clouds 27 1009 19 10000 2.6 200 15:40 13.12.2020
4931 Clouds 27 1009 19 10000 2.6 200 15:22 13.12.2020
4932 Clouds 27 1009 18 10000 4.6 200 14:44 13.12.2020
4933 Clouds 27 1009 18 10000 4.6 200 14:21 13.12.2020
4934 Clouds 27 1010 19 10000 6.2 210 13:43 13.12.2020
4935 Clouds 26 1010 19 10000 6.2 210 13:25 13.12.2020
4936 Clouds 26 1010 19 10000 6.7 190 12:49 13.12.2020
4937 Clouds 26 1010 19 10000 6.7 190 12:23 13.12.2020
4938 Clouds 26 1011 17 10000 6.7 190 11:42 13.12.2020
4939 Clouds 25 1013 18 6000 4.6 180 10:56 13.12.2020
4940 Clouds 25 1013 18 6000 4.6 180 10:38 13.12.2020
4941 Clouds 24 1013 23 6000 3.1 170 09:57 13.12.2020
4942 Haze 24 1013 23 3000 3.1 170 09:27 13.12.2020
4943 Dust 20 1013 26 1000 1.5 290 08:35 13.12.2020
4944 Dust 19 1013 32 1000 5.77 185 07:51 13.12.2020
4945 Dust 17 1013 33 4000 2.6 90 04:48 13.12.2020
4946 Dust 17 1013 33 4000 0.96 70 02:42 13.12.2020
4947 Clouds 17 1013 39 6000 1.26 28 01:58 13.12.2020
4948 Clouds 18 1013 36 6000 1.04 32 00:51 13.12.2020
4949 Clouds 17 1013 42 6000 1.48 36 00:28 13.12.2020
4950 Clouds 16 1013 48 6000 1 120 23:32 12.12.2020
4951 Clouds 17 1014 45 6000 1 90 22:53 12.12.2020
4952 Clouds 17 1014 45 6000 1.5 80 22:20 12.12.2020
4953 Clouds 17 1014 45 6000 1.5 80 21:42 12.12.2020
4954 Clouds 17 1014 45 6000 1.5 80 21:18 12.12.2020
4955 Clouds 18 1014 45 6000 2.1 100 20:36 12.12.2020
4956 Clouds 18 1014 45 6000 2.1 100 20:18 12.12.2020
4957 Clouds 18 1014 45 6000 1.5 50 19:46 12.12.2020
4958 Clouds 18 1014 45 6000 1.5 50 19:27 12.12.2020
4959 Clouds 19 1014 45 6000 2.6 340 18:45 12.12.2020
4960 Clouds 19 1014 45 6000 2.6 340 18:27 12.12.2020
4961 Clouds 20 1014 32 6000 2.47 25 17:47 12.12.2020
4962 Clouds 21 1013 32 6000 1 180 16:57 12.12.2020
4963 Clouds 21 1013 32 6000 2.1 170 16:21 12.12.2020
4964 Clouds 22 1013 30 6000 1.5 180 15:50 12.12.2020
4965 Clouds 22 1013 30 6000 1.5 240 15:31 12.12.2020
4966 Clouds 22 1013 30 6000 2.6 240 14:49 12.12.2020
4967 Clouds 23 1013 30 6000 4.1 240 13:57 12.12.2020
4968 Clouds 22 1013 28 6000 4.1 220 13:38 12.12.2020
4969 Clouds 22 1013 28 6000 4.1 220 13:19 12.12.2020
4970 Dust 22 1013 28 3000 4.6 210 12:29 12.12.2020
4971 Dust 21 1015 34 3000 3.6 220 10:55 12.12.2020
4972 Dust 20 1015 37 3000 4.1 220 09:50 12.12.2020
4973 Dust 18 1016 39 2000 3.6 220 08:57 12.12.2020
4974 Dust 16 1014 36 4000 3.6 170 03:33 12.12.2020
4975 Dust 16 1015 38 4000 4.1 170 00:28 12.12.2020
4976 Dust 17 1016 34 4000 2.1 250 22:47 11.12.2020
4977 Dust 18 1016 31 4000 3.1 190 20:51 11.12.2020
4978 Clouds 20 1015 24 6000 4.6 190 18:56 11.12.2020
4979 Clouds 23 1014 17 6000 3.6 190 16:44 11.12.2020
4980 Sand 25 1014 14 4000 6.2 210 14:19 11.12.2020
4981 Sand 25 1014 14 4000 6.2 210 13:25 11.12.2020
4982 Sand 25 1015 11 4000 8.2 170 12:21 11.12.2020
4983 Clouds 25 1016 12 6000 4.6 190 11:52 11.12.2020
4984 Clouds 25 1016 12 6000 4.6 190 10:56 11.12.2020
4985 Haze 23 1017 15 4000 3.6 220 09:58 11.12.2020
4986 Haze 17 1016 27 2000 1 210 06:26 11.12.2020
4987 Haze 17 1015 27 2000 4.6 170 05:20 11.12.2020
4988 Haze 14 1016 41 2000 2.08 176 02:40 11.12.2020
4989 Haze 15 1017 47 2000 3.1 160 00:40 11.12.2020
4990 Haze 16 1017 48 3000 4.1 150 23:25 10.12.2020
4991 Clear 17 1017 30 10000 4.1 120 21:37 10.12.2020
4992 Clear 17 1018 33 10000 3.6 120 20:50 10.12.2020
4993 Clear 18 1018 31 10000 4.1 120 19:52 10.12.2020
4994 Clear 17 1018 31 10000 3.6 110 19:21 10.12.2020
4995 Clear 18 1018 25 10000 2.6 80 18:45 10.12.2020
4996 Clear 19 1017 22 10000 2.57 81 17:23 10.12.2020
4997 Clear 22 1017 18 10000 1.5 50 15:52 10.12.2020
4998 Clear 22 1017 19 10000 2.6 40 15:19 10.12.2020
4999 Clear 23 1017 20 10000 2.6 10 14:42 10.12.2020
5000 Clear 23 1017 23 10000 1.5 60 13:26 10.12.2020
5001 Clear 22 1018 28 10000 3.1 50 11:53 10.12.2020
5002 Clear 21 1019 40 10000 4.6 50 10:46 10.12.2020
5003 Clear 17 1021 55 10000 1.5 30 08:20 10.12.2020
5004 Clear 14 1021 71 10000 2.1 70 06:59 10.12.2020
5005 Clear 12 1021 71 10000 2.1 70 05:34 10.12.2020
5006 Clear 13 1021 66 10000 2.1 80 02:31 10.12.2020
5007 Clear 14 1021 62 10000 3.6 90 01:25 10.12.2020
5008 Clear 14 1022 58 10000 4.1 80 23:42 09.12.2020
5009 Clear 16 1022 55 10000 4.1 70 20:39 09.12.2020
5010 Clear 17 1021 51 10000 4.1 70 19:46 09.12.2020
5011 Clear 18 1021 45 10000 3.1 50 18:36 09.12.2020
5012 Clear 20 1021 40 10000 4.6 350 17:19 09.12.2020
5013 Clear 21 1020 37 10000 4.1 350 16:26 09.12.2020
5014 Clear 22 1020 35 10000 4.1 350 15:44 09.12.2020
5015 Clear 23 1020 28 10000 2.6 340 14:51 09.12.2020
5016 Clear 23 1020 31 10000 2.6 10 14:26 09.12.2020
5017 Clear 23 1020 33 10000 1.7 343 13:36 09.12.2020
5018 Clear 23 1020 33 10000 1 310 13:18 09.12.2020
5019 Clear 22 1021 37 10000 2.1 30 12:24 09.12.2020
5020 Clear 22 1021 37 10000 2.1 30 11:37 09.12.2020
5021 Clear 20 1022 49 10000 3.1 60 09:51 09.12.2020
5022 Clouds 19 1023 55 10000 1.5 60 08:36 09.12.2020
5023 Clouds 14 1022 72 10000 1.62 77 06:50 09.12.2020
5024 Clouds 14 1022 72 10000 1.5 60 05:28 09.12.2020
5025 Clouds 14 1021 62 10000 2.6 100 02:41 09.12.2020
5026 Clouds 16 1021 63 10000 3.6 100 00:37 09.12.2020
5027 Clouds 16 1021 63 10000 3.1 70 23:35 08.12.2020
5028 Clouds 16 1022 63 10000 2.6 80 22:26 08.12.2020
5029 Clouds 18 1022 55 6000 1 70 20:47 08.12.2020
5030 Clouds 18 1022 59 6000 1.5 70 19:31 08.12.2020
5031 Clouds 20 1021 56 6000 2.1 350 18:38 08.12.2020
5032 Clouds 21 1020 52 6000 2.6 330 17:19 08.12.2020
5033 Clouds 22 1019 49 10000 1.5 290 15:23 08.12.2020
5034 Clouds 23 1019 49 10000 3.1 300 13:52 08.12.2020
5035 Clouds 24 1019 50 10000 2.6 340 12:46 08.12.2020
5036 Clouds 23 1019 53 10000 1.5 350 11:59 08.12.2020
5037 Clouds 23 1019 56 10000 1.5 310 11:24 08.12.2020
5038 Clouds 22 1020 64 6000 2.6 330 10:41 08.12.2020
5039 Clouds 21 1021 72 6000 1 280 09:45 08.12.2020
5040 Haze 17 1020 77 4000 1.5 220 07:41 08.12.2020
5041 Haze 15 1019 67 4000 1.5 190 05:43 08.12.2020
5042 Haze 15 1018 59 4000 1.5 220 02:49 08.12.2020
5043 Clouds 16 1017 51 6000 1.5 270 00:45 08.12.2020
5044 Clouds 17 1017 45 6000 2.6 220 23:46 07.12.2020
5045 Clouds 19 1017 34 6000 4.1 240 22:21 07.12.2020
5046 Haze 20 1016 30 4000 4.6 240 21:48 07.12.2020
5047 Dust 21 1015 25 4000 3.6 200 19:45 07.12.2020
5048 Sand 23 1015 20 4000 5.1 180 18:20 07.12.2020
5049 Sand 24 1014 20 4000 6.2 190 17:26 07.12.2020
5050 Sand 24 1014 20 4000 6.2 200 16:48 07.12.2020
5051 Sand 26 1013 16 4000 9.3 210 15:26 07.12.2020
5052 Sand 26 1013 16 4000 8.7 200 14:41 07.12.2020
5053 Clouds 27 1013 15 10000 11.3 190 13:43 07.12.2020
5054 Clouds 27 1013 13 10000 10.3 190 12:35 07.12.2020
5055 Clouds 26 1014 14 10000 8.2 170 11:43 07.12.2020
5056 Clouds 25 1016 16 10000 6.2 160 10:44 07.12.2020
5057 Clouds 25 1015 18 10000 10.46 187 09:40 07.12.2020
5058 Clouds 17 1017 51 10000 4.1 90 07:58 07.12.2020
5059 Clear 16 1015 41 10000 5.1 80 05:43 07.12.2020
5060 Clear 16 1016 41 10000 3.1 90 04:48 07.12.2020
5061 Clear 16 1016 48 10000 5.1 120 01:48 07.12.2020
5062 Clear 17 1017 51 10000 5.1 130 23:32 06.12.2020
5063 Clear 17 1017 45 10000 4.1 140 22:19 06.12.2020
5064 Clear 17 1018 44 10000 4.1 100 20:53 06.12.2020
5065 Clear 17 1018 42 10000 5.1 110 20:34 06.12.2020
5066 Clear 18 1018 36 10000 3.1 100 19:45 06.12.2020
5067 Clear 18 1017 31 10000 2.6 70 18:18 06.12.2020
5068 Clear 20 1016 28 10000 3.6 114 16:44 06.12.2020
5069 Clear 22 1016 24 10000 1.82 138 14:52 06.12.2020
5070 Clear 23 1016 25 10000 1 250 13:32 06.12.2020
5071 Clear 22 1016 26 10000 0.5 220 12:42 06.12.2020
5072 Clear 22 1017 30 10000 2.1 230 11:57 06.12.2020
5073 Clear 20 1017 40 10000 2.6 220 11:32 06.12.2020
5074 Clouds 20 1018 49 6000 3.1 230 10:45 06.12.2020
5075 Clouds 19 1019 55 6000 3.1 190 09:45 06.12.2020
5076 Clouds 16 1018 72 6000 3.6 180 08:29 06.12.2020
5077 Clouds 13 1018 71 6000 3.6 150 05:51 06.12.2020
5078 Clouds 14 1017 62 10000 2.1 140 00:57 06.12.2020
5079 Clouds 15 1017 62 10000 1.5 140 00:38 06.12.2020
5080 Clouds 15 1017 62 10000 1.5 140 00:20 06.12.2020
5081 Clouds 16 1017 59 10000 0.59 4 22:43 05.12.2020
5082 Clouds 15 1017 59 6000 1.62 16 22:20 05.12.2020
5083 Clouds 16 1017 59 6000 1.62 16 21:47 05.12.2020
5084 Clouds 15 1017 58 6000 2.33 12 21:23 05.12.2020
5085 Clouds 17 1017 55 6000 3.96 336 19:21 05.12.2020
5086 Clouds 18 1017 52 6000 4.37 344 18:39 05.12.2020
5087 Clouds 18 1016 55 6000 3.6 330 17:20 05.12.2020
5088 Clouds 21 1015 32 6000 3.1 310 16:29 05.12.2020
5089 Clouds 22 1015 28 10000 5.1 300 15:37 05.12.2020
5090 Clouds 22 1015 26 10000 4.6 300 14:24 05.12.2020
5091 Clouds 23 1015 31 6000 2.6 250 11:52 05.12.2020
5092 Clouds 22 1016 35 6000 7.2 240 11:30 05.12.2020
5093 Clouds 22 1016 35 6000 3.6 240 10:30 05.12.2020
5094 Haze 17 1016 45 2000 2.6 190 07:48 05.12.2020
5095 Haze 15 1016 59 2000 1.5 180 06:28 05.12.2020
5096 Clouds 15 1015 58 10000 1.31 270 03:44 05.12.2020
5097 Haze 17 1015 51 4000 1.39 255 23:50 04.12.2020
5098 Haze 18 1015 48 4000 1.25 208 22:24 04.12.2020
5099 Clouds 18 1015 45 6000 1.5 200 20:24 04.12.2020
5100 Clouds 19 1015 45 10000 2.1 230 18:53 04.12.2020
5101 Clouds 20 1015 42 10000 3.1 220 18:19 04.12.2020
5102 Clouds 20 1015 42 10000 2.6 200 17:29 04.12.2020
5103 Clouds 21 1015 35 6000 3.6 240 15:39 04.12.2020
5104 Clouds 22 1015 37 6000 2.1 190 13:40 04.12.2020
5105 Clouds 21 1015 37 6000 2.1 190 13:22 04.12.2020
5106 Clouds 22 1015 37 6000 4.1 190 12:51 04.12.2020
5107 Haze 21 1016 43 4000 4.1 180 10:41 04.12.2020
5108 Haze 20 1017 45 4000 4.6 190 09:55 04.12.2020
5109 Haze 16 1017 59 4000 2.47 188 07:20 04.12.2020
5110 Haze 15 1016 58 4000 3.1 150 06:39 04.12.2020
5111 Clear 15 1016 58 6000 3.1 170 02:25 04.12.2020
5112 Clear 16 1016 59 6000 3.1 110 23:21 03.12.2020
5113 Clear 16 1016 55 6000 3.6 90 22:45 03.12.2020
5114 Haze 17 1017 51 4000 2.1 180 20:49 03.12.2020
5115 Haze 19 1017 42 4000 1 100 19:37 03.12.2020
5116 Haze 19 1017 42 4000 1 100 19:18 03.12.2020
5117 Haze 19 1016 42 4000 1.91 217 18:34 03.12.2020
5118 Haze 20 1016 40 4000 1 330 17:20 03.12.2020
5119 Clouds 22 1016 33 6000 1.5 220 15:58 03.12.2020
5120 Clouds 22 1016 33 6000 3.1 230 15:31 03.12.2020
5121 Clouds 22 1016 33 6000 2.6 210 14:48 03.12.2020
5122 Clear 22 1004 39 10000 1.44 165 13:49 03.12.2020
5123 Clear 22 1017 35 10000 2.1 250 12:33 03.12.2020
5124 Clear 22 1016 34 10000 1.65 176 11:49 03.12.2020
5125 Clear 21 1018 38 10000 1.92 179 10:27 03.12.2020
5126 Clear 19 1018 43 10000 1.39 174 08:21 03.12.2020
5127 Clear 15 1017 54 6000 2.6 120 03:41 03.12.2020
5128 Clear 16 1017 53 10000 0.11 299 01:39 03.12.2020
5129 Clouds 16 1018 55 6000 2.6 80 23:41 02.12.2020
5130 Clouds 17 1018 55 6000 2.6 80 22:29 02.12.2020
5131 Clouds 17 1018 55 6000 1.5 80 21:37 02.12.2020
5132 Clouds 17 1018 55 6000 1.5 80 20:48 02.12.2020
5133 Clouds 17 1018 55 6000 1.5 80 20:30 02.12.2020
5134 Clouds 18 1017 52 6000 3.1 60 19:39 02.12.2020
5135 Clouds 20 1016 45 6000 2.6 340 17:48 02.12.2020
5136 Clouds 20 1016 45 6000 2.6 340 17:29 02.12.2020
5137 Clouds 21 1015 43 6000 2.1 300 15:43 02.12.2020
5138 Clouds 22 1015 40 6000 1.5 350 13:26 02.12.2020
5139 Haze 21 1016 40 4000 1.5 250 11:30 02.12.2020
5140 Haze 19 1017 45 4000 2.6 200 10:24 02.12.2020
5141 Clouds 17 1017 48 6000 3.1 170 07:42 02.12.2020
5142 Clouds 17 1015 36 10000 4.6 160 23:30 01.12.2020
5143 Clouds 17 1015 39 10000 3.6 150 22:20 01.12.2020
5144 Clouds 18 1014 36 10000 4.1 170 19:36 01.12.2020
5145 Clouds 18 1014 36 10000 4.1 170 19:36 01.12.2020
5146 Clouds 18 1014 36 10000 4.1 170 18:56 01.12.2020
5147 Clouds 20 1012 30 10000 4.6 190 16:48 01.12.2020
5148 Clouds 21 1012 28 10000 7.2 210 14:53 01.12.2020
5149 Clear 22 1012 32 6000 5.7 200 12:48 01.12.2020
5150 Clear 21 1012 34 6000 5.1 210 11:40 01.12.2020
5151 Clear 20 1013 37 6000 5.1 200 10:53 01.12.2020
5152 Clear 19 1013 34 6000 5.1 200 10:26 01.12.2020
5153 Clear 15 1013 48 6000 7.2 180 07:47 01.12.2020
5154 Clear 15 1013 51 6000 4.6 210 06:25 01.12.2020
5155 Clear 16 1013 51 10000 4.6 140 01:33 01.12.2020
5156 Clear 15 1013 51 6000 4.6 140 00:50 01.12.2020
5157 Haze 16 1014 55 4000 3.6 130 23:20 30.11.2020
5158 Haze 17 1015 51 4000 4.1 130 22:42 30.11.2020
5159 Haze 17 1015 51 4000 4.1 130 22:22 30.11.2020
5160 Haze 18 1015 51 4000 3.6 160 20:34 30.11.2020
5161 Haze 18 1015 48 4000 2.6 170 19:41 30.11.2020
5162 Clear 18 1015 45 10000 2.6 160 18:21 30.11.2020
5163 Clear 19 1015 42 10000 2.1 160 17:46 30.11.2020
5164 Clear 20 1015 40 10000 3.1 170 16:53 30.11.2020
5165 Clear 21 1015 37 10000 2.1 160 15:45 30.11.2020
5166 Clear 21 1015 35 6000 3.6 200 14:21 30.11.2020
5167 Clear 21 1015 40 6000 3.6 250 13:41 30.11.2020
5168 Clear 21 1016 37 6000 4.1 250 12:26 30.11.2020
5169 Clear 21 1016 40 6000 1.5 200 11:57 30.11.2020
5170 Clear 20 1017 40 6000 2.1 210 10:25 30.11.2020
5171 Haze 20 1018 52 4000 1.5 230 09:35 30.11.2020
5172 Haze 20 1018 52 4000 1.5 230 09:35 30.11.2020
5173 Haze 14 1017 71 2000 2.1 160 06:48 30.11.2020
5174 Clouds 16 1018 67 6000 4.1 100 23:29 29.11.2020
5175 Clouds 16 1018 63 6000 3.1 80 21:47 29.11.2020
5176 Clouds 16 1018 63 6000 3.1 100 21:47 29.11.2020
5177 Clouds 17 1018 63 6000 3.1 80 21:28 29.11.2020
5178 Clouds 17 1018 59 6000 2.6 80 19:46 29.11.2020
5179 Clouds 19 1018 52 6000 1.5 20 17:46 29.11.2020
5180 Clouds 19 1018 52 6000 1.5 20 17:46 29.11.2020
5181 Clouds 22 1017 40 6000 2.1 40 14:53 29.11.2020
5182 Haze 22 1017 46 4000 1.5 30 12:58 29.11.2020
5183 Haze 22 1019 49 4000 0.58 199 11:41 29.11.2020
5184 Haze 19 1020 64 2000 0.55 1 09:26 29.11.2020
5185 Mist 18 1021 72 2000 0.55 1 08:37 29.11.2020
5186 Haze 13 1019 76 2000 1.5 210 04:40 29.11.2020
5187 Clouds 17 1019 63 10000 1 300 23:19 28.11.2020
5188 Clouds 16 1019 63 10000 1 300 22:55 28.11.2020
5189 Clouds 17 1020 59 10000 2.68 342 20:44 28.11.2020
5190 Clouds 18 1019 59 10000 3.65 349 19:38 28.11.2020
5191 Clouds 18 1019 59 10000 3.97 340 19:19 28.11.2020
5192 Clouds 19 1019 55 10000 1.5 320 18:27 28.11.2020
5193 Clouds 19 1018 52 10000 2.6 320 17:41 28.11.2020
5194 Clouds 20 1018 45 10000 2.1 330 16:40 28.11.2020
5195 Clouds 20 1018 46 10000 2.6 300 14:31 28.11.2020
5196 Clouds 19 1018 56 10000 2.6 280 11:31 28.11.2020
5197 Clouds 18 1019 63 6000 3.6 250 10:28 28.11.2020
5198 Mist 14 1019 82 1500 1.84 320 06:26 28.11.2020
5199 Haze 14 1018 82 3000 1.7 321 03:26 28.11.2020
5200 Haze 15 1018 77 3000 2.19 324 01:34 28.11.2020
5201 Haze 15 1018 77 4000 1.5 100 22:55 27.11.2020
5202 Haze 17 1018 72 4000 2.45 12 21:33 27.11.2020
5203 Haze 17 1018 72 4000 1.5 40 20:30 27.11.2020
5204 Clouds 18 1018 68 6000 2.6 60 19:25 27.11.2020
5205 Clouds 19 1018 59 6000 2.1 40 18:44 27.11.2020
5206 Clouds 22 1016 43 6000 2.6 290 14:47 27.11.2020
5207 Clouds 21 1016 49 6000 2.6 260 13:26 27.11.2020
5208 Haze 22 1016 52 3000 2.1 220 12:47 27.11.2020
5209 Haze 21 1017 60 3000 3.1 250 11:49 27.11.2020
5210 Haze 21 1017 60 3000 3.1 250 10:50 27.11.2020
5211 Haze 19 1018 60 3000 2.1 260 10:19 27.11.2020
5212 Clouds 17 1005 56 10000 0.6 233 07:29 27.11.2020
5213 Clouds 16 1002 64 10000 1.5 325 22:29 26.11.2020
5214 Clouds 16 1002 64 10000 1.5 325 21:57 26.11.2020
5215 Clouds 17 1017 67 6000 1.87 348 21:25 26.11.2020
5216 Clouds 18 1017 63 6000 2.1 360 19:19 26.11.2020
5217 Clouds 18 1016 63 10000 1.5 10 17:53 26.11.2020
5218 Clouds 21 1015 52 10000 5.1 310 16:20 26.11.2020
5219 Clouds 21 1014 52 10000 6.2 270 13:43 26.11.2020
5220 Clouds 21 1014 56 10000 5.7 260 12:44 26.11.2020
5221 Clouds 21 1014 56 10000 5.7 260 12:23 26.11.2020
5222 Mist 18 1016 72 4000 6.7 210 10:38 26.11.2020
5223 Mist 18 1016 72 3000 7.7 210 09:48 26.11.2020
5224 Mist 17 1016 77 3000 6.7 200 09:30 26.11.2020
5225 Mist 17 1016 77 4000 6.2 200 08:40 26.11.2020
5226 Clouds 14 1016 82 6000 5.7 190 06:55 26.11.2020
5227 Clouds 15 1013 72 10000 6.7 230 23:54 25.11.2020
5228 Clouds 16 1014 72 10000 4.1 220 21:29 25.11.2020
5229 Clouds 16 1013 72 10000 3.1 250 19:58 25.11.2020
5230 Clouds 17 1013 63 10000 3.6 260 18:50 25.11.2020
5231 Clouds 18 1013 68 10000 4.6 270 17:24 25.11.2020
5232 Clouds 19 1012 59 10000 3.6 240 15:42 25.11.2020
5233 Rain 16 1012 59 6000 7.2 290 14:19 25.11.2020
5234 Clouds 22 1011 52 6000 4.6 300 13:43 25.11.2020
5235 Clouds 21 1012 52 6000 5.1 290 12:30 25.11.2020
5236 Clouds 20 1012 60 6000 4.1 310 11:20 25.11.2020
5237 Mist 18 1013 72 4000 3.6 300 09:20 25.11.2020
5238 Mist 20 1013 72 4000 3.6 300 08:49 25.11.2020
5239 Mist 17 1012 87 2000 1.5 250 06:59 25.11.2020
5240 Mist 15 1012 87 2000 2.43 336 03:49 25.11.2020
5241 Clouds 16 1012 82 10000 1.5 10 00:55 25.11.2020
5242 Clouds 17 1013 82 10000 1.5 70 23:59 24.11.2020
5243 Clouds 17 1013 82 10000 2.1 40 23:34 24.11.2020
5244 Clouds 17 1013 82 10000 2.6 60 22:38 24.11.2020
5245 Clouds 18 1014 77 10000 3.1 60 21:34 24.11.2020
5246 Clouds 18 1014 77 10000 3.1 50 20:55 24.11.2020
5247 Clouds 20 1014 72 10000 4.1 30 19:47 24.11.2020
5248 Clouds 21 1014 60 10000 4.6 10 17:32 24.11.2020
5249 Clouds 22 1013 56 10000 5.1 360 16:58 24.11.2020
5250 Clouds 22 1013 56 10000 5.1 360 16:37 24.11.2020
5251 Clouds 23 1013 46 10000 5.1 20 15:56 24.11.2020
5252 Clouds 23 1013 46 10000 5.1 20 15:19 24.11.2020
5253 Clouds 23 1013 49 10000 6.2 20 14:44 24.11.2020
5254 Clouds 24 1014 44 10000 6.2 30 13:34 24.11.2020
5255 Clouds 25 1014 53 10000 5.1 360 12:38 24.11.2020
5256 Clouds 23 1015 56 10000 7.7 30 11:59 24.11.2020
5257 Clouds 23 1015 56 10000 7.7 30 11:24 24.11.2020
5258 Clouds 22 1016 64 10000 8.7 30 10:25 24.11.2020
5259 Clouds 22 1017 73 6000 6.7 30 09:39 24.11.2020
5260 Clouds 20 1017 77 6000 5.1 30 08:58 24.11.2020
5261 Mist 16 1017 100 4000 2.1 30 06:20 24.11.2020
5262 Clear 18 1018 88 10000 4.1 40 00:41 24.11.2020
5263 Clear 18 1018 82 10000 3.6 40 22:24 23.11.2020
5264 Clear 20 1019 77 10000 5.1 30 21:32 23.11.2020
5265 Clear 20 1019 72 10000 5.1 30 20:31 23.11.2020
5266 Clear 20 1019 72 10000 5.7 40 19:59 23.11.2020
5267 Clear 22 1019 60 10000 6.2 20 17:57 23.11.2020
5268 Clouds 22 1019 56 10000 4.1 30 16:56 23.11.2020
5269 Clouds 23 1019 53 10000 4.6 40 15:33 23.11.2020
5270 Clouds 23 1019 53 10000 4.1 30 14:37 23.11.2020
5271 Clouds 23 1019 56 10000 5.1 40 12:41 23.11.2020
5272 Clouds 23 1019 56 10000 5.1 40 12:20 23.11.2020
5273 Clouds 21 1020 68 10000 4.1 70 11:42 23.11.2020
5274 Clouds 21 1021 68 10000 2.1 20 10:22 23.11.2020
5275 Clouds 20 1021 68 10000 2.1 60 09:31 23.11.2020
5276 Clouds 17 1021 77 6000 3.1 40 08:37 23.11.2020
5277 Clouds 16 1021 87 6000 3.1 100 06:57 23.11.2020
5278 Clear 16 1021 77 10000 2.6 70 00:21 23.11.2020
5279 Clear 16 1021 72 10000 4.1 80 22:46 22.11.2020
5280 Clear 17 1021 67 10000 3.6 70 21:37 22.11.2020
5281 Clear 18 1021 63 10000 3.1 70 20:43 22.11.2020
5282 Clear 18 1021 63 10000 3.6 60 19:52 22.11.2020
5283 Clouds 20 1022 52 10000 2.6 10 18:40 22.11.2020
5284 Clouds 21 1021 46 10000 3.1 360 16:50 22.11.2020
5285 Clouds 22 1020 43 10000 4.1 340 15:30 22.11.2020
5286 Clouds 22 1020 46 6000 3.6 340 14:28 22.11.2020
5287 Haze 22 1021 46 4000 2.6 350 12:49 22.11.2020
5288 Haze 21 1021 53 2000 2.6 30 11:56 22.11.2020
5289 Haze 21 1021 56 2000 2.1 30 11:20 22.11.2020
5290 Haze 20 1022 60 2000 2.1 340 10:38 22.11.2020
5291 Haze 18 1022 68 2000 1.5 50 08:36 22.11.2020
5292 Haze 15 1020 77 4000 1.5 200 01:47 22.11.2020
5293 Clear 16 1020 72 6000 1.5 200 23:21 21.11.2020
5294 Clouds 18 1020 63 6000 2.1 300 21:47 21.11.2020
5295 Clouds 19 1020 55 6000 2.1 300 21:18 21.11.2020
5296 Clouds 19 1020 55 6000 2.1 300 20:33 21.11.2020
5297 Clouds 19 1020 55 6000 2.1 300 19:52 21.11.2020
5298 Clouds 19 1020 55 6000 2.1 300 19:26 21.11.2020
5299 Clouds 19 1019 52 10000 1 270 17:57 21.11.2020
5300 Clouds 20 1018 49 10000 2.1 250 16:48 21.11.2020
5301 Clouds 21 1018 43 10000 4.6 260 15:51 21.11.2020
5302 Clouds 21 1017 43 10000 3.6 270 15:21 21.11.2020
5303 Clouds 21 1017 46 10000 5.7 220 14:43 21.11.2020
5304 Clouds 21 1017 43 10000 5.7 240 13:58 21.11.2020
5305 Clouds 20 1017 52 10000 5.1 210 12:27 21.11.2020
5306 Clouds 19 1017 55 10000 7.2 210 11:56 21.11.2020
5307 Clear 18 1018 63 6000 5.1 200 10:39 21.11.2020
5308 Clouds 16 1018 72 4000 6.2 200 09:32 21.11.2020
5309 Sand 16 1018 72 2000 5.7 190 08:51 21.11.2020
5310 Clouds 13 1016 82 10000 4.6 180 05:47 21.11.2020
5311 Clouds 14 1015 76 10000 4.6 230 04:33 21.11.2020
5312 Clouds 15 1014 72 10000 3.6 210 00:38 21.11.2020
5313 Clouds 16 1014 67 10000 4.1 230 23:25 20.11.2020
5314 Clouds 17 1014 63 10000 4.6 240 22:25 20.11.2020
5315 Clouds 17 1013 63 10000 3.6 250 21:38 20.11.2020
5316 Clouds 17 1013 63 10000 3.6 250 21:20 20.11.2020
5317 Clouds 17 1013 67 10000 3.6 240 19:44 20.11.2020
5318 Thunderstorm 18 1012 68 10000 6.7 260 18:36 20.11.2020
5319 Clouds 17 1011 77 10000 4.1 180 17:51 20.11.2020
5320 Clouds 17 1011 77 10000 4.1 180 17:24 20.11.2020
5321 Clouds 17 1011 77 10000 5.1 170 16:38 20.11.2020
5322 Clouds 16 1011 82 10000 7.7 170 15:56 20.11.2020
5323 Rain 17 1011 72 6000 6.7 190 14:58 20.11.2020
5324 Clouds 21 1010 49 10000 6.2 190 13:45 20.11.2020
5325 Clouds 21 1010 49 10000 6.2 190 13:18 20.11.2020
5326 Clouds 21 1010 49 6000 8.2 210 12:34 20.11.2020
5327 Haze 21 1011 52 4000 4.6 190 11:45 20.11.2020
5328 Haze 21 1012 56 4000 4.6 200 10:55 20.11.2020
5329 Haze 19 1013 68 2000 4.6 190 08:53 20.11.2020
5330 Haze 18 1012 72 1000 4.6 200 08:25 20.11.2020
5331 Clouds 17 1012 72 6000 3.6 190 07:32 20.11.2020
5332 Clear 16 1011 72 10000 2.1 250 03:44 20.11.2020
5333 Clouds 19 1013 68 10000 1 310 22:42 19.11.2020
5334 Clouds 19 1013 68 10000 1.5 300 21:55 19.11.2020
5335 Clouds 19 1013 68 10000 2.1 300 21:36 19.11.2020
5336 Clouds 19 1013 68 10000 3.1 300 20:32 19.11.2020
5337 Clouds 20 1013 68 10000 4.1 310 19:49 19.11.2020
5338 Clouds 20 1013 64 10000 5.1 320 19:24 19.11.2020
5339 Clouds 22 1012 49 10000 2.6 320 17:40 19.11.2020
5340 Clouds 22 1012 49 10000 3.6 320 16:54 19.11.2020
5341 Clouds 23 1012 43 10000 3.6 310 15:36 19.11.2020
5342 Clouds 23 1012 43 10000 3.6 290 15:18 19.11.2020
5343 Clouds 23 1012 43 10000 4.6 320 13:46 19.11.2020
5344 Clouds 24 1012 44 10000 4.1 300 13:18 19.11.2020
5345 Clouds 23 1012 49 10000 4.6 300 12:35 19.11.2020
5346 Clouds 23 1013 56 10000 4.6 280 11:44 19.11.2020
5347 Clouds 23 1013 56 10000 4.6 280 11:25 19.11.2020
5348 Clouds 23 1013 60 10000 4.1 310 10:52 19.11.2020
5349 Clouds 21 1014 68 6000 3.6 290 09:58 19.11.2020
5350 Clouds 21 1014 68 6000 3.6 290 09:37 19.11.2020
5351 Clouds 21 1014 68 6000 3.6 290 09:18 19.11.2020
5352 Mist 20 1014 72 4000 1.5 290 08:19 19.11.2020
5353 Mist 18 1014 88 2000 2.98 328 02:20 19.11.2020
5354 Mist 18 1014 82 2000 3.33 331 01:30 19.11.2020
5355 Haze 19 1015 77 4000 2.6 330 23:47 18.11.2020
5356 Haze 19 1015 77 4000 2.6 330 23:24 18.11.2020
5357 Haze 19 1015 77 4000 2.6 340 22:30 18.11.2020
5358 Clouds 19 1015 72 6000 2.6 330 21:47 18.11.2020
5359 Clouds 19 1015 72 6000 2.6 330 21:27 18.11.2020
5360 Clouds 20 1015 64 10000 4.1 340 20:41 18.11.2020
5361 Clouds 21 1015 60 10000 4.1 340 19:46 18.11.2020
5362 Clouds 21 1015 60 10000 4.1 340 19:25 18.11.2020
5363 Clouds 22 1015 53 10000 4.1 350 18:49 18.11.2020
5364 Clouds 22 1015 53 10000 5.1 340 17:55 18.11.2020
5365 Clouds 22 1015 49 10000 5.1 340 17:35 18.11.2020
5366 Clouds 24 1015 47 10000 5.1 340 16:22 18.11.2020
5367 Clouds 25 1015 44 10000 5.1 350 14:49 18.11.2020
5368 Clouds 25 1015 44 10000 5.1 350 14:29 18.11.2020
5369 Clouds 25 1015 44 10000 5.1 340 13:42 18.11.2020
5370 Clouds 24 1015 47 10000 5.1 360 12:47 18.11.2020
5371 Clouds 24 1015 47 10000 5.1 360 12:27 18.11.2020
5372 Clouds 24 1016 53 6000 4.1 10 11:27 18.11.2020
5373 Haze 22 1017 60 3000 4.1 340 10:31 18.11.2020
5374 Haze 20 1018 64 2000 2.6 340 09:41 18.11.2020
5375 Clouds 17 1018 72 6000 1.5 10 07:40 18.11.2020
5376 Clouds 16 1018 72 10000 1.5 20 06:30 18.11.2020
5377 Clouds 18 1019 63 10000 4.1 10 00:23 18.11.2020
5378 Clouds 18 1019 63 10000 3.6 360 23:34 17.11.2020
5379 Clouds 18 1019 63 10000 4.6 360 22:46 17.11.2020
5380 Clouds 18 1020 63 10000 5.1 360 22:28 17.11.2020
5381 Clouds 18 1020 63 10000 5.1 360 21:50 17.11.2020
5382 Clouds 18 1020 63 10000 5.7 360 21:30 17.11.2020
5383 Clouds 19 1020 59 10000 4.6 350 20:44 17.11.2020
5384 Clouds 19 1020 59 10000 4.6 350 20:24 17.11.2020
5385 Clouds 19 1020 59 10000 5.1 360 19:54 17.11.2020
5386 Clouds 19 1020 59 10000 5.1 360 19:54 17.11.2020
5387 Clouds 20 1020 60 10000 5.7 10 18:24 17.11.2020
5388 Clouds 20 1020 60 10000 5.7 10 18:24 17.11.2020
5389 Clouds 21 1020 56 10000 6.7 360 17:33 17.11.2020
5390 Clouds 21 1019 60 10000 6.7 360 16:49 17.11.2020
5391 Clouds 22 1019 49 10000 7.2 360 16:18 17.11.2020
5392 Clouds 22 1019 53 10000 6.7 360 15:39 17.11.2020
5393 Clouds 22 1019 53 10000 6.7 360 15:21 17.11.2020
5394 Clouds 22 1019 49 10000 6.7 360 14:41 17.11.2020
5395 Clouds 23 1019 49 10000 5.7 360 13:54 17.11.2020
5396 Clouds 23 1019 49 10000 6.7 360 13:30 17.11.2020
5397 Clouds 23 1020 49 10000 5.7 340 12:43 17.11.2020
5398 Clouds 22 1020 53 10000 4.1 360 11:46 17.11.2020
5399 Clouds 22 1020 53 10000 4.1 360 11:28 17.11.2020
5400 Clear 22 1021 53 10000 5.1 350 10:39 17.11.2020
5401 Clear 21 1021 53 10000 5.1 350 10:20 17.11.2020
5402 Haze 21 1022 56 6000 4.1 360 09:43 17.11.2020
5403 Haze 19 1022 60 3000 3.6 10 08:46 17.11.2020
5404 Haze 19 1021 63 3000 2.6 10 08:20 17.11.2020
5405 Haze 18 1021 68 3000 3.34 8 07:34 17.11.2020
5406 Clear 17 1020 67 6000 1 310 04:31 17.11.2020
5407 Clear 17 1020 63 10000 2.1 330 03:29 17.11.2020
5408 Clear 18 1020 63 10000 2.1 310 02:29 17.11.2020
5409 Clear 18 1020 63 10000 3.6 300 00:57 17.11.2020
5410 Clear 18 1021 63 10000 1.5 320 23:54 16.11.2020
5411 Clear 18 1021 63 10000 2.1 320 23:33 16.11.2020
5412 Clear 19 1021 59 10000 2.1 320 22:59 16.11.2020
5413 Clear 19 1021 63 10000 2.1 320 22:26 16.11.2020
5414 Clear 19 1021 63 6000 3.1 310 21:56 16.11.2020
5415 Clear 19 1021 63 6000 3.6 330 21:38 16.11.2020
5416 Clear 19 1021 63 6000 3.6 330 21:19 16.11.2020
5417 Clear 19 1021 63 6000 4.6 330 20:26 16.11.2020
5418 Clear 20 1021 60 6000 4.6 340 19:55 16.11.2020
5419 Clouds 20 1020 64 6000 4.6 340 19:29 16.11.2020
5420 Clouds 20 1020 64 10000 5.1 340 18:51 16.11.2020
5421 Clouds 21 1019 56 10000 5.1 340 18:21 16.11.2020
5422 Clouds 21 1019 60 10000 4.6 330 17:36 16.11.2020
5423 Clouds 21 1019 56 10000 5.1 330 17:18 16.11.2020
5424 Clouds 21 1019 56 10000 5.1 330 16:49 16.11.2020
5425 Clouds 22 1019 53 10000 4.6 330 16:26 16.11.2020
5426 Clouds 22 1018 49 10000 5.1 330 15:45 16.11.2020
5427 Clouds 22 1018 49 10000 5.1 330 15:27 16.11.2020
5428 Clouds 22 1018 49 10000 5.7 320 14:48 16.11.2020
5429 Clouds 23 1017 46 10000 4.6 320 13:46 16.11.2020
5430 Clouds 22 1018 46 10000 3.6 320 13:18 16.11.2020
5431 Clouds 22 1018 53 10000 4.6 310 12:30 16.11.2020
5432 Clouds 22 1019 53 10000 4.6 320 11:41 16.11.2020
5433 Clouds 22 1019 53 10000 4.6 320 11:21 16.11.2020
5434 Clouds 21 1020 56 10000 4.6 310 10:44 16.11.2020
5435 Clouds 21 1020 56 10000 4.6 310 10:26 16.11.2020
5436 Clouds 20 1020 60 10000 4.6 310 09:50 16.11.2020
5437 Clouds 20 1020 60 10000 4.6 310 09:25 16.11.2020
5438 Clouds 20 1020 63 10000 3.1 250 08:42 16.11.2020
5439 Clouds 19 1019 63 10000 2.1 210 07:53 16.11.2020
5440 Clouds 16 1019 72 10000 2.6 220 06:56 16.11.2020
5441 Clouds 16 1019 72 10000 2.6 220 06:38 16.11.2020
5442 Clouds 16 1018 72 10000 2.1 210 05:22 16.11.2020
5443 Clouds 16 1018 72 10000 2.1 230 03:54 16.11.2020
5444 Clouds 17 1019 63 10000 2.6 230 01:44 16.11.2020
5445 Clouds 18 1019 63 10000 2.1 250 00:26 16.11.2020
5446 Clouds 18 1019 59 10000 2.6 240 23:29 15.11.2020
5447 Clouds 18 1019 63 10000 3.1 230 22:57 15.11.2020
5448 Clouds 19 1019 59 10000 4.1 280 22:24 15.11.2020
5449 Clouds 19 1019 59 10000 3.1 270 21:51 15.11.2020
5450 Clouds 18 1019 63 10000 1.5 280 21:29 15.11.2020
5451 Clouds 19 1019 59 10000 2.6 250 20:58 15.11.2020
5452 Clouds 19 1019 59 10000 3.1 290 20:38 15.11.2020
5453 Clouds 19 1019 55 10000 3.6 300 19:56 15.11.2020
5454 Clouds 19 1019 52 10000 3.1 310 19:38 15.11.2020
5455 Clouds 19 1019 52 10000 3.1 310 19:19 15.11.2020
5456 Clouds 20 1019 45 10000 4.1 310 18:45 15.11.2020
5457 Clouds 20 1019 45 10000 4.1 310 18:24 15.11.2020
5458 Clouds 20 1019 45 10000 3.6 310 17:47 15.11.2020
5459 Clouds 21 1018 43 10000 5.1 290 17:26 15.11.2020
5460 Clouds 21 1018 49 10000 5.7 310 16:58 15.11.2020
5461 Clouds 21 1018 49 10000 5.7 310 16:38 15.11.2020
5462 Clouds 21 1018 49 10000 5.7 310 16:18 15.11.2020
5463 Clouds 22 1017 53 10000 4.6 320 15:42 15.11.2020
5464 Clouds 22 1017 53 10000 4.6 320 15:22 15.11.2020
5465 Clouds 22 1017 56 10000 5.7 320 14:45 15.11.2020
5466 Clouds 22 1017 56 10000 5.7 320 14:22 15.11.2020
5467 Clouds 23 1017 46 10000 7.2 280 13:41 15.11.2020
5468 Clouds 23 1017 43 10000 4.6 330 13:18 15.11.2020
5469 Clouds 23 1017 43 10000 4.6 330 12:42 15.11.2020
5470 Clouds 23 1017 43 10000 4.6 330 12:18 15.11.2020
5471 Clouds 22 1018 49 10000 4.1 280 11:42 15.11.2020
5472 Clouds 22 1018 49 10000 5.1 320 11:18 15.11.2020
5473 Clouds 22 1018 49 10000 5.1 320 10:49 15.11.2020
5474 Clouds 22 1019 49 6000 4.6 310 10:30 15.11.2020
5475 Haze 21 1019 52 4000 4.1 310 09:46 15.11.2020
5476 Haze 21 1019 52 4000 3.6 310 09:23 15.11.2020
5477 Haze 21 1019 56 4000 4.1 300 08:54 15.11.2020
5478 Haze 20 1019 60 4000 4.1 310 08:32 15.11.2020
5479 Haze 19 1019 68 4000 2.1 290 07:44 15.11.2020
5480 Haze 17 1018 72 2000 1 290 06:25 15.11.2020
5481 Haze 17 1018 72 2000 1.5 320 04:52 15.11.2020
5482 Clouds 19 1018 68 6000 2.6 340 01:37 15.11.2020
5483 Clouds 19 1018 68 6000 2.6 340 01:37 15.11.2020
5484 Clouds 19 1018 72 6000 3.6 330 00:30 15.11.2020
5485 Clouds 19 1019 72 6000 4.6 330 23:44 14.11.2020
5486 Clouds 19 1019 72 6000 4.6 330 22:54 14.11.2020
5487 Clouds 20 1019 68 6000 4.6 330 22:33 14.11.2020
5488 Clouds 20 1019 68 6000 4.1 330 21:56 14.11.2020
5489 Clouds 20 1019 68 6000 4.6 330 21:37 14.11.2020
5490 Clouds 20 1019 68 6000 4.6 330 21:19 14.11.2020
5491 Clouds 20 1018 72 6000 4.6 310 20:42 14.11.2020
5492 Clouds 20 1018 72 6000 4.6 310 20:23 14.11.2020
5493 Clouds 21 1018 68 6000 4.1 340 19:36 14.11.2020
5494 Clouds 22 1018 64 10000 5.1 330 18:58 14.11.2020
5495 Clouds 22 1018 60 10000 5.1 320 18:39 14.11.2020
5496 Clouds 22 1018 60 10000 5.1 320 18:21 14.11.2020
5497 Clouds 23 1017 56 10000 6.7 330 17:44 14.11.2020
5498 Clouds 23 1017 56 10000 6.7 330 17:26 14.11.2020
5499 Clouds 23 1017 53 6000 5.1 330 16:52 14.11.2020
5500 Clouds 24 1017 53 6000 7.2 310 16:31 14.11.2020
5501 Clouds 24 1017 50 10000 6.2 310 15:54 14.11.2020
5502 Clouds 24 1016 53 10000 5.7 310 15:31 14.11.2020
5503 Clouds 25 1016 50 10000 6.2 310 14:56 14.11.2020
5504 Clouds 25 1016 47 10000 5.7 320 14:29 14.11.2020
5505 Clouds 25 1016 53 10000 4.6 310 13:52 14.11.2020
5506 Clouds 25 1016 53 10000 4.6 310 13:30 14.11.2020
5507 Clouds 25 1016 50 6000 6.2 340 12:52 14.11.2020
5508 Clouds 25 1017 50 6000 6.2 320 12:33 14.11.2020
5509 Clouds 25 1017 53 6000 5.7 310 11:56 14.11.2020
5510 Clouds 24 1017 57 6000 5.1 310 11:38 14.11.2020
5511 Clouds 23 1018 60 6000 3.6 320 10:59 14.11.2020
5512 Clouds 23 1018 64 6000 4.1 310 10:38 14.11.2020
5513 Clouds 23 1018 64 6000 4.1 310 10:20 14.11.2020
5514 Haze 22 1019 68 3000 4.1 330 09:45 14.11.2020
5515 Haze 22 1019 68 3000 4.1 330 09:26 14.11.2020
5516 Mist 21 1019 68 3000 2.6 320 08:41 14.11.2020
5517 Mist 21 1019 68 3000 2.6 320 08:21 14.11.2020
5518 Mist 19 1019 77 3000 1 300 07:41 14.11.2020
5519 Mist 19 1019 77 3000 0.5 0 06:51 14.11.2020
5520 Mist 18 1018 77 3000 1.5 310 06:20 14.11.2020
5521 Mist 18 1018 82 2000 1.5 320 05:18 14.11.2020
5522 Mist 19 1019 82 3000 1.5 10 01:59 14.11.2020
5523 Clouds 20 1019 77 6000 2.6 350 00:25 14.11.2020
5524 Clouds 20 1019 77 6000 2.6 350 23:38 13.11.2020
5525 Clouds 20 1019 77 6000 2.6 350 22:59 13.11.2020
5526 Clouds 21 1020 73 6000 3.6 350 22:41 13.11.2020
5527 Clouds 21 1020 73 6000 3.6 350 22:21 13.11.2020
5528 Clouds 21 1019 73 6000 3.1 350 21:49 13.11.2020
5529 Clouds 21 1019 73 6000 2.6 20 21:27 13.11.2020
5530 Clouds 21 1020 73 6000 3.1 30 20:51 13.11.2020
5531 Clouds 21 1020 68 6000 2.6 40 20:32 13.11.2020
5532 Haze 22 1020 64 4000 4.6 30 19:58 13.11.2020
5533 Haze 22 1020 60 4000 3.6 20 19:40 13.11.2020
5534 Haze 22 1020 60 4000 3.6 20 19:22 13.11.2020
5535 Haze 22 1020 60 4000 3.1 10 18:44 13.11.2020
5536 Clouds 23 1019 53 6000 4.1 350 17:47 13.11.2020
5537 Clouds 23 1019 53 6000 4.1 340 17:24 13.11.2020
5538 Clouds 24 1018 50 10000 4.6 350 16:58 13.11.2020
5539 Clouds 24 1018 50 10000 4.6 350 16:40 13.11.2020
5540 Clouds 24 1018 50 10000 4.6 350 16:20 13.11.2020
5541 Clouds 25 1018 44 10000 4.1 350 15:41 13.11.2020
5542 Clouds 25 1018 44 10000 4.1 350 15:21 13.11.2020
5543 Clouds 25 1018 41 10000 4.1 360 14:38 13.11.2020
5544 Clouds 25 1019 41 10000 3.1 10 14:18 13.11.2020
5545 Clouds 25 1019 41 10000 3.1 10 13:32 13.11.2020
5546 Clouds 24 1019 44 6000 3.1 360 12:59 13.11.2020
5547 Clouds 24 1019 44 6000 3.1 360 12:41 13.11.2020
5548 Clouds 24 1019 44 6000 3.1 360 12:23 13.11.2020
5549 Clouds 23 1020 53 6000 3.1 340 11:47 13.11.2020
5550 Clouds 23 1020 53 6000 3.1 340 11:23 13.11.2020
5551 Clouds 23 1020 53 6000 3.1 340 10:52 13.11.2020
5552 Clouds 23 1021 53 6000 3.1 20 10:33 13.11.2020
5553 Clouds 22 1021 60 6000 2.6 10 09:53 13.11.2020
5554 Clouds 22 1021 60 6000 2.6 340 09:32 13.11.2020
5555 Haze 21 1021 60 4000 2.1 360 08:54 13.11.2020
5556 Haze 20 1021 60 4000 1.5 10 08:30 13.11.2020
5557 Haze 20 1021 60 4000 1.5 10 07:51 13.11.2020
5558 Haze 19 1021 63 4000 1 20 07:29 13.11.2020
5559 Haze 18 1021 63 4000 1.5 60 06:57 13.11.2020
5560 Haze 17 1021 67 4000 1 80 06:37 13.11.2020
5561 Haze 16 1021 67 3000 1 70 05:42 13.11.2020
5562 Haze 17 1020 63 4000 1 60 04:20 13.11.2020
5563 Clear 18 1020 63 6000 1.5 70 01:43 13.11.2020
5564 Clear 18 1020 63 6000 3.1 100 00:37 13.11.2020
5565 Clear 18 1020 63 6000 2.6 90 23:59 12.11.2020
5566 Clear 18 1020 63 6000 3.1 70 23:36 12.11.2020
5567 Clear 18 1020 63 6000 3.1 70 23:18 12.11.2020
5568 Clear 19 1021 59 6000 2.6 50 22:40 12.11.2020
5569 Clear 19 1021 59 6000 3.1 60 21:59 12.11.2020
5570 Clear 20 1021 52 6000 1.5 50 21:41 12.11.2020
5571 Clear 20 1021 52 6000 1.5 50 21:22 12.11.2020
5572 Clear 20 1021 52 10000 1 20 20:42 12.11.2020
5573 Clear 20 1021 52 10000 1 20 20:24 12.11.2020
5574 Clear 20 1020 52 10000 1.5 80 19:58 12.11.2020
5575 Clear 21 1020 49 10000 1.5 90 19:40 12.11.2020
5576 Clear 21 1020 49 10000 1.5 90 19:21 12.11.2020
5577 Clear 21 1020 49 10000 1.5 40 18:48 12.11.2020
5578 Clear 22 1020 49 10000 2.6 360 18:20 12.11.2020
5579 Clouds 23 1020 43 10000 3.1 350 17:43 12.11.2020
5580 Clouds 23 1020 43 10000 3.1 350 17:25 12.11.2020
5581 Clouds 23 1019 43 10000 3.6 320 16:46 12.11.2020
5582 Clouds 23 1019 43 10000 3.6 320 16:24 12.11.2020
5583 Clouds 24 1019 41 10000 3.1 330 15:54 12.11.2020
5584 Clouds 24 1019 41 10000 3.1 330 15:31 12.11.2020
5585 Clouds 25 1019 36 10000 2.6 310 14:57 12.11.2020
5586 Clouds 25 1019 36 10000 2.6 310 14:38 12.11.2020
5587 Clouds 24 1019 41 10000 1.5 330 14:20 12.11.2020
5588 Clouds 25 1019 41 10000 2.6 320 13:45 12.11.2020
5589 Clouds 25 1019 41 10000 2.6 320 13:21 12.11.2020
5590 Clouds 25 1019 36 10000 2.6 290 12:49 12.11.2020
5591 Clear 25 1019 36 10000 1.5 290 12:26 12.11.2020
5592 Clear 24 1019 38 10000 3.1 330 11:58 12.11.2020
5593 Clear 24 1020 38 10000 3.1 320 11:40 12.11.2020
5594 Clear 24 1020 38 10000 2.1 310 10:58 12.11.2020
5595 Clear 24 1020 38 10000 2.1 310 10:38 12.11.2020
5596 Clear 24 1021 41 10000 1.5 310 10:19 12.11.2020
5597 Clear 24 1021 41 10000 1.5 310 09:40 12.11.2020
5598 Clear 23 1021 49 10000 2.29 18 09:18 12.11.2020
5599 Clear 23 1021 49 10000 2.29 18 08:41 12.11.2020
5600 Clear 23 1021 49 10000 2 19 08:21 12.11.2020
5601 Clear 20 1020 56 10000 1.5 270 07:59 12.11.2020
5602 Clear 20 1020 56 10000 1.5 270 07:39 12.11.2020
5603 Haze 18 1020 55 4000 2.6 110 06:55 12.11.2020
5604 Haze 18 1020 55 4000 2.6 110 06:27 12.11.2020
5605 Haze 18 1019 55 4000 1.86 51 03:51 12.11.2020
5606 Haze 18 1019 55 4000 1.81 44 03:20 12.11.2020
5607 Haze 17 1019 51 4000 1.5 330 00:54 12.11.2020
5608 Haze 18 1019 48 4000 1.5 330 23:47 11.11.2020
5609 Haze 19 1019 45 4000 1.5 330 23:25 11.11.2020
5610 Clouds 20 1019 42 10000 1.5 330 22:57 11.11.2020
5611 Clouds 20 1019 42 10000 1 320 22:38 11.11.2020
5612 Clouds 20 1019 42 10000 1 320 22:18 11.11.2020
5613 Clouds 20 1019 42 10000 3.11 44 21:41 11.11.2020
5614 Clouds 20 1019 42 10000 3.93 15 21:23 11.11.2020
5615 Clouds 20 1019 42 10000 3.93 15 20:55 11.11.2020
5616 Clouds 21 1019 40 10000 3.93 15 20:37 11.11.2020
5617 Clouds 21 1019 40 10000 3.85 337 20:19 11.11.2020
5618 Clouds 21 1019 40 10000 3.85 337 19:48 11.11.2020
5619 Clouds 21 1019 40 10000 2.66 302 19:30 11.11.2020
5620 Clouds 22 1018 37 10000 1.5 310 18:48 11.11.2020
5621 Clouds 22 1018 37 10000 1.5 310 18:28 11.11.2020
5622 Clouds 22 1018 35 10000 1.5 310 17:41 11.11.2020
5623 Clouds 22 1018 35 10000 1.5 310 17:22 11.11.2020
5624 Clouds 23 1018 33 10000 3.1 330 16:50 11.11.2020
5625 Clouds 23 1017 33 10000 3.1 310 16:32 11.11.2020
5626 Clouds 24 1017 31 10000 3.1 320 15:50 11.11.2020
5627 Clouds 24 1016 31 10000 3.6 260 15:27 11.11.2020
5628 Clouds 24 1016 31 10000 4.1 290 14:56 11.11.2020
5629 Clouds 24 1016 31 10000 2.6 270 14:35 11.11.2020
5630 Clouds 25 1016 29 10000 5.1 220 13:57 11.11.2020
5631 Clouds 24 1016 33 10000 5.1 230 13:35 11.11.2020
5632 Clouds 24 1016 33 10000 4.1 230 12:48 11.11.2020
5633 Clouds 24 1017 33 10000 3.6 220 12:21 11.11.2020
5634 Clouds 24 1017 33 10000 3.1 240 11:49 11.11.2020
5635 Clouds 23 1017 33 10000 3.6 260 11:30 11.11.2020
5636 Clouds 23 1017 33 10000 3.6 260 11:30 11.11.2020
5637 Clouds 23 1018 38 10000 3.6 220 10:43 11.11.2020
5638 Clouds 23 1018 38 10000 3.6 220 10:24 11.11.2020
5639 Clouds 23 1018 40 10000 4.1 220 09:49 11.11.2020
5640 Clouds 23 1018 43 10000 4.1 210 09:28 11.11.2020
5641 Clouds 22 1018 49 10000 3.6 210 08:49 11.11.2020
5642 Clouds 21 1018 52 10000 3.1 230 08:29 11.11.2020
5643 Clouds 21 1018 52 6000 3.1 230 07:54 11.11.2020
5644 Clouds 20 1018 60 6000 3.1 160 07:36 11.11.2020
5645 Clouds 17 1017 67 6000 1.5 190 06:29 11.11.2020
5646 Clouds 17 1017 67 10000 3.6 140 04:47 11.11.2020
5647 Clouds 17 1017 63 10000 0.49 270 01:35 11.11.2020
5648 Clouds 18 1017 63 10000 0.27 303 00:54 11.11.2020
5649 Clouds 19 1017 59 10000 1.17 40 23:57 10.11.2020
5650 Clouds 20 1017 60 10000 1.5 310 23:25 10.11.2020
5651 Clouds 20 1017 60 10000 2.6 290 22:58 10.11.2020
5652 Clouds 20 1018 45 10000 1.5 250 22:37 10.11.2020
5653 Clouds 20 1018 45 10000 1.5 250 22:19 10.11.2020
5654 Clouds 20 1018 45 10000 1.5 250 22:19 10.11.2020
5655 Clouds 20 1017 45 10000 2.6 210 21:40 10.11.2020
5656 Clouds 20 1017 45 10000 2.6 210 21:22 10.11.2020
5657 Clouds 20 1017 42 10000 3.1 210 20:43 10.11.2020
5658 Clouds 21 1017 40 10000 2.6 200 20:23 10.11.2020
5659 Clouds 21 1017 40 10000 2.1 200 19:57 10.11.2020
5660 Clouds 22 1017 37 10000 3.1 200 19:39 10.11.2020
5661 Clouds 22 1017 37 10000 3.1 200 19:20 10.11.2020
5662 Clouds 22 1017 37 10000 2.1 200 18:41 10.11.2020
5663 Clouds 22 1017 37 10000 2.1 200 18:21 10.11.2020
5664 Clouds 23 1017 35 10000 3.6 190 17:47 10.11.2020
5665 Clouds 23 1016 35 10000 3.6 200 17:28 10.11.2020
5666 Clouds 23 1016 35 10000 4.1 200 16:58 10.11.2020
5667 Clouds 24 1016 33 10000 4.1 220 16:40 10.11.2020
5668 Clouds 24 1016 33 10000 4.1 220 16:22 10.11.2020
5669 Clouds 24 1016 36 10000 3.1 240 15:48 10.11.2020
5670 Clouds 24 1015 36 10000 2.6 250 15:27 10.11.2020
5671 Clouds 24 1015 36 10000 5.1 260 14:56 10.11.2020
5672 Clouds 25 1015 31 10000 4.6 240 14:37 10.11.2020
5673 Clouds 25 1015 31 10000 4.6 240 14:37 10.11.2020
5674 Clouds 25 1015 31 10000 4.6 240 14:18 10.11.2020
5675 Clouds 26 1016 31 10000 5.7 230 13:38 10.11.2020
5676 Clouds 25 1016 41 10000 5.7 240 13:19 10.11.2020
5677 Clouds 25 1016 41 10000 5.7 240 12:45 10.11.2020
5678 Clouds 24 1016 50 10000 5.1 230 12:24 10.11.2020
5679 Clear 26 1015 30 10000 4.82 262 11:43 10.11.2020
5680 Clouds 22 1017 56 6000 4.6 220 11:21 10.11.2020
5681 Clouds 22 1017 56 6000 4.6 220 10:57 10.11.2020
5682 Clouds 22 1017 56 6000 4.6 220 10:38 10.11.2020
5683 Clouds 22 1017 56 6000 4.6 220 10:19 10.11.2020
5684 Clouds 21 1017 64 4000 4.6 200 09:45 10.11.2020
5685 Clouds 21 1017 64 4000 4.6 200 09:24 10.11.2020
5686 Mist 21 1017 64 4000 4.6 190 08:53 10.11.2020
5687 Mist 20 1017 72 2000 5.1 180 08:27 10.11.2020
5688 Mist 19 1017 77 2000 5.7 180 07:44 10.11.2020
5689 Mist 19 1017 77 2000 5.7 180 07:24 10.11.2020
5690 Mist 17 1017 82 1000 5.7 180 06:41 10.11.2020
5691 Mist 18 1016 77 2000 4.6 170 05:43 10.11.2020
5692 Clouds 18 1016 77 6000 4.6 170 04:59 10.11.2020
5693 Clouds 19 1016 72 6000 4.6 190 02:36 10.11.2020
5694 Clouds 19 1015 68 6000 4.1 200 01:31 10.11.2020
5695 Clouds 20 1016 68 6000 4.6 180 23:57 09.11.2020
5696 Clouds 20 1016 68 6000 4.6 180 23:36 09.11.2020
5697 Clouds 20 1016 68 6000 4.6 180 22:49 09.11.2020
5698 Clouds 20 1016 68 6000 4.1 180 22:25 09.11.2020
5699 Clouds 20 1016 68 6000 4.6 180 21:59 09.11.2020
5700 Clouds 20 1016 68 6000 4.6 180 21:38 09.11.2020
5701 Clouds 20 1016 68 6000 4.6 180 21:19 09.11.2020
5702 Clouds 20 1016 68 6000 4.6 170 20:39 09.11.2020
5703 Clouds 20 1016 68 6000 4.6 170 20:20 09.11.2020
5704 Clouds 20 1016 68 10000 4.6 170 19:42 09.11.2020
5705 Clouds 20 1016 68 10000 4.6 170 19:22 09.11.2020
5706 Clouds 21 1016 64 10000 4.6 190 18:42 09.11.2020
5707 Clouds 21 1016 64 10000 5.7 180 18:20 09.11.2020
5708 Clouds 21 1016 64 10000 5.7 180 17:56 09.11.2020
5709 Clouds 21 1015 64 10000 4.6 190 17:38 09.11.2020
5710 Clouds 21 1015 64 10000 4.6 190 17:20 09.11.2020
5711 Clouds 21 1015 64 10000 5.7 190 16:37 09.11.2020
5712 Clouds 21 1015 64 10000 4.1 190 16:18 09.11.2020
5713 Clouds 21 1015 64 10000 4.6 190 15:41 09.11.2020
5714 Clouds 21 1015 64 10000 4.6 190 15:20 09.11.2020
5715 Clouds 21 1015 64 10000 4.6 190 14:44 09.11.2020
5716 Clouds 21 1015 64 10000 4.6 190 14:25 09.11.2020
5717 Clouds 21 1015 60 10000 5.7 220 13:48 09.11.2020
5718 Clouds 22 1015 56 10000 5.1 220 13:20 09.11.2020
5719 Clouds 22 1015 56 10000 5.7 210 12:47 09.11.2020
5720 Clouds 22 1015 56 10000 5.7 210 12:26 09.11.2020
5721 Clouds 23 1015 49 10000 6.2 180 11:57 09.11.2020
5722 Clouds 23 1015 49 10000 6.2 180 11:38 09.11.2020
5723 Clouds 23 1015 49 10000 6.2 180 11:19 09.11.2020
5724 Clouds 23 1016 56 10000 6.2 180 10:42 09.11.2020
5725 Clouds 23 1016 56 10000 6.2 180 10:23 09.11.2020
5726 Clouds 22 1016 56 10000 7.2 180 09:45 09.11.2020
5727 Clouds 22 1016 56 10000 7.2 180 09:24 09.11.2020
5728 Clouds 21 1016 52 6000 4.6 170 08:41 09.11.2020
5729 Clouds 21 1016 52 6000 4.6 170 08:20 09.11.2020
5730 Clouds 20 1016 52 6000 3.1 180 07:40 09.11.2020
5731 Clouds 20 1016 52 6000 3.1 180 07:19 09.11.2020
5732 Clouds 20 1015 52 6000 4.6 180 06:31 09.11.2020
5733 Clouds 20 1014 49 10000 2.6 150 03:31 09.11.2020
5734 Clouds 19 1014 48 10000 2.1 140 01:44 09.11.2020
5735 Clouds 18 1015 55 10000 2.6 90 00:59 09.11.2020
5736 Clouds 19 1015 52 10000 2.6 90 23:53 08.11.2020
5737 Clouds 19 1015 52 10000 3.1 80 23:53 08.11.2020
5738 Clouds 19 1015 52 10000 3.1 80 23:30 08.11.2020
5739 Clouds 20 1015 52 10000 3.6 60 22:58 08.11.2020
5740 Clouds 21 1015 46 10000 2.1 130 22:40 08.11.2020
5741 Clouds 21 1015 46 10000 2.1 130 22:19 08.11.2020
5742 Clouds 20 1015 49 10000 4.1 130 21:39 08.11.2020
5743 Clouds 20 1015 49 10000 4.1 130 21:19 08.11.2020
5744 Clouds 20 1015 45 10000 3.6 130 20:54 08.11.2020
5745 Clouds 20 1015 45 10000 3.6 130 20:36 08.11.2020
5746 Clouds 21 1015 43 10000 2.6 140 20:18 08.11.2020
5747 Clouds 21 1014 46 10000 2.6 110 19:42 08.11.2020
5748 Clouds 21 1014 46 10000 2.6 110 19:21 08.11.2020
5749 Clouds 20 1014 49 10000 2.1 100 18:48 08.11.2020
5750 Clouds 22 1014 40 10000 1 140 18:22 08.11.2020
5751 Clouds 22 1014 40 10000 1 180 17:57 08.11.2020
5752 Clouds 23 1013 40 10000 3.6 180 17:38 08.11.2020
5753 Clouds 23 1013 40 10000 3.6 180 17:19 08.11.2020
5754 Clouds 23 1013 40 10000 3.6 180 16:48 08.11.2020
5755 Clouds 23 1013 40 10000 3.6 180 16:22 08.11.2020
5756 Clouds 24 1013 38 10000 5.1 220 15:58 08.11.2020
5757 Clouds 24 1013 38 10000 5.1 220 15:40 08.11.2020
5758 Clouds 24 1013 38 10000 5.1 220 15:21 08.11.2020
5759 Clouds 24 1013 38 10000 2.6 220 14:41 08.11.2020
5760 Clouds 24 1013 38 10000 2.6 220 14:21 08.11.2020
5761 Clouds 24 1013 41 10000 4.6 200 13:46 08.11.2020
5762 Clouds 24 1013 41 10000 4.6 200 13:23 08.11.2020
5763 Clouds 24 1013 41 10000 4.6 200 13:23 08.11.2020
5764 Dust 23 1014 46 4000 4.1 220 12:44 08.11.2020
5765 Dust 23 1014 46 4000 4.1 220 12:25 08.11.2020
5766 Dust 23 1014 46 4000 4.1 220 11:58 08.11.2020
5767 Dust 23 1014 46 4000 4.1 220 11:40 08.11.2020
5768 Dust 23 1014 46 4000 4.1 220 11:20 08.11.2020
5769 Sand 23 1014 49 3000 5.7 180 10:50 08.11.2020
5770 Sand 23 1015 53 3000 5.7 190 10:19 08.11.2020
5771 Sand 23 1015 53 3000 5.7 190 09:55 08.11.2020
5772 Sand 22 1015 53 3000 5.7 190 09:37 08.11.2020
5773 Sand 21 1015 60 3000 5.7 180 09:18 08.11.2020
5774 Sand 21 1015 60 3000 5.7 180 08:39 08.11.2020
5775 Sand 21 1015 60 3000 5.7 180 08:18 08.11.2020
5776 Sand 19 1014 60 3000 7.2 170 07:52 08.11.2020
5777 Sand 19 1014 63 2000 7.2 170 07:24 08.11.2020
5778 Haze 17 1013 68 2000 3.1 160 06:22 08.11.2020
5779 Haze 17 1013 72 2000 3.1 160 05:52 08.11.2020
5780 Haze 18 1013 68 2000 4.1 170 04:50 08.11.2020
5781 Clouds 18 1014 77 10000 2.6 170 01:53 08.11.2020
5782 Clouds 19 1014 77 10000 1 180 01:19 08.11.2020
5783 Clouds 19 1014 77 10000 1 180 01:19 08.11.2020
5784 Clouds 19 1014 77 10000 1.5 220 00:28 08.11.2020
5785 Clouds 19 1014 77 10000 1.5 220 23:47 07.11.2020
5786 Clouds 19 1014 77 10000 2.6 210 23:29 07.11.2020
5787 Clouds 20 1014 72 10000 2.1 250 22:46 07.11.2020
5788 Clouds 20 1014 72 10000 2.6 280 22:26 07.11.2020
5789 Clouds 20 1014 72 10000 1.5 210 21:55 07.11.2020
5790 Clouds 20 1014 72 10000 1.5 190 21:36 07.11.2020
5791 Clouds 20 1014 77 10000 2.6 170 21:18 07.11.2020
5792 Clouds 19 1014 77 10000 3.1 200 20:42 07.11.2020
5793 Clouds 20 1014 77 10000 3.1 200 20:23 07.11.2020
5794 Clouds 19 1014 77 10000 2.1 250 19:44 07.11.2020
5795 Clouds 20 1014 77 10000 2.1 250 19:26 07.11.2020
5796 Rain 20 1014 64 6000 3.1 250 18:41 07.11.2020
5797 Rain 21 1014 64 6000 3.1 250 18:22 07.11.2020
5798 Clouds 22 1013 49 10000 1 300 17:46 07.11.2020
5799 Clouds 23 1013 49 10000 1 300 17:28 07.11.2020
5800 Clouds 23 1013 49 10000 2.68 300 16:46 07.11.2020
5801 Clouds 24 1013 41 10000 3.6 240 16:25 07.11.2020
5802 Clouds 25 1013 41 10000 3.6 240 15:52 07.11.2020
5803 Clouds 25 1013 41 10000 3.6 240 15:26 07.11.2020
5804 Clouds 24 1013 44 10000 4.6 230 15:00 07.11.2020
5805 Clouds 24 1013 44 10000 4.6 230 15:00 07.11.2020
5806 Clouds 24 1013 41 10000 4.6 200 14:41 07.11.2020
5807 Clouds 24 1013 41 10000 4.6 200 14:21 07.11.2020
5808 Clouds 24 1013 41 10000 4.6 200 13:43 07.11.2020
5809 Clouds 24 1013 44 10000 3.6 230 13:23 07.11.2020
5810 Clouds 23 1014 47 10000 4.6 240 12:40 07.11.2020
5811 Clouds 23 1014 47 10000 4.6 240 12:18 07.11.2020
5812 Clouds 22 1014 60 6000 4.6 220 12:18 07.11.2020
5813 Clouds 22 1014 60 6000 4.6 220 11:39 07.11.2020
5814 Clouds 22 1014 60 6000 4.6 220 11:20 07.11.2020
5815 Haze 22 1015 60 3000 4.1 240 10:45 07.11.2020
5816 Haze 22 1015 60 3000 4.1 240 10:24 07.11.2020
5817 Haze 22 1015 60 3000 4.1 240 09:49 07.11.2020
5818 Clouds 21 1015 64 6000 3.6 220 09:25 07.11.2020
5819 Clouds 21 1015 68 10000 3.6 250 08:51 07.11.2020
5820 Clouds 21 1015 68 10000 3.1 240 08:33 07.11.2020
5821 Clouds 20 1015 72 10000 2.6 220 07:49 07.11.2020
5822 Clouds 19 1015 72 10000 1 170 07:18 07.11.2020
5823 Clouds 18 1015 77 10000 1 170 06:43 07.11.2020
5824 Clouds 18 1014 77 10000 2.1 250 04:43 07.11.2020
5825 Clouds 18 1014 72 6000 2.1 230 03:23 07.11.2020
5826 Clouds 20 1014 68 6000 2.6 250 01:28 07.11.2020
5827 Clouds 20 1014 68 6000 2.6 250 01:28 07.11.2020
5828 Clouds 20 1014 68 6000 2.6 250 00:41 07.11.2020
5829 Clouds 20 1014 68 6000 2.6 250 23:49 06.11.2020
5830 Clouds 20 1014 68 6000 1.5 280 23:19 06.11.2020
5831 Clouds 20 1014 64 6000 1.5 290 22:41 06.11.2020
5832 Clouds 21 1014 64 6000 1.5 290 22:19 06.11.2020
5833 Clouds 21 1014 64 6000 1.5 290 22:19 06.11.2020
5834 Clouds 21 1014 64 10000 1.5 300 21:45 06.11.2020
5835 Clouds 21 1014 64 10000 1.5 300 21:21 06.11.2020
5836 Clouds 21 1014 64 10000 2.6 290 20:52 06.11.2020
5837 Clouds 21 1014 64 10000 2.6 290 20:22 06.11.2020
5838 Clouds 22 1014 56 10000 3.6 320 19:56 06.11.2020
5839 Clouds 22 1014 56 10000 2.6 320 19:38 06.11.2020
5840 Clouds 22 1014 56 10000 2.6 320 19:19 06.11.2020
5841 Clouds 22 1014 56 10000 3.1 290 18:45 06.11.2020
5842 Clouds 22 1014 56 10000 3.1 290 18:23 06.11.2020
5843 Clouds 23 1014 49 10000 3.1 330 17:51 06.11.2020
5844 Clouds 23 1014 49 10000 3.1 330 17:25 06.11.2020
5845 Clouds 23 1013 49 10000 5.1 340 16:50 06.11.2020
5846 Clouds 23 1013 49 10000 5.1 340 16:27 06.11.2020
5847 Clouds 25 1013 41 10000 2.6 310 15:49 06.11.2020
5848 Clouds 25 1013 41 10000 2.6 310 15:29 06.11.2020
5849 Clouds 25 1013 41 10000 2.6 290 14:53 06.11.2020
5850 Clouds 24 1013 44 10000 4.1 320 14:27 06.11.2020
5851 Clouds 24 1013 44 10000 4.1 320 13:47 06.11.2020
5852 Clouds 24 1013 44 10000 4.1 320 13:24 06.11.2020
5853 Clouds 23 1014 53 10000 3.6 260 12:46 06.11.2020
5854 Clouds 23 1014 53 10000 3.6 260 12:25 06.11.2020
5855 Clouds 23 1014 53 10000 3.6 260 11:58 06.11.2020
5856 Clouds 22 1014 56 10000 3.6 230 11:36 06.11.2020
5857 Clouds 22 1014 56 10000 3.6 230 10:47 06.11.2020
5858 Clouds 22 1014 56 10000 3.6 230 10:27 06.11.2020
5859 Clouds 22 1014 56 6000 4.6 220 09:50 06.11.2020
5860 Clouds 21 1015 60 6000 4.1 200 09:23 06.11.2020
5861 Clouds 20 1015 64 6000 4.1 220 08:51 06.11.2020
5862 Haze 20 1015 64 4000 4.1 220 08:31 06.11.2020
5863 Haze 18 1015 68 4000 4.1 180 07:56 06.11.2020
5864 Haze 18 1015 68 4000 4.1 180 07:37 06.11.2020
5865 Clouds 18 1014 68 6000 4.1 180 07:18 06.11.2020
5866 Clouds 18 1014 68 10000 4.6 210 06:32 06.11.2020
5867 Clouds 19 1013 63 10000 4.6 200 05:36 06.11.2020
5868 Clear 19 1014 63 10000 3.6 230 01:45 06.11.2020
5869 Clear 19 1014 63 10000 4.1 240 00:23 06.11.2020
5870 Clear 19 1014 63 10000 3.1 250 23:47 05.11.2020
5871 Clear 20 1014 60 10000 3.1 250 23:19 05.11.2020
5872 Clear 20 1014 56 10000 3.1 270 22:42 05.11.2020
5873 Clear 20 1014 56 10000 3.6 270 22:24 05.11.2020
5874 Clear 20 1014 56 10000 3.6 270 21:56 05.11.2020
5875 Clear 20 1015 60 10000 4.1 280 21:38 05.11.2020
5876 Clear 21 1015 56 10000 3.6 280 21:18 05.11.2020
5877 Clear 21 1015 56 10000 3.6 280 20:42 05.11.2020
5878 Clear 21 1015 56 10000 3.6 280 20:21 05.11.2020
5879 Clear 21 1015 52 10000 6.2 290 19:44 05.11.2020
5880 Clear 21 1015 52 10000 6.2 290 19:25 05.11.2020
5881 Clear 21 1015 52 10000 5.1 280 18:56 05.11.2020
5882 Clear 21 1014 49 10000 5.7 290 18:38 05.11.2020
5883 Clear 21 1014 49 10000 5.7 290 18:20 05.11.2020
5884 Clear 22 1014 49 10000 4.6 300 17:42 05.11.2020
5885 Clear 22 1014 49 10000 4.6 300 17:23 05.11.2020
5886 Clear 23 1014 46 10000 6.7 310 16:45 05.11.2020
5887 Clear 23 1014 46 10000 6.7 310 16:26 05.11.2020
5888 Clear 24 1013 41 10000 6.7 300 15:50 05.11.2020
5889 Clear 24 1013 41 10000 6.7 300 15:50 05.11.2020
5890 Clear 25 1013 36 10000 6.7 290 15:27 05.11.2020
5891 Clear 25 1013 36 10000 6.7 290 14:50 05.11.2020
5892 Clear 25 1013 36 10000 6.7 290 14:31 05.11.2020
5893 Clear 25 1013 36 10000 6.7 300 13:59 05.11.2020
5894 Clear 25 1013 36 10000 6.7 300 13:39 05.11.2020
5895 Clear 25 1014 38 10000 6.7 300 12:56 05.11.2020
5896 Clear 25 1014 38 10000 6.7 300 12:37 05.11.2020
5897 Clear 24 1014 41 10000 6.2 270 11:59 05.11.2020
5898 Clear 23 1015 46 10000 5.7 290 11:41 05.11.2020
5899 Clear 23 1015 46 10000 5.7 290 11:22 05.11.2020
5900 Clear 23 1015 46 10000 5.7 290 10:47 05.11.2020
5901 Clear 23 1015 46 10000 5.7 290 10:26 05.11.2020
5902 Clouds 23 1015 46 10000 6.2 280 09:49 05.11.2020
5903 Clouds 23 1015 46 10000 6.2 270 09:24 05.11.2020
5904 Clouds 22 1016 49 10000 6.7 290 08:49 05.11.2020
5905 Clouds 22 1016 56 10000 6.2 260 08:30 05.11.2020
5906 Clouds 21 1016 64 10000 5.1 260 07:46 05.11.2020
5907 Clouds 20 1015 72 10000 4.6 250 07:27 05.11.2020
5908 Clouds 20 1015 72 10000 4.6 250 06:42 05.11.2020
5909 Clouds 20 1015 72 10000 4.6 250 05:59 05.11.2020
5910 Clear 21 1015 68 10000 3.6 230 02:42 05.11.2020
5911 Clear 21 1016 68 10000 3.6 250 00:35 05.11.2020
5912 Clear 21 1016 68 10000 3.6 230 23:51 04.11.2020
5913 Clear 21 1016 68 10000 3.6 230 23:27 04.11.2020
5914 Clear 21 1016 68 10000 3.6 240 22:57 04.11.2020
5915 Clear 21 1016 68 10000 3.6 240 22:37 04.11.2020
5916 Clear 21 1016 68 10000 3.6 240 22:19 04.11.2020
5917 Clouds 22 1016 64 10000 3.1 260 21:43 04.11.2020
5918 Clouds 22 1016 64 10000 3.1 260 21:25 04.11.2020
5919 Clouds 22 1016 64 10000 4.6 280 20:46 04.11.2020
5920 Clouds 22 1016 64 10000 4.6 280 20:28 04.11.2020
5921 Clouds 23 1016 56 10000 5.1 290 19:58 04.11.2020
5922 Clouds 23 1016 56 10000 5.1 290 19:40 04.11.2020
5923 Clouds 23 1016 56 10000 5.1 290 19:21 04.11.2020
5924 Clouds 23 1015 56 10000 4.1 290 18:40 04.11.2020
5925 Clouds 23 1015 56 10000 4.1 290 18:22 04.11.2020
5926 Clouds 24 1015 53 10000 4.1 290 17:46 04.11.2020
5927 Clouds 24 1015 53 10000 4.1 290 17:26 04.11.2020
5928 Clouds 24 1015 50 10000 6.2 300 16:46 04.11.2020
5929 Clouds 24 1015 50 10000 6.2 300 16:27 04.11.2020
5930 Clouds 25 1015 44 10000 6.2 260 15:57 04.11.2020
5931 Clouds 25 1015 44 10000 6.2 250 15:39 04.11.2020
5932 Clouds 25 1015 44 10000 6.2 250 15:20 04.11.2020
5933 Clouds 25 1015 44 10000 6.7 260 14:43 04.11.2020
5934 Clouds 25 1015 44 10000 6.7 260 14:24 04.11.2020
5935 Clouds 26 1015 39 10000 5.1 270 13:51 04.11.2020
5936 Clouds 25 1015 41 10000 6.7 250 13:21 04.11.2020
5937 Clouds 25 1015 41 10000 6.7 250 12:57 04.11.2020
5938 Clouds 25 1016 41 10000 6.2 240 12:39 04.11.2020
5939 Clouds 25 1016 41 10000 6.2 240 12:21 04.11.2020
5940 Clouds 25 1016 41 10000 5.7 230 11:44 04.11.2020
5941 Clouds 23 1017 44 10000 6.2 230 11:21 04.11.2020
5942 Clouds 23 1017 47 10000 5.7 220 10:48 04.11.2020
5943 Clouds 23 1017 49 10000 6.2 230 10:23 04.11.2020
5944 Clouds 23 1018 53 10000 5.7 230 09:55 04.11.2020
5945 Clouds 23 1018 53 10000 5.7 230 09:28 04.11.2020
5946 Clouds 22 1018 60 10000 5.1 220 08:48 04.11.2020
5947 Clouds 22 1018 60 10000 5.1 220 08:23 04.11.2020
5948 Clouds 21 1018 64 6000 3.6 240 07:57 04.11.2020
5949 Clouds 21 1018 64 6000 3.6 240 07:31 04.11.2020
5950 Haze 20 1018 64 4000 3.1 230 06:59 04.11.2020
5951 Haze 20 1018 68 4000 2.1 210 06:39 04.11.2020
5952 Clouds 19 1017 68 6000 2.1 210 04:46 04.11.2020
5953 Clouds 19 1018 63 6000 0.46 257 02:31 04.11.2020
5954 Clouds 19 1018 63 6000 0.46 257 01:38 04.11.2020
5955 Clouds 20 1018 60 6000 1.5 60 23:56 03.11.2020
5956 Clouds 20 1019 60 6000 1 70 23:25 03.11.2020
5957 Clouds 20 1019 60 6000 1 90 22:54 03.11.2020
5958 Clouds 20 1019 56 6000 1 60 22:36 03.11.2020
5959 Clouds 21 1019 56 10000 1.5 50 22:18 03.11.2020
5960 Clouds 22 1019 56 10000 2.1 350 21:41 03.11.2020
5961 Clouds 22 1019 56 10000 2.1 350 21:23 03.11.2020
5962 Clouds 22 1019 56 10000 2.1 350 20:48 03.11.2020
5963 Clouds 22 1019 56 10000 3.1 340 20:26 03.11.2020
5964 Clouds 22 1019 56 10000 3.6 340 19:49 03.11.2020
5965 Clouds 22 1019 56 10000 3.6 340 19:29 03.11.2020
5966 Clouds 23 1019 49 10000 4.1 320 18:58 03.11.2020
5967 Clouds 23 1019 49 10000 3.1 320 18:40 03.11.2020
5968 Clouds 23 1019 49 10000 3.1 320 18:18 03.11.2020
5969 Clouds 24 1018 44 10000 4.1 320 17:44 03.11.2020
5970 Clouds 24 1018 44 10000 4.1 320 17:26 03.11.2020
5971 Clouds 24 1018 44 10000 3.1 320 16:45 03.11.2020
5972 Clouds 24 1018 44 10000 3.1 320 16:27 03.11.2020
5973 Clouds 24 1018 44 10000 4.1 310 15:53 03.11.2020
5974 Clouds 25 1018 41 10000 3.6 330 15:30 03.11.2020
5975 Clouds 25 1018 41 10000 3.6 330 15:30 03.11.2020
5976 Clouds 25 1018 44 10000 4.1 330 14:54 03.11.2020
5977 Clouds 25 1018 44 10000 5.1 330 14:33 03.11.2020
5978 Clouds 25 1018 44 10000 3.1 310 13:59 03.11.2020
5979 Clouds 26 1018 41 10000 3.1 340 13:40 03.11.2020
5980 Clouds 26 1018 41 10000 3.1 340 13:20 03.11.2020
5981 Clouds 26 1019 41 10000 4.1 310 12:44 03.11.2020
5982 Clouds 26 1019 41 10000 4.1 310 12:21 03.11.2020
5983 Clouds 25 1019 41 10000 2.6 350 11:46 03.11.2020
5984 Clouds 25 1019 50 10000 1.5 20 11:23 03.11.2020
5985 Clouds 24 1019 50 10000 1.5 20 10:55 03.11.2020
5986 Clouds 23 1020 50 10000 2.1 330 10:37 03.11.2020
5987 Clouds 23 1020 50 10000 2.1 330 10:18 03.11.2020
5988 Clouds 23 1020 56 10000 2.6 330 09:44 03.11.2020
5989 Clouds 23 1020 56 10000 2.6 330 09:22 03.11.2020
5990 Clouds 23 1020 53 10000 3.1 330 08:48 03.11.2020
5991 Clouds 22 1021 56 10000 3.1 320 08:29 03.11.2020
5992 Clouds 21 1020 68 10000 1.5 210 07:41 03.11.2020
5993 Clouds 21 1020 68 10000 1.5 210 07:19 03.11.2020
5994 Clear 19 1020 72 10000 2.15 328 06:21 03.11.2020
5995 Clear 18 1019 72 10000 2.16 337 04:34 03.11.2020
5996 Clear 21 1020 64 10000 3.1 310 00:44 03.11.2020
5997 Clear 21 1020 64 10000 3.1 310 00:20 03.11.2020
5998 Clear 21 1020 64 10000 3.6 330 23:43 02.11.2020
5999 Clear 21 1020 64 10000 3.6 330 23:20 02.11.2020
6000 Clear 21 1020 64 6000 3.1 330 22:43 02.11.2020
6001 Clear 21 1020 64 6000 3.1 330 22:24 02.11.2020
6002 Clear 22 1020 60 6000 3.6 340 21:39 02.11.2020
6003 Clear 22 1020 60 6000 3.6 340 21:21 02.11.2020
6004 Clear 22 1020 60 10000 4.1 330 20:55 02.11.2020
6005 Clear 22 1019 56 10000 4.1 330 20:37 02.11.2020
6006 Clear 22 1019 56 10000 4.1 330 20:18 02.11.2020
6007 Clear 23 1019 49 10000 4.1 320 19:42 02.11.2020
6008 Clear 23 1019 49 10000 4.1 320 19:24 02.11.2020
6009 Clear 24 1019 47 10000 4.1 320 18:42 02.11.2020
6010 Clear 24 1019 47 10000 4.1 320 18:21 02.11.2020
6011 Clear 24 1019 47 10000 4.1 320 17:57 02.11.2020
6012 Clouds 24 1018 47 10000 5.1 320 17:39 02.11.2020
6013 Clouds 25 1018 44 10000 4.1 320 17:20 02.11.2020
6014 Clouds 25 1018 44 10000 4.1 320 17:20 02.11.2020
6015 Clouds 25 1018 44 10000 3.6 330 16:41 02.11.2020
6016 Clouds 25 1018 44 10000 3.6 330 16:23 02.11.2020
6017 Clouds 26 1018 41 10000 4.6 360 15:42 02.11.2020
6018 Clouds 26 1018 41 10000 4.6 360 15:24 02.11.2020
6019 Clouds 26 1018 41 10000 4.6 360 14:54 02.11.2020
6020 Clouds 26 1018 41 10000 3.6 340 14:21 02.11.2020
6021 Clouds 26 1018 41 10000 1.5 270 13:58 02.11.2020
6022 Clouds 26 1018 44 10000 4.1 310 13:40 02.11.2020
6023 Clouds 26 1018 44 10000 4.1 310 13:21 02.11.2020
6024 Clouds 26 1018 44 10000 4.1 310 12:33 02.11.2020
6025 Clouds 26 1018 44 10000 4.1 290 11:59 02.11.2020
6026 Clouds 26 1018 44 10000 4.1 290 11:59 02.11.2020
6027 Clouds 25 1019 50 10000 5.1 300 11:38 02.11.2020
6028 Clouds 25 1019 50 10000 5.1 300 11:19 02.11.2020
6029 Clouds 24 1019 53 10000 3.1 10 10:43 02.11.2020
6030 Clouds 24 1019 53 10000 3.1 10 10:22 02.11.2020
6031 Clear 24 1019 53 10000 3.1 330 09:51 02.11.2020
6032 Clear 24 1019 53 10000 2.6 310 09:24 02.11.2020
6033 Clear 23 1020 56 10000 2.6 310 08:46 02.11.2020
6034 Clear 23 1019 56 10000 2.6 320 08:27 02.11.2020
6035 Clear 21 1019 68 6000 1.5 330 07:54 02.11.2020
6036 Clear 21 1019 68 6000 1.5 330 07:30 02.11.2020
6037 Haze 19 1018 72 4000 2.69 335 06:37 02.11.2020
6038 Haze 19 1018 72 4000 2.63 335 04:55 02.11.2020
6039 Haze 20 1017 68 4000 2.1 350 01:26 02.11.2020
6040 Clouds 21 1017 64 6000 3.6 350 00:36 02.11.2020
6041 Clouds 21 1017 64 10000 3.1 340 23:55 01.11.2020
6042 Clouds 21 1017 64 10000 4.6 350 23:36 01.11.2020
6043 Clouds 21 1017 64 10000 4.6 350 23:18 01.11.2020
6044 Clouds 22 1017 60 10000 4.1 350 22:38 01.11.2020
6045 Clouds 22 1017 60 10000 4.1 360 22:18 01.11.2020
6046 Clouds 22 1017 60 10000 5.7 360 21:41 01.11.2020
6047 Clouds 22 1017 60 10000 5.7 360 21:23 01.11.2020
6048 Clouds 23 1017 56 10000 5.1 350 20:45 01.11.2020
6049 Clouds 23 1017 56 10000 5.1 350 20:25 01.11.2020
6050 Clouds 23 1017 56 10000 6.7 10 19:46 01.11.2020
6051 Clouds 23 1017 56 10000 6.7 10 19:28 01.11.2020
6052 Clouds 24 1016 50 10000 6.7 10 18:57 01.11.2020
6053 Clouds 24 1016 50 10000 6.7 10 18:37 01.11.2020
6054 Clouds 24 1016 50 10000 6.7 10 18:19 01.11.2020
6055 Clouds 24 1015 53 10000 5.7 10 17:43 01.11.2020
6056 Clouds 24 1015 53 10000 5.7 10 17:25 01.11.2020
6057 Clouds 25 1015 50 10000 6.7 360 16:44 01.11.2020
6058 Clouds 25 1015 47 10000 6.2 360 16:25 01.11.2020
6059 Clouds 25 1015 47 10000 6.2 360 15:57 01.11.2020
6060 Clouds 25 1015 50 10000 6.7 340 15:38 01.11.2020
6061 Clouds 25 1015 50 10000 6.7 340 15:38 01.11.2020
6062 Clouds 25 1015 50 10000 6.2 340 15:18 01.11.2020
6063 Clouds 25 1015 50 10000 6.2 340 14:45 01.11.2020
6064 Clouds 26 1014 50 10000 6.2 360 14:22 01.11.2020
6065 Clouds 26 1014 50 10000 6.2 360 13:56 01.11.2020
6066 Clouds 26 1014 50 10000 6.7 350 13:37 01.11.2020
6067 Clouds 26 1014 50 10000 6.7 350 13:19 01.11.2020
6068 Clouds 26 1014 47 10000 6.2 340 12:38 01.11.2020
6069 Clouds 26 1014 47 10000 6.2 340 12:18 01.11.2020
6070 Clouds 26 1014 47 10000 6.2 340 12:18 01.11.2020
6071 Clouds 26 1015 47 10000 6.2 340 11:47 01.11.2020
6072 Clouds 25 1015 50 10000 6.2 360 11:18 01.11.2020
6073 Clouds 25 1016 50 10000 5.7 10 10:42 01.11.2020
6074 Clouds 25 1016 50 10000 5.7 10 10:42 01.11.2020
6075 Clouds 25 1016 50 10000 5.7 10 10:24 01.11.2020
6076 Clouds 24 1016 53 10000 6.7 360 09:49 01.11.2020
6077 Clouds 24 1016 53 10000 5.7 360 09:24 01.11.2020
6078 Clouds 23 1016 56 10000 3.6 350 08:40 01.11.2020
6079 Clouds 23 1016 56 10000 4.1 350 07:54 01.11.2020
6080 Clouds 22 1015 64 10000 3.6 350 06:48 01.11.2020
6081 Clouds 21 1014 73 10000 4.6 360 02:31 01.11.2020
6082 Clouds 22 1014 68 10000 4.6 360 01:38 01.11.2020
6083 Clouds 22 1014 68 10000 4.1 350 23:56 31.10.2020
6084 Clouds 22 1014 68 10000 4.6 360 23:23 31.10.2020
6085 Clouds 23 1014 64 10000 4.1 360 22:45 31.10.2020
6086 Clouds 23 1014 64 10000 4.1 360 22:24 31.10.2020
6087 Clouds 23 1014 64 10000 4.6 360 21:47 31.10.2020
6088 Clouds 23 1015 64 10000 5.1 10 21:23 31.10.2020
6089 Clouds 23 1015 69 10000 6.2 20 20:46 31.10.2020
6090 Clouds 23 1015 69 10000 6.2 20 20:21 31.10.2020
6091 Clouds 24 1014 64 10000 6.2 20 19:58 31.10.2020
6092 Clouds 24 1014 60 10000 7.2 20 19:38 31.10.2020
6093 Clouds 24 1014 60 10000 7.2 20 19:18 31.10.2020
6094 Clouds 24 1014 60 10000 8.2 20 18:43 31.10.2020
6095 Clouds 25 1014 61 10000 7.7 10 17:49 31.10.2020
6096 Clouds 25 1013 61 10000 7.7 360 17:29 31.10.2020
6097 Clouds 25 1013 61 10000 8.2 360 16:59 31.10.2020
6098 Clouds 26 1013 57 10000 6.2 350 16:40 31.10.2020
6099 Clouds 26 1013 57 10000 6.2 360 15:59 31.10.2020
6100 Clouds 27 1013 47 10000 6.7 360 15:38 31.10.2020
6101 Clouds 27 1013 47 10000 6.7 360 15:19 31.10.2020
6102 Clouds 27 1013 47 10000 6.2 360 14:46 31.10.2020
6103 Clouds 27 1013 51 10000 6.7 360 14:26 31.10.2020
6104 Clouds 27 1013 51 10000 6.7 360 13:50 31.10.2020
6105 Clouds 27 1013 51 10000 5.7 340 13:23 31.10.2020
6106 Clouds 27 1013 51 10000 7.2 360 12:35 31.10.2020
6107 Clouds 27 1014 51 10000 5.7 20 11:48 31.10.2020
6108 Clouds 27 1014 51 10000 5.7 20 11:28 31.10.2020
6109 Clouds 27 1014 54 10000 5.1 20 10:56 31.10.2020
6110 Clouds 27 1015 54 10000 5.1 10 10:33 31.10.2020
6111 Clouds 26 1015 57 10000 6.2 20 09:42 31.10.2020
6112 Clouds 26 1015 57 10000 6.2 20 09:22 31.10.2020
6113 Clouds 25 1015 61 10000 6.2 20 08:32 31.10.2020
6114 Clouds 24 1015 64 10000 5.1 10 07:58 31.10.2020
6115 Clouds 23 1015 73 6000 3.1 10 07:27 31.10.2020
6116 Clouds 22 1015 78 6000 3.1 360 06:40 31.10.2020
6117 Clouds 22 1015 78 6000 2.6 10 05:20 31.10.2020
6118 Clouds 22 1014 73 6000 4.1 10 03:46 31.10.2020
6119 Clouds 22 1015 78 10000 2.6 10 01:30 31.10.2020
6120 Clouds 22 1015 78 10000 3.1 360 00:47 31.10.2020
6121 Clouds 22 1015 78 10000 3.6 360 23:52 30.10.2020
6122 Clouds 23 1015 78 10000 3.6 360 23:25 30.10.2020
6123 Clouds 23 1015 78 10000 3.1 10 22:48 30.10.2020
6124 Clouds 23 1015 78 10000 3.1 10 22:26 30.10.2020
6125 Clouds 23 1015 78 10000 4.1 10 21:58 30.10.2020
6126 Clouds 24 1016 69 10000 3.6 30 21:38 30.10.2020
6127 Clouds 24 1016 69 10000 3.6 30 21:19 30.10.2020
6128 Clouds 24 1016 69 10000 4.6 30 20:42 30.10.2020
6129 Clouds 24 1016 69 10000 4.6 30 20:23 30.10.2020
6130 Clouds 25 1016 61 10000 4.6 30 19:49 30.10.2020
6131 Clouds 25 1016 57 10000 5.7 40 19:19 30.10.2020
6132 Clouds 25 1016 57 10000 5.7 20 18:50 30.10.2020
6133 Clouds 26 1015 54 10000 5.7 20 18:28 30.10.2020
6134 Clouds 26 1015 54 10000 6.2 30 17:54 30.10.2020
6135 Clouds 27 1015 54 10000 6.2 30 17:36 30.10.2020
6136 Clouds 27 1015 54 10000 6.2 30 17:18 30.10.2020
6137 Clouds 28 1014 48 10000 5.7 10 16:48 30.10.2020
6138 Clouds 29 1014 45 10000 5.7 10 16:19 30.10.2020
6139 Clouds 29 1014 45 10000 5.7 10 15:41 30.10.2020
6140 Clouds 28 1014 45 10000 5.7 10 15:20 30.10.2020
6141 Clouds 28 1014 51 10000 6.2 10 14:45 30.10.2020
6142 Clouds 28 1014 51 10000 6.2 10 14:26 30.10.2020
6143 Clouds 28 1014 48 10000 6.7 360 13:47 30.10.2020
6144 Clouds 28 1014 48 10000 6.7 360 13:23 30.10.2020
6145 Clouds 28 1015 51 10000 5.7 350 12:58 30.10.2020
6146 Clouds 27 1016 57 10000 5.7 10 12:23 30.10.2020
6147 Clouds 27 1016 57 10000 5.7 10 11:57 30.10.2020
6148 Clouds 27 1016 57 10000 5.7 10 11:57 30.10.2020
6149 Clouds 27 1016 57 10000 5.7 10 11:57 30.10.2020
6150 Clouds 27 1016 57 10000 5.7 10 11:38 30.10.2020
6151 Clouds 27 1016 57 10000 5.7 10 11:18 30.10.2020
6152 Clouds 26 1016 61 10000 6.2 10 10:40 30.10.2020
6153 Clouds 26 1016 61 10000 6.2 10 10:21 30.10.2020
6154 Clouds 25 1017 65 6000 6.2 10 09:44 30.10.2020
6155 Clouds 25 1017 65 6000 6.2 10 09:22 30.10.2020
6156 Clouds 25 1017 65 6000 4.6 10 08:42 30.10.2020
6157 Clouds 23 1017 65 6000 4.6 10 08:23 30.10.2020
6158 Clouds 22 1017 78 6000 3.6 30 07:49 30.10.2020
6159 Clouds 22 1017 78 6000 3.6 30 07:31 30.10.2020
6160 Mist 21 1017 83 4000 3.6 50 06:40 30.10.2020
6161 Clouds 21 1016 77 6000 2.6 30 05:19 30.10.2020
6162 Clear 22 1016 73 10000 4.6 360 02:27 30.10.2020
6163 Clear 22 1017 78 10000 4.6 360 00:43 30.10.2020
6164 Clear 22 1017 78 10000 3.6 10 23:50 29.10.2020
6165 Clear 22 1017 78 10000 4.1 30 23:31 29.10.2020
6166 Clear 22 1017 78 10000 4.1 40 22:59 29.10.2020
6167 Clear 23 1017 73 10000 5.7 40 22:40 29.10.2020
6168 Clear 23 1017 73 10000 5.7 40 22:22 29.10.2020
6169 Clear 23 1017 73 10000 6.2 30 21:39 29.10.2020
6170 Clear 23 1017 73 10000 6.2 30 21:20 29.10.2020
6171 Clear 25 1017 57 10000 7.2 30 20:42 29.10.2020
6172 Clear 25 1017 57 10000 7.2 30 20:19 29.10.2020
6173 Clear 25 1017 57 10000 7.2 30 19:43 29.10.2020
6174 Clear 25 1017 57 10000 7.2 30 19:22 29.10.2020
6175 Clouds 25 1017 50 10000 6.7 20 18:55 29.10.2020
6176 Clouds 26 1016 50 10000 6.2 10 18:36 29.10.2020
6177 Clouds 26 1016 50 10000 6.2 10 18:18 29.10.2020
6178 Clouds 27 1016 47 10000 6.7 360 17:40 29.10.2020
6179 Clouds 27 1016 47 10000 6.7 360 17:20 29.10.2020
6180 Clouds 28 1015 51 10000 6.2 360 16:45 29.10.2020
6181 Clouds 28 1015 51 10000 6.2 360 16:20 29.10.2020
6182 Clouds 28 1015 51 10000 6.2 360 15:56 29.10.2020
6183 Clouds 28 1015 54 10000 5.7 10 15:37 29.10.2020
6184 Clouds 28 1015 54 10000 5.7 10 15:19 29.10.2020
6185 Clouds 28 1015 54 10000 5.7 360 14:45 29.10.2020
6186 Clouds 28 1015 54 10000 5.7 360 14:23 29.10.2020
6187 Clouds 28 1015 54 10000 5.1 10 13:47 29.10.2020
6188 Clouds 28 1015 54 10000 5.1 10 13:28 29.10.2020
6189 Clouds 28 1015 58 10000 5.1 360 12:44 29.10.2020
6190 Clouds 28 1015 58 10000 5.1 360 12:20 29.10.2020
6191 Clouds 28 1016 58 10000 5.7 20 11:58 29.10.2020
6192 Clouds 28 1016 58 10000 4.6 20 11:40 29.10.2020
6193 Clouds 28 1016 58 10000 4.6 20 11:21 29.10.2020
6194 Clouds 26 1017 65 10000 6.2 10 10:37 29.10.2020
6195 Clouds 26 1017 65 10000 6.2 10 10:37 29.10.2020
6196 Clouds 25 1017 69 10000 5.7 30 10:19 29.10.2020
6197 Clouds 25 1017 69 10000 5.7 30 09:50 29.10.2020
6198 Clouds 25 1017 69 10000 5.7 30 09:27 29.10.2020
6199 Clouds 24 1017 73 10000 4.6 40 08:48 29.10.2020
6200 Clouds 24 1017 73 10000 4.6 40 08:26 29.10.2020
6201 Clouds 22 1017 83 10000 4.1 20 07:52 29.10.2020
6202 Clouds 22 1017 83 10000 4.1 20 07:23 29.10.2020
6203 Clouds 21 1016 83 10000 3.6 40 06:54 29.10.2020
6204 Clouds 21 1016 83 10000 3.1 50 04:51 29.10.2020
6205 Clouds 21 1016 83 10000 4.02 50 02:40 29.10.2020
6206 Clouds 22 1017 78 10000 4.02 10 00:45 29.10.2020
6207 Clouds 23 1017 73 10000 4.02 10 00:23 29.10.2020
6208 Clouds 23 1017 73 10000 4.47 20 23:45 28.10.2020
6209 Clouds 23 1017 73 10000 4.47 20 23:20 28.10.2020
6210 Clear 23 1017 73 10000 5.7 40 22:44 28.10.2020
6211 Clear 23 1017 73 10000 5.7 40 22:26 28.10.2020
6212 Clear 23 1017 73 10000 5.7 40 21:55 28.10.2020
6213 Clear 23 1017 73 10000 5.7 40 21:37 28.10.2020
6214 Clear 23 1017 73 10000 5.7 40 21:18 28.10.2020
6215 Clear 24 1017 64 10000 6.2 40 20:41 28.10.2020
6216 Clear 24 1017 64 10000 6.2 40 20:20 28.10.2020
6217 Clear 25 1017 61 10000 6.7 20 19:49 28.10.2020
6218 Clouds 25 1017 61 10000 8.2 10 19:27 28.10.2020
6219 Clouds 25 1017 61 10000 8.05 10 18:47 28.10.2020
6220 Clouds 27 1015 51 10000 5.36 360 18:21 28.10.2020
6221 Clouds 27 1015 51 10000 5.7 360 17:44 28.10.2020
6222 Clouds 27 1015 51 10000 5.7 360 17:25 28.10.2020
6223 Clouds 28 1015 48 10000 6.7 350 16:56 28.10.2020
6224 Clouds 28 1015 48 10000 6.7 350 16:38 28.10.2020
6225 Clouds 28 1015 45 10000 5.1 350 16:19 28.10.2020
6226 Clouds 29 1015 45 10000 5.1 20 15:37 28.10.2020
6227 Clouds 29 1015 45 10000 5.1 20 15:18 28.10.2020
6228 Clouds 29 1015 45 10000 4.6 360 14:42 28.10.2020
6229 Clouds 29 1015 45 10000 4.6 360 14:22 28.10.2020
6230 Clouds 31 1014 36 10000 3.54 41 12:41 28.10.2020
6231 Clouds 30 1015 39 10000 3.83 50 12:22 28.10.2020
6232 Clouds 30 1015 39 10000 3.83 50 11:55 28.10.2020
6233 Clouds 30 1015 39 10000 3.83 50 11:36 28.10.2020
6234 Clouds 29 1015 42 10000 4.04 44 11:18 28.10.2020
6235 Clouds 26 1016 61 10000 5.1 30 10:42 28.10.2020
6236 Clouds 26 1016 61 10000 5.1 30 10:24 28.10.2020
6237 Clouds 25 1017 65 6000 4.1 30 09:43 28.10.2020
6238 Clouds 25 1017 65 6000 4.1 30 09:23 28.10.2020
6239 Clouds 23 1016 69 6000 4.1 30 08:50 28.10.2020
6240 Clouds 23 1016 69 6000 4.1 30 08:29 28.10.2020
6241 Clouds 23 1016 69 6000 4.1 30 07:52 28.10.2020
6242 Clouds 22 1016 73 6000 3.1 40 07:31 28.10.2020
6243 Clouds 21 1016 77 6000 2.1 60 06:42 28.10.2020
6244 Clouds 21 1016 77 6000 2.1 60 06:23 28.10.2020
6245 Haze 21 1015 77 4000 2.1 60 05:22 28.10.2020
6246 Haze 21 1015 77 4000 3.1 350 04:28 28.10.2020
6247 Clouds 22 1015 73 10000 3.1 360 02:26 28.10.2020
6248 Clouds 22 1015 73 10000 3.1 360 02:26 28.10.2020
6249 Clouds 22 1015 73 10000 3.6 360 01:53 28.10.2020
6250 Clouds 23 1015 69 10000 3.6 350 00:31 28.10.2020
6251 Clouds 23 1015 73 10000 3.6 350 23:47 27.10.2020
6252 Clouds 23 1015 73 10000 3.6 350 23:21 27.10.2020
6253 Clouds 23 1016 73 10000 4.1 360 22:44 27.10.2020
6254 Clouds 23 1016 73 10000 4.1 360 22:19 27.10.2020
6255 Clouds 23 1016 73 6000 5.1 360 21:57 27.10.2020
6256 Clouds 23 1016 73 6000 5.1 360 21:37 27.10.2020
6257 Clouds 23 1016 73 6000 5.1 360 21:19 27.10.2020
6258 Clouds 24 1016 69 6000 5.1 360 20:50 27.10.2020
6259 Clouds 24 1016 64 6000 6.2 360 20:24 27.10.2020
6260 Clouds 25 1015 69 6000 6.2 360 19:55 27.10.2020
6261 Clouds 25 1015 61 6000 6.2 350 19:37 27.10.2020
6262 Clouds 25 1015 61 6000 6.2 350 19:18 27.10.2020
6263 Clouds 25 1014 57 6000 6.2 340 18:44 27.10.2020
6264 Clouds 26 1014 57 6000 6.2 340 18:22 27.10.2020
6265 Clouds 26 1014 54 10000 5.1 340 17:57 27.10.2020
6266 Clouds 27 1013 47 10000 4.6 340 17:38 27.10.2020
6267 Clouds 27 1013 42 10000 4.1 330 17:18 27.10.2020
6268 Clouds 28 1013 42 10000 4.1 330 16:42 27.10.2020
6269 Clouds 28 1013 42 10000 4.1 330 16:23 27.10.2020
6270 Clouds 28 1013 45 10000 4.6 310 15:42 27.10.2020
6271 Clouds 29 1013 39 10000 3.1 310 15:23 27.10.2020
6272 Clouds 29 1013 39 10000 3.1 310 14:49 27.10.2020
6273 Clouds 29 1013 39 10000 3.1 310 14:29 27.10.2020
6274 Clouds 29 1013 45 10000 2.6 320 13:58 27.10.2020
6275 Clouds 29 1013 45 10000 2.6 320 13:29 27.10.2020
6276 Clouds 28 1013 51 10000 3.6 320 12:46 27.10.2020
6277 Clouds 28 1013 51 10000 3.6 320 12:27 27.10.2020
6278 Clouds 27 1014 57 10000 2.6 340 11:59 27.10.2020
6279 Clouds 27 1014 57 10000 2.6 340 11:41 27.10.2020
6280 Clouds 27 1014 57 10000 2.6 340 11:21 27.10.2020
6281 Clouds 26 1015 61 10000 2.6 360 10:43 27.10.2020
6282 Clouds 26 1015 61 10000 2.6 360 10:20 27.10.2020
6283 Clouds 25 1015 65 10000 3.1 350 09:28 27.10.2020
6284 Clouds 25 1015 69 10000 3.1 350 08:59 27.10.2020
6285 Clouds 24 1015 73 6000 3.6 340 08:33 27.10.2020
6286 Mist 24 1015 78 4000 3.1 330 07:54 27.10.2020
6287 Mist 23 1014 83 3000 2.1 10 07:36 27.10.2020
6288 Mist 23 1014 83 3000 1.5 350 06:55 27.10.2020
6289 Mist 22 1014 88 3000 1.5 330 06:20 27.10.2020
6290 Mist 22 1013 88 3000 1 350 05:46 27.10.2020
6291 Mist 22 1013 88 3000 1 350 05:24 27.10.2020
6292 Mist 22 1013 88 3000 2.1 340 03:20 27.10.2020
6293 Mist 23 1013 78 3000 1.5 330 01:22 27.10.2020
6294 Mist 23 1014 83 3000 2.1 360 00:41 27.10.2020
6295 Clear 24 1014 73 10000 2.6 330 23:38 26.10.2020
6296 Clear 24 1014 73 10000 2.1 350 22:59 26.10.2020
6297 Clear 24 1014 73 10000 3.1 350 22:39 26.10.2020
6298 Clear 24 1014 73 6000 5.7 350 22:18 26.10.2020
6299 Clear 24 1014 73 6000 5.7 350 21:40 26.10.2020
6300 Clear 24 1014 73 6000 5.7 350 21:19 26.10.2020
6301 Clear 25 1014 69 6000 5.7 360 20:49 26.10.2020
6302 Clear 25 1014 65 6000 5.7 360 20:27 26.10.2020
6303 Clear 25 1014 65 6000 5.7 350 19:58 26.10.2020
6304 Clear 26 1013 61 6000 6.2 350 19:40 26.10.2020
6305 Clear 26 1013 61 6000 6.2 350 19:20 26.10.2020
6306 Clouds 27 1013 54 10000 5.1 330 18:42 26.10.2020
6307 Clouds 27 1013 54 10000 5.1 330 18:22 26.10.2020
6308 Clouds 28 1012 48 10000 3.1 340 17:44 26.10.2020
6309 Clouds 28 1012 48 10000 3.1 340 17:24 26.10.2020
6310 Clouds 28 1012 48 10000 3.1 330 16:57 26.10.2020
6311 Clouds 28 1012 48 10000 4.6 320 16:38 26.10.2020
6312 Clouds 28 1012 42 10000 3.6 350 16:19 26.10.2020
6313 Clouds 29 1012 42 10000 3.6 350 15:39 26.10.2020
6314 Clouds 29 1012 42 10000 3.6 350 15:19 26.10.2020
6315 Clouds 29 1012 42 10000 4.6 360 14:46 26.10.2020
6316 Clouds 29 1012 45 10000 3.1 320 14:21 26.10.2020
6317 Clouds 29 1012 48 6000 2.6 350 13:42 26.10.2020
6318 Clouds 29 1012 48 6000 2.6 350 13:23 26.10.2020
6319 Clouds 29 1012 45 6000 2.6 330 12:47 26.10.2020
6320 Clouds 28 1013 48 6000 1.5 310 12:27 26.10.2020
6321 Clouds 28 1013 51 6000 2.6 360 11:55 26.10.2020
6322 Clouds 27 1013 54 6000 3.1 350 11:37 26.10.2020
6323 Clouds 27 1013 54 6000 3.1 350 11:18 26.10.2020
6324 Clouds 26 1014 61 6000 2.1 10 10:42 26.10.2020
6325 Clouds 26 1014 61 6000 2.1 10 10:24 26.10.2020
6326 Clouds 26 1014 61 6000 2.1 330 09:48 26.10.2020
6327 Clouds 26 1014 61 6000 2.1 330 09:48 26.10.2020
6328 Clouds 25 1015 69 6000 2.1 360 09:25 26.10.2020
6329 Mist 24 1014 73 2000 2.1 300 08:31 26.10.2020
6330 Mist 23 1014 78 2000 1.5 350 07:56 26.10.2020
6331 Mist 22 1014 83 2000 1 330 07:38 26.10.2020
6332 Mist 22 1014 83 2000 1 320 06:49 26.10.2020
6333 Haze 22 1013 78 4000 2.1 330 04:48 26.10.2020
6334 Haze 21 1013 73 2000 2.11 342 04:18 26.10.2020
6335 Haze 21 1013 73 4000 2.3 351 03:20 26.10.2020
6336 Haze 21 1013 73 4000 2.3 351 03:20 26.10.2020
6337 Haze 21 1013 73 4000 2.3 351 03:20 26.10.2020
6338 Haze 21 1013 73 4000 2.3 351 03:20 26.10.2020
6339 Clear 23 1013 69 10000 1.5 10 01:34 26.10.2020
6340 Clear 23 1013 69 10000 2.1 360 00:33 26.10.2020
6341 Clear 23 1013 64 10000 2.6 350 23:43 25.10.2020
6342 Clear 23 1013 64 10000 2.6 350 23:22 25.10.2020
6343 Clear 24 1014 60 10000 2.1 350 22:42 25.10.2020
6344 Clear 24 1014 60 10000 2.1 350 22:24 25.10.2020
6345 Clear 24 1014 60 10000 4.6 360 21:48 25.10.2020
6346 Clear 24 1014 60 10000 4.6 360 21:29 25.10.2020
6347 Clear 24 1014 60 10000 4.1 350 20:57 25.10.2020
6348 Clear 25 1014 53 10000 4.6 340 20:38 25.10.2020
6349 Clear 25 1014 53 10000 4.6 340 20:19 25.10.2020
6350 Clear 25 1013 53 10000 5.1 340 19:49 25.10.2020
6351 Clear 26 1013 44 10000 3.6 350 19:24 25.10.2020
6352 Clear 26 1013 41 10000 2.6 360 18:57 25.10.2020
6353 Clear 27 1013 39 10000 3.1 360 18:38 25.10.2020
6354 Clear 27 1013 39 10000 3.1 360 18:38 25.10.2020
6355 Clear 27 1013 39 10000 3.1 360 18:38 25.10.2020
6356 Clear 27 1012 36 10000 3.1 350 18:20 25.10.2020
6357 Clear 27 1012 36 10000 3.6 360 17:39 25.10.2020
6358 Clear 27 1012 36 10000 3.6 360 17:21 25.10.2020
6359 Clear 27 1012 36 10000 2.6 330 16:58 25.10.2020
6360 Clear 27 1012 36 10000 3.6 320 16:39 25.10.2020
6361 Clear 27 1012 36 10000 3.6 320 16:20 25.10.2020
6362 Clear 28 1011 34 10000 3.1 350 15:47 25.10.2020
6363 Clear 28 1011 34 10000 3.1 350 15:25 25.10.2020
6364 Clear 28 1011 30 10000 2.1 340 14:47 25.10.2020
6365 Clear 28 1011 30 10000 2.1 340 14:28 25.10.2020
6366 Clear 28 1011 34 10000 3.1 330 13:44 25.10.2020
6367 Clear 28 1011 34 10000 3.1 330 13:21 25.10.2020
6368 Clear 28 1011 34 10000 3.1 330 13:21 25.10.2020
6369 Clear 27 1012 36 10000 3.6 290 12:49 25.10.2020
6370 Clear 27 1012 36 10000 3.6 290 12:27 25.10.2020
6371 Clear 27 1013 42 10000 3.6 270 11:57 25.10.2020
6372 Clear 27 1013 42 10000 3.6 270 11:39 25.10.2020
6373 Clear 27 1013 42 10000 3.6 270 11:39 25.10.2020
6374 Clear 26 1013 47 10000 4.6 260 11:19 25.10.2020
6375 Clear 25 1013 53 10000 2.6 280 10:44 25.10.2020
6376 Clear 25 1013 53 10000 2.6 280 10:25 25.10.2020
6377 Clear 25 1013 53 10000 3.1 270 09:48 25.10.2020
6378 Clear 24 1014 57 10000 2.1 280 09:20 25.10.2020
6379 Clear 24 1014 57 10000 2.1 240 08:55 25.10.2020
6380 Clear 24 1014 60 10000 2.1 290 08:36 25.10.2020
6381 Clear 24 1014 60 10000 2.1 290 08:18 25.10.2020
6382 Clear 22 1014 68 10000 2.6 270 07:41 25.10.2020
6383 Clear 21 1013 68 10000 3.1 240 06:52 25.10.2020
6384 Clear 21 1013 68 10000 3.1 240 06:19 25.10.2020
6385 Clear 20 1013 68 10000 1.36 307 05:18 25.10.2020
6386 Clear 20 1013 72 10000 1.66 309 04:23 25.10.2020
6387 Clouds 22 1013 60 6000 1.5 300 02:21 25.10.2020
6388 Clouds 23 1013 56 6000 1.5 330 00:52 25.10.2020
6389 Clouds 23 1013 56 6000 1.5 330 00:28 25.10.2020
6390 Clouds 23 1013 56 6000 1.5 320 23:54 24.10.2020
6391 Clouds 23 1014 56 6000 1.5 320 23:31 24.10.2020
6392 Clouds 23 1014 60 10000 2.1 320 22:58 24.10.2020
6393 Clouds 23 1014 60 10000 3.6 330 22:40 24.10.2020
6394 Clouds 23 1014 57 10000 4.1 350 22:21 24.10.2020
6395 Clouds 24 1014 53 10000 3.6 340 21:44 24.10.2020
6396 Clouds 25 1014 41 10000 5.1 320 21:22 24.10.2020
6397 Clouds 25 1014 41 10000 5.1 320 20:58 24.10.2020
6398 Clouds 25 1013 38 10000 4.1 290 20:39 24.10.2020
6399 Clouds 25 1013 38 10000 4.1 290 20:20 24.10.2020
6400 Clouds 26 1013 36 10000 4.6 290 19:40 24.10.2020
6401 Clouds 26 1013 36 10000 4.6 290 19:22 24.10.2020
6402 Clouds 26 1013 36 10000 5.1 290 18:49 24.10.2020
6403 Clouds 27 1013 32 10000 4.6 290 18:28 24.10.2020
6404 Clouds 27 1012 34 10000 3.6 280 17:43 24.10.2020
6405 Clouds 28 1012 34 10000 3.6 280 17:25 24.10.2020
6406 Clouds 28 1012 32 10000 4.1 270 16:53 24.10.2020
6407 Clouds 28 1012 34 10000 4.6 250 16:34 24.10.2020
6408 Clouds 28 1012 37 6000 4.1 280 15:57 24.10.2020
6409 Clouds 28 1012 34 6000 3.1 260 15:37 24.10.2020
6410 Clouds 28 1012 34 6000 3.1 260 15:18 24.10.2020
6411 Clouds 28 1012 37 6000 3.6 270 14:38 24.10.2020
6412 Clouds 28 1012 37 6000 3.1 240 14:19 24.10.2020
6413 Clouds 27 1012 42 6000 3.1 250 13:44 24.10.2020
6414 Clouds 27 1012 42 6000 3.1 250 13:19 24.10.2020
6415 Clouds 27 1013 54 6000 2.6 240 12:37 24.10.2020
6416 Clouds 26 1014 61 6000 1.5 270 12:19 24.10.2020
6417 Clouds 26 1014 61 6000 1.5 270 11:50 24.10.2020
6418 Clouds 26 1014 61 6000 3.1 260 11:23 24.10.2020
6419 Clouds 25 1015 65 6000 3.6 280 10:47 24.10.2020
6420 Clouds 25 1015 65 6000 3.6 280 10:27 24.10.2020
6421 Mist 24 1015 73 4000 4.1 280 09:46 24.10.2020
6422 Mist 24 1015 73 4000 3.1 310 09:26 24.10.2020
6423 Mist 23 1015 78 4000 3.6 290 08:58 24.10.2020
6424 Mist 22 1015 83 4000 3.1 270 08:19 24.10.2020
6425 Mist 22 1014 83 3000 3.1 270 07:51 24.10.2020
6426 Mist 22 1014 83 3000 3.1 290 07:21 24.10.2020
6427 Mist 22 1014 83 3000 2.1 280 06:51 24.10.2020
6428 Mist 22 1014 83 3000 2.1 280 05:47 24.10.2020
6429 Clear 22 1013 83 6000 3.6 280 02:28 24.10.2020
6430 Clear 23 1014 78 6000 2.6 280 00:59 24.10.2020
6431 Clear 23 1014 78 6000 2.6 270 00:39 24.10.2020
6432 Clear 23 1014 78 6000 2.6 270 00:21 24.10.2020
6433 Clear 23 1014 73 6000 4.6 290 23:43 23.10.2020
6434 Clear 23 1014 73 6000 4.6 290 23:23 23.10.2020
6435 Clear 23 1014 73 6000 4.6 290 23:23 23.10.2020
6436 Clear 24 1014 73 6000 2.6 270 22:56 23.10.2020
6437 Clear 24 1015 69 6000 2.6 260 22:36 23.10.2020
6438 Clear 24 1015 69 6000 2.6 260 22:18 23.10.2020
6439 Clear 26 1015 47 6000 4.1 280 21:39 23.10.2020
6440 Clear 26 1015 47 6000 4.1 280 21:21 23.10.2020
6441 Clear 28 1014 39 6000 4.1 260 20:39 23.10.2020
6442 Clear 28 1014 39 6000 4.1 260 20:20 23.10.2020
6443 Clear 28 1014 34 6000 2.6 260 19:48 23.10.2020
6444 Clear 28 1014 37 6000 1 330 19:30 23.10.2020
6445 Clouds 29 1014 28 10000 1.5 240 18:52 23.10.2020
6446 Clouds 29 1014 26 10000 1.5 220 18:30 23.10.2020
6447 Clouds 29 1013 26 10000 2.6 200 17:48 23.10.2020
6448 Clouds 30 1013 25 10000 3.6 230 17:24 23.10.2020
6449 Clouds 31 1013 22 10000 4.1 210 16:56 23.10.2020
6450 Clouds 31 1013 22 10000 4.1 210 16:56 23.10.2020
6451 Clouds 31 1013 22 10000 4.1 210 16:56 23.10.2020
6452 Clouds 31 1013 22 10000 4.1 210 16:56 23.10.2020
6453 Clouds 31 1013 22 10000 4.1 210 16:37 23.10.2020
6454 Clouds 31 1014 20 10000 3.1 200 16:18 23.10.2020
6455 Clouds 31 1014 20 10000 3.1 200 15:42 23.10.2020
6456 Clouds 31 1014 20 10000 3.1 200 15:23 23.10.2020
6457 Clouds 32 1014 19 6000 3.1 180 14:51 23.10.2020
6458 Clouds 32 1014 19 6000 3.1 180 14:33 23.10.2020
6459 Clouds 32 1014 21 6000 3.1 180 13:56 23.10.2020
6460 Haze 32 1014 27 4000 1.5 280 13:37 23.10.2020
6461 Haze 28 1016 51 4000 1.5 20 13:18 23.10.2020
6462 Haze 28 1016 51 4000 1.5 20 12:42 23.10.2020
6463 Haze 27 1016 65 4000 1 320 12:23 23.10.2020
6464 Haze 27 1016 65 4000 1 320 11:46 23.10.2020
6465 Haze 27 1016 65 4000 1 320 11:21 23.10.2020
6466 Clear 26 1017 73 6000 1.5 290 10:43 23.10.2020
6467 Clear 25 1017 73 6000 1.5 290 10:25 23.10.2020
6468 Clear 25 1017 78 10000 2.1 310 09:44 23.10.2020
6469 Clear 24 1017 78 10000 2.1 310 09:26 23.10.2020
6470 Clear 24 1017 78 10000 2.1 290 08:52 23.10.2020
6471 Clear 24 1017 73 10000 3.1 290 08:30 23.10.2020
6472 Clear 22 1016 78 10000 1.5 250 07:33 23.10.2020
6473 Clear 21 1016 77 10000 1.5 200 06:57 23.10.2020
6474 Clear 22 1015 73 10000 2.6 110 06:20 23.10.2020
6475 Clear 21 1015 77 10000 3.88 33 04:56 23.10.2020
6476 Clear 23 1015 73 10000 5.1 70 02:32 23.10.2020
6477 Clear 23 1015 78 10000 5.7 60 01:23 23.10.2020
6478 Clear 24 1016 78 10000 5.1 20 00:42 23.10.2020
6479 Clear 24 1016 73 10000 6.2 60 23:45 22.10.2020
6480 Clear 24 1016 73 10000 6.7 60 23:24 22.10.2020
6481 Clear 24 1017 73 10000 5.1 40 22:48 22.10.2020
6482 Clear 25 1017 69 10000 6.2 70 22:27 22.10.2020
6483 Clear 25 1017 69 10000 5.7 70 21:58 22.10.2020
6484 Clear 26 1017 65 10000 6.7 80 21:40 22.10.2020
6485 Clear 26 1017 61 10000 7.2 70 21:20 22.10.2020
6486 Clear 27 1017 54 10000 8.2 50 20:45 22.10.2020
6487 Clear 27 1017 54 10000 8.2 50 20:25 22.10.2020
6488 Clear 29 1016 26 10000 2.1 10 19:58 22.10.2020
6489 Clear 29 1016 26 10000 2.1 10 19:39 22.10.2020
6490 Clear 29 1016 26 10000 2.1 10 19:18 22.10.2020
6491 Clouds 30 1016 25 10000 2.1 330 18:41 22.10.2020
6492 Clouds 30 1016 25 10000 2.1 330 18:19 22.10.2020
6493 Clouds 30 1016 19 10000 3.1 320 17:45 22.10.2020
6494 Clouds 30 1016 19 10000 3.1 320 17:22 22.10.2020
6495 Clouds 31 1016 20 10000 4.1 320 16:45 22.10.2020
6496 Clouds 31 1016 23 10000 2.6 330 16:25 22.10.2020
6497 Clouds 31 1016 23 10000 2.6 330 16:25 22.10.2020
6498 Clouds 31 1016 23 10000 2.6 350 15:50 22.10.2020
6499 Clouds 31 1016 27 10000 2.6 10 15:27 22.10.2020
6500 Clouds 32 1016 25 10000 1 70 14:58 22.10.2020
6501 Clear 31 1016 33 10000 3.6 20 14:38 22.10.2020
6502 Clear 30 1016 33 10000 3.6 20 14:20 22.10.2020
6503 Clear 30 1017 37 10000 2.6 20 13:43 22.10.2020
6504 Clear 30 1017 37 10000 2.6 20 13:22 22.10.2020
6505 Clear 29 1018 45 10000 4.6 40 12:43 22.10.2020
6506 Clear 29 1018 45 10000 4.6 40 12:22 22.10.2020
6507 Clear 28 1018 54 10000 5.7 50 11:45 22.10.2020
6508 Clear 28 1018 54 10000 5.7 50 11:19 22.10.2020
6509 Clear 26 1019 61 10000 7.2 50 10:49 22.10.2020
6510 Clear 26 1019 61 10000 7.2 50 10:25 22.10.2020
6511 Clear 25 1019 69 10000 7.2 50 09:44 22.10.2020
6512 Clear 25 1019 69 10000 7.2 50 09:25 22.10.2020
6513 Clear 23 1018 83 10000 5.1 70 08:47 22.10.2020
6514 Clear 23 1018 83 10000 5.1 70 08:27 22.10.2020
6515 Clear 21 1018 88 6000 2.6 30 07:48 22.10.2020
6516 Clear 21 1018 88 6000 2.6 30 07:29 22.10.2020
6517 Clear 20 1018 88 6000 1.5 20 06:46 22.10.2020
6518 Clear 20 1018 88 6000 1.5 20 06:25 22.10.2020
6519 Clear 20 1018 88 10000 2.6 40 05:39 22.10.2020
6520 Clear 20 1017 88 10000 2.6 70 03:37 22.10.2020
6521 Clear 21 1018 83 10000 3.1 50 01:35 22.10.2020
6522 Clear 22 1018 78 10000 4.6 40 00:24 22.10.2020
6523 Clear 23 1018 73 10000 5.7 50 23:47 21.10.2020
6524 Clear 23 1018 73 10000 5.7 50 23:28 21.10.2020
6525 Clear 23 1018 73 10000 5.7 70 22:40 21.10.2020
6526 Clear 23 1018 73 10000 5.7 70 22:19 21.10.2020
6527 Clear 24 1018 64 10000 7.2 60 21:56 21.10.2020
6528 Clear 24 1018 64 10000 7.2 60 21:37 21.10.2020
6529 Clear 24 1018 64 10000 8.2 60 21:18 21.10.2020
6530 Clear 24 1018 64 10000 8.2 60 20:45 21.10.2020
6531 Clear 24 1018 61 10000 8.7 50 20:18 21.10.2020
6532 Clear 25 1018 61 10000 8.7 50 19:43 21.10.2020
6533 Clear 25 1018 61 10000 8.7 50 19:25 21.10.2020
6534 Clear 25 1018 61 10000 8.7 30 18:54 21.10.2020
6535 Clear 26 1017 54 10000 8.7 30 18:31 21.10.2020
6536 Clouds 27 1017 51 10000 10.8 30 17:54 21.10.2020
6537 Clouds 27 1017 51 10000 10.8 30 17:36 21.10.2020
6538 Clouds 27 1017 54 6000 10.8 40 17:18 21.10.2020
6539 Clouds 27 1017 54 6000 10.8 40 16:40 21.10.2020
6540 Clouds 28 1017 51 6000 11.3 30 16:20 21.10.2020
6541 Clouds 28 1017 51 6000 11.3 30 15:48 21.10.2020
6542 Clouds 28 1017 51 6000 11.3 30 15:28 21.10.2020
6543 Clouds 29 1016 51 6000 12.3 10 14:57 21.10.2020
6544 Clouds 29 1016 51 6000 12.3 10 14:38 21.10.2020
6545 Clouds 31 1016 35 10000 9.3 20 14:19 21.10.2020
6546 Clouds 31 1016 35 10000 9.3 20 13:42 21.10.2020
6547 Clouds 29 1017 48 10000 8.7 40 13:21 21.10.2020
6548 Clouds 29 1017 48 10000 8.7 40 12:41 21.10.2020
6549 Clouds 29 1017 51 10000 7.7 40 12:21 21.10.2020
6550 Clouds 28 1017 58 10000 7.2 40 11:47 21.10.2020
6551 Clouds 28 1017 58 10000 7.2 40 11:21 21.10.2020
6552 Clouds 28 1017 58 10000 7.2 40 10:58 21.10.2020
6553 Clouds 27 1017 65 10000 7.2 40 10:40 21.10.2020
6554 Clouds 27 1017 65 10000 7.2 50 10:20 21.10.2020
6555 Clouds 26 1017 74 10000 7.2 60 09:44 21.10.2020
6556 Clouds 26 1017 74 10000 7.2 60 09:25 21.10.2020
6557 Clouds 24 1017 94 10000 5.7 60 08:40 21.10.2020
6558 Clouds 23 1016 100 10000 4.6 60 08:22 21.10.2020
6559 Clouds 22 1016 100 10000 4.6 60 07:55 21.10.2020
6560 Clouds 22 1016 100 10000 3.6 40 07:20 21.10.2020
6561 Clouds 22 1016 100 10000 3.6 30 06:46 21.10.2020
6562 Clouds 22 1016 100 10000 4.1 40 06:24 21.10.2020
6563 Clouds 23 1016 94 10000 5.1 30 03:38 21.10.2020
6564 Clouds 24 1017 88 10000 5.7 40 00:31 21.10.2020
6565 Clouds 24 1017 83 10000 5.7 40 23:35 20.10.2020
6566 Clear 25 1017 78 10000 7.7 30 22:47 20.10.2020
6567 Clear 25 1017 78 10000 7.7 30 22:25 20.10.2020
6568 Clear 25 1017 73 10000 7.2 30 21:48 20.10.2020
6569 Clear 26 1016 65 10000 8.7 30 21:20 20.10.2020
6570 Clear 26 1016 54 10000 7.2 20 20:44 20.10.2020
6571 Clear 27 1016 45 10000 7.2 30 20:24 20.10.2020
6572 Clear 28 1016 45 10000 7.2 30 19:57 20.10.2020
6573 Clear 29 1015 45 10000 6.2 30 19:38 20.10.2020
6574 Clear 29 1015 42 10000 7.2 30 19:20 20.10.2020
6575 Clear 29 1015 37 10000 7.2 20 18:44 20.10.2020
6576 Clear 30 1015 37 10000 7.2 20 18:25 20.10.2020
6577 Clear 31 1015 35 10000 6.7 20 17:41 20.10.2020
6578 Clouds 32 1014 29 10000 6.2 10 17:23 20.10.2020
6579 Clouds 32 1014 29 10000 5.1 20 16:43 20.10.2020
6580 Clouds 32 1014 29 10000 5.1 20 16:43 20.10.2020
6581 Clouds 32 1014 29 10000 5.7 30 16:24 20.10.2020
6582 Clouds 32 1014 31 10000 5.7 30 15:49 20.10.2020
6583 Clouds 32 1014 31 10000 5.7 30 15:30 20.10.2020
6584 Clouds 32 1015 31 10000 5.1 30 14:55 20.10.2020
6585 Clouds 32 1015 35 10000 6.2 20 14:36 20.10.2020
6586 Clear 32 1015 35 10000 7.2 20 14:18 20.10.2020
6587 Clear 31 1016 38 10000 6.7 30 13:41 20.10.2020
6588 Clear 31 1016 38 10000 6.7 30 13:21 20.10.2020
6589 Clouds 31 1016 38 10000 6.2 30 12:54 20.10.2020
6590 Clouds 31 1016 38 10000 6.2 30 12:31 20.10.2020
6591 Clouds 30 1017 51 10000 5.1 40 11:48 20.10.2020
6592 Clouds 29 1017 51 10000 5.1 40 11:30 20.10.2020
6593 Clouds 28 1017 54 10000 4.6 50 10:58 20.10.2020
6594 Clouds 28 1017 58 10000 5.1 50 10:28 20.10.2020
6595 Clouds 26 1017 74 10000 6.7 50 09:50 20.10.2020
6596 Clouds 25 1017 83 10000 7.7 60 09:20 20.10.2020
6597 Clouds 25 1017 83 10000 7.7 60 08:57 20.10.2020
6598 Clouds 23 1017 94 10000 6.2 50 08:30 20.10.2020
6599 Clouds 23 1017 100 6000 4.1 60 07:50 20.10.2020
6600 Clouds 23 1017 100 6000 4.1 60 07:25 20.10.2020
6601 Clouds 22 1016 94 6000 4.1 30 06:25 20.10.2020
6602 Clear 22 1016 88 10000 4.6 20 05:21 20.10.2020
6603 Clear 23 1017 83 10000 6.2 50 02:44 20.10.2020
6604 Clear 24 1017 83 10000 6.2 50 02:18 20.10.2020
6605 Clouds 24 1017 83 10000 6.2 40 00:57 20.10.2020
6606 Clouds 24 1017 83 10000 7.2 20 00:39 20.10.2020
6607 Clouds 24 1017 83 10000 7.7 30 00:19 20.10.2020
6608 Clouds 24 1017 83 10000 6.7 40 23:40 19.10.2020
6609 Clear 24 1017 83 10000 6.2 40 23:19 19.10.2020
6610 Clear 24 1017 78 10000 7.2 30 22:43 19.10.2020
6611 Clear 24 1017 78 10000 7.7 30 22:21 19.10.2020
6612 Clear 25 1017 69 10000 8.2 30 21:43 19.10.2020
6613 Clear 25 1017 69 10000 9.3 30 21:21 19.10.2020
6614 Clear 26 1017 50 10000 8.7 30 20:46 19.10.2020
6615 Clear 26 1017 50 10000 8.7 30 20:27 19.10.2020
6616 Clear 29 1016 37 10000 8.2 20 19:48 19.10.2020
6617 Clear 30 1015 30 10000 7.2 20 19:22 19.10.2020
6618 Clear 31 1015 27 10000 5.7 20 18:54 19.10.2020
6619 Clear 31 1015 27 10000 5.7 20 18:35 19.10.2020
6620 Clear 31 1015 27 10000 6.2 20 17:58 19.10.2020
6621 Clear 32 1015 22 10000 8.2 30 17:40 19.10.2020
6622 Clear 33 1015 22 10000 8.2 30 17:21 19.10.2020
6623 Clear 33 1015 24 10000 7.2 40 16:43 19.10.2020
6624 Clear 33 1015 22 10000 8.2 50 16:22 19.10.2020
6625 Clear 35 1014 16 10000 6.48 57 15:41 19.10.2020
6626 Clear 35 1014 16 10000 6.49 60 15:23 19.10.2020
6627 Clear 35 1014 16 10000 6.49 60 14:51 19.10.2020
6628 Clear 35 1014 17 10000 6.6 61 14:24 19.10.2020
6629 Clear 35 1014 17 10000 6.6 61 13:52 19.10.2020
6630 Clear 35 1014 17 10000 6.61 62 13:32 19.10.2020
6631 Clear 35 1015 18 10000 6.7 62 12:51 19.10.2020
6632 Clear 35 1015 18 10000 6.7 62 12:33 19.10.2020
6633 Clear 34 1015 22 10000 6.92 61 11:51 19.10.2020
6634 Clear 34 1015 22 10000 6.92 61 11:51 19.10.2020
6635 Clouds 27 1017 61 10000 8.7 60 11:25 19.10.2020
6636 Clouds 27 1017 61 10000 8.7 60 10:56 19.10.2020
6637 Clouds 27 1017 61 10000 8.7 60 10:38 19.10.2020
6638 Clouds 27 1017 61 10000 8.7 60 10:19 19.10.2020
6639 Clouds 25 1017 73 10000 8.7 50 09:42 19.10.2020
6640 Clouds 24 1017 73 10000 8.7 50 09:19 19.10.2020
6641 Clear 24 1017 73 10000 9.3 60 08:48 19.10.2020
6642 Clear 23 1017 83 10000 8.2 50 08:23 19.10.2020
6643 Clear 22 1016 88 6000 5.1 50 07:39 19.10.2020
6644 Clear 22 1016 88 6000 5.1 50 07:18 19.10.2020
6645 Clear 21 1016 94 10000 5.1 30 06:18 19.10.2020
6646 Clear 22 1016 83 10000 6.2 40 03:48 19.10.2020
6647 Clear 23 1016 78 10000 6.7 40 02:28 19.10.2020
6648 Clear 23 1016 83 10000 5.7 40 00:50 19.10.2020
6649 Clear 23 1016 83 10000 5.7 40 00:24 19.10.2020
6650 Clear 23 1016 78 10000 5.1 40 23:47 18.10.2020
6651 Clear 23 1016 78 10000 5.7 30 23:24 18.10.2020
6652 Clear 23 1016 78 10000 6.2 30 22:52 18.10.2020
6653 Clear 23 1016 78 10000 6.2 30 22:22 18.10.2020
6654 Clear 23 1016 78 10000 6.2 40 21:55 18.10.2020
6655 Clear 24 1015 73 10000 6.7 30 21:36 18.10.2020
6656 Clear 24 1015 73 10000 7.7 30 21:18 18.10.2020
6657 Clear 25 1015 65 10000 8.2 20 20:40 18.10.2020
6658 Clear 25 1015 65 10000 8.2 20 20:19 18.10.2020
6659 Clear 27 1014 51 10000 7.2 30 19:43 18.10.2020
6660 Clear 27 1014 51 10000 7.2 30 19:25 18.10.2020
6661 Clear 28 1014 48 10000 6.2 20 18:48 18.10.2020
6662 Clear 29 1014 42 10000 6.7 20 18:27 18.10.2020
6663 Clear 30 1013 35 10000 6.7 20 17:43 18.10.2020
6664 Clear 30 1013 35 10000 6.7 20 17:25 18.10.2020
6665 Clear 31 1013 38 10000 5.7 20 16:46 18.10.2020
6666 Clear 31 1013 38 10000 5.7 20 16:27 18.10.2020
6667 Clear 31 1013 38 10000 6.2 10 15:59 18.10.2020
6668 Clear 31 1013 38 10000 6.2 10 15:41 18.10.2020
6669 Clear 31 1013 38 10000